<?xml version='1.0' encoding='UTF-8'?><gpx version="1.1" creator="JPX - https://github.com/jenetics/jpx" xmlns="http://www.topografix.com/GPX/1/1"><trk><trkseg><trkpt lat="44.830500769184845" lon="4.809386905799508"><ele>97.0</ele><time>2026-04-08T15:22:41Z</time></trkpt><trkpt lat="44.83058063839342" lon="4.809382569686893"><ele>97.0</ele><time>2026-04-08T15:22:52Z</time></trkpt><trkpt lat="44.83063948518078" lon="4.809310611559646"><ele>97.0</ele><time>2026-04-08T15:22:56Z</time></trkpt><trkpt lat="44.830705578919606" lon="4.809244773137097"><ele>97.0</ele><time>2026-04-08T15:22:59Z</time></trkpt><trkpt lat="44.830758042259426" lon="4.8091940224597"><ele>97.0</ele><time>2026-04-08T15:23:01Z</time></trkpt><trkpt lat="44.83081620227448" lon="4.809144779903555"><ele>97.0</ele><time>2026-04-08T15:23:03Z</time></trkpt><trkpt lat="44.83087215313748" lon="4.809089492911079"><ele>97.0</ele><time>2026-04-08T15:23:05Z</time></trkpt><trkpt lat="44.830930055403854" lon="4.80903551077246"><ele>97.00000000000001</ele><time>2026-04-08T15:23:07Z</time></trkpt><trkpt lat="44.83099627115252" lon="4.809007777401679"><ele>97.0</ele><time>2026-04-08T15:23:09Z</time></trkpt><trkpt lat="44.83106384807774" lon="4.8089896407435"><ele>97.0</ele><time>2026-04-08T15:23:11Z</time></trkpt><trkpt lat="44.83115791982261" lon="4.808921828744872"><ele>97.0</ele><time>2026-04-08T15:23:13Z</time></trkpt><trkpt lat="44.83122458898779" lon="4.80883680883025"><ele>97.00000000000001</ele><time>2026-04-08T15:23:15Z</time></trkpt><trkpt lat="44.83130801794094" lon="4.8087656173178335"><ele>97.0</ele><time>2026-04-08T15:23:17Z</time></trkpt><trkpt lat="44.831377876345364" lon="4.808689192577221"><ele>97.0</ele><time>2026-04-08T15:23:19Z</time></trkpt><trkpt lat="44.83145059081212" lon="4.8086141777403375"><ele>97.0</ele><time>2026-04-08T15:23:21Z</time></trkpt><trkpt lat="44.83151997692851" lon="4.808560027136008"><ele>97.0</ele><time>2026-04-08T15:23:23Z</time></trkpt><trkpt lat="44.831575628105405" lon="4.808503789322054"><ele>97.0</ele><time>2026-04-08T15:23:25Z</time></trkpt><trkpt lat="44.831633347811184" lon="4.8084510239577885"><ele>97.0</ele><time>2026-04-08T15:23:27Z</time></trkpt><trkpt lat="44.83168064336731" lon="4.8083872763617785"><ele>97.0</ele><time>2026-04-08T15:23:29Z</time></trkpt><trkpt lat="44.831742357495465" lon="4.808322159722542"><ele>97.0</ele><time>2026-04-08T15:23:32Z</time></trkpt><trkpt lat="44.83169993946337" lon="4.808199755885613"><ele>97.33333333333334</ele><time>2026-04-08T15:23:35Z</time></trkpt><trkpt lat="44.83166189237244" lon="4.8081223655165095"><ele>97.66666666666667</ele><time>2026-04-08T15:23:37Z</time></trkpt><trkpt lat="44.83164274812956" lon="4.808022566056846"><ele>98.0</ele><time>2026-04-08T15:23:39Z</time></trkpt><trkpt lat="44.83158861962174" lon="4.80793156528481"><ele>98.33333333333334</ele><time>2026-04-08T15:23:41Z</time></trkpt><trkpt lat="44.83153237920147" lon="4.807843064152326"><ele>98.66666666666667</ele><time>2026-04-08T15:23:43Z</time></trkpt><trkpt lat="44.83147001047873" lon="4.807745430912515"><ele>99.0</ele><time>2026-04-08T15:23:45Z</time></trkpt><trkpt lat="44.83139301578792" lon="4.8076687379302045"><ele>99.80000000000001</ele><time>2026-04-08T15:23:47Z</time></trkpt><trkpt lat="44.83131070423349" lon="4.807597497415322"><ele>100.60000000000001</ele><time>2026-04-08T15:23:49Z</time></trkpt><trkpt lat="44.83124223282745" lon="4.807506396428709"><ele>101.4</ele><time>2026-04-08T15:23:51Z</time></trkpt><trkpt lat="44.83115472955231" lon="4.8074423238869635"><ele>102.2</ele><time>2026-04-08T15:23:53Z</time></trkpt><trkpt lat="44.83107697417694" lon="4.807364319607307"><ele>103.0</ele><time>2026-04-08T15:23:55Z</time></trkpt><trkpt lat="44.83100258110998" lon="4.8072946584254455"><ele>102.0</ele><time>2026-04-08T15:23:57Z</time></trkpt><trkpt lat="44.8309139910143" lon="4.807219836747209"><ele>101.0</ele><time>2026-04-08T15:23:59Z</time></trkpt><trkpt lat="44.830817092340446" lon="4.807146048433366"><ele>100.0</ele><time>2026-04-08T15:24:01Z</time></trkpt><trkpt lat="44.83072470178769" lon="4.807083114204414"><ele>99.0</ele><time>2026-04-08T15:24:03Z</time></trkpt><trkpt lat="44.83064625723973" lon="4.806993339729802"><ele>98.0</ele><time>2026-04-08T15:24:05Z</time></trkpt><trkpt lat="44.83055736875062" lon="4.806929822848933"><ele>98.0</ele><time>2026-04-08T15:24:07Z</time></trkpt><trkpt lat="44.83046743802241" lon="4.806858829767065"><ele>98.0</ele><time>2026-04-08T15:24:09Z</time></trkpt><trkpt lat="44.83037895300158" lon="4.806758376923681"><ele>98.0</ele><time>2026-04-08T15:24:11Z</time></trkpt><trkpt lat="44.83028805196245" lon="4.806699102579382"><ele>98.0</ele><time>2026-04-08T15:24:13Z</time></trkpt><trkpt lat="44.83019161117886" lon="4.806621306901437"><ele>98.0</ele><time>2026-04-08T15:24:15Z</time></trkpt><trkpt lat="44.83010255208082" lon="4.806534594535816"><ele>98.75</ele><time>2026-04-08T15:24:17Z</time></trkpt><trkpt lat="44.83000314216254" lon="4.806448187335869"><ele>99.5</ele><time>2026-04-08T15:24:19Z</time></trkpt><trkpt lat="44.82990663860763" lon="4.806366148003932"><ele>100.25</ele><time>2026-04-08T15:24:21Z</time></trkpt><trkpt lat="44.82980853057503" lon="4.806281587371935"><ele>101.0</ele><time>2026-04-08T15:24:23Z</time></trkpt><trkpt lat="44.829711102456294" lon="4.806203032993866"><ele>101.0</ele><time>2026-04-08T15:24:25Z</time></trkpt><trkpt lat="44.82961860307619" lon="4.806125607635446"><ele>101.0</ele><time>2026-04-08T15:24:27Z</time></trkpt><trkpt lat="44.829521647033395" lon="4.806048695436134"><ele>101.0</ele><time>2026-04-08T15:24:29Z</time></trkpt><trkpt lat="44.829417388088" lon="4.805978830543007"><ele>101.0</ele><time>2026-04-08T15:24:31Z</time></trkpt><trkpt lat="44.829313679330646" lon="4.805902638104753"><ele>102.5</ele><time>2026-04-08T15:24:33Z</time></trkpt><trkpt lat="44.82920819518839" lon="4.805842927922598"><ele>104.0</ele><time>2026-04-08T15:24:34.999Z</time></trkpt><trkpt lat="44.82910391998336" lon="4.8057759344400415"><ele>105.5</ele><time>2026-04-08T15:24:36.999Z</time></trkpt><trkpt lat="44.82899587426028" lon="4.805722765063584"><ele>107.0</ele><time>2026-04-08T15:24:38.999Z</time></trkpt><trkpt lat="44.82889776045951" lon="4.805657911222708"><ele>107.0</ele><time>2026-04-08T15:24:40.999Z</time></trkpt><trkpt lat="44.82879844737175" lon="4.805597226451899"><ele>106.99999999999999</ele><time>2026-04-08T15:24:42.999Z</time></trkpt><trkpt lat="44.82869621618784" lon="4.80553081800574"><ele>106.99999999999999</ele><time>2026-04-08T15:24:44.999Z</time></trkpt><trkpt lat="44.828612583201036" lon="4.8054762946551355"><ele>107.0</ele><time>2026-04-08T15:24:46.999Z</time></trkpt><trkpt lat="44.82853071514652" lon="4.805385282447091"><ele>107.0</ele><time>2026-04-08T15:24:48.999Z</time></trkpt><trkpt lat="44.8284332984026" lon="4.80531339778495"><ele>107.8</ele><time>2026-04-08T15:24:50.999Z</time></trkpt><trkpt lat="44.82834006190446" lon="4.805222281751922"><ele>108.6</ele><time>2026-04-08T15:24:52.999Z</time></trkpt><trkpt lat="44.8282608113013" lon="4.805119108934755"><ele>109.39999999999999</ele><time>2026-04-08T15:24:54.999Z</time></trkpt><trkpt lat="44.828186619223594" lon="4.805024646152638"><ele>110.19999999999999</ele><time>2026-04-08T15:24:56.999Z</time></trkpt><trkpt lat="44.828084451161835" lon="4.804992315277999"><ele>111.0</ele><time>2026-04-08T15:24:58.999Z</time></trkpt><trkpt lat="44.82798705371164" lon="4.804913645859545"><ele>111.0</ele><time>2026-04-08T15:25:00.999Z</time></trkpt><trkpt lat="44.82789486837937" lon="4.804830591182747"><ele>111.0</ele><time>2026-04-08T15:25:02.999Z</time></trkpt><trkpt lat="44.82780772023612" lon="4.804756610946446"><ele>111.0</ele><time>2026-04-08T15:25:04.999Z</time></trkpt><trkpt lat="44.82771088771988" lon="4.804667339003895"><ele>111.0</ele><time>2026-04-08T15:25:06.999Z</time></trkpt><trkpt lat="44.827624679580545" lon="4.804587689645504"><ele>111.0</ele><time>2026-04-08T15:25:08.999Z</time></trkpt><trkpt lat="44.827537388488" lon="4.804505027840267"><ele>110.8</ele><time>2026-04-08T15:25:10.999Z</time></trkpt><trkpt lat="44.82745410920295" lon="4.804409628508421"><ele>110.6</ele><time>2026-04-08T15:25:12.999Z</time></trkpt><trkpt lat="44.82737411529675" lon="4.804321930634118"><ele>110.4</ele><time>2026-04-08T15:25:14.999Z</time></trkpt><trkpt lat="44.82730008759043" lon="4.8042384097083515"><ele>110.2</ele><time>2026-04-08T15:25:16.999Z</time></trkpt><trkpt lat="44.82723084965575" lon="4.804161660065085"><ele>110.0</ele><time>2026-04-08T15:25:18.999Z</time></trkpt><trkpt lat="44.82716266083406" lon="4.804071294616007"><ele>109.99999999999999</ele><time>2026-04-08T15:25:20.999Z</time></trkpt><trkpt lat="44.827105334081416" lon="4.804001006510862"><ele>110.0</ele><time>2026-04-08T15:25:22.999Z</time></trkpt><trkpt lat="44.82705437094475" lon="4.803927320619504"><ele>110.0</ele><time>2026-04-08T15:25:24.999Z</time></trkpt><trkpt lat="44.826988861571" lon="4.803854678504408"><ele>110.0</ele><time>2026-04-08T15:25:26.999Z</time></trkpt><trkpt lat="44.826931216391614" lon="4.803753268946805"><ele>109.99999999999999</ele><time>2026-04-08T15:25:28.999Z</time></trkpt><trkpt lat="44.82685636431902" lon="4.80367450576842"><ele>110.0</ele><time>2026-04-08T15:25:30.999Z</time></trkpt><trkpt lat="44.826775355618246" lon="4.803582234025102"><ele>108.8</ele><time>2026-04-08T15:25:32.999Z</time></trkpt><trkpt lat="44.82671903948775" lon="4.803479450111463"><ele>107.6</ele><time>2026-04-08T15:25:34.999Z</time></trkpt><trkpt lat="44.826653057433404" lon="4.803387246795295"><ele>106.4</ele><time>2026-04-08T15:25:36.999Z</time></trkpt><trkpt lat="44.826588262166965" lon="4.803306500672164"><ele>105.2</ele><time>2026-04-08T15:25:38.999Z</time></trkpt><trkpt lat="44.826527637858796" lon="4.8032094151416125"><ele>104.0</ele><time>2026-04-08T15:25:40.999Z</time></trkpt><trkpt lat="44.82646980082709" lon="4.80311738078763"><ele>103.99999999999999</ele><time>2026-04-08T15:25:42.999Z</time></trkpt><trkpt lat="44.82640047882159" lon="4.803029551534225"><ele>104.0</ele><time>2026-04-08T15:25:44.999Z</time></trkpt><trkpt lat="44.826342143902956" lon="4.802926952728826"><ele>104.0</ele><time>2026-04-08T15:25:46.999Z</time></trkpt><trkpt lat="44.82628472609205" lon="4.802843518065717"><ele>104.0</ele><time>2026-04-08T15:25:48.999Z</time></trkpt><trkpt lat="44.82622118566882" lon="4.802816558603751"><ele>103.99999999999999</ele><time>2026-04-08T15:25:50.999Z</time></trkpt><trkpt lat="44.826159013315674" lon="4.8028518497209065"><ele>104.0</ele><time>2026-04-08T15:25:52.999Z</time></trkpt><trkpt lat="44.8260880162088" lon="4.802844955599895"><ele>104.0</ele><time>2026-04-08T15:25:54.999Z</time></trkpt><trkpt lat="44.826011812630746" lon="4.80281625338378"><ele>104.0</ele><time>2026-04-08T15:25:56.999Z</time></trkpt><trkpt lat="44.825937388546265" lon="4.80286499377913"><ele>104.0</ele><time>2026-04-08T15:25:58.999Z</time></trkpt><trkpt lat="44.825847712489534" lon="4.802976849710516"><ele>104.0</ele><time>2026-04-08T15:26:03.999Z</time></trkpt><trkpt lat="44.825785129432425" lon="4.803026330271586"><ele>104.0</ele><time>2026-04-08T15:26:04.999Z</time></trkpt><trkpt lat="44.82567784287301" lon="4.803067971388054"><ele>103.0</ele><time>2026-04-08T15:26:06.999Z</time></trkpt><trkpt lat="44.825604803675134" lon="4.802948544704634"><ele>102.0</ele><time>2026-04-08T15:26:08.999Z</time></trkpt><trkpt lat="44.82556876504188" lon="4.802815713089052"><ele>101.0</ele><time>2026-04-08T15:26:10.999Z</time></trkpt><trkpt lat="44.82552065402593" lon="4.802704816705192"><ele>100.0</ele><time>2026-04-08T15:26:12.999Z</time></trkpt><trkpt lat="44.82547261089756" lon="4.80260843952718"><ele>99.0</ele><time>2026-04-08T15:26:14.999Z</time></trkpt><trkpt lat="44.825427291502955" lon="4.802514584392359"><ele>98.83333333333333</ele><time>2026-04-08T15:26:16.999Z</time></trkpt><trkpt lat="44.825391984944844" lon="4.802404283841552"><ele>98.66666666666666</ele><time>2026-04-08T15:26:18.999Z</time></trkpt><trkpt lat="44.8253424599808" lon="4.802291402931737"><ele>98.5</ele><time>2026-04-08T15:26:20.999Z</time></trkpt><trkpt lat="44.82527561694345" lon="4.802216994820303"><ele>98.33333333333333</ele><time>2026-04-08T15:26:22.999Z</time></trkpt><trkpt lat="44.825213454432735" lon="4.802150438234525"><ele>98.16666666666666</ele><time>2026-04-08T15:26:24.999Z</time></trkpt><trkpt lat="44.82516164274757" lon="4.80207916465091"><ele>98.0</ele><time>2026-04-08T15:26:26.999Z</time></trkpt><trkpt lat="44.82510999959392" lon="4.802001267452176"><ele>97.83333333333333</ele><time>2026-04-08T15:26:28.999Z</time></trkpt><trkpt lat="44.82504444221407" lon="4.801926250854744"><ele>97.66666666666666</ele><time>2026-04-08T15:26:30.999Z</time></trkpt><trkpt lat="44.82497716412189" lon="4.801847488423015"><ele>97.5</ele><time>2026-04-08T15:26:32.999Z</time></trkpt><trkpt lat="44.824910751070796" lon="4.801767477619314"><ele>97.33333333333334</ele><time>2026-04-08T15:26:34.999Z</time></trkpt><trkpt lat="44.82483006029597" lon="4.801691854334627"><ele>97.16666666666667</ele><time>2026-04-08T15:26:36.999Z</time></trkpt><trkpt lat="44.82475961125827" lon="4.801613839780024"><ele>97.0</ele><time>2026-04-08T15:26:38.999Z</time></trkpt><trkpt lat="44.82469129617155" lon="4.801535355031338"><ele>97.0</ele><time>2026-04-08T15:26:40.999Z</time></trkpt><trkpt lat="44.824613260580904" lon="4.801455865037673"><ele>97.0</ele><time>2026-04-08T15:26:42.999Z</time></trkpt><trkpt lat="44.824551011698965" lon="4.801366029831093"><ele>97.0</ele><time>2026-04-08T15:26:44.999Z</time></trkpt><trkpt lat="44.82446939947637" lon="4.801288768667331"><ele>97.0</ele><time>2026-04-08T15:26:46.999Z</time></trkpt><trkpt lat="44.824393740972" lon="4.801206429528718"><ele>97.0</ele><time>2026-04-08T15:26:48.999Z</time></trkpt><trkpt lat="44.824315485118355" lon="4.801117642617958"><ele>97.0</ele><time>2026-04-08T15:26:50.999Z</time></trkpt><trkpt lat="44.82424039033192" lon="4.801033946599565"><ele>97.0</ele><time>2026-04-08T15:26:52.999Z</time></trkpt><trkpt lat="44.82416258158554" lon="4.800952777288625"><ele>97.0</ele><time>2026-04-08T15:26:54.999Z</time></trkpt><trkpt lat="44.82407693281682" lon="4.800894331701392"><ele>97.0</ele><time>2026-04-08T15:26:56.999Z</time></trkpt><trkpt lat="44.823986530220544" lon="4.800848927855232"><ele>97.0</ele><time>2026-04-08T15:26:58.999Z</time></trkpt><trkpt lat="44.823890485997744" lon="4.800840214405686"><ele>97.19999999999999</ele><time>2026-04-08T15:27:00.999Z</time></trkpt><trkpt lat="44.823805706855204" lon="4.800847816236703"><ele>97.4</ele><time>2026-04-08T15:27:02.999Z</time></trkpt><trkpt lat="44.823715433665356" lon="4.80085943226744"><ele>97.6</ele><time>2026-04-08T15:27:04.999Z</time></trkpt><trkpt lat="44.823623627620734" lon="4.800870674391152"><ele>97.80000000000001</ele><time>2026-04-08T15:27:06.999Z</time></trkpt><trkpt lat="44.82352303608067" lon="4.800889485896395"><ele>98.0</ele><time>2026-04-08T15:27:08.999Z</time></trkpt><trkpt lat="44.82343179103632" lon="4.80090508277459"><ele>98.0</ele><time>2026-04-08T15:27:10.999Z</time></trkpt><trkpt lat="44.823356708843136" lon="4.800910728531559"><ele>98.0</ele><time>2026-04-08T15:27:12.999Z</time></trkpt><trkpt lat="44.82338562335736" lon="4.800830510544235"><ele>98.0</ele><time>2026-04-08T15:27:16.999Z</time></trkpt><trkpt lat="44.823453298460535" lon="4.800839288825885"><ele>98.0</ele><time>2026-04-08T15:27:18.999Z</time></trkpt><trkpt lat="44.82355023510921" lon="4.800811135155801"><ele>98.0</ele><time>2026-04-08T15:27:21.999Z</time></trkpt><trkpt lat="44.823610901760354" lon="4.800777785397197"><ele>98.0</ele><time>2026-04-08T15:27:23.999Z</time></trkpt><trkpt lat="44.82367453414284" lon="4.8007360876655225"><ele>98.0</ele><time>2026-04-08T15:27:25.999Z</time></trkpt><trkpt lat="44.82374175383925" lon="4.800689686450546"><ele>98.0</ele><time>2026-04-08T15:27:27.999Z</time></trkpt><trkpt lat="44.82382242215504" lon="4.800640803460498"><ele>98.0</ele><time>2026-04-08T15:27:29.999Z</time></trkpt><trkpt lat="44.82390393907077" lon="4.800574976790928"><ele>98.0</ele><time>2026-04-08T15:27:31.999Z</time></trkpt><trkpt lat="44.823989048238275" lon="4.800504866993275"><ele>98.0</ele><time>2026-04-08T15:27:33.999Z</time></trkpt><trkpt lat="44.824068521382664" lon="4.800443503432707"><ele>98.0</ele><time>2026-04-08T15:27:35.999Z</time></trkpt><trkpt lat="44.82414462751072" lon="4.800368932549527"><ele>97.99999999999999</ele><time>2026-04-08T15:27:37.999Z</time></trkpt><trkpt lat="44.8242178087773" lon="4.8003144891789935"><ele>98.0</ele><time>2026-04-08T15:27:39.999Z</time></trkpt><trkpt lat="44.824302660358676" lon="4.8002798125946775"><ele>98.0</ele><time>2026-04-08T15:27:41.999Z</time></trkpt><trkpt lat="44.82436510740846" lon="4.800225243623347"><ele>98.0</ele><time>2026-04-08T15:27:43.999Z</time></trkpt><trkpt lat="44.824429537438476" lon="4.8001739602367985"><ele>97.99999999999999</ele><time>2026-04-08T15:27:45.999Z</time></trkpt><trkpt lat="44.82451125226264" lon="4.800111301909623"><ele>98.0</ele><time>2026-04-08T15:27:47.999Z</time></trkpt><trkpt lat="44.82458080795593" lon="4.800054291214919"><ele>97.71428571428571</ele><time>2026-04-08T15:27:49.999Z</time></trkpt><trkpt lat="44.824652231427265" lon="4.800004796332719"><ele>97.42857142857143</ele><time>2026-04-08T15:27:51.999Z</time></trkpt><trkpt lat="44.82471739227778" lon="4.79998841288271"><ele>97.14285714285714</ele><time>2026-04-08T15:27:53.999Z</time></trkpt><trkpt lat="44.8247817558615" lon="4.799987991236828"><ele>96.85714285714286</ele><time>2026-04-08T15:27:56.999Z</time></trkpt><trkpt lat="44.824760949973225" lon="4.799899349750221"><ele>96.57142857142857</ele><time>2026-04-08T15:27:59.999Z</time></trkpt><trkpt lat="44.8247065040459" lon="4.799797927435698"><ele>96.28571428571428</ele><time>2026-04-08T15:28:02.999Z</time></trkpt><trkpt lat="44.824664563836734" lon="4.79972431288271"><ele>96.0</ele><time>2026-04-08T15:28:04.999Z</time></trkpt><trkpt lat="44.82461532337909" lon="4.799626327314049"><ele>96.0</ele><time>2026-04-08T15:28:06.999Z</time></trkpt><trkpt lat="44.82455439078848" lon="4.799519715385855"><ele>96.0</ele><time>2026-04-08T15:28:08.999Z</time></trkpt><trkpt lat="44.824503281953916" lon="4.799404099313724"><ele>96.0</ele><time>2026-04-08T15:28:10.999Z</time></trkpt><trkpt lat="44.82444558393289" lon="4.799290230671605"><ele>96.0</ele><time>2026-04-08T15:28:12.999Z</time></trkpt><trkpt lat="44.8243885813203" lon="4.799169053137732"><ele>96.0</ele><time>2026-04-08T15:28:14.999Z</time></trkpt><trkpt lat="44.82432891104778" lon="4.799053504251485"><ele>96.4</ele><time>2026-04-08T15:28:16.999Z</time></trkpt><trkpt lat="44.824269876740125" lon="4.798931488163376"><ele>96.8</ele><time>2026-04-08T15:28:18.999Z</time></trkpt><trkpt lat="44.82420761273105" lon="4.798811780385809"><ele>97.2</ele><time>2026-04-08T15:28:20.999Z</time></trkpt><trkpt lat="44.82414720681861" lon="4.798688953365328"><ele>97.60000000000001</ele><time>2026-04-08T15:28:22.999Z</time></trkpt><trkpt lat="44.824083330231126" lon="4.7985635147476975"><ele>98.0</ele><time>2026-04-08T15:28:24.999Z</time></trkpt><trkpt lat="44.82401832598941" lon="4.798439723055557"><ele>98.0</ele><time>2026-04-08T15:28:26.999Z</time></trkpt><trkpt lat="44.82395831288517" lon="4.798312421854994"><ele>98.0</ele><time>2026-04-08T15:28:28.999Z</time></trkpt><trkpt lat="44.823894548141666" lon="4.798190979672685"><ele>98.0</ele><time>2026-04-08T15:28:30.999Z</time></trkpt><trkpt lat="44.82384898806928" lon="4.7980974260927605"><ele>98.0</ele><time>2026-04-08T15:28:32.999Z</time></trkpt><trkpt lat="44.82376200985702" lon="4.7980687376646465"><ele>98.0</ele><time>2026-04-08T15:28:35.999Z</time></trkpt><trkpt lat="44.823706709414274" lon="4.798146403225402"><ele>98.0</ele><time>2026-04-08T15:28:37.999Z</time></trkpt><trkpt lat="44.8237139593668" lon="4.798250026918657"><ele>98.0</ele><time>2026-04-08T15:28:39.999Z</time></trkpt><trkpt lat="44.82368371901278" lon="4.798371718597631"><ele>98.0</ele><time>2026-04-08T15:28:42.999Z</time></trkpt><trkpt lat="44.82364739671361" lon="4.7984563073021995"><ele>98.0</ele><time>2026-04-08T15:28:44.999Z</time></trkpt><trkpt lat="44.82359621029135" lon="4.798562742463102"><ele>98.0</ele><time>2026-04-08T15:28:46.999Z</time></trkpt><trkpt lat="44.82353115359411" lon="4.798710779825967"><ele>97.83333333333333</ele><time>2026-04-08T15:28:48.999Z</time></trkpt><trkpt lat="44.82348277307346" lon="4.798795936429638"><ele>97.66666666666666</ele><time>2026-04-08T15:28:49.999Z</time></trkpt><trkpt lat="44.823439191364976" lon="4.7988934276317385"><ele>97.5</ele><time>2026-04-08T15:28:50.999Z</time></trkpt><trkpt lat="44.823393875121326" lon="4.798996453335909"><ele>97.33333333333334</ele><time>2026-04-08T15:28:51.999Z</time></trkpt><trkpt lat="44.82333481500732" lon="4.79909362245188"><ele>97.16666666666667</ele><time>2026-04-08T15:28:52.999Z</time></trkpt><trkpt lat="44.82327405505289" lon="4.799176792922567"><ele>97.0</ele><time>2026-04-08T15:28:53.999Z</time></trkpt><trkpt lat="44.823207811249404" lon="4.799251013704118"><ele>97.0</ele><time>2026-04-08T15:28:54.999Z</time></trkpt><trkpt lat="44.823147830529294" lon="4.799306853194029"><ele>97.0</ele><time>2026-04-08T15:28:55.999Z</time></trkpt><trkpt lat="44.82307934366853" lon="4.799357837797366"><ele>97.0</ele><time>2026-04-08T15:28:56.999Z</time></trkpt><trkpt lat="44.8230121662933" lon="4.799413609051775"><ele>97.0</ele><time>2026-04-08T15:28:57.999Z</time></trkpt><trkpt lat="44.822944971022096" lon="4.799465575896465"><ele>97.0</ele><time>2026-04-08T15:28:58.999Z</time></trkpt><trkpt lat="44.82289694820341" lon="4.799538451720018"><ele>97.0</ele><time>2026-04-08T15:28:59.999Z</time></trkpt><trkpt lat="44.8228297477205" lon="4.799583820104548"><ele>97.0</ele><time>2026-04-08T15:29:00.999Z</time></trkpt><trkpt lat="44.822759024573024" lon="4.799601006251652"><ele>97.25</ele><time>2026-04-08T15:29:01.999Z</time></trkpt><trkpt lat="44.82263154437436" lon="4.79962695859613"><ele>97.5</ele><time>2026-04-08T15:29:03.999Z</time></trkpt><trkpt lat="44.82252089690541" lon="4.7997017033876785"><ele>97.75</ele><time>2026-04-08T15:29:05.999Z</time></trkpt><trkpt lat="44.822413209763134" lon="4.79976696510361"><ele>98.0</ele><time>2026-04-08T15:29:07.999Z</time></trkpt><trkpt lat="44.8223105632299" lon="4.799834966017593"><ele>98.0</ele><time>2026-04-08T15:29:09.999Z</time></trkpt><trkpt lat="44.82220563978028" lon="4.7999066187789445"><ele>98.0</ele><time>2026-04-08T15:29:11.999Z</time></trkpt><trkpt lat="44.822109293904695" lon="4.800002996870182"><ele>98.0</ele><time>2026-04-08T15:29:13.999Z</time></trkpt><trkpt lat="44.82203229348484" lon="4.800133567434399"><ele>98.0</ele><time>2026-04-08T15:29:15.999Z</time></trkpt><trkpt lat="44.8219865980797" lon="4.800284634399478"><ele>97.80000000000001</ele><time>2026-04-08T15:29:17.999Z</time></trkpt><trkpt lat="44.82192211557341" lon="4.800426395192091"><ele>97.6</ele><time>2026-04-08T15:29:19.999Z</time></trkpt><trkpt lat="44.82184123123607" lon="4.800535037631921"><ele>97.4</ele><time>2026-04-08T15:29:21.999Z</time></trkpt><trkpt lat="44.82174192787419" lon="4.800591179002838"><ele>97.19999999999999</ele><time>2026-04-08T15:29:23.999Z</time></trkpt><trkpt lat="44.821640081103624" lon="4.800653205376189"><ele>97.0</ele><time>2026-04-08T15:29:25.999Z</time></trkpt><trkpt lat="44.821527938053805" lon="4.800715933646117"><ele>96.39999999999999</ele><time>2026-04-08T15:29:27.999Z</time></trkpt><trkpt lat="44.821418510540866" lon="4.800775707209944"><ele>95.8</ele><time>2026-04-08T15:29:29.999Z</time></trkpt><trkpt lat="44.82131304007558" lon="4.800821766387671"><ele>95.2</ele><time>2026-04-08T15:29:31.999Z</time></trkpt><trkpt lat="44.821217039701516" lon="4.800888733528227"><ele>94.6</ele><time>2026-04-08T15:29:33.999Z</time></trkpt><trkpt lat="44.821110704537176" lon="4.800912639496535"><ele>94.0</ele><time>2026-04-08T15:29:35.999Z</time></trkpt><trkpt lat="44.82100304567554" lon="4.800947323957795"><ele>94.0</ele><time>2026-04-08T15:29:37.999Z</time></trkpt><trkpt lat="44.82089227141749" lon="4.800969967394092"><ele>94.0</ele><time>2026-04-08T15:29:39.999Z</time></trkpt><trkpt lat="44.82078088597697" lon="4.800991008909121"><ele>94.0</ele><time>2026-04-08T15:29:41.999Z</time></trkpt><trkpt lat="44.82068658197283" lon="4.80102239326764"><ele>94.0</ele><time>2026-04-08T15:29:43.999Z</time></trkpt><trkpt lat="44.82058890093055" lon="4.801050974502599"><ele>94.0</ele><time>2026-04-08T15:29:45.999Z</time></trkpt><trkpt lat="44.820480026790676" lon="4.801061703536882"><ele>94.2</ele><time>2026-04-08T15:29:47.999Z</time></trkpt><trkpt lat="44.820373104283526" lon="4.801070568842925"><ele>94.4</ele><time>2026-04-08T15:29:49.999Z</time></trkpt><trkpt lat="44.82026686327149" lon="4.80108511780981"><ele>94.6</ele><time>2026-04-08T15:29:51.999Z</time></trkpt><trkpt lat="44.82016510020809" lon="4.8011079124044835"><ele>94.8</ele><time>2026-04-08T15:29:53.999Z</time></trkpt><trkpt lat="44.820056165989456" lon="4.801124635823623"><ele>95.0</ele><time>2026-04-08T15:29:55.999Z</time></trkpt><trkpt lat="44.8199472872308" lon="4.801135533038535"><ele>95.0</ele><time>2026-04-08T15:29:57.999Z</time></trkpt><trkpt lat="44.819837434023526" lon="4.8011409354684575"><ele>95.0</ele><time>2026-04-08T15:29:59.999Z</time></trkpt><trkpt lat="44.81973486163407" lon="4.801145582109587"><ele>95.0</ele><time>2026-04-08T15:30:01.999Z</time></trkpt><trkpt lat="44.81966795902983" lon="4.801149324169084"><ele>95.0</ele><time>2026-04-08T15:30:03.999Z</time></trkpt><trkpt lat="44.81959919846283" lon="4.80114998264097"><ele>95.0</ele><time>2026-04-08T15:30:05.999Z</time></trkpt><trkpt lat="44.81950620515877" lon="4.8011523838347"><ele>95.0</ele><time>2026-04-08T15:30:07.999Z</time></trkpt><trkpt lat="44.81940844306326" lon="4.801177343705835"><ele>95.2</ele><time>2026-04-08T15:30:09.999Z</time></trkpt><trkpt lat="44.819302771260965" lon="4.801202818767151"><ele>95.4</ele><time>2026-04-08T15:30:11.999Z</time></trkpt><trkpt lat="44.8191898939899" lon="4.801220373340158"><ele>95.6</ele><time>2026-04-08T15:30:13.999Z</time></trkpt><trkpt lat="44.819080913976" lon="4.801239180561172"><ele>95.8</ele><time>2026-04-08T15:30:15.999Z</time></trkpt><trkpt lat="44.818967368160926" lon="4.801257077444094"><ele>96.0</ele><time>2026-04-08T15:30:17.999Z</time></trkpt><trkpt lat="44.81885628505439" lon="4.801276476810873"><ele>96.0</ele><time>2026-04-08T15:30:19.999Z</time></trkpt><trkpt lat="44.81875790570896" lon="4.801285467039916"><ele>96.0</ele><time>2026-04-08T15:30:21.999Z</time></trkpt><trkpt lat="44.8186641231494" lon="4.801298181241715"><ele>96.0</ele><time>2026-04-08T15:30:23.999Z</time></trkpt><trkpt lat="44.81856345533632" lon="4.801305512289079"><ele>96.0</ele><time>2026-04-08T15:30:25.999Z</time></trkpt><trkpt lat="44.818466366908474" lon="4.801324746787316"><ele>96.0</ele><time>2026-04-08T15:30:27.999Z</time></trkpt><trkpt lat="44.8183667537815" lon="4.8013383056512176"><ele>95.6</ele><time>2026-04-08T15:30:29.999Z</time></trkpt><trkpt lat="44.81826928280397" lon="4.801354535944408"><ele>95.19999999999999</ele><time>2026-04-08T15:30:31.999Z</time></trkpt><trkpt lat="44.81817124128368" lon="4.801370647789506"><ele>94.80000000000001</ele><time>2026-04-08T15:30:33.999Z</time></trkpt><trkpt lat="44.81807374996247" lon="4.801392915268196"><ele>94.4</ele><time>2026-04-08T15:30:35.999Z</time></trkpt><trkpt lat="44.817975684594686" lon="4.801407807715765"><ele>94.0</ele><time>2026-04-08T15:30:37.999Z</time></trkpt><trkpt lat="44.817882094696095" lon="4.801417622316881"><ele>94.0</ele><time>2026-04-08T15:30:39.999Z</time></trkpt><trkpt lat="44.81778716138062" lon="4.80142092291547"><ele>94.0</ele><time>2026-04-08T15:30:41.999Z</time></trkpt><trkpt lat="44.817694129241936" lon="4.801430922164124"><ele>94.0</ele><time>2026-04-08T15:30:43.999Z</time></trkpt><trkpt lat="44.81759777992798" lon="4.801443447984444"><ele>94.0</ele><time>2026-04-08T15:30:45.999Z</time></trkpt><trkpt lat="44.81749461729499" lon="4.801455068171172"><ele>94.0</ele><time>2026-04-08T15:30:47.999Z</time></trkpt><trkpt lat="44.81739028909432" lon="4.801459629369298"><ele>94.2</ele><time>2026-04-08T15:30:49.999Z</time></trkpt><trkpt lat="44.817298629803346" lon="4.801470735536602"><ele>94.4</ele><time>2026-04-08T15:30:51.999Z</time></trkpt><trkpt lat="44.81719657838551" lon="4.801484210811326"><ele>94.6</ele><time>2026-04-08T15:30:53.999Z</time></trkpt><trkpt lat="44.8170971267165" lon="4.8014842027023485"><ele>94.8</ele><time>2026-04-08T15:30:55.999Z</time></trkpt><trkpt lat="44.816997612088805" lon="4.801485374676516"><ele>95.0</ele><time>2026-04-08T15:30:57.999Z</time></trkpt><trkpt lat="44.81690001992742" lon="4.80148090064814"><ele>94.8</ele><time>2026-04-08T15:30:59.999Z</time></trkpt><trkpt lat="44.816807367585255" lon="4.801475150678813"><ele>94.6</ele><time>2026-04-08T15:31:01.999Z</time></trkpt><trkpt lat="44.81672463630522" lon="4.801409319492239"><ele>94.4</ele><time>2026-04-08T15:31:03.999Z</time></trkpt><trkpt lat="44.816655603385115" lon="4.8013059031107606"><ele>94.2</ele><time>2026-04-08T15:31:05.999Z</time></trkpt><trkpt lat="44.81658053664447" lon="4.8012173964969085"><ele>94.0</ele><time>2026-04-08T15:31:07.999Z</time></trkpt><trkpt lat="44.81650130579026" lon="4.801137727888456"><ele>94.0</ele><time>2026-04-08T15:31:09.999Z</time></trkpt><trkpt lat="44.81643190887586" lon="4.801048207504912"><ele>94.0</ele><time>2026-04-08T15:31:11.999Z</time></trkpt><trkpt lat="44.81637059641554" lon="4.800948978177093"><ele>94.0</ele><time>2026-04-08T15:31:13.999Z</time></trkpt><trkpt lat="44.81630922028884" lon="4.800843037580857"><ele>94.0</ele><time>2026-04-08T15:31:15.999Z</time></trkpt><trkpt lat="44.81625333113982" lon="4.800731558159875"><ele>94.0</ele><time>2026-04-08T15:31:17.999Z</time></trkpt><trkpt lat="44.81619115124117" lon="4.800628975180216"><ele>94.0</ele><time>2026-04-08T15:31:19.999Z</time></trkpt><trkpt lat="44.816126676790645" lon="4.800527140676799"><ele>94.0</ele><time>2026-04-08T15:31:21.999Z</time></trkpt><trkpt lat="44.81606378727905" lon="4.800423468431289"><ele>94.0</ele><time>2026-04-08T15:31:23.999Z</time></trkpt><trkpt lat="44.81600504894061" lon="4.800321042313121"><ele>94.0</ele><time>2026-04-08T15:31:25.999Z</time></trkpt><trkpt lat="44.81594120632469" lon="4.800225587358316"><ele>94.0</ele><time>2026-04-08T15:31:27.999Z</time></trkpt><trkpt lat="44.81587555030117" lon="4.800131999368377"><ele>94.0</ele><time>2026-04-08T15:31:29.999Z</time></trkpt><trkpt lat="44.81581221195859" lon="4.800037719971101"><ele>94.0</ele><time>2026-04-08T15:31:31.999Z</time></trkpt><trkpt lat="44.81573684043572" lon="4.799953586197973"><ele>94.0</ele><time>2026-04-08T15:31:33.999Z</time></trkpt><trkpt lat="44.81567855831255" lon="4.799848954772285"><ele>94.0</ele><time>2026-04-08T15:31:35.999Z</time></trkpt><trkpt lat="44.81561278244617" lon="4.799756072850427"><ele>94.0</ele><time>2026-04-08T15:31:37.999Z</time></trkpt><trkpt lat="44.81554095958938" lon="4.799656325896133"><ele>94.0</ele><time>2026-04-08T15:31:39.999Z</time></trkpt><trkpt lat="44.815467386883746" lon="4.799551392434431"><ele>94.0</ele><time>2026-04-08T15:31:41.999Z</time></trkpt><trkpt lat="44.8154180670065" lon="4.799420814024822"><ele>94.0</ele><time>2026-04-08T15:31:43.999Z</time></trkpt><trkpt lat="44.81540759152726" lon="4.7993067505084595"><ele>94.0</ele><time>2026-04-08T15:31:45.999Z</time></trkpt><trkpt lat="44.81548589153593" lon="4.79919599249425"><ele>94.0</ele><time>2026-04-08T15:31:47.999Z</time></trkpt><trkpt lat="44.81557210849823" lon="4.799145515912481"><ele>94.0</ele><time>2026-04-08T15:31:49.999Z</time></trkpt><trkpt lat="44.81563390303566" lon="4.799114217358325"><ele>94.0</ele><time>2026-04-08T15:31:51.999Z</time></trkpt><trkpt lat="44.81570489506337" lon="4.799071107114282"><ele>94.0</ele><time>2026-04-08T15:31:54.999Z</time></trkpt><trkpt lat="44.815686991671335" lon="4.798985209171067"><ele>94.0</ele><time>2026-04-08T15:31:57.999Z</time></trkpt><trkpt lat="44.815616323464425" lon="4.798995437041022"><ele>94.0</ele><time>2026-04-08T15:32:00.999Z</time></trkpt><trkpt lat="44.815519337816866" lon="4.798999908835059"><ele>94.0</ele><time>2026-04-08T15:32:03.999Z</time></trkpt><trkpt lat="44.81545449126034" lon="4.798991977762439"><ele>94.0</ele><time>2026-04-08T15:32:05.999Z</time></trkpt><trkpt lat="44.81535792509436" lon="4.798992837468822"><ele>94.0</ele><time>2026-04-08T15:32:08.999Z</time></trkpt><trkpt lat="44.81526512427609" lon="4.7990034140683475"><ele>94.0</ele><time>2026-04-08T15:32:11.999Z</time></trkpt><trkpt lat="44.81516237367658" lon="4.798990165277885"><ele>94.0</ele><time>2026-04-08T15:32:14.999Z</time></trkpt><trkpt lat="44.81508693478037" lon="4.79897163629034"><ele>94.0</ele><time>2026-04-08T15:32:16.999Z</time></trkpt><trkpt lat="44.815005328154164" lon="4.798965249068087"><ele>94.0</ele><time>2026-04-08T15:32:18.999Z</time></trkpt><trkpt lat="44.814940777913165" lon="4.798950925936218"><ele>94.0</ele><time>2026-04-08T15:32:20.999Z</time></trkpt><trkpt lat="44.81485862620286" lon="4.798928133515409"><ele>94.83333333333333</ele><time>2026-04-08T15:32:22.999Z</time></trkpt><trkpt lat="44.81479461873681" lon="4.798920353520702"><ele>95.66666666666666</ele><time>2026-04-08T15:32:24.999Z</time></trkpt><trkpt lat="44.81472850667471" lon="4.798895340538964"><ele>96.5</ele><time>2026-04-08T15:32:26.999Z</time></trkpt><trkpt lat="44.814659961774666" lon="4.79887184368871"><ele>97.33333333333333</ele><time>2026-04-08T15:32:28.999Z</time></trkpt><trkpt lat="44.81456495612512" lon="4.798849121539379"><ele>98.16666666666667</ele><time>2026-04-08T15:32:31.999Z</time></trkpt><trkpt lat="44.81450221673424" lon="4.798836675427543"><ele>99.0</ele><time>2026-04-08T15:32:33.999Z</time></trkpt><trkpt lat="44.81441182215112" lon="4.798820809744575"><ele>99.0</ele><time>2026-04-08T15:32:36.999Z</time></trkpt><trkpt lat="44.8143491787785" lon="4.798802607219724"><ele>99.0</ele><time>2026-04-08T15:32:38.999Z</time></trkpt><trkpt lat="44.814285724394466" lon="4.798793696145705"><ele>99.0</ele><time>2026-04-08T15:32:40.999Z</time></trkpt><trkpt lat="44.81421769422683" lon="4.798770434409518"><ele>99.0</ele><time>2026-04-08T15:32:42.999Z</time></trkpt><trkpt lat="44.81414517676587" lon="4.798756399340493"><ele>99.0</ele><time>2026-04-08T15:32:44.999Z</time></trkpt><trkpt lat="44.814062306867285" lon="4.798722039213671"><ele>99.0</ele><time>2026-04-08T15:32:46.999Z</time></trkpt><trkpt lat="44.813980668569435" lon="4.798707741002991"><ele>99.0</ele><time>2026-04-08T15:32:48.999Z</time></trkpt><trkpt lat="44.81389010272354" lon="4.7986872894112125"><ele>98.66666666666667</ele><time>2026-04-08T15:32:50.999Z</time></trkpt><trkpt lat="44.81380193601043" lon="4.798652655880985"><ele>98.33333333333334</ele><time>2026-04-08T15:32:52.999Z</time></trkpt><trkpt lat="44.81370766266172" lon="4.798623993804026"><ele>98.0</ele><time>2026-04-08T15:32:54.999Z</time></trkpt><trkpt lat="44.81361458476853" lon="4.798581036585545"><ele>97.66666666666667</ele><time>2026-04-08T15:32:56.999Z</time></trkpt><trkpt lat="44.81353393658298" lon="4.798553275028817"><ele>97.33333333333334</ele><time>2026-04-08T15:32:58.999Z</time></trkpt><trkpt lat="44.8134572745749" lon="4.798525966987975"><ele>97.0</ele><time>2026-04-08T15:33:00.999Z</time></trkpt><trkpt lat="44.81339890726977" lon="4.7984834800419645"><ele>96.83333333333334</ele><time>2026-04-08T15:33:02.999Z</time></trkpt><trkpt lat="44.813400950858025" lon="4.798378964501708"><ele>96.66666666666667</ele><time>2026-04-08T15:33:05.999Z</time></trkpt><trkpt lat="44.81344313139561" lon="4.798309386799728"><ele>96.5</ele><time>2026-04-08T15:33:07.999Z</time></trkpt><trkpt lat="44.813479118352596" lon="4.798213974253159"><ele>96.33333333333334</ele><time>2026-04-08T15:33:10.999Z</time></trkpt><trkpt lat="44.81352618099774" lon="4.798138656516577"><ele>96.16666666666667</ele><time>2026-04-08T15:33:13.999Z</time></trkpt><trkpt lat="44.8136031092917" lon="4.798093357811765"><ele>96.0</ele><time>2026-04-08T15:33:17.999Z</time></trkpt><trkpt lat="44.81367965426618" lon="4.798050808288112"><ele>96.5</ele><time>2026-04-08T15:33:20.999Z</time></trkpt><trkpt lat="44.81375558044657" lon="4.7979929259387255"><ele>97.0</ele><time>2026-04-08T15:33:23.999Z</time></trkpt><trkpt lat="44.813800127780176" lon="4.797894868364311"><ele>97.5</ele><time>2026-04-08T15:33:26.999Z</time></trkpt><trkpt lat="44.813826768054184" lon="4.797802489188802"><ele>98.0</ele><time>2026-04-08T15:33:29.999Z</time></trkpt><trkpt lat="44.81385070065328" lon="4.7976894247765305"><ele>98.5</ele><time>2026-04-08T15:33:32.999Z</time></trkpt><trkpt lat="44.81387451238176" lon="4.797582605300305"><ele>99.0</ele><time>2026-04-08T15:33:35.999Z</time></trkpt><trkpt lat="44.81383816073587" lon="4.797478774060226"><ele>99.33333333333333</ele><time>2026-04-08T15:33:38.999Z</time></trkpt><trkpt lat="44.81377858821796" lon="4.79740824236648"><ele>99.66666666666666</ele><time>2026-04-08T15:33:41.999Z</time></trkpt><trkpt lat="44.81371329141968" lon="4.797340105044301"><ele>100.0</ele><time>2026-04-08T15:33:44.999Z</time></trkpt><trkpt lat="44.81364528521214" lon="4.797264994058177"><ele>100.33333333333333</ele><time>2026-04-08T15:33:47.999Z</time></trkpt><trkpt lat="44.81358177199603" lon="4.797188594145734"><ele>100.66666666666666</ele><time>2026-04-08T15:33:50.999Z</time></trkpt><trkpt lat="44.81351308923111" lon="4.797113123160394"><ele>101.0</ele><time>2026-04-08T15:33:53.999Z</time></trkpt><trkpt lat="44.81343674589997" lon="4.797044950518587"><ele>100.99999999999999</ele><time>2026-04-08T15:33:56.999Z</time></trkpt><trkpt lat="44.813358621117246" lon="4.79698739538721"><ele>101.0</ele><time>2026-04-08T15:33:59.999Z</time></trkpt><trkpt lat="44.8132793186068" lon="4.796933592650486"><ele>101.0</ele><time>2026-04-08T15:34:02.999Z</time></trkpt><trkpt lat="44.81322169111244" lon="4.796883786308547"><ele>101.0</ele><time>2026-04-08T15:34:04.999Z</time></trkpt><trkpt lat="44.81316498606764" lon="4.796813016654086"><ele>100.99999999999999</ele><time>2026-04-08T15:34:06.999Z</time></trkpt><trkpt lat="44.81309511962735" lon="4.7967499424760724"><ele>101.0</ele><time>2026-04-08T15:34:08.999Z</time></trkpt><trkpt lat="44.81302723638548" lon="4.796684842546314"><ele>100.99999999999999</ele><time>2026-04-08T15:34:10.999Z</time></trkpt><trkpt lat="44.81296563911881" lon="4.79659967765957"><ele>101.0</ele><time>2026-04-08T15:34:12.999Z</time></trkpt><trkpt lat="44.81290168539949" lon="4.796517899365955"><ele>101.0</ele><time>2026-04-08T15:34:14.999Z</time></trkpt><trkpt lat="44.812853287550745" lon="4.796437907123462"><ele>101.0</ele><time>2026-04-08T15:34:16.999Z</time></trkpt><trkpt lat="44.81278313004075" lon="4.7963445376945355"><ele>100.99999999999999</ele><time>2026-04-08T15:34:19.999Z</time></trkpt><trkpt lat="44.812720463846595" lon="4.796272042566649"><ele>101.0</ele><time>2026-04-08T15:34:21.999Z</time></trkpt><trkpt lat="44.81264769955716" lon="4.796185968530965"><ele>101.0</ele><time>2026-04-08T15:34:23.999Z</time></trkpt><trkpt lat="44.81256447826658" lon="4.796089375192627"><ele>101.0</ele><time>2026-04-08T15:34:25.999Z</time></trkpt><trkpt lat="44.81247254006222" lon="4.795994389966229"><ele>101.0</ele><time>2026-04-08T15:34:27.999Z</time></trkpt><trkpt lat="44.81237767425727" lon="4.795908293797329"><ele>101.0</ele><time>2026-04-08T15:34:29.999Z</time></trkpt><trkpt lat="44.81231517964379" lon="4.795785696146284"><ele>101.0</ele><time>2026-04-08T15:34:31.999Z</time></trkpt><trkpt lat="44.81233410553249" lon="4.795643885907781"><ele>102.33333333333333</ele><time>2026-04-08T15:34:33.999Z</time></trkpt><trkpt lat="44.812373222415324" lon="4.795533624678407"><ele>103.66666666666666</ele><time>2026-04-08T15:34:35.999Z</time></trkpt><trkpt lat="44.812412376053985" lon="4.795432276038371"><ele>105.0</ele><time>2026-04-08T15:34:37.999Z</time></trkpt><trkpt lat="44.812440234207045" lon="4.795325876582788"><ele>106.33333333333334</ele><time>2026-04-08T15:34:39.999Z</time></trkpt><trkpt lat="44.81246975122475" lon="4.795225059557172"><ele>107.66666666666667</ele><time>2026-04-08T15:34:41.999Z</time></trkpt><trkpt lat="44.8124990155204" lon="4.795144405252076"><ele>109.0</ele><time>2026-04-08T15:34:43.999Z</time></trkpt><trkpt lat="44.81252240543148" lon="4.7950530305152546"><ele>109.33333333333334</ele><time>2026-04-08T15:34:45.999Z</time></trkpt><trkpt lat="44.81254686628824" lon="4.794927774418669"><ele>109.66666666666667</ele><time>2026-04-08T15:34:48.999Z</time></trkpt><trkpt lat="44.81256916725447" lon="4.794803085471765"><ele>110.0</ele><time>2026-04-08T15:34:51.999Z</time></trkpt><trkpt lat="44.81262687657937" lon="4.794705169463022"><ele>110.33333333333334</ele><time>2026-04-08T15:34:54.999Z</time></trkpt><trkpt lat="44.8126879995536" lon="4.794673364924221"><ele>110.66666666666667</ele><time>2026-04-08T15:34:56.999Z</time></trkpt><trkpt lat="44.81275418603694" lon="4.794639476391332"><ele>111.0</ele><time>2026-04-08T15:34:58.999Z</time></trkpt><trkpt lat="44.81281332720656" lon="4.794593808358606"><ele>112.0</ele><time>2026-04-08T15:35:00.999Z</time></trkpt><trkpt lat="44.81287747475267" lon="4.794548218100303"><ele>113.0</ele><time>2026-04-08T15:35:02.998Z</time></trkpt><trkpt lat="44.812940134102696" lon="4.794524422920566"><ele>114.0</ele><time>2026-04-08T15:35:04.998Z</time></trkpt><trkpt lat="44.81301513176053" lon="4.7944855516533105"><ele>115.0</ele><time>2026-04-08T15:35:07.998Z</time></trkpt><trkpt lat="44.813088971829956" lon="4.794462617424893"><ele>116.0</ele><time>2026-04-08T15:35:09.998Z</time></trkpt><trkpt lat="44.813159993041026" lon="4.7944440375249275"><ele>117.0</ele><time>2026-04-08T15:35:11.998Z</time></trkpt><trkpt lat="44.813229837509176" lon="4.794423231203994"><ele>118.0</ele><time>2026-04-08T15:35:13.998Z</time></trkpt><trkpt lat="44.81330589641187" lon="4.794428489704492"><ele>118.0</ele><time>2026-04-08T15:35:15.998Z</time></trkpt><trkpt lat="44.813379020833075" lon="4.794425086240886"><ele>118.0</ele><time>2026-04-08T15:35:17.998Z</time></trkpt><trkpt lat="44.81345317814198" lon="4.7944314239664045"><ele>118.0</ele><time>2026-04-08T15:35:19.998Z</time></trkpt><trkpt lat="44.813523316197575" lon="4.794425867967889"><ele>118.0</ele><time>2026-04-08T15:35:21.998Z</time></trkpt><trkpt lat="44.81359835359803" lon="4.794420384103294"><ele>118.0</ele><time>2026-04-08T15:35:23.998Z</time></trkpt><trkpt lat="44.81366462369159" lon="4.794434926295795"><ele>118.0</ele><time>2026-04-08T15:35:25.998Z</time></trkpt><trkpt lat="44.8137282269395" lon="4.794457165326868"><ele>118.0</ele><time>2026-04-08T15:35:27.998Z</time></trkpt><trkpt lat="44.81379286340572" lon="4.79447089191302"><ele>118.66666666666667</ele><time>2026-04-08T15:35:29.998Z</time></trkpt><trkpt lat="44.813855874363426" lon="4.79448193587655"><ele>119.33333333333334</ele><time>2026-04-08T15:35:31.998Z</time></trkpt><trkpt lat="44.81391887995765" lon="4.794475537682007"><ele>120.0</ele><time>2026-04-08T15:35:33.998Z</time></trkpt><trkpt lat="44.81400253068602" lon="4.79445066442438"><ele>120.66666666666666</ele><time>2026-04-08T15:35:36.998Z</time></trkpt><trkpt lat="44.814068748212165" lon="4.794443001201517"><ele>121.33333333333333</ele><time>2026-04-08T15:35:38.998Z</time></trkpt><trkpt lat="44.8141613227513" lon="4.794419503144185"><ele>122.0</ele><time>2026-04-08T15:35:41.998Z</time></trkpt><trkpt lat="44.81425517245326" lon="4.794364001337602"><ele>121.85714285714283</ele><time>2026-04-08T15:35:44.998Z</time></trkpt><trkpt lat="44.81432695700434" lon="4.794310780330013"><ele>121.71428571428571</ele><time>2026-04-08T15:35:46.998Z</time></trkpt><trkpt lat="44.81439554000879" lon="4.7942562179529755"><ele>121.57142857142856</ele><time>2026-04-08T15:35:48.998Z</time></trkpt><trkpt lat="44.814460149072794" lon="4.794200878818222"><ele>121.42857142857142</ele><time>2026-04-08T15:35:50.998Z</time></trkpt><trkpt lat="44.81452142184811" lon="4.794156853860589"><ele>121.28571428571428</ele><time>2026-04-08T15:35:52.998Z</time></trkpt><trkpt lat="44.81457506819803" lon="4.794088267632667"><ele>121.14285714285714</ele><time>2026-04-08T15:35:54.998Z</time></trkpt><trkpt lat="44.81462369106637" lon="4.794022343697674"><ele>121.0</ele><time>2026-04-08T15:35:56.998Z</time></trkpt><trkpt lat="44.81466988563851" lon="4.793943105176339"><ele>121.00000000000001</ele><time>2026-04-08T15:35:58.998Z</time></trkpt><trkpt lat="44.8147108173542" lon="4.793863901857215"><ele>121.0</ele><time>2026-04-08T15:36:00.998Z</time></trkpt><trkpt lat="44.81474158759748" lon="4.793785576198054"><ele>121.0</ele><time>2026-04-08T15:36:02.998Z</time></trkpt><trkpt lat="44.81477774878011" lon="4.793668238811771"><ele>121.0</ele><time>2026-04-08T15:36:05.998Z</time></trkpt><trkpt lat="44.81480210162718" lon="4.793545062805144"><ele>121.00000000000001</ele><time>2026-04-08T15:36:08.998Z</time></trkpt><trkpt lat="44.814822663458486" lon="4.793419752305361"><ele>121.0</ele><time>2026-04-08T15:36:11.998Z</time></trkpt><trkpt lat="44.81483327842876" lon="4.793286354443311"><ele>120.16666666666667</ele><time>2026-04-08T15:36:14.998Z</time></trkpt><trkpt lat="44.81481531524774" lon="4.793152717550716"><ele>119.33333333333334</ele><time>2026-04-08T15:36:17.998Z</time></trkpt><trkpt lat="44.81481620220264" lon="4.793056386437397"><ele>118.5</ele><time>2026-04-08T15:36:19.998Z</time></trkpt><trkpt lat="44.81481180105114" lon="4.792953986726651"><ele>117.66666666666666</ele><time>2026-04-08T15:36:21.998Z</time></trkpt><trkpt lat="44.81480905961574" lon="4.792860685499144"><ele>116.83333333333333</ele><time>2026-04-08T15:36:23.998Z</time></trkpt><trkpt lat="44.814797852426395" lon="4.792771466080633"><ele>116.0</ele><time>2026-04-08T15:36:25.998Z</time></trkpt><trkpt lat="44.81477861411365" lon="4.792642822803707"><ele>115.66666666666666</ele><time>2026-04-08T15:36:28.998Z</time></trkpt><trkpt lat="44.81477367615046" lon="4.792507934661176"><ele>115.33333333333333</ele><time>2026-04-08T15:36:31.998Z</time></trkpt><trkpt lat="44.814778685620134" lon="4.792413358502558"><ele>115.0</ele><time>2026-04-08T15:36:33.998Z</time></trkpt><trkpt lat="44.81478831222647" lon="4.7923143029421995"><ele>114.66666666666666</ele><time>2026-04-08T15:36:35.998Z</time></trkpt><trkpt lat="44.814796476256184" lon="4.792194948182983"><ele>114.33333333333333</ele><time>2026-04-08T15:36:38.998Z</time></trkpt><trkpt lat="44.81480917648057" lon="4.792083101976065"><ele>114.0</ele><time>2026-04-08T15:36:41.998Z</time></trkpt><trkpt lat="44.81482111779061" lon="4.7919782619924245"><ele>114.0</ele><time>2026-04-08T15:36:43.998Z</time></trkpt><trkpt lat="44.81482716699956" lon="4.791876060990239"><ele>114.0</ele><time>2026-04-08T15:36:45.998Z</time></trkpt><trkpt lat="44.81484828438682" lon="4.7917536889855015"><ele>114.0</ele><time>2026-04-08T15:36:47.998Z</time></trkpt><trkpt lat="44.81488558608953" lon="4.791624530404281"><ele>114.0</ele><time>2026-04-08T15:36:49.998Z</time></trkpt><trkpt lat="44.81492282814113" lon="4.791484469701796"><ele>114.0</ele><time>2026-04-08T15:36:51.998Z</time></trkpt><trkpt lat="44.814977835210314" lon="4.7913474012079025"><ele>114.0</ele><time>2026-04-08T15:36:53.998Z</time></trkpt><trkpt lat="44.81503225001622" lon="4.791214642412058"><ele>114.0</ele><time>2026-04-08T15:36:55.998Z</time></trkpt><trkpt lat="44.81509369158452" lon="4.7910939686975045"><ele>114.0</ele><time>2026-04-08T15:36:57.998Z</time></trkpt><trkpt lat="44.815150888569576" lon="4.790991270845981"><ele>114.0</ele><time>2026-04-08T15:36:59.998Z</time></trkpt><trkpt lat="44.815208283697594" lon="4.790900434884994"><ele>114.0</ele><time>2026-04-08T15:37:01.998Z</time></trkpt><trkpt lat="44.8152735407712" lon="4.790795908287677"><ele>113.0</ele><time>2026-04-08T15:37:03.998Z</time></trkpt><trkpt lat="44.815336726186466" lon="4.790683675829348"><ele>112.0</ele><time>2026-04-08T15:37:05.998Z</time></trkpt><trkpt lat="44.81539430411353" lon="4.790574585600884"><ele>111.0</ele><time>2026-04-08T15:37:07.998Z</time></trkpt><trkpt lat="44.81545512598906" lon="4.790470219028817"><ele>110.0</ele><time>2026-04-08T15:37:09.998Z</time></trkpt><trkpt lat="44.81550406591464" lon="4.79036197363985"><ele>109.0</ele><time>2026-04-08T15:37:11.998Z</time></trkpt><trkpt lat="44.815562442548014" lon="4.790254621658613"><ele>109.50000000000001</ele><time>2026-04-08T15:37:13.998Z</time></trkpt><trkpt lat="44.81561563294086" lon="4.790141181098664"><ele>110.0</ele><time>2026-04-08T15:37:15.998Z</time></trkpt><trkpt lat="44.81567393309132" lon="4.790025081052105"><ele>110.5</ele><time>2026-04-08T15:37:17.998Z</time></trkpt><trkpt lat="44.81572117134431" lon="4.789940261940828"><ele>111.0</ele><time>2026-04-08T15:37:19.998Z</time></trkpt><trkpt lat="44.81575856614727" lon="4.789845429377449"><ele>111.50000000000001</ele><time>2026-04-08T15:37:22.998Z</time></trkpt><trkpt lat="44.815784353659296" lon="4.789751237115541"><ele>112.0</ele><time>2026-04-08T15:37:24.998Z</time></trkpt><trkpt lat="44.815842128789846" lon="4.789614974132253"><ele>112.0</ele><time>2026-04-08T15:37:26.998Z</time></trkpt><trkpt lat="44.815890432391285" lon="4.78946450997035"><ele>112.0</ele><time>2026-04-08T15:37:28.998Z</time></trkpt><trkpt lat="44.81595092502256" lon="4.789312158331355"><ele>112.0</ele><time>2026-04-08T15:37:30.998Z</time></trkpt><trkpt lat="44.816004380925904" lon="4.789157927882656"><ele>112.0</ele><time>2026-04-08T15:37:32.998Z</time></trkpt><trkpt lat="44.816064814676686" lon="4.789006043095989"><ele>111.39999999999999</ele><time>2026-04-08T15:37:34.998Z</time></trkpt><trkpt lat="44.816117228137585" lon="4.788878350805515"><ele>110.79999999999998</ele><time>2026-04-08T15:37:36.998Z</time></trkpt><trkpt lat="44.81616784572275" lon="4.788749976869843"><ele>110.2</ele><time>2026-04-08T15:37:38.998Z</time></trkpt><trkpt lat="44.816226024572956" lon="4.788627438547897"><ele>109.6</ele><time>2026-04-08T15:37:40.998Z</time></trkpt><trkpt lat="44.81628023777951" lon="4.7884977474789885"><ele>109.0</ele><time>2026-04-08T15:37:42.998Z</time></trkpt><trkpt lat="44.81632490934604" lon="4.78836927508732"><ele>109.0</ele><time>2026-04-08T15:37:44.998Z</time></trkpt><trkpt lat="44.816378456901425" lon="4.788239327782459"><ele>109.0</ele><time>2026-04-08T15:37:46.998Z</time></trkpt><trkpt lat="44.81643477748274" lon="4.788115774625112"><ele>109.0</ele><time>2026-04-08T15:37:48.998Z</time></trkpt><trkpt lat="44.816485602102986" lon="4.787987302787025"><ele>109.0</ele><time>2026-04-08T15:37:50.998Z</time></trkpt><trkpt lat="44.81654549248639" lon="4.787867970626815"><ele>109.0</ele><time>2026-04-08T15:37:52.998Z</time></trkpt><trkpt lat="44.81659244875303" lon="4.7877469576790395"><ele>109.0</ele><time>2026-04-08T15:37:54.998Z</time></trkpt><trkpt lat="44.81665721269244" lon="4.787629252339969"><ele>109.0</ele><time>2026-04-08T15:37:56.998Z</time></trkpt><trkpt lat="44.816717144448184" lon="4.787514327798194"><ele>109.0</ele><time>2026-04-08T15:37:58.998Z</time></trkpt><trkpt lat="44.81678409733364" lon="4.787405169498071"><ele>109.0</ele><time>2026-04-08T15:38:00.998Z</time></trkpt><trkpt lat="44.81684382861862" lon="4.787296804756821"><ele>109.0</ele><time>2026-04-08T15:38:02.998Z</time></trkpt><trkpt lat="44.81690875652759" lon="4.787205472523282"><ele>109.00000000000001</ele><time>2026-04-08T15:38:04.998Z</time></trkpt><trkpt lat="44.81697436497088" lon="4.7871214839313"><ele>109.0</ele><time>2026-04-08T15:38:06.998Z</time></trkpt><trkpt lat="44.81703662767691" lon="4.787050699962596"><ele>109.0</ele><time>2026-04-08T15:38:08.998Z</time></trkpt><trkpt lat="44.817091761637286" lon="4.786998659706067"><ele>109.0</ele><time>2026-04-08T15:38:10.998Z</time></trkpt><trkpt lat="44.817170989364435" lon="4.786968902095685"><ele>109.00000000000001</ele><time>2026-04-08T15:38:13.998Z</time></trkpt><trkpt lat="44.8172435028619" lon="4.786896250316626"><ele>109.0</ele><time>2026-04-08T15:38:16.998Z</time></trkpt><trkpt lat="44.81732672302741" lon="4.786829733758583"><ele>108.66666666666667</ele><time>2026-04-08T15:38:18.998Z</time></trkpt><trkpt lat="44.817404084595495" lon="4.786755999659418"><ele>108.33333333333334</ele><time>2026-04-08T15:38:20.998Z</time></trkpt><trkpt lat="44.81748556339455" lon="4.7866858207009635"><ele>108.0</ele><time>2026-04-08T15:38:22.998Z</time></trkpt><trkpt lat="44.81755845364147" lon="4.786625774958389"><ele>107.66666666666666</ele><time>2026-04-08T15:38:24.998Z</time></trkpt><trkpt lat="44.81761704511087" lon="4.786568838676586"><ele>107.33333333333333</ele><time>2026-04-08T15:38:26.998Z</time></trkpt><trkpt lat="44.81768692935633" lon="4.786514406258577"><ele>107.0</ele><time>2026-04-08T15:38:28.998Z</time></trkpt><trkpt lat="44.817745074170155" lon="4.786460092865238"><ele>106.99999999999999</ele><time>2026-04-08T15:38:30.998Z</time></trkpt><trkpt lat="44.81780453400306" lon="4.786402122329219"><ele>107.0</ele><time>2026-04-08T15:38:32.998Z</time></trkpt><trkpt lat="44.8178696662118" lon="4.786334590716314"><ele>107.0</ele><time>2026-04-08T15:38:34.998Z</time></trkpt><trkpt lat="44.817938111124384" lon="4.786254387251559"><ele>107.0</ele><time>2026-04-08T15:38:36.998Z</time></trkpt><trkpt lat="44.818008082118745" lon="4.786183243411984"><ele>106.99999999999999</ele><time>2026-04-08T15:38:38.998Z</time></trkpt><trkpt lat="44.81806061780212" lon="4.786111589092625"><ele>107.0</ele><time>2026-04-08T15:38:40.998Z</time></trkpt><trkpt lat="44.81811507854717" lon="4.786052442287397"><ele>106.99999999999999</ele><time>2026-04-08T15:38:42.998Z</time></trkpt><trkpt lat="44.81817085729141" lon="4.785986767891316"><ele>107.0</ele><time>2026-04-08T15:38:44.998Z</time></trkpt><trkpt lat="44.818230215604125" lon="4.785900047386047"><ele>107.0</ele><time>2026-04-08T15:38:47.998Z</time></trkpt><trkpt lat="44.81831108072222" lon="4.7858181839183676"><ele>107.0</ele><time>2026-04-08T15:38:50.998Z</time></trkpt><trkpt lat="44.818364136553384" lon="4.7857638767574056"><ele>106.99999999999999</ele><time>2026-04-08T15:38:52.998Z</time></trkpt><trkpt lat="44.81843480765261" lon="4.785702003464294"><ele>107.0</ele><time>2026-04-08T15:39:51.998Z</time></trkpt><trkpt lat="44.818503663513226" lon="4.785603313139315"><ele>107.0</ele><time>2026-04-08T15:39:54.998Z</time></trkpt><trkpt lat="44.81856118609652" lon="4.785522405499741"><ele>106.99999999999999</ele><time>2026-04-08T15:39:56.998Z</time></trkpt><trkpt lat="44.818636805119596" lon="4.78544366376476"><ele>106.99999999999999</ele><time>2026-04-08T15:39:58.998Z</time></trkpt><trkpt lat="44.81870861931048" lon="4.785356232133706"><ele>107.0</ele><time>2026-04-08T15:40:00.998Z</time></trkpt><trkpt lat="44.818767694038854" lon="4.78525916254564"><ele>107.0</ele><time>2026-04-08T15:40:02.998Z</time></trkpt><trkpt lat="44.818836274119384" lon="4.785178725260049"><ele>107.99999999999999</ele><time>2026-04-08T15:40:04.998Z</time></trkpt><trkpt lat="44.81889692235036" lon="4.7851069698365025"><ele>109.0</ele><time>2026-04-08T15:40:06.998Z</time></trkpt><trkpt lat="44.81896215037884" lon="4.7850485767811115"><ele>110.0</ele><time>2026-04-08T15:40:08.998Z</time></trkpt><trkpt lat="44.819020989223674" lon="4.784983372659883"><ele>111.0</ele><time>2026-04-08T15:40:10.998Z</time></trkpt><trkpt lat="44.81908077607109" lon="4.784916525804274"><ele>111.99999999999999</ele><time>2026-04-08T15:40:12.998Z</time></trkpt><trkpt lat="44.81912932029299" lon="4.7848329609466145"><ele>113.0</ele><time>2026-04-08T15:40:14.998Z</time></trkpt><trkpt lat="44.81919648248641" lon="4.7847495956664465"><ele>112.99999999999999</ele><time>2026-04-08T15:40:16.998Z</time></trkpt><trkpt lat="44.819261057532756" lon="4.7846791125577"><ele>113.0</ele><time>2026-04-08T15:40:18.998Z</time></trkpt><trkpt lat="44.81932263307629" lon="4.784594020080842"><ele>113.0</ele><time>2026-04-08T15:40:20.998Z</time></trkpt><trkpt lat="44.81939834004171" lon="4.784522587031065"><ele>113.0</ele><time>2026-04-08T15:40:22.998Z</time></trkpt><trkpt lat="44.819453504835245" lon="4.7844359474346945"><ele>112.99999999999999</ele><time>2026-04-08T15:40:24.998Z</time></trkpt><trkpt lat="44.81952765780788" lon="4.784352910923754"><ele>113.0</ele><time>2026-04-08T15:40:26.998Z</time></trkpt><trkpt lat="44.81959664957814" lon="4.784266524492159"><ele>113.2</ele><time>2026-04-08T15:40:28.998Z</time></trkpt><trkpt lat="44.81967869614243" lon="4.784174207435988"><ele>113.4</ele><time>2026-04-08T15:40:30.998Z</time></trkpt><trkpt lat="44.81975556188007" lon="4.784096182467324"><ele>113.60000000000001</ele><time>2026-04-08T15:40:32.998Z</time></trkpt><trkpt lat="44.819825419376684" lon="4.784005324833401"><ele>113.80000000000001</ele><time>2026-04-08T15:40:34.998Z</time></trkpt><trkpt lat="44.81989753030875" lon="4.7839206977597"><ele>114.0</ele><time>2026-04-08T15:40:36.998Z</time></trkpt><trkpt lat="44.819957406975355" lon="4.783838371033509"><ele>114.0</ele><time>2026-04-08T15:40:38.998Z</time></trkpt><trkpt lat="44.820030053455575" lon="4.78375240855127"><ele>114.0</ele><time>2026-04-08T15:40:40.998Z</time></trkpt><trkpt lat="44.82009671369524" lon="4.783676202134451"><ele>114.0</ele><time>2026-04-08T15:40:42.998Z</time></trkpt><trkpt lat="44.82015472890809" lon="4.78360683989994"><ele>114.0</ele><time>2026-04-08T15:40:44.998Z</time></trkpt><trkpt lat="44.82021234046195" lon="4.783538666428588"><ele>114.0</ele><time>2026-04-08T15:40:46.998Z</time></trkpt><trkpt lat="44.82028329941411" lon="4.783488386441441"><ele>114.0</ele><time>2026-04-08T15:40:48.998Z</time></trkpt><trkpt lat="44.82035452385577" lon="4.783416696903693"><ele>114.16666666666667</ele><time>2026-04-08T15:40:50.998Z</time></trkpt><trkpt lat="44.82041054855375" lon="4.783347598721404"><ele>114.33333333333334</ele><time>2026-04-08T15:40:52.998Z</time></trkpt><trkpt lat="44.82048829920534" lon="4.783292298363453"><ele>114.5</ele><time>2026-04-08T15:40:54.998Z</time></trkpt><trkpt lat="44.820563965957014" lon="4.783228546294602"><ele>114.66666666666667</ele><time>2026-04-08T15:40:56.998Z</time></trkpt><trkpt lat="44.820629956782255" lon="4.783181649162796"><ele>114.83333333333334</ele><time>2026-04-08T15:40:58.998Z</time></trkpt><trkpt lat="44.82071644426466" lon="4.783138181248376"><ele>115.0</ele><time>2026-04-08T15:41:00.998Z</time></trkpt><trkpt lat="44.82079462415348" lon="4.783088646391179"><ele>115.00000000000001</ele><time>2026-04-08T15:41:02.998Z</time></trkpt><trkpt lat="44.820878379298534" lon="4.7830396237288335"><ele>115.0</ele><time>2026-04-08T15:41:04.998Z</time></trkpt><trkpt lat="44.82095106211496" lon="4.782982665353706"><ele>115.0</ele><time>2026-04-08T15:41:06.998Z</time></trkpt><trkpt lat="44.82103234617647" lon="4.782927529830877"><ele>115.0</ele><time>2026-04-08T15:41:08.998Z</time></trkpt><trkpt lat="44.82110149093746" lon="4.7828591891027195"><ele>115.00000000000001</ele><time>2026-04-08T15:41:10.998Z</time></trkpt><trkpt lat="44.82117482666112" lon="4.782789860283442"><ele>115.0</ele><time>2026-04-08T15:41:12.998Z</time></trkpt><trkpt lat="44.82124829944376" lon="4.782716760463215"><ele>114.8</ele><time>2026-04-08T15:41:14.998Z</time></trkpt><trkpt lat="44.82130989758443" lon="4.782631806224014"><ele>114.6</ele><time>2026-04-08T15:41:16.998Z</time></trkpt><trkpt lat="44.82137312092105" lon="4.782548722457924"><ele>114.4</ele><time>2026-04-08T15:41:18.998Z</time></trkpt><trkpt lat="44.82144416227" lon="4.782461710049408"><ele>114.2</ele><time>2026-04-08T15:41:20.998Z</time></trkpt><trkpt lat="44.821507765578545" lon="4.782366077781482"><ele>114.0</ele><time>2026-04-08T15:41:22.998Z</time></trkpt><trkpt lat="44.82157762813665" lon="4.7822753831137845"><ele>114.0</ele><time>2026-04-08T15:41:24.998Z</time></trkpt><trkpt lat="44.82163287899723" lon="4.782177646903053"><ele>114.0</ele><time>2026-04-08T15:41:26.998Z</time></trkpt><trkpt lat="44.82167755635387" lon="4.782079417178748"><ele>114.0</ele><time>2026-04-08T15:41:28.998Z</time></trkpt><trkpt lat="44.82171391526514" lon="4.781979412642859"><ele>114.0</ele><time>2026-04-08T15:41:30.998Z</time></trkpt><trkpt lat="44.82175565993549" lon="4.7818741112734084"><ele>114.0</ele><time>2026-04-08T15:41:32.998Z</time></trkpt><trkpt lat="44.82179692825547" lon="4.781765843172519"><ele>114.0</ele><time>2026-04-08T15:41:34.998Z</time></trkpt><trkpt lat="44.82182767456421" lon="4.781668240611977"><ele>112.0</ele><time>2026-04-08T15:41:36.998Z</time></trkpt><trkpt lat="44.821855774228816" lon="4.781565711324975"><ele>110.0</ele><time>2026-04-08T15:41:38.998Z</time></trkpt><trkpt lat="44.82187983130164" lon="4.78146819694506"><ele>108.0</ele><time>2026-04-08T15:41:40.998Z</time></trkpt><trkpt lat="44.82190904860092" lon="4.781366735438017"><ele>106.0</ele><time>2026-04-08T15:41:42.998Z</time></trkpt><trkpt lat="44.82194099271432" lon="4.781265947132088"><ele>104.0</ele><time>2026-04-08T15:41:44.998Z</time></trkpt><trkpt lat="44.821969218610924" lon="4.781160306558309"><ele>102.0</ele><time>2026-04-08T15:41:46.998Z</time></trkpt><trkpt lat="44.82199234644022" lon="4.781054519264755"><ele>102.83333333333333</ele><time>2026-04-08T15:41:48.998Z</time></trkpt><trkpt lat="44.822002822547674" lon="4.780949333326693"><ele>103.66666666666666</ele><time>2026-04-08T15:41:50.998Z</time></trkpt><trkpt lat="44.822025742744934" lon="4.780832508081613"><ele>104.5</ele><time>2026-04-08T15:41:52.998Z</time></trkpt><trkpt lat="44.822047670768185" lon="4.780721427295198"><ele>105.33333333333333</ele><time>2026-04-08T15:41:54.998Z</time></trkpt><trkpt lat="44.822065466396175" lon="4.78061922707373"><ele>106.16666666666666</ele><time>2026-04-08T15:41:56.998Z</time></trkpt><trkpt lat="44.8220915888499" lon="4.780505423538337"><ele>107.0</ele><time>2026-04-08T15:41:58.998Z</time></trkpt><trkpt lat="44.82211638836601" lon="4.78040307657491"><ele>106.99999999999999</ele><time>2026-04-08T15:42:00.998Z</time></trkpt><trkpt lat="44.82213674420433" lon="4.780293416832162"><ele>107.0</ele><time>2026-04-08T15:42:02.998Z</time></trkpt><trkpt lat="44.82214119230586" lon="4.780181008739732"><ele>107.0</ele><time>2026-04-08T15:42:04.998Z</time></trkpt><trkpt lat="44.82214811508781" lon="4.780065235755468"><ele>107.0</ele><time>2026-04-08T15:42:06.998Z</time></trkpt><trkpt lat="44.822149435537746" lon="4.779941792952811"><ele>106.99999999999999</ele><time>2026-04-08T15:42:08.998Z</time></trkpt><trkpt lat="44.822167954698685" lon="4.77982887885279"><ele>107.0</ele><time>2026-04-08T15:42:10.998Z</time></trkpt><trkpt lat="44.822165758930815" lon="4.7796993221643485"><ele>107.49999999999999</ele><time>2026-04-08T15:42:12.998Z</time></trkpt><trkpt lat="44.82216555608057" lon="4.779579987041914"><ele>108.0</ele><time>2026-04-08T15:42:14.998Z</time></trkpt><trkpt lat="44.822158019338126" lon="4.779463088547097"><ele>108.5</ele><time>2026-04-08T15:42:16.998Z</time></trkpt><trkpt lat="44.82214966207489" lon="4.779350240647222"><ele>109.0</ele><time>2026-04-08T15:42:18.998Z</time></trkpt><trkpt lat="44.822142243810134" lon="4.779226080847593"><ele>109.49999999999999</ele><time>2026-04-08T15:42:20.998Z</time></trkpt><trkpt lat="44.82213384496181" lon="4.779108863420549"><ele>110.0</ele><time>2026-04-08T15:42:22.998Z</time></trkpt><trkpt lat="44.8221226876137" lon="4.779001460213722"><ele>109.99999999999999</ele><time>2026-04-08T15:42:24.998Z</time></trkpt><trkpt lat="44.82212161825164" lon="4.778895919964567"><ele>110.0</ele><time>2026-04-08T15:42:26.998Z</time></trkpt><trkpt lat="44.82210119882732" lon="4.778790244876094"><ele>110.0</ele><time>2026-04-08T15:42:28.998Z</time></trkpt><trkpt lat="44.82210681819745" lon="4.778666044578503"><ele>110.0</ele><time>2026-04-08T15:42:30.998Z</time></trkpt><trkpt lat="44.82209697745933" lon="4.778552058906544"><ele>109.99999999999999</ele><time>2026-04-08T15:42:32.998Z</time></trkpt><trkpt lat="44.82209071970345" lon="4.778431238761291"><ele>110.0</ele><time>2026-04-08T15:42:34.998Z</time></trkpt><trkpt lat="44.82207961032929" lon="4.778305368832344"><ele>109.99999999999999</ele><time>2026-04-08T15:42:36.998Z</time></trkpt><trkpt lat="44.8220706100967" lon="4.778194196393527"><ele>110.0</ele><time>2026-04-08T15:42:38.998Z</time></trkpt><trkpt lat="44.82206439568443" lon="4.77807601610708"><ele>110.0</ele><time>2026-04-08T15:42:40.998Z</time></trkpt><trkpt lat="44.82206076562051" lon="4.777969998165816"><ele>110.0</ele><time>2026-04-08T15:42:42.998Z</time></trkpt><trkpt lat="44.822036316889836" lon="4.7778532034697925"><ele>109.99999999999999</ele><time>2026-04-08T15:42:44.997Z</time></trkpt><trkpt lat="44.82200375483057" lon="4.777748911670493"><ele>110.0</ele><time>2026-04-08T15:42:46.997Z</time></trkpt><trkpt lat="44.82198747356275" lon="4.77763106733894"><ele>109.83333333333333</ele><time>2026-04-08T15:42:48.997Z</time></trkpt><trkpt lat="44.82195647729809" lon="4.77751888926892"><ele>109.66666666666666</ele><time>2026-04-08T15:42:50.997Z</time></trkpt><trkpt lat="44.82192872978319" lon="4.7774092517632"><ele>109.5</ele><time>2026-04-08T15:42:52.997Z</time></trkpt><trkpt lat="44.82190063666283" lon="4.777308608690263"><ele>109.33333333333334</ele><time>2026-04-08T15:42:54.997Z</time></trkpt><trkpt lat="44.82187505465048" lon="4.777203849423458"><ele>109.16666666666667</ele><time>2026-04-08T15:42:56.997Z</time></trkpt><trkpt lat="44.82184113755897" lon="4.77710288449953"><ele>109.0</ele><time>2026-04-08T15:42:58.997Z</time></trkpt><trkpt lat="44.821825182061616" lon="4.776979290520916"><ele>113.80000000000001</ele><time>2026-04-08T15:43:00.997Z</time></trkpt><trkpt lat="44.821805234150084" lon="4.776866744514767"><ele>118.60000000000001</ele><time>2026-04-08T15:43:02.997Z</time></trkpt><trkpt lat="44.821782169704356" lon="4.776736048277113"><ele>123.4</ele><time>2026-04-08T15:43:04.997Z</time></trkpt><trkpt lat="44.82176129335756" lon="4.7765991503869"><ele>128.20000000000002</ele><time>2026-04-08T15:43:06.997Z</time></trkpt><trkpt lat="44.821752614732674" lon="4.776475883864552"><ele>133.0</ele><time>2026-04-08T15:43:08.997Z</time></trkpt><trkpt lat="44.821748977416014" lon="4.776353990871441"><ele>133.0</ele><time>2026-04-08T15:43:10.997Z</time></trkpt><trkpt lat="44.82173754015519" lon="4.776223455641163"><ele>133.0</ele><time>2026-04-08T15:43:12.997Z</time></trkpt><trkpt lat="44.82172635581602" lon="4.776083227857804"><ele>133.0</ele><time>2026-04-08T15:43:14.997Z</time></trkpt><trkpt lat="44.821714000568655" lon="4.775943324073235"><ele>133.0</ele><time>2026-04-08T15:43:16.997Z</time></trkpt><trkpt lat="44.82169815955518" lon="4.775812591487351"><ele>133.0</ele><time>2026-04-08T15:43:18.997Z</time></trkpt><trkpt lat="44.82167695710558" lon="4.775682072408039"><ele>133.33333333333334</ele><time>2026-04-08T15:43:20.997Z</time></trkpt><trkpt lat="44.82165909727707" lon="4.775552332128756"><ele>133.66666666666669</ele><time>2026-04-08T15:43:22.997Z</time></trkpt><trkpt lat="44.82164109586885" lon="4.775430575714988"><ele>134.0</ele><time>2026-04-08T15:43:24.997Z</time></trkpt><trkpt lat="44.82161717124075" lon="4.775308352429777"><ele>134.33333333333334</ele><time>2026-04-08T15:43:26.997Z</time></trkpt><trkpt lat="44.82159082421684" lon="4.775189444099833"><ele>134.66666666666666</ele><time>2026-04-08T15:43:28.997Z</time></trkpt><trkpt lat="44.82159333016755" lon="4.775078359532919"><ele>135.0</ele><time>2026-04-08T15:43:30.997Z</time></trkpt><trkpt lat="44.82156313887179" lon="4.774960585188689"><ele>133.8</ele><time>2026-04-08T15:43:32.997Z</time></trkpt><trkpt lat="44.821559083574165" lon="4.774852987835761"><ele>132.6</ele><time>2026-04-08T15:43:34.997Z</time></trkpt><trkpt lat="44.821571376144014" lon="4.774729053714889"><ele>131.4</ele><time>2026-04-08T15:43:36.997Z</time></trkpt><trkpt lat="44.82156083117422" lon="4.774590726221158"><ele>130.2</ele><time>2026-04-08T15:43:38.996Z</time></trkpt><trkpt lat="44.82154995810401" lon="4.774447598649339"><ele>129.0</ele><time>2026-04-08T15:43:40.996Z</time></trkpt><trkpt lat="44.821540567300715" lon="4.774322171283676"><ele>128.2</ele><time>2026-04-08T15:43:42.996Z</time></trkpt><trkpt lat="44.82152798184385" lon="4.774191821043155"><ele>127.4</ele><time>2026-04-08T15:43:44.996Z</time></trkpt><trkpt lat="44.82150966313451" lon="4.774044762065637"><ele>126.6</ele><time>2026-04-08T15:43:46.997Z</time></trkpt><trkpt lat="44.82151941740846" lon="4.773916879168119"><ele>125.8</ele><time>2026-04-08T15:43:48.996Z</time></trkpt><trkpt lat="44.821523899783514" lon="4.773769461992155"><ele>125.0</ele><time>2026-04-08T15:43:50.996Z</time></trkpt><trkpt lat="44.82153178736322" lon="4.773627173854995"><ele>125.0</ele><time>2026-04-08T15:43:52.996Z</time></trkpt><trkpt lat="44.82153092116169" lon="4.7734772464929485"><ele>125.0</ele><time>2026-04-08T15:43:54.996Z</time></trkpt><trkpt lat="44.821524429876426" lon="4.7733166760623655"><ele>125.0</ele><time>2026-04-08T15:43:56.996Z</time></trkpt><trkpt lat="44.82152258210325" lon="4.77314720304618"><ele>125.0</ele><time>2026-04-08T15:43:58.996Z</time></trkpt><trkpt lat="44.82151136425153" lon="4.772979596476698"><ele>125.0</ele><time>2026-04-08T15:44:00.996Z</time></trkpt><trkpt lat="44.821502115640506" lon="4.772829827131751"><ele>125.0</ele><time>2026-04-08T15:44:02.996Z</time></trkpt><trkpt lat="44.82151269689751" lon="4.772693155811459"><ele>125.0</ele><time>2026-04-08T15:44:04.996Z</time></trkpt><trkpt lat="44.82150242597168" lon="4.772560617359993"><ele>125.0</ele><time>2026-04-08T15:44:06.996Z</time></trkpt><trkpt lat="44.8214998336689" lon="4.772435650885677"><ele>125.0</ele><time>2026-04-08T15:44:08.996Z</time></trkpt><trkpt lat="44.82149332328967" lon="4.772312351895658"><ele>124.66666666666666</ele><time>2026-04-08T15:44:10.996Z</time></trkpt><trkpt lat="44.8214877206281" lon="4.7722116200697995"><ele>124.33333333333333</ele><time>2026-04-08T15:44:12.996Z</time></trkpt><trkpt lat="44.821484319063494" lon="4.772099744894817"><ele>124.0</ele><time>2026-04-08T15:44:14.995Z</time></trkpt><trkpt lat="44.82145763640102" lon="4.771982732850237"><ele>123.66666666666666</ele><time>2026-04-08T15:44:16.995Z</time></trkpt><trkpt lat="44.82141820968884" lon="4.77187640741261"><ele>123.33333333333333</ele><time>2026-04-08T15:44:18.995Z</time></trkpt><trkpt lat="44.821380192419504" lon="4.771757908689572"><ele>123.0</ele><time>2026-04-08T15:44:20.995Z</time></trkpt><trkpt lat="44.82136992863919" lon="4.771623553488361"><ele>122.0</ele><time>2026-04-08T15:44:22.995Z</time></trkpt><trkpt lat="44.821331529522865" lon="4.771511887369418"><ele>121.00000000000001</ele><time>2026-04-08T15:44:24.995Z</time></trkpt><trkpt lat="44.821319084428225" lon="4.771371235152562"><ele>120.00000000000001</ele><time>2026-04-08T15:44:26.995Z</time></trkpt><trkpt lat="44.82129095313844" lon="4.771235731432971"><ele>119.0</ele><time>2026-04-08T15:44:28.995Z</time></trkpt><trkpt lat="44.82125338252318" lon="4.771114058732971"><ele>118.0</ele><time>2026-04-08T15:44:30.995Z</time></trkpt><trkpt lat="44.821237431942755" lon="4.770981792504451"><ele>117.16666666666667</ele><time>2026-04-08T15:44:32.995Z</time></trkpt><trkpt lat="44.82121627480656" lon="4.770882548421437"><ele>116.33333333333334</ele><time>2026-04-08T15:44:34.995Z</time></trkpt><trkpt lat="44.821185502055535" lon="4.770778173507226"><ele>115.5</ele><time>2026-04-08T15:44:36.995Z</time></trkpt><trkpt lat="44.821161357421985" lon="4.7706749948647404"><ele>114.66666666666666</ele><time>2026-04-08T15:44:38.995Z</time></trkpt><trkpt lat="44.821135265205434" lon="4.770569244219746"><ele>113.83333333333333</ele><time>2026-04-08T15:44:40.995Z</time></trkpt><trkpt lat="44.8211054178269" lon="4.770479301274824"><ele>113.0</ele><time>2026-04-08T15:44:42.995Z</time></trkpt><trkpt lat="44.82107010579986" lon="4.770390707340335"><ele>112.99999999999999</ele><time>2026-04-08T15:44:44.995Z</time></trkpt><trkpt lat="44.82104486809519" lon="4.770281212231128"><ele>113.0</ele><time>2026-04-08T15:44:46.995Z</time></trkpt><trkpt lat="44.82103524545716" lon="4.7701730272155585"><ele>113.0</ele><time>2026-04-08T15:44:48.995Z</time></trkpt><trkpt lat="44.82101096892861" lon="4.770064290791791"><ele>113.0</ele><time>2026-04-08T15:44:50.995Z</time></trkpt><trkpt lat="44.820987693477534" lon="4.769958115599771"><ele>112.99999999999999</ele><time>2026-04-08T15:44:52.995Z</time></trkpt><trkpt lat="44.82096764902189" lon="4.769864395462539"><ele>113.0</ele><time>2026-04-08T15:44:54.995Z</time></trkpt><trkpt lat="44.82094351967513" lon="4.769763062938136"><ele>115.83333333333333</ele><time>2026-04-08T15:44:56.995Z</time></trkpt><trkpt lat="44.82090690528343" lon="4.769673802328752"><ele>118.66666666666666</ele><time>2026-04-08T15:44:58.995Z</time></trkpt><trkpt lat="44.82087939172694" lon="4.769572209100884"><ele>121.5</ele><time>2026-04-08T15:45:00.995Z</time></trkpt><trkpt lat="44.82083228821698" lon="4.769481226728765"><ele>124.33333333333334</ele><time>2026-04-08T15:45:02.995Z</time></trkpt><trkpt lat="44.820811653903114" lon="4.769362549173864"><ele>127.16666666666667</ele><time>2026-04-08T15:45:04.995Z</time></trkpt><trkpt lat="44.820774592974644" lon="4.769261252006947"><ele>130.0</ele><time>2026-04-08T15:45:06.995Z</time></trkpt><trkpt lat="44.8207482077918" lon="4.769177543632562"><ele>130.0</ele><time>2026-04-08T15:45:08.995Z</time></trkpt><trkpt lat="44.82070743372294" lon="4.769069811513904"><ele>130.0</ele><time>2026-04-08T15:45:10.995Z</time></trkpt><trkpt lat="44.820698884456704" lon="4.768974362189603"><ele>130.0</ele><time>2026-04-08T15:45:12.995Z</time></trkpt><trkpt lat="44.820667026193036" lon="4.7688552690682595"><ele>130.0</ele><time>2026-04-08T15:45:14.995Z</time></trkpt><trkpt lat="44.820655036789766" lon="4.768751765137504"><ele>130.0</ele><time>2026-04-08T15:45:16.995Z</time></trkpt><trkpt lat="44.820611228274984" lon="4.768645715897148"><ele>130.0</ele><time>2026-04-08T15:45:18.995Z</time></trkpt><trkpt lat="44.82059510836959" lon="4.768530561936125"><ele>128.66666666666669</ele><time>2026-04-08T15:45:20.995Z</time></trkpt><trkpt lat="44.82056307949322" lon="4.76841039520458"><ele>127.33333333333334</ele><time>2026-04-08T15:45:22.995Z</time></trkpt><trkpt lat="44.820555572756135" lon="4.768298777765415"><ele>126.0</ele><time>2026-04-08T15:45:24.995Z</time></trkpt><trkpt lat="44.82053601188654" lon="4.768205073918118"><ele>124.66666666666666</ele><time>2026-04-08T15:45:26.995Z</time></trkpt><trkpt lat="44.82054233240897" lon="4.768085965711184"><ele>123.33333333333333</ele><time>2026-04-08T15:45:28.995Z</time></trkpt><trkpt lat="44.820519309390505" lon="4.767979543748161"><ele>122.0</ele><time>2026-04-08T15:45:30.995Z</time></trkpt><trkpt lat="44.82052136867117" lon="4.767855442632831"><ele>121.99999999999999</ele><time>2026-04-08T15:45:32.995Z</time></trkpt><trkpt lat="44.82052102094475" lon="4.767726721055054"><ele>122.0</ele><time>2026-04-08T15:45:34.995Z</time></trkpt><trkpt lat="44.82051101640046" lon="4.767622328133769"><ele>122.0</ele><time>2026-04-08T15:45:36.995Z</time></trkpt><trkpt lat="44.82050335813088" lon="4.76750729655014"><ele>122.0</ele><time>2026-04-08T15:45:38.995Z</time></trkpt><trkpt lat="44.82050028707132" lon="4.767399728053306"><ele>121.99999999999999</ele><time>2026-04-08T15:45:40.995Z</time></trkpt><trkpt lat="44.82047410830633" lon="4.767286209103967"><ele>122.0</ele><time>2026-04-08T15:45:42.995Z</time></trkpt><trkpt lat="44.82045312998998" lon="4.767188145755253"><ele>120.99999999999999</ele><time>2026-04-08T15:45:44.995Z</time></trkpt><trkpt lat="44.82042953037589" lon="4.76706319902755"><ele>120.0</ele><time>2026-04-08T15:45:46.996Z</time></trkpt><trkpt lat="44.82040469198589" lon="4.766960447751283"><ele>119.0</ele><time>2026-04-08T15:45:48.996Z</time></trkpt><trkpt lat="44.820383982132924" lon="4.766849909927674"><ele>118.0</ele><time>2026-04-08T15:45:50.996Z</time></trkpt><trkpt lat="44.82034646357282" lon="4.766733133326662"><ele>116.99999999999999</ele><time>2026-04-08T15:45:52.996Z</time></trkpt><trkpt lat="44.82030785018167" lon="4.7666302919435095"><ele>116.0</ele><time>2026-04-08T15:45:54.996Z</time></trkpt><trkpt lat="44.8202778256746" lon="4.766501858107423"><ele>115.0</ele><time>2026-04-08T15:45:56.995Z</time></trkpt><trkpt lat="44.82024746183584" lon="4.766372856457049"><ele>114.0</ele><time>2026-04-08T15:45:58.995Z</time></trkpt><trkpt lat="44.82022672110741" lon="4.76623458189696"><ele>113.0</ele><time>2026-04-08T15:46:00.995Z</time></trkpt><trkpt lat="44.820201957632364" lon="4.766111600678509"><ele>112.0</ele><time>2026-04-08T15:46:02.995Z</time></trkpt><trkpt lat="44.82018631883872" lon="4.765976211456106"><ele>111.0</ele><time>2026-04-08T15:46:04.995Z</time></trkpt><trkpt lat="44.82017228865916" lon="4.765835810506193"><ele>110.16666666666667</ele><time>2026-04-08T15:46:06.995Z</time></trkpt><trkpt lat="44.82015972711558" lon="4.765696703770818"><ele>109.33333333333334</ele><time>2026-04-08T15:46:08.995Z</time></trkpt><trkpt lat="44.820148269567966" lon="4.765580371843263"><ele>108.5</ele><time>2026-04-08T15:46:10.995Z</time></trkpt><trkpt lat="44.82011027773893" lon="4.765493237295952"><ele>107.66666666666667</ele><time>2026-04-08T15:46:14.995Z</time></trkpt><trkpt lat="44.82012214534183" lon="4.765384057468853"><ele>106.83333333333334</ele><time>2026-04-08T15:49:16.995Z</time></trkpt><trkpt lat="44.82010879393196" lon="4.765286486567434"><ele>106.0</ele><time>2026-04-08T15:49:20.995Z</time></trkpt><trkpt lat="44.8200945919727" lon="4.7651771179081575"><ele>111.00000000000001</ele><time>2026-04-08T15:49:23.995Z</time></trkpt><trkpt lat="44.820086809093254" lon="4.765054786373049"><ele>116.0</ele><time>2026-04-08T15:49:26.995Z</time></trkpt><trkpt lat="44.82007849541395" lon="4.764916985532798"><ele>121.0</ele><time>2026-04-08T15:49:29.995Z</time></trkpt><trkpt lat="44.82007864605073" lon="4.764814328393786"><ele>126.0</ele><time>2026-04-08T15:49:31.995Z</time></trkpt><trkpt lat="44.82008145010502" lon="4.7647088320935564"><ele>131.0</ele><time>2026-04-08T15:49:33.995Z</time></trkpt><trkpt lat="44.820080602873595" lon="4.764597138407259"><ele>136.0</ele><time>2026-04-08T15:49:35.995Z</time></trkpt><trkpt lat="44.82008165642498" lon="4.764484748533602"><ele>136.0</ele><time>2026-04-08T15:49:37.995Z</time></trkpt><trkpt lat="44.82007826149773" lon="4.76436008808253"><ele>136.0</ele><time>2026-04-08T15:49:39.995Z</time></trkpt><trkpt lat="44.82008750892457" lon="4.764225731107633"><ele>136.0</ele><time>2026-04-08T15:49:41.995Z</time></trkpt><trkpt lat="44.82008109701377" lon="4.7641015917793625"><ele>136.0</ele><time>2026-04-08T15:49:43.995Z</time></trkpt><trkpt lat="44.82006494126856" lon="4.763977393081007"><ele>136.0</ele><time>2026-04-08T15:49:45.995Z</time></trkpt><trkpt lat="44.82005445072769" lon="4.763846010359094"><ele>136.0</ele><time>2026-04-08T15:49:47.995Z</time></trkpt><trkpt lat="44.820059406868374" lon="4.763698873783831"><ele>136.0</ele><time>2026-04-08T15:49:49.995Z</time></trkpt><trkpt lat="44.820042981352216" lon="4.763566324929077"><ele>136.0</ele><time>2026-04-08T15:49:51.995Z</time></trkpt><trkpt lat="44.82002382442423" lon="4.763422908214624"><ele>136.0</ele><time>2026-04-08T15:49:53.995Z</time></trkpt><trkpt lat="44.820011078446576" lon="4.763285773984191"><ele>136.0</ele><time>2026-04-08T15:49:55.995Z</time></trkpt><trkpt lat="44.81999049113109" lon="4.763148937500313"><ele>135.0</ele><time>2026-04-08T15:49:57.995Z</time></trkpt><trkpt lat="44.81996517662922" lon="4.763022119726963"><ele>134.0</ele><time>2026-04-08T15:49:59.995Z</time></trkpt><trkpt lat="44.81994622301147" lon="4.762881491417437"><ele>133.0</ele><time>2026-04-08T15:50:01.995Z</time></trkpt><trkpt lat="44.81992404198167" lon="4.762756048975785"><ele>132.0</ele><time>2026-04-08T15:50:03.995Z</time></trkpt><trkpt lat="44.819888219575944" lon="4.762626506623139"><ele>131.0</ele><time>2026-04-08T15:50:05.995Z</time></trkpt><trkpt lat="44.81984809138284" lon="4.762494232684999"><ele>129.6</ele><time>2026-04-08T15:50:07.995Z</time></trkpt><trkpt lat="44.819815363918735" lon="4.762359879801349"><ele>128.2</ele><time>2026-04-08T15:50:09.995Z</time></trkpt><trkpt lat="44.8197791305539" lon="4.76222393696443"><ele>126.80000000000001</ele><time>2026-04-08T15:50:11.995Z</time></trkpt><trkpt lat="44.819747597901674" lon="4.762080671357364"><ele>125.4</ele><time>2026-04-08T15:50:13.995Z</time></trkpt><trkpt lat="44.81971839948298" lon="4.761953731081125"><ele>124.0</ele><time>2026-04-08T15:50:15.995Z</time></trkpt><trkpt lat="44.81968374311176" lon="4.761823932155377"><ele>122.4</ele><time>2026-04-08T15:50:17.995Z</time></trkpt><trkpt lat="44.81966823088155" lon="4.76167972371565"><ele>120.80000000000001</ele><time>2026-04-08T15:50:19.995Z</time></trkpt><trkpt lat="44.819628694117185" lon="4.761552932176095"><ele>119.19999999999999</ele><time>2026-04-08T15:50:21.995Z</time></trkpt><trkpt lat="44.81959400072839" lon="4.761444994668817"><ele>117.6</ele><time>2026-04-08T15:50:23.995Z</time></trkpt><trkpt lat="44.81956044179636" lon="4.76130941845442"><ele>116.0</ele><time>2026-04-08T15:50:25.995Z</time></trkpt><trkpt lat="44.81954921133573" lon="4.761150295008477"><ele>114.8</ele><time>2026-04-08T15:50:27.995Z</time></trkpt><trkpt lat="44.81955608829764" lon="4.760990082434051"><ele>113.6</ele><time>2026-04-08T15:50:29.995Z</time></trkpt><trkpt lat="44.81954221554709" lon="4.7608828563021115"><ele>112.4</ele><time>2026-04-08T15:50:31.995Z</time></trkpt><trkpt lat="44.8195572035527" lon="4.76077618715421"><ele>111.2</ele><time>2026-04-08T15:50:33.995Z</time></trkpt><trkpt lat="44.819562375572545" lon="4.760638517959512"><ele>110.0</ele><time>2026-04-08T15:50:35.995Z</time></trkpt><trkpt lat="44.819554236466466" lon="4.760501952237609"><ele>110.0</ele><time>2026-04-08T15:50:37.995Z</time></trkpt><trkpt lat="44.81953838500703" lon="4.760363625807656"><ele>110.0</ele><time>2026-04-08T15:50:39.995Z</time></trkpt><trkpt lat="44.819538748323744" lon="4.760230576206813"><ele>110.0</ele><time>2026-04-08T15:50:41.995Z</time></trkpt><trkpt lat="44.81954101633042" lon="4.760104899799336"><ele>110.0</ele><time>2026-04-08T15:50:43.995Z</time></trkpt><trkpt lat="44.81954572465213" lon="4.75998332980955"><ele>110.0</ele><time>2026-04-08T15:50:45.995Z</time></trkpt><trkpt lat="44.819546314713016" lon="4.759845115353404"><ele>110.0</ele><time>2026-04-08T15:50:47.995Z</time></trkpt><trkpt lat="44.819541345714576" lon="4.759706913505304"><ele>110.0</ele><time>2026-04-08T15:50:49.995Z</time></trkpt><trkpt lat="44.81953119276879" lon="4.759566361516468"><ele>110.0</ele><time>2026-04-08T15:50:51.995Z</time></trkpt><trkpt lat="44.81951317008568" lon="4.759431070992682"><ele>110.0</ele><time>2026-04-08T15:50:53.995Z</time></trkpt><trkpt lat="44.81948901687171" lon="4.7592895155378585"><ele>110.0</ele><time>2026-04-08T15:50:55.995Z</time></trkpt><trkpt lat="44.81944980530334" lon="4.759162208929259"><ele>109.4</ele><time>2026-04-08T15:50:57.995Z</time></trkpt><trkpt lat="44.81941064483605" lon="4.759022730903757"><ele>108.8</ele><time>2026-04-08T15:50:59.995Z</time></trkpt><trkpt lat="44.81937325062534" lon="4.758884491668672"><ele>108.19999999999999</ele><time>2026-04-08T15:51:01.995Z</time></trkpt><trkpt lat="44.81933194607547" lon="4.758746133314851"><ele>107.6</ele><time>2026-04-08T15:51:03.995Z</time></trkpt><trkpt lat="44.819286240587815" lon="4.758614108778807"><ele>107.0</ele><time>2026-04-08T15:51:05.995Z</time></trkpt><trkpt lat="44.81923891323448" lon="4.758477197487745"><ele>113.19999999999999</ele><time>2026-04-08T15:51:07.995Z</time></trkpt><trkpt lat="44.81920976801866" lon="4.758328063731609"><ele>119.39999999999999</ele><time>2026-04-08T15:51:09.995Z</time></trkpt><trkpt lat="44.81919511714537" lon="4.75816882811567"><ele>125.60000000000001</ele><time>2026-04-08T15:51:11.995Z</time></trkpt><trkpt lat="44.81918733261531" lon="4.758019544177787"><ele>131.8</ele><time>2026-04-08T15:51:13.995Z</time></trkpt><trkpt lat="44.819179597180934" lon="4.7578748953916925"><ele>138.0</ele><time>2026-04-08T15:51:15.995Z</time></trkpt><trkpt lat="44.819180174367595" lon="4.757726171062613"><ele>137.6</ele><time>2026-04-08T15:51:17.995Z</time></trkpt><trkpt lat="44.81919199801013" lon="4.757579080342663"><ele>137.20000000000002</ele><time>2026-04-08T15:51:19.995Z</time></trkpt><trkpt lat="44.81918874151501" lon="4.757442041734001"><ele>136.8</ele><time>2026-04-08T15:51:21.995Z</time></trkpt><trkpt lat="44.8191884545283" lon="4.757296549346234"><ele>136.4</ele><time>2026-04-08T15:51:23.995Z</time></trkpt><trkpt lat="44.81918804887777" lon="4.7571597215676205"><ele>136.0</ele><time>2026-04-08T15:51:25.995Z</time></trkpt><trkpt lat="44.81919798499298" lon="4.757016701527152"><ele>136.0</ele><time>2026-04-08T15:51:27.995Z</time></trkpt><trkpt lat="44.81919745522006" lon="4.7568762013615355"><ele>136.0</ele><time>2026-04-08T15:51:29.995Z</time></trkpt><trkpt lat="44.819189250838065" lon="4.756735551286697"><ele>136.0</ele><time>2026-04-08T15:51:31.995Z</time></trkpt><trkpt lat="44.81917163136834" lon="4.7565902130810205"><ele>136.0</ele><time>2026-04-08T15:51:33.995Z</time></trkpt><trkpt lat="44.819148623180155" lon="4.756448461731482"><ele>136.0</ele><time>2026-04-08T15:51:35.995Z</time></trkpt><trkpt lat="44.81911862719726" lon="4.756318996499164"><ele>135.6</ele><time>2026-04-08T15:51:37.995Z</time></trkpt><trkpt lat="44.81908768693961" lon="4.756185908109224"><ele>135.2</ele><time>2026-04-08T15:51:39.995Z</time></trkpt><trkpt lat="44.81904687282887" lon="4.756052859164818"><ele>134.8</ele><time>2026-04-08T15:51:41.995Z</time></trkpt><trkpt lat="44.819017464054575" lon="4.7559279868075"><ele>134.4</ele><time>2026-04-08T15:51:43.995Z</time></trkpt><trkpt lat="44.818985959201335" lon="4.755802622200437"><ele>134.0</ele><time>2026-04-08T15:51:45.995Z</time></trkpt><trkpt lat="44.81895502738148" lon="4.755655811135544"><ele>132.6</ele><time>2026-04-08T15:51:47.995Z</time></trkpt><trkpt lat="44.818932485888695" lon="4.755506657162185"><ele>131.2</ele><time>2026-04-08T15:51:49.995Z</time></trkpt><trkpt lat="44.8189018754816" lon="4.7553612905766975"><ele>129.79999999999998</ele><time>2026-04-08T15:51:51.995Z</time></trkpt><trkpt lat="44.818876489225005" lon="4.755216537369247"><ele>128.4</ele><time>2026-04-08T15:51:53.995Z</time></trkpt><trkpt lat="44.81885037378344" lon="4.755070549051472"><ele>127.0</ele><time>2026-04-08T15:51:55.995Z</time></trkpt><trkpt lat="44.81882935184981" lon="4.754918460338714"><ele>125.0</ele><time>2026-04-08T15:51:57.995Z</time></trkpt><trkpt lat="44.818800507550876" lon="4.754776746212365"><ele>122.99999999999999</ele><time>2026-04-08T15:51:59.995Z</time></trkpt><trkpt lat="44.81877494684928" lon="4.754645378159051"><ele>120.99999999999999</ele><time>2026-04-08T15:52:01.995Z</time></trkpt><trkpt lat="44.818733683505435" lon="4.754522860324864"><ele>119.0</ele><time>2026-04-08T15:52:03.994Z</time></trkpt><trkpt lat="44.818691751066154" lon="4.754405389065886"><ele>117.0</ele><time>2026-04-08T15:52:05.994Z</time></trkpt><trkpt lat="44.8186410223568" lon="4.754284452115023"><ele>115.19999999999999</ele><time>2026-04-08T15:52:07.995Z</time></trkpt><trkpt lat="44.818589592681896" lon="4.754168436469514"><ele>113.39999999999999</ele><time>2026-04-08T15:52:09.995Z</time></trkpt><trkpt lat="44.818535477572006" lon="4.754055760246711"><ele>111.60000000000001</ele><time>2026-04-08T15:52:11.994Z</time></trkpt><trkpt lat="44.81848850910964" lon="4.753935542218025"><ele>109.80000000000001</ele><time>2026-04-08T15:52:13.995Z</time></trkpt><trkpt lat="44.81843931166269" lon="4.75381578496913"><ele>108.0</ele><time>2026-04-08T15:52:15.995Z</time></trkpt><trkpt lat="44.818397014759356" lon="4.7537180710991205"><ele>111.4</ele><time>2026-04-08T15:52:17.995Z</time></trkpt><trkpt lat="44.818348294714234" lon="4.753612582399416"><ele>114.80000000000001</ele><time>2026-04-08T15:52:19.995Z</time></trkpt><trkpt lat="44.81829794722399" lon="4.753499509670122"><ele>118.2</ele><time>2026-04-08T15:52:21.995Z</time></trkpt><trkpt lat="44.818245273503585" lon="4.75340051091881"><ele>121.6</ele><time>2026-04-08T15:52:23.995Z</time></trkpt><trkpt lat="44.81819207537103" lon="4.753296776661821"><ele>125.0</ele><time>2026-04-08T15:52:25.995Z</time></trkpt><trkpt lat="44.818140466130174" lon="4.753195664181765"><ele>125.0</ele><time>2026-04-08T15:52:27.995Z</time></trkpt><trkpt lat="44.81809732584841" lon="4.753088946319525"><ele>125.0</ele><time>2026-04-08T15:52:29.995Z</time></trkpt><trkpt lat="44.81804869065949" lon="4.752981540120197"><ele>125.0</ele><time>2026-04-08T15:52:31.995Z</time></trkpt><trkpt lat="44.81799791799292" lon="4.75287650505223"><ele>125.0</ele><time>2026-04-08T15:52:33.995Z</time></trkpt><trkpt lat="44.81794644257896" lon="4.752765709613531"><ele>125.0</ele><time>2026-04-08T15:52:35.995Z</time></trkpt><trkpt lat="44.81790029156628" lon="4.752656389115785"><ele>123.0</ele><time>2026-04-08T15:52:37.995Z</time></trkpt><trkpt lat="44.81785220737286" lon="4.752549924520607"><ele>121.0</ele><time>2026-04-08T15:52:39.995Z</time></trkpt><trkpt lat="44.81780748660252" lon="4.752444918184174"><ele>119.0</ele><time>2026-04-08T15:52:41.995Z</time></trkpt><trkpt lat="44.817761954137204" lon="4.75233092166508"><ele>117.0</ele><time>2026-04-08T15:52:43.995Z</time></trkpt><trkpt lat="44.81770523991679" lon="4.7522272601774365"><ele>115.0</ele><time>2026-04-08T15:52:45.995Z</time></trkpt><trkpt lat="44.81765897683568" lon="4.7521204202707175"><ele>117.66666666666667</ele><time>2026-04-08T15:52:47.995Z</time></trkpt><trkpt lat="44.81761441479991" lon="4.752019176091206"><ele>120.33333333333334</ele><time>2026-04-08T15:52:49.995Z</time></trkpt><trkpt lat="44.817566860812" lon="4.7519171829530515"><ele>123.0</ele><time>2026-04-08T15:52:51.995Z</time></trkpt><trkpt lat="44.81752181803036" lon="4.7518079257351475"><ele>125.66666666666666</ele><time>2026-04-08T15:52:53.995Z</time></trkpt><trkpt lat="44.81747798481785" lon="4.7517073412858775"><ele>128.33333333333331</ele><time>2026-04-08T15:52:55.995Z</time></trkpt><trkpt lat="44.81743079049448" lon="4.751605628604053"><ele>131.0</ele><time>2026-04-08T15:52:57.995Z</time></trkpt><trkpt lat="44.817389184890004" lon="4.7515033491039995"><ele>131.0</ele><time>2026-04-08T15:52:59.995Z</time></trkpt><trkpt lat="44.81732738053187" lon="4.751412775639396"><ele>131.0</ele><time>2026-04-08T15:53:01.995Z</time></trkpt><trkpt lat="44.81727690936791" lon="4.75131498570513"><ele>131.0</ele><time>2026-04-08T15:53:03.995Z</time></trkpt><trkpt lat="44.81720771255726" lon="4.751227184796874"><ele>131.0</ele><time>2026-04-08T15:53:05.995Z</time></trkpt><trkpt lat="44.817144914243144" lon="4.751141113982702"><ele>131.0</ele><time>2026-04-08T15:53:07.995Z</time></trkpt><trkpt lat="44.81708879668015" lon="4.751057986340846"><ele>131.0</ele><time>2026-04-08T15:53:09.995Z</time></trkpt><trkpt lat="44.81702625984844" lon="4.750972875360921"><ele>128.66666666666666</ele><time>2026-04-08T15:53:11.995Z</time></trkpt><trkpt lat="44.81696654209507" lon="4.750890375475636"><ele>126.33333333333333</ele><time>2026-04-08T15:53:13.995Z</time></trkpt><trkpt lat="44.816905541518956" lon="4.75080080935776"><ele>124.0</ele><time>2026-04-08T15:53:15.995Z</time></trkpt><trkpt lat="44.816852897647614" lon="4.750717138822968"><ele>121.66666666666666</ele><time>2026-04-08T15:53:17.995Z</time></trkpt><trkpt lat="44.816813606608065" lon="4.750637211718572"><ele>119.33333333333333</ele><time>2026-04-08T15:53:19.995Z</time></trkpt><trkpt lat="44.816761459910374" lon="4.750541865755138"><ele>117.0</ele><time>2026-04-08T15:53:21.995Z</time></trkpt><trkpt lat="44.81670691241142" lon="4.750447474774975"><ele>119.83333333333333</ele><time>2026-04-08T15:53:23.995Z</time></trkpt><trkpt lat="44.81666038236723" lon="4.75034759792701"><ele>122.66666666666666</ele><time>2026-04-08T15:53:25.995Z</time></trkpt><trkpt lat="44.816621937917674" lon="4.750241391260239"><ele>125.5</ele><time>2026-04-08T15:53:27.995Z</time></trkpt><trkpt lat="44.81659063304265" lon="4.750125130626595"><ele>128.33333333333331</ele><time>2026-04-08T15:53:29.995Z</time></trkpt><trkpt lat="44.81656830848995" lon="4.750008558581809"><ele>131.16666666666666</ele><time>2026-04-08T15:53:31.995Z</time></trkpt><trkpt lat="44.81655030743509" lon="4.749872231562408"><ele>134.0</ele><time>2026-04-08T15:53:33.995Z</time></trkpt><trkpt lat="44.816532919382986" lon="4.7497409267496415"><ele>134.0</ele><time>2026-04-08T15:53:35.995Z</time></trkpt><trkpt lat="44.816528051884625" lon="4.749592586070894"><ele>134.0</ele><time>2026-04-08T15:53:37.995Z</time></trkpt><trkpt lat="44.81652236121631" lon="4.7494452444460995"><ele>134.0</ele><time>2026-04-08T15:53:39.995Z</time></trkpt><trkpt lat="44.81650596386363" lon="4.749337410546529"><ele>134.0</ele><time>2026-04-08T15:53:41.995Z</time></trkpt><trkpt lat="44.81649481788048" lon="4.749217919608456"><ele>134.0</ele><time>2026-04-08T15:53:43.995Z</time></trkpt><trkpt lat="44.81647983025846" lon="4.749104114626961"><ele>133.2</ele><time>2026-04-08T15:53:45.995Z</time></trkpt><trkpt lat="44.81647315014534" lon="4.748969858820689"><ele>132.4</ele><time>2026-04-08T15:53:47.995Z</time></trkpt><trkpt lat="44.816459444185156" lon="4.748857968999324"><ele>131.6</ele><time>2026-04-08T15:53:49.995Z</time></trkpt><trkpt lat="44.81644708017603" lon="4.748738337267257"><ele>130.8</ele><time>2026-04-08T15:53:51.995Z</time></trkpt><trkpt lat="44.81643846002673" lon="4.748585008239622"><ele>130.0</ele><time>2026-04-08T15:53:53.995Z</time></trkpt><trkpt lat="44.81641916559326" lon="4.748455552850176"><ele>129.16666666666669</ele><time>2026-04-08T15:53:55.995Z</time></trkpt><trkpt lat="44.81640451615302" lon="4.748326577561556"><ele>128.33333333333334</ele><time>2026-04-08T15:53:57.995Z</time></trkpt><trkpt lat="44.816375383345324" lon="4.748210392299223"><ele>127.5</ele><time>2026-04-08T15:53:59.995Z</time></trkpt><trkpt lat="44.8163396631261" lon="4.748107669874125"><ele>126.66666666666666</ele><time>2026-04-08T15:54:01.995Z</time></trkpt><trkpt lat="44.81630544856001" lon="4.747987549094859"><ele>125.83333333333333</ele><time>2026-04-08T15:54:03.995Z</time></trkpt><trkpt lat="44.81628114233534" lon="4.747862201429817"><ele>125.0</ele><time>2026-04-08T15:54:05.995Z</time></trkpt><trkpt lat="44.81624139818143" lon="4.747737117420452"><ele>123.2</ele><time>2026-04-08T15:54:07.994Z</time></trkpt><trkpt lat="44.816220708586826" lon="4.747597891100296"><ele>121.4</ele><time>2026-04-08T15:54:09.994Z</time></trkpt><trkpt lat="44.816196329777604" lon="4.747460322419878"><ele>119.6</ele><time>2026-04-08T15:54:11.995Z</time></trkpt><trkpt lat="44.81616955869832" lon="4.747329863083786"><ele>117.8</ele><time>2026-04-08T15:54:13.994Z</time></trkpt><trkpt lat="44.81614325974122" lon="4.7472125040909"><ele>116.0</ele><time>2026-04-08T15:54:15.995Z</time></trkpt><trkpt lat="44.81610680923709" lon="4.747100157430112"><ele>116.0</ele><time>2026-04-08T15:54:17.994Z</time></trkpt><trkpt lat="44.816090753801575" lon="4.746962770476644"><ele>116.0</ele><time>2026-04-08T15:54:19.994Z</time></trkpt><trkpt lat="44.81607014156008" lon="4.746846435252015"><ele>116.0</ele><time>2026-04-08T15:54:21.994Z</time></trkpt><trkpt lat="44.816033116098275" lon="4.74673026049502"><ele>116.0</ele><time>2026-04-08T15:54:23.994Z</time></trkpt><trkpt lat="44.816016119787776" lon="4.746620965417818"><ele>116.0</ele><time>2026-04-08T15:54:25.994Z</time></trkpt><trkpt lat="44.81599859197127" lon="4.746483509319288"><ele>116.0</ele><time>2026-04-08T15:54:27.994Z</time></trkpt><trkpt lat="44.81598323028216" lon="4.746355594097534"><ele>116.0</ele><time>2026-04-08T15:54:29.994Z</time></trkpt><trkpt lat="44.81598352439091" lon="4.746220659178262"><ele>116.0</ele><time>2026-04-08T15:54:31.994Z</time></trkpt><trkpt lat="44.81600849720939" lon="4.746087589977519"><ele>116.0</ele><time>2026-04-08T15:54:33.994Z</time></trkpt><trkpt lat="44.81602375965099" lon="4.74596295650207"><ele>116.0</ele><time>2026-04-08T15:54:35.994Z</time></trkpt><trkpt lat="44.816044115516945" lon="4.745835073442274"><ele>115.8</ele><time>2026-04-08T15:54:37.994Z</time></trkpt><trkpt lat="44.8160655605937" lon="4.745703467120343"><ele>115.6</ele><time>2026-04-08T15:54:39.994Z</time></trkpt><trkpt lat="44.81609154053015" lon="4.7455747435569515"><ele>115.4</ele><time>2026-04-08T15:54:41.994Z</time></trkpt><trkpt lat="44.81610791410899" lon="4.745451932378687"><ele>115.2</ele><time>2026-04-08T15:54:43.994Z</time></trkpt><trkpt lat="44.81612153524414" lon="4.745330997796795"><ele>115.0</ele><time>2026-04-08T15:54:45.994Z</time></trkpt><trkpt lat="44.816142656996774" lon="4.745213374798612"><ele>116.0</ele><time>2026-04-08T15:54:47.994Z</time></trkpt><trkpt lat="44.816169454007095" lon="4.745090578015045"><ele>117.0</ele><time>2026-04-08T15:54:49.994Z</time></trkpt><trkpt lat="44.8162012888929" lon="4.744966452209448"><ele>118.0</ele><time>2026-04-08T15:54:51.994Z</time></trkpt><trkpt lat="44.816220564764" lon="4.74483657844257"><ele>119.0</ele><time>2026-04-08T15:54:53.994Z</time></trkpt><trkpt lat="44.816239496057165" lon="4.744709162373426"><ele>120.0</ele><time>2026-04-08T15:54:55.994Z</time></trkpt><trkpt lat="44.81626233935956" lon="4.744586700394987"><ele>120.0</ele><time>2026-04-08T15:54:57.994Z</time></trkpt><trkpt lat="44.81629181963378" lon="4.7444570683221965"><ele>120.0</ele><time>2026-04-08T15:54:59.994Z</time></trkpt><trkpt lat="44.816312009638956" lon="4.744329247505259"><ele>120.0</ele><time>2026-04-08T15:55:01.994Z</time></trkpt><trkpt lat="44.81633134854205" lon="4.7442012826166575"><ele>120.0</ele><time>2026-04-08T15:55:03.994Z</time></trkpt><trkpt lat="44.81635583642815" lon="4.744085371782401"><ele>120.0</ele><time>2026-04-08T15:55:05.994Z</time></trkpt><trkpt lat="44.816370456467624" lon="4.743962287185557"><ele>121.2</ele><time>2026-04-08T15:55:07.994Z</time></trkpt><trkpt lat="44.81638328014155" lon="4.743836664098155"><ele>122.4</ele><time>2026-04-08T15:55:09.994Z</time></trkpt><trkpt lat="44.81638516950003" lon="4.743716430542063"><ele>123.6</ele><time>2026-04-08T15:55:11.994Z</time></trkpt><trkpt lat="44.81639385727228" lon="4.743579211717708"><ele>124.8</ele><time>2026-04-08T15:55:13.994Z</time></trkpt><trkpt lat="44.81637873635683" lon="4.7434580015671175"><ele>126.0</ele><time>2026-04-08T15:55:15.994Z</time></trkpt><trkpt lat="44.81636757462385" lon="4.743330217410621"><ele>126.4</ele><time>2026-04-08T15:55:17.994Z</time></trkpt><trkpt lat="44.81637216306027" lon="4.743203257814529"><ele>126.8</ele><time>2026-04-08T15:55:19.994Z</time></trkpt><trkpt lat="44.81636006276291" lon="4.7430762120116166"><ele>127.20000000000002</ele><time>2026-04-08T15:55:21.994Z</time></trkpt><trkpt lat="44.816362647015374" lon="4.742943025047202"><ele>127.60000000000001</ele><time>2026-04-08T15:55:23.994Z</time></trkpt><trkpt lat="44.8163541608459" lon="4.742812113060663"><ele>128.0</ele><time>2026-04-08T15:55:25.994Z</time></trkpt><trkpt lat="44.81635478998597" lon="4.742672255916049"><ele>128.20000000000002</ele><time>2026-04-08T15:55:27.994Z</time></trkpt><trkpt lat="44.816355418449504" lon="4.742533847413024"><ele>128.4</ele><time>2026-04-08T15:55:29.994Z</time></trkpt><trkpt lat="44.8163495788257" lon="4.742401470575372"><ele>128.60000000000002</ele><time>2026-04-08T15:55:31.994Z</time></trkpt><trkpt lat="44.81634020553401" lon="4.742260708900612"><ele>128.8</ele><time>2026-04-08T15:55:33.994Z</time></trkpt><trkpt lat="44.816347891652875" lon="4.742108234445236"><ele>129.0</ele><time>2026-04-08T15:55:35.994Z</time></trkpt><trkpt lat="44.81635391417517" lon="4.741966296170994"><ele>128.8</ele><time>2026-04-08T15:55:37.994Z</time></trkpt><trkpt lat="44.81636329596525" lon="4.741826325575608"><ele>128.60000000000002</ele><time>2026-04-08T15:55:39.994Z</time></trkpt><trkpt lat="44.81638866489742" lon="4.741692247443764"><ele>128.4</ele><time>2026-04-08T15:55:41.994Z</time></trkpt><trkpt lat="44.81639991094355" lon="4.74156927034362"><ele>128.20000000000002</ele><time>2026-04-08T15:55:43.994Z</time></trkpt><trkpt lat="44.8164225778719" lon="4.741420029644425"><ele>128.0</ele><time>2026-04-08T15:55:45.994Z</time></trkpt><trkpt lat="44.81646245867485" lon="4.741283514709082"><ele>128.0</ele><time>2026-04-08T15:55:47.994Z</time></trkpt><trkpt lat="44.81650373911995" lon="4.741151951541101"><ele>128.0</ele><time>2026-04-08T15:55:49.994Z</time></trkpt><trkpt lat="44.816555096771076" lon="4.741012308450428"><ele>128.0</ele><time>2026-04-08T15:55:51.994Z</time></trkpt><trkpt lat="44.81659321882508" lon="4.740875084323031"><ele>128.0</ele><time>2026-04-08T15:55:53.994Z</time></trkpt><trkpt lat="44.81664373408626" lon="4.740743992651866"><ele>128.0</ele><time>2026-04-08T15:55:55.994Z</time></trkpt><trkpt lat="44.81669230196397" lon="4.740614328916246"><ele>126.99999999999999</ele><time>2026-04-08T15:55:57.994Z</time></trkpt><trkpt lat="44.816736018073016" lon="4.740485968203695"><ele>126.0</ele><time>2026-04-08T15:55:59.994Z</time></trkpt><trkpt lat="44.816775893793775" lon="4.740374126653185"><ele>125.0</ele><time>2026-04-08T15:56:01.994Z</time></trkpt><trkpt lat="44.81682795567465" lon="4.740280824409062"><ele>124.0</ele><time>2026-04-08T15:56:03.994Z</time></trkpt><trkpt lat="44.81686730753333" lon="4.740193190079205"><ele>122.99999999999999</ele><time>2026-04-08T15:56:05.994Z</time></trkpt><trkpt lat="44.81692249264943" lon="4.7401095478103645"><ele>122.0</ele><time>2026-04-08T15:56:07.994Z</time></trkpt><trkpt lat="44.81699545346926" lon="4.740032460069578"><ele>122.0</ele><time>2026-04-08T15:56:09.994Z</time></trkpt><trkpt lat="44.81707940817382" lon="4.739953148469872"><ele>121.99999999999999</ele><time>2026-04-08T15:56:11.994Z</time></trkpt><trkpt lat="44.81713674096441" lon="4.7398659775282015"><ele>121.99999999999999</ele><time>2026-04-08T15:56:13.994Z</time></trkpt><trkpt lat="44.81720095492636" lon="4.739777109387886"><ele>122.0</ele><time>2026-04-08T15:56:15.994Z</time></trkpt><trkpt lat="44.817261954036255" lon="4.739691712066761"><ele>122.0</ele><time>2026-04-08T15:56:17.994Z</time></trkpt><trkpt lat="44.817326753695546" lon="4.739579294770407"><ele>122.0</ele><time>2026-04-08T15:56:19.994Z</time></trkpt><trkpt lat="44.81739613875272" lon="4.739476579569586"><ele>121.99999999999999</ele><time>2026-04-08T15:56:21.994Z</time></trkpt><trkpt lat="44.817473854124486" lon="4.739382317258409"><ele>121.99999999999999</ele><time>2026-04-08T15:56:23.994Z</time></trkpt><trkpt lat="44.81753745945325" lon="4.7392908036765675"><ele>122.0</ele><time>2026-04-08T15:56:25.994Z</time></trkpt><trkpt lat="44.81759514313967" lon="4.739193665111994"><ele>122.0</ele><time>2026-04-08T15:56:27.993Z</time></trkpt><trkpt lat="44.81764592895869" lon="4.7390963830408115"><ele>121.49999999999999</ele><time>2026-04-08T15:56:29.993Z</time></trkpt><trkpt lat="44.81768982711561" lon="4.739004589404566"><ele>121.0</ele><time>2026-04-08T15:56:31.993Z</time></trkpt><trkpt lat="44.81771721240054" lon="4.738887097710351"><ele>120.5</ele><time>2026-04-08T15:56:33.993Z</time></trkpt><trkpt lat="44.81775477704001" lon="4.738744279432804"><ele>120.0</ele><time>2026-04-08T15:56:35.993Z</time></trkpt><trkpt lat="44.81774995940775" lon="4.738618587453667"><ele>119.49999999999999</ele><time>2026-04-08T15:56:37.993Z</time></trkpt><trkpt lat="44.817744693228754" lon="4.738502182479012"><ele>119.0</ele><time>2026-04-08T15:56:39.993Z</time></trkpt><trkpt lat="44.81772772272092" lon="4.7384034102927695"><ele>118.99999999999999</ele><time>2026-04-08T15:56:41.993Z</time></trkpt><trkpt lat="44.81770962306666" lon="4.738275469279292"><ele>119.0</ele><time>2026-04-08T15:56:43.993Z</time></trkpt><trkpt lat="44.81768652801963" lon="4.7381619106914625"><ele>119.0</ele><time>2026-04-08T15:56:45.993Z</time></trkpt><trkpt lat="44.81765941223178" lon="4.73805654501908"><ele>119.0</ele><time>2026-04-08T15:56:47.993Z</time></trkpt><trkpt lat="44.817647135975804" lon="4.737951915247747"><ele>118.99999999999999</ele><time>2026-04-08T15:56:49.993Z</time></trkpt><trkpt lat="44.817620217042105" lon="4.737837982749868"><ele>119.0</ele><time>2026-04-08T15:56:51.993Z</time></trkpt><trkpt lat="44.81759371328239" lon="4.73771892277442"><ele>121.6</ele><time>2026-04-08T15:56:53.993Z</time></trkpt><trkpt lat="44.81756663721987" lon="4.737609424100631"><ele>124.2</ele><time>2026-04-08T15:56:55.993Z</time></trkpt><trkpt lat="44.817542229667765" lon="4.737492495034785"><ele>126.79999999999998</ele><time>2026-04-08T15:56:57.993Z</time></trkpt><trkpt lat="44.8175279169031" lon="4.737356470971528"><ele>129.4</ele><time>2026-04-08T15:56:59.993Z</time></trkpt><trkpt lat="44.81752850278889" lon="4.73722136979281"><ele>132.0</ele><time>2026-04-08T15:57:01.993Z</time></trkpt><trkpt lat="44.81751185035076" lon="4.737099620757746"><ele>132.0</ele><time>2026-04-08T15:57:03.993Z</time></trkpt><trkpt lat="44.81751544751899" lon="4.736974323053848"><ele>132.0</ele><time>2026-04-08T15:57:05.993Z</time></trkpt><trkpt lat="44.81751957903144" lon="4.736854477932533"><ele>132.0</ele><time>2026-04-08T15:57:07.993Z</time></trkpt><trkpt lat="44.81751430024945" lon="4.736753453127265"><ele>132.0</ele><time>2026-04-08T15:57:09.993Z</time></trkpt><trkpt lat="44.81752382422089" lon="4.7366348091946175"><ele>132.0</ele><time>2026-04-08T15:57:11.993Z</time></trkpt><trkpt lat="44.817543031159644" lon="4.736521097287421"><ele>132.0</ele><time>2026-04-08T15:57:13.993Z</time></trkpt><trkpt lat="44.817573169856445" lon="4.736412588070059"><ele>132.83333333333334</ele><time>2026-04-08T15:57:15.993Z</time></trkpt><trkpt lat="44.817589197909015" lon="4.736302445361345"><ele>133.66666666666666</ele><time>2026-04-08T15:57:17.993Z</time></trkpt><trkpt lat="44.817637152554774" lon="4.736165346330687"><ele>134.5</ele><time>2026-04-08T15:57:19.993Z</time></trkpt><trkpt lat="44.81765762529053" lon="4.736063750776418"><ele>135.33333333333331</ele><time>2026-04-08T15:57:21.993Z</time></trkpt><trkpt lat="44.81770448950219" lon="4.735962649569915"><ele>136.16666666666666</ele><time>2026-04-08T15:57:23.993Z</time></trkpt><trkpt lat="44.817738658911345" lon="4.735842198757311"><ele>137.0</ele><time>2026-04-08T15:57:25.993Z</time></trkpt><trkpt lat="44.817766072337854" lon="4.735755885585291"><ele>134.0</ele><time>2026-04-08T15:57:27.993Z</time></trkpt><trkpt lat="44.81779538411923" lon="4.735651501242018"><ele>131.0</ele><time>2026-04-08T15:57:29.993Z</time></trkpt><trkpt lat="44.817823732064426" lon="4.735545303419986"><ele>127.99999999999999</ele><time>2026-04-08T15:57:32.993Z</time></trkpt><trkpt lat="44.81787003655634" lon="4.735397451884655"><ele>125.0</ele><time>2026-04-08T15:57:35.993Z</time></trkpt><trkpt lat="44.81789534476612" lon="4.735281572577281"><ele>122.0</ele><time>2026-04-08T15:57:37.993Z</time></trkpt><trkpt lat="44.817925304307536" lon="4.73515814833286"><ele>121.99999999999999</ele><time>2026-04-08T15:57:39.993Z</time></trkpt><trkpt lat="44.817945794994976" lon="4.735042595577622"><ele>122.0</ele><time>2026-04-08T15:57:41.993Z</time></trkpt><trkpt lat="44.81796619918502" lon="4.734914441633219"><ele>122.0</ele><time>2026-04-08T15:57:43.993Z</time></trkpt><trkpt lat="44.81797618573366" lon="4.7347955519223115"><ele>122.0</ele><time>2026-04-08T15:57:45.993Z</time></trkpt><trkpt lat="44.81798042854111" lon="4.734691322517668"><ele>121.99999999999999</ele><time>2026-04-08T15:57:47.993Z</time></trkpt><trkpt lat="44.81797602572788" lon="4.734573972324846"><ele>122.0</ele><time>2026-04-08T15:57:49.993Z</time></trkpt><trkpt lat="44.81797370792466" lon="4.734454073484767"><ele>121.99999999999999</ele><time>2026-04-08T15:57:51.993Z</time></trkpt><trkpt lat="44.81797806486349" lon="4.7343203301942705"><ele>122.0</ele><time>2026-04-08T15:57:53.993Z</time></trkpt><trkpt lat="44.817971288491236" lon="4.734194863422382"><ele>122.0</ele><time>2026-04-08T15:57:55.993Z</time></trkpt><trkpt lat="44.8179653248444" lon="4.734076084191943"><ele>122.0</ele><time>2026-04-08T15:57:57.993Z</time></trkpt><trkpt lat="44.81796255260531" lon="4.733955478100594"><ele>121.99999999999999</ele><time>2026-04-08T15:57:59.993Z</time></trkpt><trkpt lat="44.81795838732869" lon="4.733834447126254"><ele>122.0</ele><time>2026-04-08T15:58:01.993Z</time></trkpt><trkpt lat="44.81795440127285" lon="4.733717575963826"><ele>121.99999999999999</ele><time>2026-04-08T15:58:03.993Z</time></trkpt><trkpt lat="44.81793990331146" lon="4.7336066221678585"><ele>122.0</ele><time>2026-04-08T15:58:05.993Z</time></trkpt><trkpt lat="44.817936428652665" lon="4.733489279297188"><ele>122.0</ele><time>2026-04-08T15:58:07.993Z</time></trkpt><trkpt lat="44.817929979921225" lon="4.733371728681588"><ele>122.0</ele><time>2026-04-08T15:58:09.993Z</time></trkpt><trkpt lat="44.817925171762546" lon="4.733267944113861"><ele>121.99999999999999</ele><time>2026-04-08T15:58:11.993Z</time></trkpt><trkpt lat="44.81792259647642" lon="4.733137462853693"><ele>122.0</ele><time>2026-04-08T15:58:14.993Z</time></trkpt><trkpt lat="44.81791792924858" lon="4.733037064227984"><ele>122.42857142857142</ele><time>2026-04-08T15:58:16.993Z</time></trkpt><trkpt lat="44.81789635879857" lon="4.732935115630712"><ele>122.85714285714286</ele><time>2026-04-08T15:58:18.993Z</time></trkpt><trkpt lat="44.81788274910963" lon="4.732836922756922"><ele>123.28571428571428</ele><time>2026-04-08T15:58:20.994Z</time></trkpt><trkpt lat="44.817877618815935" lon="4.732724810392195"><ele>123.71428571428571</ele><time>2026-04-08T15:58:22.994Z</time></trkpt><trkpt lat="44.817875253121976" lon="4.732619208438738"><ele>124.14285714285714</ele><time>2026-04-08T15:58:24.993Z</time></trkpt><trkpt lat="44.81786530469913" lon="4.732524376271581"><ele>124.57142857142857</ele><time>2026-04-08T15:58:26.993Z</time></trkpt><trkpt lat="44.81785011639516" lon="4.73243037384102"><ele>125.0</ele><time>2026-04-08T15:58:28.994Z</time></trkpt><trkpt lat="44.817826329322074" lon="4.732318477585606"><ele>124.99999999999999</ele><time>2026-04-08T15:58:30.993Z</time></trkpt><trkpt lat="44.81782630543959" lon="4.732196302872712"><ele>125.0</ele><time>2026-04-08T15:58:32.993Z</time></trkpt><trkpt lat="44.81781628855859" lon="4.732100275490388"><ele>125.0</ele><time>2026-04-08T15:58:34.993Z</time></trkpt><trkpt lat="44.81779495365173" lon="4.731989867395654"><ele>125.0</ele><time>2026-04-08T15:58:36.993Z</time></trkpt><trkpt lat="44.817784132801876" lon="4.731863156147414"><ele>124.99999999999999</ele><time>2026-04-08T15:58:38.993Z</time></trkpt><trkpt lat="44.81778293605519" lon="4.731740196911966"><ele>125.0</ele><time>2026-04-08T15:58:40.993Z</time></trkpt><trkpt lat="44.81778678034631" lon="4.731611032987936"><ele>125.16666666666666</ele><time>2026-04-08T15:58:42.993Z</time></trkpt><trkpt lat="44.81777504827567" lon="4.731496788875347"><ele>125.33333333333333</ele><time>2026-04-08T15:58:44.993Z</time></trkpt><trkpt lat="44.81775784104727" lon="4.73139783628753"><ele>125.5</ele><time>2026-04-08T15:58:46.993Z</time></trkpt><trkpt lat="44.81775322688217" lon="4.731284041503733"><ele>125.66666666666666</ele><time>2026-04-08T15:58:48.993Z</time></trkpt><trkpt lat="44.817742499093065" lon="4.731167408040001"><ele>125.83333333333333</ele><time>2026-04-08T15:58:50.993Z</time></trkpt><trkpt lat="44.81774146167676" lon="4.731036454910816"><ele>126.0</ele><time>2026-04-08T15:58:52.993Z</time></trkpt><trkpt lat="44.81773680796141" lon="4.730920825639951"><ele>125.66666666666667</ele><time>2026-04-08T15:58:54.993Z</time></trkpt><trkpt lat="44.81772156282666" lon="4.730796789316245"><ele>125.33333333333334</ele><time>2026-04-08T15:58:56.993Z</time></trkpt><trkpt lat="44.81772781003645" lon="4.730663726166784"><ele>125.0</ele><time>2026-04-08T15:58:58.993Z</time></trkpt><trkpt lat="44.817726067436155" lon="4.730545642231714"><ele>124.66666666666667</ele><time>2026-04-08T15:59:00.993Z</time></trkpt><trkpt lat="44.817715455572134" lon="4.730425218062201"><ele>124.33333333333334</ele><time>2026-04-08T15:59:02.993Z</time></trkpt><trkpt lat="44.81770998227393" lon="4.730300053530455"><ele>124.0</ele><time>2026-04-08T15:59:04.993Z</time></trkpt><trkpt lat="44.8176918931875" lon="4.730183423662656"><ele>123.16666666666667</ele><time>2026-04-08T15:59:06.993Z</time></trkpt><trkpt lat="44.8176888975921" lon="4.730065132968583"><ele>122.33333333333334</ele><time>2026-04-08T15:59:08.993Z</time></trkpt><trkpt lat="44.81767786889253" lon="4.729948216940138"><ele>121.5</ele><time>2026-04-08T15:59:10.993Z</time></trkpt><trkpt lat="44.817663522821626" lon="4.729827993863691"><ele>120.66666666666666</ele><time>2026-04-08T15:59:12.993Z</time></trkpt><trkpt lat="44.8176596820643" lon="4.729716451063829"><ele>119.83333333333333</ele><time>2026-04-08T15:59:14.993Z</time></trkpt><trkpt lat="44.81764736979013" lon="4.729598386911364"><ele>119.0</ele><time>2026-04-08T15:59:16.993Z</time></trkpt><trkpt lat="44.8176405744148" lon="4.729473403848611"><ele>123.99999999999999</ele><time>2026-04-08T15:59:18.993Z</time></trkpt><trkpt lat="44.817632542948225" lon="4.7293682110007955"><ele>129.0</ele><time>2026-04-08T15:59:20.993Z</time></trkpt><trkpt lat="44.81762048009187" lon="4.729261299689092"><ele>134.0</ele><time>2026-04-08T15:59:22.993Z</time></trkpt><trkpt lat="44.81760918968725" lon="4.729149540320992"><ele>139.0</ele><time>2026-04-08T15:59:24.993Z</time></trkpt><trkpt lat="44.81760421068085" lon="4.729038487063916"><ele>144.0</ele><time>2026-04-08T15:59:26.993Z</time></trkpt><trkpt lat="44.817585533435775" lon="4.728927223912944"><ele>149.0</ele><time>2026-04-08T15:59:28.993Z</time></trkpt><trkpt lat="44.81756922327576" lon="4.728818450096089"><ele>149.0</ele><time>2026-04-08T15:59:30.993Z</time></trkpt><trkpt lat="44.817546698082566" lon="4.728710328825496"><ele>149.0</ele><time>2026-04-08T15:59:32.993Z</time></trkpt><trkpt lat="44.817525022830615" lon="4.728586785363689"><ele>149.0</ele><time>2026-04-08T15:59:34.993Z</time></trkpt><trkpt lat="44.81749844474067" lon="4.72848064969314"><ele>149.0</ele><time>2026-04-08T15:59:36.993Z</time></trkpt><trkpt lat="44.817469365647895" lon="4.728381949138558"><ele>149.0</ele><time>2026-04-08T15:59:38.993Z</time></trkpt><trkpt lat="44.81743272587759" lon="4.728295253817955"><ele>149.0</ele><time>2026-04-08T15:59:40.993Z</time></trkpt><trkpt lat="44.817397001596596" lon="4.728196663524339"><ele>147.33333333333331</ele><time>2026-04-08T15:59:42.993Z</time></trkpt><trkpt lat="44.81737071602974" lon="4.728091129298391"><ele>145.66666666666666</ele><time>2026-04-08T15:59:44.993Z</time></trkpt><trkpt lat="44.81733426530777" lon="4.727991410619477"><ele>144.0</ele><time>2026-04-08T15:59:46.993Z</time></trkpt><trkpt lat="44.8172956651745" lon="4.727895413481269"><ele>142.33333333333334</ele><time>2026-04-08T15:59:48.993Z</time></trkpt><trkpt lat="44.817259361156864" lon="4.727787289107965"><ele>140.66666666666669</ele><time>2026-04-08T15:59:50.993Z</time></trkpt><trkpt lat="44.81721177740032" lon="4.727691058864782"><ele>139.0</ele><time>2026-04-08T15:59:52.993Z</time></trkpt><trkpt lat="44.81716823867613" lon="4.727604281863825"><ele>136.5</ele><time>2026-04-08T15:59:54.993Z</time></trkpt><trkpt lat="44.81710541912105" lon="4.727523722948359"><ele>134.0</ele><time>2026-04-08T15:59:56.993Z</time></trkpt><trkpt lat="44.817036678579406" lon="4.727440844923801"><ele>131.5</ele><time>2026-04-08T15:59:58.993Z</time></trkpt><trkpt lat="44.81697294885501" lon="4.727369637809021"><ele>129.0</ele><time>2026-04-08T16:00:00.993Z</time></trkpt><trkpt lat="44.816906175457994" lon="4.727296793173032"><ele>126.50000000000001</ele><time>2026-04-08T16:00:02.993Z</time></trkpt><trkpt lat="44.81683852854133" lon="4.727217952229959"><ele>124.0</ele><time>2026-04-08T16:00:04.993Z</time></trkpt><trkpt lat="44.81677226345108" lon="4.727158113078223"><ele>124.66666666666667</ele><time>2026-04-08T16:00:06.993Z</time></trkpt><trkpt lat="44.81670451941867" lon="4.72709315176471"><ele>125.33333333333334</ele><time>2026-04-08T16:00:08.993Z</time></trkpt><trkpt lat="44.81663614346507" lon="4.7270402435639225"><ele>126.0</ele><time>2026-04-08T16:00:10.993Z</time></trkpt><trkpt lat="44.81656902116242" lon="4.726983960283267"><ele>126.66666666666666</ele><time>2026-04-08T16:00:12.993Z</time></trkpt><trkpt lat="44.81651488123314" lon="4.726925007891225"><ele>127.33333333333333</ele><time>2026-04-08T16:00:14.993Z</time></trkpt><trkpt lat="44.816447381882504" lon="4.726853106802669"><ele>128.0</ele><time>2026-04-08T16:00:16.993Z</time></trkpt><trkpt lat="44.81638566649564" lon="4.726784507117273"><ele>127.99999999999999</ele><time>2026-04-08T16:00:18.993Z</time></trkpt><trkpt lat="44.8163330178758" lon="4.726703104598876"><ele>128.0</ele><time>2026-04-08T16:00:20.993Z</time></trkpt><trkpt lat="44.816286259417" lon="4.7266084350933175"><ele>128.0</ele><time>2026-04-08T16:00:22.993Z</time></trkpt><trkpt lat="44.81623732901934" lon="4.7265314361467095"><ele>128.0</ele><time>2026-04-08T16:00:24.993Z</time></trkpt><trkpt lat="44.816193479515285" lon="4.726430791876745"><ele>127.99999999999999</ele><time>2026-04-08T16:00:26.993Z</time></trkpt><trkpt lat="44.81615853385249" lon="4.726335476448702"><ele>128.0</ele><time>2026-04-08T16:00:28.993Z</time></trkpt><trkpt lat="44.816122582098174" lon="4.726245569548415"><ele>127.99999999999999</ele><time>2026-04-08T16:00:30.993Z</time></trkpt><trkpt lat="44.816089969074" lon="4.726153609178339"><ele>128.0</ele><time>2026-04-08T16:00:32.993Z</time></trkpt><trkpt lat="44.81606490277499" lon="4.726052668165632"><ele>128.0</ele><time>2026-04-08T16:00:34.993Z</time></trkpt><trkpt lat="44.81604042131871" lon="4.725934158374579"><ele>128.0</ele><time>2026-04-08T16:00:36.993Z</time></trkpt><trkpt lat="44.81602771720911" lon="4.725807021732704"><ele>127.99999999999999</ele><time>2026-04-08T16:00:38.993Z</time></trkpt><trkpt lat="44.81600894959455" lon="4.725688787045106"><ele>128.0</ele><time>2026-04-08T16:00:40.993Z</time></trkpt><trkpt lat="44.815996192405066" lon="4.725576912943748"><ele>125.99999999999999</ele><time>2026-04-08T16:00:42.993Z</time></trkpt><trkpt lat="44.815992756740414" lon="4.7254533235413465"><ele>124.0</ele><time>2026-04-08T16:00:44.993Z</time></trkpt><trkpt lat="44.81597863267579" lon="4.725340020301781"><ele>122.0</ele><time>2026-04-08T16:00:46.993Z</time></trkpt><trkpt lat="44.81596075028762" lon="4.725234964103994"><ele>120.0</ele><time>2026-04-08T16:00:48.993Z</time></trkpt><trkpt lat="44.81595032456901" lon="4.725107909583734"><ele>117.99999999999999</ele><time>2026-04-08T16:00:50.993Z</time></trkpt><trkpt lat="44.81594320887432" lon="4.724985760250049"><ele>116.0</ele><time>2026-04-08T16:00:52.993Z</time></trkpt><trkpt lat="44.81593643161201" lon="4.72487803560541"><ele>120.33333333333333</ele><time>2026-04-08T16:00:54.993Z</time></trkpt><trkpt lat="44.815929249928345" lon="4.724757036205069"><ele>124.66666666666666</ele><time>2026-04-08T16:00:56.993Z</time></trkpt><trkpt lat="44.81591140696875" lon="4.724647768867062"><ele>129.0</ele><time>2026-04-08T16:00:58.993Z</time></trkpt><trkpt lat="44.81589820223911" lon="4.724545246084313"><ele>133.33333333333334</ele><time>2026-04-08T16:01:00.993Z</time></trkpt><trkpt lat="44.81588408116387" lon="4.7244393092986385"><ele>137.66666666666669</ele><time>2026-04-08T16:01:02.993Z</time></trkpt><trkpt lat="44.81586839814109" lon="4.72434200021275"><ele>142.0</ele><time>2026-04-08T16:01:04.993Z</time></trkpt><trkpt lat="44.81585407751764" lon="4.724231980207179"><ele>142.0</ele><time>2026-04-08T16:01:06.993Z</time></trkpt><trkpt lat="44.815837970399514" lon="4.72412140583077"><ele>142.0</ele><time>2026-04-08T16:01:08.993Z</time></trkpt><trkpt lat="44.815819904765206" lon="4.724022157948302"><ele>142.0</ele><time>2026-04-08T16:01:10.993Z</time></trkpt><trkpt lat="44.815802984366954" lon="4.723924983375007"><ele>142.0</ele><time>2026-04-08T16:01:12.993Z</time></trkpt><trkpt lat="44.815800665569334" lon="4.723811112411649"><ele>142.0</ele><time>2026-04-08T16:01:14.993Z</time></trkpt><trkpt lat="44.81578873006911" lon="4.723705890407776"><ele>142.0</ele><time>2026-04-08T16:01:16.993Z</time></trkpt><trkpt lat="44.81577375890853" lon="4.723597799025774"><ele>140.83333333333334</ele><time>2026-04-08T16:01:18.993Z</time></trkpt><trkpt lat="44.815762931828154" lon="4.723481870459092"><ele>139.66666666666669</ele><time>2026-04-08T16:01:20.993Z</time></trkpt><trkpt lat="44.81574592919075" lon="4.723365991796111"><ele>138.5</ele><time>2026-04-08T16:01:22.993Z</time></trkpt><trkpt lat="44.815715811000686" lon="4.723272464212078"><ele>137.33333333333334</ele><time>2026-04-08T16:01:24.993Z</time></trkpt><trkpt lat="44.81571360037468" lon="4.723158942233971"><ele>136.16666666666666</ele><time>2026-04-08T16:01:26.993Z</time></trkpt><trkpt lat="44.815688922979845" lon="4.723048962277676"><ele>135.0</ele><time>2026-04-08T16:01:28.993Z</time></trkpt><trkpt lat="44.81567630591559" lon="4.722940969239036"><ele>135.0</ele><time>2026-04-08T16:01:30.993Z</time></trkpt><trkpt lat="44.815661023940216" lon="4.722841288768559"><ele>135.0</ele><time>2026-04-08T16:01:32.993Z</time></trkpt><trkpt lat="44.81564341259935" lon="4.722728413624401"><ele>135.0</ele><time>2026-04-08T16:01:34.993Z</time></trkpt><trkpt lat="44.8156431030294" lon="4.7226223774361324"><ele>135.0</ele><time>2026-04-08T16:01:36.993Z</time></trkpt><trkpt lat="44.815624208383376" lon="4.722495808510323"><ele>135.0</ele><time>2026-04-08T16:01:38.993Z</time></trkpt><trkpt lat="44.81560416482406" lon="4.722387442360391"><ele>135.0</ele><time>2026-04-08T16:01:40.993Z</time></trkpt><trkpt lat="44.8155840359749" lon="4.722286372439883"><ele>135.83333333333334</ele><time>2026-04-08T16:01:42.993Z</time></trkpt><trkpt lat="44.815573258059096" lon="4.72217738812877"><ele>136.66666666666666</ele><time>2026-04-08T16:01:44.993Z</time></trkpt><trkpt lat="44.81558410227728" lon="4.722046640517246"><ele>137.5</ele><time>2026-04-08T16:01:46.993Z</time></trkpt><trkpt lat="44.81557370180305" lon="4.721922920693546"><ele>138.33333333333331</ele><time>2026-04-08T16:01:48.993Z</time></trkpt><trkpt lat="44.81557106387594" lon="4.7218097803120065"><ele>139.16666666666666</ele><time>2026-04-08T16:01:50.993Z</time></trkpt><trkpt lat="44.81558646662891" lon="4.721682991995782"><ele>140.0</ele><time>2026-04-08T16:01:52.993Z</time></trkpt><trkpt lat="44.81560866230392" lon="4.721567841834532"><ele>140.0</ele><time>2026-04-08T16:01:54.993Z</time></trkpt><trkpt lat="44.81563600869624" lon="4.721444803189266"><ele>140.0</ele><time>2026-04-08T16:01:56.993Z</time></trkpt><trkpt lat="44.81566315916751" lon="4.721332043433885"><ele>140.0</ele><time>2026-04-08T16:01:58.993Z</time></trkpt><trkpt lat="44.815673662003185" lon="4.721234271691543"><ele>140.0</ele><time>2026-04-08T16:02:00.993Z</time></trkpt><trkpt lat="44.81568883519649" lon="4.721136456589289"><ele>140.0</ele><time>2026-04-08T16:02:02.993Z</time></trkpt><trkpt lat="44.815696623628355" lon="4.721037460658775"><ele>140.0</ele><time>2026-04-08T16:02:04.993Z</time></trkpt><trkpt lat="44.815719232423284" lon="4.720936322798306"><ele>140.33333333333331</ele><time>2026-04-08T16:02:06.993Z</time></trkpt><trkpt lat="44.81573462848968" lon="4.7208444213010985"><ele>140.66666666666666</ele><time>2026-04-08T16:02:08.993Z</time></trkpt><trkpt lat="44.815758881251135" lon="4.720744139314601"><ele>141.0</ele><time>2026-04-08T16:02:10.993Z</time></trkpt><trkpt lat="44.8157807948748" lon="4.720652078375738"><ele>141.33333333333334</ele><time>2026-04-08T16:02:12.993Z</time></trkpt><trkpt lat="44.81579289903839" lon="4.72054023443289"><ele>141.66666666666669</ele><time>2026-04-08T16:02:14.993Z</time></trkpt><trkpt lat="44.81580944320624" lon="4.7204144488143935"><ele>142.0</ele><time>2026-04-08T16:02:16.993Z</time></trkpt><trkpt lat="44.815829774956114" lon="4.720291851722878"><ele>142.16666666666669</ele><time>2026-04-08T16:02:18.993Z</time></trkpt><trkpt lat="44.81584172361366" lon="4.720175579196162"><ele>142.33333333333334</ele><time>2026-04-08T16:02:20.993Z</time></trkpt><trkpt lat="44.8158643019135" lon="4.720064299123118"><ele>142.5</ele><time>2026-04-08T16:02:22.993Z</time></trkpt><trkpt lat="44.81588488207398" lon="4.719949854951194"><ele>142.66666666666666</ele><time>2026-04-08T16:02:24.993Z</time></trkpt><trkpt lat="44.815905891567795" lon="4.71983752168851"><ele>142.83333333333331</ele><time>2026-04-08T16:02:26.993Z</time></trkpt><trkpt lat="44.81593063161663" lon="4.71973058078327"><ele>143.0</ele><time>2026-04-08T16:02:28.993Z</time></trkpt><trkpt lat="44.81594693279955" lon="4.7196177216298585"><ele>143.0</ele><time>2026-04-08T16:02:30.993Z</time></trkpt><trkpt lat="44.815972829595815" lon="4.719508848409496"><ele>143.0</ele><time>2026-04-08T16:02:32.993Z</time></trkpt><trkpt lat="44.81598587723536" lon="4.719395112212647"><ele>143.0</ele><time>2026-04-08T16:02:34.993Z</time></trkpt><trkpt lat="44.81600769553567" lon="4.719277985224195"><ele>143.0</ele><time>2026-04-08T16:02:36.993Z</time></trkpt><trkpt lat="44.816020822851065" lon="4.719164927778135"><ele>143.0</ele><time>2026-04-08T16:02:38.994Z</time></trkpt><trkpt lat="44.816031761890976" lon="4.719041602246654"><ele>143.0</ele><time>2026-04-08T16:02:40.993Z</time></trkpt><trkpt lat="44.816054841576545" lon="4.7189380230591444"><ele>142.5</ele><time>2026-04-08T16:02:42.993Z</time></trkpt><trkpt lat="44.81607201634611" lon="4.718826324870294"><ele>142.0</ele><time>2026-04-08T16:02:44.992Z</time></trkpt><trkpt lat="44.81609056979086" lon="4.718720757209314"><ele>141.5</ele><time>2026-04-08T16:02:46.992Z</time></trkpt><trkpt lat="44.816120606273856" lon="4.71860907353733"><ele>141.0</ele><time>2026-04-08T16:02:48.992Z</time></trkpt><trkpt lat="44.81614802874863" lon="4.718492310297835"><ele>140.5</ele><time>2026-04-08T16:02:50.992Z</time></trkpt><trkpt lat="44.8161697270764" lon="4.718390903358906"><ele>140.0</ele><time>2026-04-08T16:02:52.992Z</time></trkpt><trkpt lat="44.81617241547666" lon="4.718282812065167"><ele>140.0</ele><time>2026-04-08T16:02:55.992Z</time></trkpt><trkpt lat="44.816206079755226" lon="4.718184363815127"><ele>140.0</ele><time>2026-04-08T16:02:58.992Z</time></trkpt><trkpt lat="44.81619866485912" lon="4.718067233242455"><ele>140.0</ele><time>2026-04-08T16:03:01.992Z</time></trkpt><trkpt lat="44.81619195472516" lon="4.717957505528045"><ele>140.0</ele><time>2026-04-08T16:03:03.992Z</time></trkpt><trkpt lat="44.81617832039847" lon="4.7178610531333"><ele>140.0</ele><time>2026-04-08T16:03:05.992Z</time></trkpt><trkpt lat="44.81615213309252" lon="4.717730474373522"><ele>140.0</ele><time>2026-04-08T16:03:08.992Z</time></trkpt><trkpt lat="44.81611776004834" lon="4.717642870593798"><ele>139.83333333333331</ele><time>2026-04-08T16:03:10.992Z</time></trkpt><trkpt lat="44.81609566914329" lon="4.717549481374996"><ele>139.66666666666666</ele><time>2026-04-08T16:03:12.992Z</time></trkpt><trkpt lat="44.81605014380087" lon="4.717461945459247"><ele>139.5</ele><time>2026-04-08T16:03:14.992Z</time></trkpt><trkpt lat="44.81602654259171" lon="4.717358377889032"><ele>139.33333333333334</ele><time>2026-04-08T16:03:16.992Z</time></trkpt><trkpt lat="44.81598709816612" lon="4.717259465032984"><ele>139.16666666666669</ele><time>2026-04-08T16:03:18.992Z</time></trkpt><trkpt lat="44.815951361660325" lon="4.717156354630156"><ele>139.0</ele><time>2026-04-08T16:03:20.992Z</time></trkpt><trkpt lat="44.81589756522774" lon="4.7170837899869476"><ele>138.5</ele><time>2026-04-08T16:03:22.992Z</time></trkpt><trkpt lat="44.815836824402915" lon="4.717022061213504"><ele>138.0</ele><time>2026-04-08T16:03:24.992Z</time></trkpt><trkpt lat="44.81577929378329" lon="4.716947095965287"><ele>137.5</ele><time>2026-04-08T16:03:26.992Z</time></trkpt><trkpt lat="44.81570695075973" lon="4.716875892329759"><ele>137.0</ele><time>2026-04-08T16:03:28.992Z</time></trkpt><trkpt lat="44.81563661705274" lon="4.716808207654888"><ele>136.5</ele><time>2026-04-08T16:03:30.992Z</time></trkpt><trkpt lat="44.81558453768644" lon="4.716737592916912"><ele>136.0</ele><time>2026-04-08T16:03:32.992Z</time></trkpt><trkpt lat="44.815509559231955" lon="4.71666592768053"><ele>136.0</ele><time>2026-04-08T16:03:34.992Z</time></trkpt><trkpt lat="44.81545215817767" lon="4.716591311757949"><ele>136.0</ele><time>2026-04-08T16:03:36.992Z</time></trkpt><trkpt lat="44.81540045709376" lon="4.716503423690091"><ele>136.0</ele><time>2026-04-08T16:03:38.992Z</time></trkpt><trkpt lat="44.815342676451614" lon="4.7164128674131796"><ele>136.0</ele><time>2026-04-08T16:03:40.992Z</time></trkpt><trkpt lat="44.81530399245243" lon="4.71631452141867"><ele>136.0</ele><time>2026-04-08T16:03:42.992Z</time></trkpt><trkpt lat="44.81526991386724" lon="4.716201345578574"><ele>136.0</ele><time>2026-04-08T16:03:44.992Z</time></trkpt><trkpt lat="44.81523677417193" lon="4.716080748923784"><ele>134.5</ele><time>2026-04-08T16:03:46.992Z</time></trkpt><trkpt lat="44.81521246001541" lon="4.71595737676252"><ele>133.0</ele><time>2026-04-08T16:03:48.992Z</time></trkpt><trkpt lat="44.81518435692319" lon="4.715841138643606"><ele>131.5</ele><time>2026-04-08T16:03:50.992Z</time></trkpt><trkpt lat="44.8151626834967" lon="4.715718413787617"><ele>130.0</ele><time>2026-04-08T16:03:52.992Z</time></trkpt><trkpt lat="44.81515515464759" lon="4.71559595323321"><ele>128.5</ele><time>2026-04-08T16:03:54.992Z</time></trkpt><trkpt lat="44.81514530903278" lon="4.715469181161095"><ele>127.0</ele><time>2026-04-08T16:03:56.992Z</time></trkpt><trkpt lat="44.81513446411827" lon="4.715341301089309"><ele>130.0</ele><time>2026-04-08T16:03:58.992Z</time></trkpt><trkpt lat="44.81512130603493" lon="4.715224986277894"><ele>133.0</ele><time>2026-04-08T16:04:00.992Z</time></trkpt><trkpt lat="44.8151042164622" lon="4.71510687199393"><ele>136.0</ele><time>2026-04-08T16:04:02.992Z</time></trkpt><trkpt lat="44.8150910419571" lon="4.7149833128092205"><ele>139.0</ele><time>2026-04-08T16:04:04.992Z</time></trkpt><trkpt lat="44.815067008598646" lon="4.714873923773927"><ele>142.0</ele><time>2026-04-08T16:04:06.992Z</time></trkpt><trkpt lat="44.815032241788415" lon="4.714747177353061"><ele>145.0</ele><time>2026-04-08T16:04:08.992Z</time></trkpt><trkpt lat="44.81499227308054" lon="4.714638252601662"><ele>145.0</ele><time>2026-04-08T16:04:10.992Z</time></trkpt><trkpt lat="44.814943230326215" lon="4.714526876548492"><ele>145.0</ele><time>2026-04-08T16:04:12.992Z</time></trkpt><trkpt lat="44.8148921620475" lon="4.714427364144684"><ele>145.0</ele><time>2026-04-08T16:04:14.992Z</time></trkpt><trkpt lat="44.81482898621718" lon="4.714321583472687"><ele>145.0</ele><time>2026-04-08T16:04:16.992Z</time></trkpt><trkpt lat="44.814776779676954" lon="4.714237615828713"><ele>145.0</ele><time>2026-04-08T16:04:18.992Z</time></trkpt><trkpt lat="44.81471478738181" lon="4.714133963120941"><ele>143.33333333333334</ele><time>2026-04-08T16:04:20.992Z</time></trkpt><trkpt lat="44.81465852272744" lon="4.714036915392405"><ele>141.66666666666669</ele><time>2026-04-08T16:04:22.992Z</time></trkpt><trkpt lat="44.81460039995979" lon="4.7139430901089785"><ele>140.0</ele><time>2026-04-08T16:04:24.992Z</time></trkpt><trkpt lat="44.81453605593615" lon="4.71387022423781"><ele>138.33333333333334</ele><time>2026-04-08T16:04:26.992Z</time></trkpt><trkpt lat="44.81447047824372" lon="4.713806021320021"><ele>136.66666666666666</ele><time>2026-04-08T16:04:28.992Z</time></trkpt><trkpt lat="44.81438974349074" lon="4.713747521363794"><ele>135.0</ele><time>2026-04-08T16:04:30.992Z</time></trkpt><trkpt lat="44.81431430128561" lon="4.713685532376468"><ele>137.6</ele><time>2026-04-08T16:04:32.992Z</time></trkpt><trkpt lat="44.81424464415583" lon="4.713602314393736"><ele>140.2</ele><time>2026-04-08T16:04:34.992Z</time></trkpt><trkpt lat="44.81415894305486" lon="4.713517761743971"><ele>142.8</ele><time>2026-04-08T16:04:36.992Z</time></trkpt><trkpt lat="44.81409119957745" lon="4.713436080777808"><ele>145.4</ele><time>2026-04-08T16:04:38.993Z</time></trkpt><trkpt lat="44.81403187652353" lon="4.713349293356176"><ele>148.0</ele><time>2026-04-08T16:04:40.993Z</time></trkpt><trkpt lat="44.81397115271112" lon="4.713241197065721"><ele>148.0</ele><time>2026-04-08T16:04:42.993Z</time></trkpt><trkpt lat="44.813923568441204" lon="4.713130479291308"><ele>148.0</ele><time>2026-04-08T16:04:44.993Z</time></trkpt><trkpt lat="44.81389579022059" lon="4.71302250077269"><ele>148.0</ele><time>2026-04-08T16:04:46.993Z</time></trkpt><trkpt lat="44.81385603506665" lon="4.7129204769538"><ele>148.0</ele><time>2026-04-08T16:04:48.993Z</time></trkpt><trkpt lat="44.81382833365237" lon="4.71280944106714"><ele>148.0</ele><time>2026-04-08T16:04:50.992Z</time></trkpt><trkpt lat="44.81380441161972" lon="4.712680228410479"><ele>148.0</ele><time>2026-04-08T16:04:52.992Z</time></trkpt><trkpt lat="44.81378361112612" lon="4.712552146898629"><ele>144.8</ele><time>2026-04-08T16:04:54.992Z</time></trkpt><trkpt lat="44.813767028339925" lon="4.712420817337532"><ele>141.60000000000002</ele><time>2026-04-08T16:04:56.992Z</time></trkpt><trkpt lat="44.81375171461125" lon="4.712281836898916"><ele>138.39999999999998</ele><time>2026-04-08T16:04:58.992Z</time></trkpt><trkpt lat="44.81374118404597" lon="4.7121437721292665"><ele>135.2</ele><time>2026-04-08T16:05:00.992Z</time></trkpt><trkpt lat="44.813727098547986" lon="4.712030524009569"><ele>132.0</ele><time>2026-04-08T16:05:02.992Z</time></trkpt><trkpt lat="44.81370563755606" lon="4.711917264434296"><ele>132.0</ele><time>2026-04-08T16:05:04.992Z</time></trkpt><trkpt lat="44.813701388762155" lon="4.711804196829523"><ele>132.0</ele><time>2026-04-08T16:05:06.992Z</time></trkpt><trkpt lat="44.81370042147636" lon="4.711687595663987"><ele>132.0</ele><time>2026-04-08T16:05:08.992Z</time></trkpt><trkpt lat="44.81369844481167" lon="4.711568732051914"><ele>132.0</ele><time>2026-04-08T16:05:10.992Z</time></trkpt><trkpt lat="44.813715744513935" lon="4.711435037044031"><ele>132.0</ele><time>2026-04-08T16:05:12.992Z</time></trkpt><trkpt lat="44.813743146249585" lon="4.711306515690115"><ele>132.0</ele><time>2026-04-08T16:05:14.992Z</time></trkpt><trkpt lat="44.81377704958559" lon="4.711179299308494"><ele>132.2</ele><time>2026-04-08T16:05:16.992Z</time></trkpt><trkpt lat="44.813798680937666" lon="4.711045568359065"><ele>132.39999999999998</ele><time>2026-04-08T16:05:18.992Z</time></trkpt><trkpt lat="44.813821011176586" lon="4.710926711636362"><ele>132.60000000000002</ele><time>2026-04-08T16:05:20.992Z</time></trkpt><trkpt lat="44.81384065332848" lon="4.710799006414607"><ele>132.8</ele><time>2026-04-08T16:05:22.992Z</time></trkpt><trkpt lat="44.81386168739798" lon="4.710668274418085"><ele>133.0</ele><time>2026-04-08T16:05:24.992Z</time></trkpt><trkpt lat="44.81387231797261" lon="4.710543687388969"><ele>133.0</ele><time>2026-04-08T16:05:26.992Z</time></trkpt><trkpt lat="44.81387611586832" lon="4.710414362176175"><ele>133.0</ele><time>2026-04-08T16:05:28.992Z</time></trkpt><trkpt lat="44.813876668046724" lon="4.71027965268085"><ele>133.0</ele><time>2026-04-08T16:05:30.992Z</time></trkpt><trkpt lat="44.81385515455755" lon="4.710160905519182"><ele>133.0</ele><time>2026-04-08T16:05:32.992Z</time></trkpt><trkpt lat="44.81381660802777" lon="4.710036232266504"><ele>133.0</ele><time>2026-04-08T16:05:34.992Z</time></trkpt><trkpt lat="44.81379625501667" lon="4.709921637590441"><ele>132.0</ele><time>2026-04-08T16:05:36.992Z</time></trkpt><trkpt lat="44.81374989781317" lon="4.709803920967669"><ele>131.0</ele><time>2026-04-08T16:05:38.992Z</time></trkpt><trkpt lat="44.81369370403656" lon="4.709688114633913"><ele>130.0</ele><time>2026-04-08T16:05:40.992Z</time></trkpt><trkpt lat="44.81366268035975" lon="4.709569229174996"><ele>129.0</ele><time>2026-04-08T16:05:42.992Z</time></trkpt><trkpt lat="44.813612891600634" lon="4.709454437884949"><ele>128.0</ele><time>2026-04-08T16:05:44.992Z</time></trkpt><trkpt lat="44.81356364400979" lon="4.709346388985746"><ele>127.60000000000001</ele><time>2026-04-08T16:05:46.992Z</time></trkpt><trkpt lat="44.813521013102324" lon="4.709227274555579"><ele>127.20000000000002</ele><time>2026-04-08T16:05:48.992Z</time></trkpt><trkpt lat="44.813473338696056" lon="4.709118542076665"><ele>126.8</ele><time>2026-04-08T16:05:50.992Z</time></trkpt><trkpt lat="44.81342788376201" lon="4.70900943231447"><ele>126.4</ele><time>2026-04-08T16:05:52.992Z</time></trkpt><trkpt lat="44.813378900366516" lon="4.708888376146149"><ele>126.0</ele><time>2026-04-08T16:05:54.992Z</time></trkpt><trkpt lat="44.813324809334084" lon="4.708777731520448"><ele>130.0</ele><time>2026-04-08T16:05:56.992Z</time></trkpt><trkpt lat="44.81328105852467" lon="4.708673636994008"><ele>134.0</ele><time>2026-04-08T16:05:58.992Z</time></trkpt><trkpt lat="44.81322312246303" lon="4.708578618701356"><ele>138.0</ele><time>2026-04-08T16:06:00.992Z</time></trkpt><trkpt lat="44.813181054590466" lon="4.708470298996389"><ele>142.0</ele><time>2026-04-08T16:06:02.992Z</time></trkpt><trkpt lat="44.81314427028957" lon="4.708349862298111"><ele>146.0</ele><time>2026-04-08T16:06:04.992Z</time></trkpt><trkpt lat="44.81311975436189" lon="4.708221517532543"><ele>146.0</ele><time>2026-04-08T16:06:06.992Z</time></trkpt><trkpt lat="44.81311290458187" lon="4.708072492903891"><ele>146.0</ele><time>2026-04-08T16:06:08.992Z</time></trkpt><trkpt lat="44.81308880364625" lon="4.70793438143391"><ele>146.0</ele><time>2026-04-08T16:06:10.992Z</time></trkpt><trkpt lat="44.81309905157874" lon="4.707793604148501"><ele>146.0</ele><time>2026-04-08T16:06:12.992Z</time></trkpt><trkpt lat="44.813095694330514" lon="4.707668250501448"><ele>146.0</ele><time>2026-04-08T16:06:14.992Z</time></trkpt><trkpt lat="44.813116935226006" lon="4.707544253368533"><ele>145.4</ele><time>2026-04-08T16:06:16.992Z</time></trkpt><trkpt lat="44.81312934843499" lon="4.707432750117903"><ele>144.8</ele><time>2026-04-08T16:06:18.992Z</time></trkpt><trkpt lat="44.81316424187361" lon="4.707318946402017"><ele>144.20000000000002</ele><time>2026-04-08T16:06:20.992Z</time></trkpt><trkpt lat="44.81319691820952" lon="4.7072029543036935"><ele>143.6</ele><time>2026-04-08T16:06:22.992Z</time></trkpt><trkpt lat="44.81323594258574" lon="4.707075772778569"><ele>143.0</ele><time>2026-04-08T16:06:24.992Z</time></trkpt><trkpt lat="44.813295792784565" lon="4.706963797640006"><ele>143.6</ele><time>2026-04-08T16:06:26.992Z</time></trkpt><trkpt lat="44.81335624161703" lon="4.706845729852519"><ele>144.20000000000002</ele><time>2026-04-08T16:06:28.992Z</time></trkpt><trkpt lat="44.81340921094239" lon="4.70673160570555"><ele>144.8</ele><time>2026-04-08T16:06:30.992Z</time></trkpt><trkpt lat="44.81346682180571" lon="4.706625966165572"><ele>145.4</ele><time>2026-04-08T16:06:32.992Z</time></trkpt><trkpt lat="44.81353434827973" lon="4.706523415432579"><ele>146.0</ele><time>2026-04-08T16:06:34.992Z</time></trkpt><trkpt lat="44.81358907462957" lon="4.706428841464769"><ele>146.33333333333331</ele><time>2026-04-08T16:06:36.992Z</time></trkpt><trkpt lat="44.81365215243487" lon="4.706343928483232"><ele>146.66666666666666</ele><time>2026-04-08T16:06:38.992Z</time></trkpt><trkpt lat="44.813719329590285" lon="4.706263439985483"><ele>147.0</ele><time>2026-04-08T16:06:40.992Z</time></trkpt><trkpt lat="44.81378790160345" lon="4.7062194915592634"><ele>147.33333333333334</ele><time>2026-04-08T16:06:42.992Z</time></trkpt><trkpt lat="44.81385918339915" lon="4.70615528196141"><ele>147.66666666666669</ele><time>2026-04-08T16:06:44.992Z</time></trkpt><trkpt lat="44.81393330365779" lon="4.706094415011102"><ele>148.0</ele><time>2026-04-08T16:06:46.993Z</time></trkpt><trkpt lat="44.81402146928829" lon="4.706049765695745"><ele>148.0</ele><time>2026-04-08T16:06:48.992Z</time></trkpt><trkpt lat="44.81411415366349" lon="4.706023459722919"><ele>148.0</ele><time>2026-04-08T16:06:50.992Z</time></trkpt><trkpt lat="44.81420997242576" lon="4.7059765081668985"><ele>148.0</ele><time>2026-04-08T16:06:52.993Z</time></trkpt><trkpt lat="44.8143088715782" lon="4.705962265017925"><ele>148.0</ele><time>2026-04-08T16:06:54.992Z</time></trkpt><trkpt lat="44.814415409651936" lon="4.705965430357532"><ele>148.0</ele><time>2026-04-08T16:06:56.992Z</time></trkpt><trkpt lat="44.814510721561724" lon="4.705989590915526"><ele>147.20000000000002</ele><time>2026-04-08T16:06:58.992Z</time></trkpt><trkpt lat="44.81458698241343" lon="4.706010183082064"><ele>146.4</ele><time>2026-04-08T16:07:00.992Z</time></trkpt><trkpt lat="44.81467081124263" lon="4.706040700382302"><ele>145.60000000000002</ele><time>2026-04-08T16:07:02.992Z</time></trkpt><trkpt lat="44.81475924921759" lon="4.706089544718038"><ele>144.8</ele><time>2026-04-08T16:07:04.992Z</time></trkpt><trkpt lat="44.81485987884447" lon="4.706153916912387"><ele>144.0</ele><time>2026-04-08T16:07:06.992Z</time></trkpt><trkpt lat="44.81495305347621" lon="4.706209578992685"><ele>142.0</ele><time>2026-04-08T16:07:08.992Z</time></trkpt><trkpt lat="44.81504478264349" lon="4.706256162794568"><ele>140.0</ele><time>2026-04-08T16:07:10.992Z</time></trkpt><trkpt lat="44.81512863535058" lon="4.706285180531888"><ele>138.0</ele><time>2026-04-08T16:07:12.992Z</time></trkpt><trkpt lat="44.81521402114048" lon="4.706325046804266"><ele>136.0</ele><time>2026-04-08T16:07:14.992Z</time></trkpt><trkpt lat="44.81529567106472" lon="4.7063362296009075"><ele>134.0</ele><time>2026-04-08T16:07:16.992Z</time></trkpt><trkpt lat="44.81536212794601" lon="4.706338431702374"><ele>132.0</ele><time>2026-04-08T16:07:18.992Z</time></trkpt><trkpt lat="44.81544428576779" lon="4.706350557501901"><ele>132.0</ele><time>2026-04-08T16:07:20.992Z</time></trkpt><trkpt lat="44.81553210572247" lon="4.706339793531344"><ele>132.0</ele><time>2026-04-08T16:07:22.992Z</time></trkpt><trkpt lat="44.81561513411697" lon="4.706315500251793"><ele>132.0</ele><time>2026-04-08T16:07:24.992Z</time></trkpt><trkpt lat="44.81569456412744" lon="4.706289596951137"><ele>132.0</ele><time>2026-04-08T16:07:26.992Z</time></trkpt><trkpt lat="44.81576915112152" lon="4.706258729335516"><ele>132.0</ele><time>2026-04-08T16:07:28.992Z</time></trkpt><trkpt lat="44.81584763682789" lon="4.706218442702076"><ele>132.0</ele><time>2026-04-08T16:07:30.992Z</time></trkpt><trkpt lat="44.81591094780649" lon="4.706162841549323"><ele>132.0</ele><time>2026-04-08T16:07:32.992Z</time></trkpt><trkpt lat="44.81597891212013" lon="4.706106735160392"><ele>132.0</ele><time>2026-04-08T16:07:34.992Z</time></trkpt><trkpt lat="44.81603274574934" lon="4.706031256892949"><ele>132.0</ele><time>2026-04-08T16:07:36.992Z</time></trkpt><trkpt lat="44.816094791873105" lon="4.705958430146143"><ele>132.0</ele><time>2026-04-08T16:07:38.992Z</time></trkpt><trkpt lat="44.81613817589859" lon="4.705887821972845"><ele>132.0</ele><time>2026-04-08T16:07:40.992Z</time></trkpt><trkpt lat="44.816189783130454" lon="4.705803026094875"><ele>132.0</ele><time>2026-04-08T16:07:42.992Z</time></trkpt><trkpt lat="44.8162155851181" lon="4.705709948629151"><ele>132.0</ele><time>2026-04-08T16:07:44.992Z</time></trkpt><trkpt lat="44.816255709183004" lon="4.70561308352858"><ele>132.0</ele><time>2026-04-08T16:07:46.992Z</time></trkpt><trkpt lat="44.81628060223998" lon="4.705508458362369"><ele>132.0</ele><time>2026-04-08T16:07:48.992Z</time></trkpt><trkpt lat="44.81629583119325" lon="4.705404636120376"><ele>132.0</ele><time>2026-04-08T16:07:50.992Z</time></trkpt><trkpt lat="44.81630342921838" lon="4.705287151574523"><ele>132.0</ele><time>2026-04-08T16:07:52.992Z</time></trkpt><trkpt lat="44.81632279758557" lon="4.705167548131729"><ele>132.0</ele><time>2026-04-08T16:07:54.992Z</time></trkpt><trkpt lat="44.81633991600203" lon="4.705045633362117"><ele>132.5</ele><time>2026-04-08T16:07:56.992Z</time></trkpt><trkpt lat="44.81635972653382" lon="4.704923018814143"><ele>133.0</ele><time>2026-04-08T16:07:58.992Z</time></trkpt><trkpt lat="44.816378749086006" lon="4.704806678501745"><ele>133.5</ele><time>2026-04-08T16:08:00.992Z</time></trkpt><trkpt lat="44.81639596830116" lon="4.704693288819551"><ele>134.0</ele><time>2026-04-08T16:08:02.992Z</time></trkpt><trkpt lat="44.81641987311378" lon="4.704574423299817"><ele>134.5</ele><time>2026-04-08T16:08:04.992Z</time></trkpt><trkpt lat="44.816438273920944" lon="4.704458325977462"><ele>135.0</ele><time>2026-04-08T16:08:06.992Z</time></trkpt><trkpt lat="44.8164514535156" lon="4.704348688327806"><ele>136.0</ele><time>2026-04-08T16:08:08.992Z</time></trkpt><trkpt lat="44.81646660108007" lon="4.704235253705518"><ele>137.0</ele><time>2026-04-08T16:08:10.992Z</time></trkpt><trkpt lat="44.816473320182986" lon="4.704119885738682"><ele>138.0</ele><time>2026-04-08T16:08:12.992Z</time></trkpt><trkpt lat="44.816483106055706" lon="4.704011800225476"><ele>139.0</ele><time>2026-04-08T16:08:14.992Z</time></trkpt><trkpt lat="44.81649371295306" lon="4.7039031201871655"><ele>140.0</ele><time>2026-04-08T16:08:16.992Z</time></trkpt><trkpt lat="44.81650526340197" lon="4.703800942771107"><ele>141.0</ele><time>2026-04-08T16:08:18.992Z</time></trkpt><trkpt lat="44.816524506293305" lon="4.703688853490263"><ele>141.0</ele><time>2026-04-08T16:08:20.992Z</time></trkpt><trkpt lat="44.81654694206077" lon="4.703588182010343"><ele>141.0</ele><time>2026-04-08T16:08:22.992Z</time></trkpt><trkpt lat="44.816577669947655" lon="4.703479642344005"><ele>141.0</ele><time>2026-04-08T16:08:24.992Z</time></trkpt><trkpt lat="44.81659787367502" lon="4.703379721745728"><ele>141.0</ele><time>2026-04-08T16:08:26.992Z</time></trkpt><trkpt lat="44.81661404527651" lon="4.703261763840633"><ele>141.0</ele><time>2026-04-08T16:08:28.992Z</time></trkpt><trkpt lat="44.81662817830481" lon="4.703134970615298"><ele>141.0</ele><time>2026-04-08T16:08:30.992Z</time></trkpt><trkpt lat="44.81662169820757" lon="4.703002090743839"><ele>142.0</ele><time>2026-04-08T16:08:32.992Z</time></trkpt><trkpt lat="44.81663173239298" lon="4.702874526850556"><ele>143.0</ele><time>2026-04-08T16:08:34.992Z</time></trkpt><trkpt lat="44.816627957700454" lon="4.702758283630624"><ele>144.0</ele><time>2026-04-08T16:08:36.992Z</time></trkpt><trkpt lat="44.81663535720313" lon="4.7026389761644785"><ele>145.0</ele><time>2026-04-08T16:08:38.992Z</time></trkpt><trkpt lat="44.81661236012143" lon="4.702518257378952"><ele>146.0</ele><time>2026-04-08T16:08:40.992Z</time></trkpt><trkpt lat="44.8166034063358" lon="4.702398081731271"><ele>147.0</ele><time>2026-04-08T16:08:42.992Z</time></trkpt><trkpt lat="44.81658673019382" lon="4.702287502780131"><ele>147.0</ele><time>2026-04-08T16:08:44.992Z</time></trkpt><trkpt lat="44.8165738618947" lon="4.702156865417314"><ele>147.0</ele><time>2026-04-08T16:08:46.992Z</time></trkpt><trkpt lat="44.81655897231067" lon="4.702027392715653"><ele>147.0</ele><time>2026-04-08T16:08:48.992Z</time></trkpt><trkpt lat="44.81653958890947" lon="4.701902496738538"><ele>147.0</ele><time>2026-04-08T16:08:50.992Z</time></trkpt><trkpt lat="44.8165224050763" lon="4.701793507326177"><ele>147.0</ele><time>2026-04-08T16:08:52.993Z</time></trkpt><trkpt lat="44.816504926662006" lon="4.701688161297664"><ele>147.0</ele><time>2026-04-08T16:08:54.992Z</time></trkpt><trkpt lat="44.81649082826892" lon="4.701573351561895"><ele>147.0</ele><time>2026-04-08T16:08:56.992Z</time></trkpt><trkpt lat="44.816465471125106" lon="4.701463443371846"><ele>147.0</ele><time>2026-04-08T16:08:58.992Z</time></trkpt><trkpt lat="44.81645381911253" lon="4.70134712687622"><ele>147.0</ele><time>2026-04-08T16:09:00.992Z</time></trkpt><trkpt lat="44.8164358552182" lon="4.701232749929155"><ele>147.0</ele><time>2026-04-08T16:09:02.992Z</time></trkpt><trkpt lat="44.81644169537429" lon="4.701111053740471"><ele>147.0</ele><time>2026-04-08T16:09:04.992Z</time></trkpt><trkpt lat="44.816442307502165" lon="4.700984278190446"><ele>147.0</ele><time>2026-04-08T16:09:06.992Z</time></trkpt><trkpt lat="44.81645565259576" lon="4.7008582223917434"><ele>147.2</ele><time>2026-04-08T16:09:08.992Z</time></trkpt><trkpt lat="44.8164750915755" lon="4.700725554214621"><ele>147.39999999999998</ele><time>2026-04-08T16:09:10.992Z</time></trkpt><trkpt lat="44.816502104118356" lon="4.70059211071194"><ele>147.60000000000002</ele><time>2026-04-08T16:09:12.992Z</time></trkpt><trkpt lat="44.81652941227048" lon="4.700464129739512"><ele>147.8</ele><time>2026-04-08T16:09:14.992Z</time></trkpt><trkpt lat="44.81654745106234" lon="4.700336312141866"><ele>148.0</ele><time>2026-04-08T16:09:16.992Z</time></trkpt><trkpt lat="44.81656922894694" lon="4.700212011154509"><ele>148.0</ele><time>2026-04-08T16:09:18.992Z</time></trkpt><trkpt lat="44.8165851299516" lon="4.700086720726064"><ele>148.0</ele><time>2026-04-08T16:09:20.992Z</time></trkpt><trkpt lat="44.81660827563093" lon="4.69997533290934"><ele>148.0</ele><time>2026-04-08T16:09:22.992Z</time></trkpt><trkpt lat="44.81662482697227" lon="4.69986686616084"><ele>148.0</ele><time>2026-04-08T16:09:24.992Z</time></trkpt><trkpt lat="44.816638938709445" lon="4.699745082503553"><ele>148.0</ele><time>2026-04-08T16:09:26.992Z</time></trkpt><trkpt lat="44.81664707395112" lon="4.699619498089216"><ele>148.0</ele><time>2026-04-08T16:09:28.992Z</time></trkpt><trkpt lat="44.81664099763422" lon="4.699501813484055"><ele>149.0</ele><time>2026-04-08T16:09:30.992Z</time></trkpt><trkpt lat="44.816638683188174" lon="4.699387593165252"><ele>150.0</ele><time>2026-04-08T16:09:32.992Z</time></trkpt><trkpt lat="44.81662239151435" lon="4.699275650084524"><ele>151.0</ele><time>2026-04-08T16:09:34.992Z</time></trkpt><trkpt lat="44.816618104874806" lon="4.699155784754296"><ele>152.0</ele><time>2026-04-08T16:09:36.992Z</time></trkpt><trkpt lat="44.81659129929948" lon="4.699040150135928"><ele>153.0</ele><time>2026-04-08T16:09:38.992Z</time></trkpt><trkpt lat="44.8165674970727" lon="4.698927717958693"><ele>154.0</ele><time>2026-04-08T16:09:40.992Z</time></trkpt><trkpt lat="44.816543806032314" lon="4.698808080460042"><ele>154.0</ele><time>2026-04-08T16:09:42.992Z</time></trkpt><trkpt lat="44.816520893333454" lon="4.6986987475269375"><ele>154.0</ele><time>2026-04-08T16:09:44.992Z</time></trkpt><trkpt lat="44.816481136353644" lon="4.69858556795509"><ele>154.0</ele><time>2026-04-08T16:09:46.992Z</time></trkpt><trkpt lat="44.816450940062495" lon="4.698459547773745"><ele>154.0</ele><time>2026-04-08T16:09:48.992Z</time></trkpt><trkpt lat="44.81641711576132" lon="4.698337605445423"><ele>154.0</ele><time>2026-04-08T16:09:50.992Z</time></trkpt><trkpt lat="44.81638285969233" lon="4.698221812492003"><ele>154.0</ele><time>2026-04-08T16:09:52.992Z</time></trkpt><trkpt lat="44.816358734846794" lon="4.698103548615106"><ele>153.16666666666669</ele><time>2026-04-08T16:09:54.992Z</time></trkpt><trkpt lat="44.816329958150796" lon="4.697982551866057"><ele>152.33333333333334</ele><time>2026-04-08T16:09:56.992Z</time></trkpt><trkpt lat="44.816306701634836" lon="4.697867709716976"><ele>151.5</ele><time>2026-04-08T16:09:58.992Z</time></trkpt><trkpt lat="44.81629415307966" lon="4.697738701824512"><ele>150.66666666666666</ele><time>2026-04-08T16:10:00.992Z</time></trkpt><trkpt lat="44.816300945053904" lon="4.697607818443286"><ele>149.83333333333331</ele><time>2026-04-08T16:10:02.992Z</time></trkpt><trkpt lat="44.81630462027051" lon="4.697483905368563"><ele>149.0</ele><time>2026-04-08T16:10:04.992Z</time></trkpt><trkpt lat="44.816315864459035" lon="4.69735567549514"><ele>146.4</ele><time>2026-04-08T16:10:06.992Z</time></trkpt><trkpt lat="44.81634399817004" lon="4.697232803649796"><ele>143.8</ele><time>2026-04-08T16:10:08.992Z</time></trkpt><trkpt lat="44.81638834990359" lon="4.697107003870713"><ele>141.2</ele><time>2026-04-08T16:10:10.992Z</time></trkpt><trkpt lat="44.81643756696343" lon="4.696990689036634"><ele>138.6</ele><time>2026-04-08T16:10:12.992Z</time></trkpt><trkpt lat="44.81648685108903" lon="4.696872363470127"><ele>136.0</ele><time>2026-04-08T16:10:14.992Z</time></trkpt><trkpt lat="44.81653460626472" lon="4.696762437436494"><ele>136.0</ele><time>2026-04-08T16:10:16.992Z</time></trkpt><trkpt lat="44.81657109274395" lon="4.696662341359052"><ele>136.0</ele><time>2026-04-08T16:10:18.992Z</time></trkpt><trkpt lat="44.816609108881664" lon="4.696553463374947"><ele>136.0</ele><time>2026-04-08T16:10:20.992Z</time></trkpt><trkpt lat="44.8166521207296" lon="4.696451922945084"><ele>136.0</ele><time>2026-04-08T16:10:22.992Z</time></trkpt><trkpt lat="44.816688510540835" lon="4.6963460549566145"><ele>136.0</ele><time>2026-04-08T16:10:24.992Z</time></trkpt><trkpt lat="44.81671011150094" lon="4.696227537374335"><ele>136.0</ele><time>2026-04-08T16:10:26.992Z</time></trkpt><trkpt lat="44.81671704971181" lon="4.696111615056705"><ele>138.33333333333334</ele><time>2026-04-08T16:10:28.992Z</time></trkpt><trkpt lat="44.81674310210196" lon="4.695998286951202"><ele>140.66666666666669</ele><time>2026-04-08T16:10:30.992Z</time></trkpt><trkpt lat="44.816751219871" lon="4.695881021346986"><ele>143.0</ele><time>2026-04-08T16:10:32.992Z</time></trkpt><trkpt lat="44.816752970498484" lon="4.6957502308343475"><ele>145.33333333333334</ele><time>2026-04-08T16:10:34.992Z</time></trkpt><trkpt lat="44.81676139898655" lon="4.695612717798999"><ele>147.66666666666666</ele><time>2026-04-08T16:10:36.992Z</time></trkpt><trkpt lat="44.81677158348163" lon="4.695501432264262"><ele>150.0</ele><time>2026-04-08T16:10:38.992Z</time></trkpt><trkpt lat="44.81681361495" lon="4.695392057002311"><ele>147.83333333333334</ele><time>2026-04-08T16:10:40.992Z</time></trkpt><trkpt lat="44.81681950675222" lon="4.69529994697812"><ele>145.66666666666666</ele><time>2026-04-08T16:10:42.992Z</time></trkpt><trkpt lat="44.81686245559945" lon="4.695204417214403"><ele>143.5</ele><time>2026-04-08T16:10:44.992Z</time></trkpt><trkpt lat="44.81691447953764" lon="4.6950996966044745"><ele>141.33333333333331</ele><time>2026-04-08T16:10:46.992Z</time></trkpt><trkpt lat="44.81696116357614" lon="4.6949916422933535"><ele>139.16666666666666</ele><time>2026-04-08T16:10:48.992Z</time></trkpt><trkpt lat="44.81702239785391" lon="4.6948946380591"><ele>137.0</ele><time>2026-04-08T16:10:50.992Z</time></trkpt><trkpt lat="44.81708730979766" lon="4.694808828740877"><ele>137.0</ele><time>2026-04-08T16:10:52.992Z</time></trkpt><trkpt lat="44.81716547133904" lon="4.694720076042421"><ele>137.0</ele><time>2026-04-08T16:10:54.992Z</time></trkpt><trkpt lat="44.81723710238651" lon="4.69464738881883"><ele>137.0</ele><time>2026-04-08T16:10:56.992Z</time></trkpt><trkpt lat="44.81732370599551" lon="4.694587452021055"><ele>137.0</ele><time>2026-04-08T16:10:58.992Z</time></trkpt><trkpt lat="44.817416312076624" lon="4.694549073312755"><ele>137.0</ele><time>2026-04-08T16:11:00.992Z</time></trkpt><trkpt lat="44.81750451762665" lon="4.694513206098991"><ele>137.0</ele><time>2026-04-08T16:11:02.992Z</time></trkpt><trkpt lat="44.817596052971496" lon="4.694480337153288"><ele>137.0</ele><time>2026-04-08T16:11:04.992Z</time></trkpt><trkpt lat="44.81768629822645" lon="4.694459427039061"><ele>137.0</ele><time>2026-04-08T16:11:06.992Z</time></trkpt><trkpt lat="44.81777123425879" lon="4.694434516791519"><ele>137.0</ele><time>2026-04-08T16:11:08.992Z</time></trkpt><trkpt lat="44.81786216432608" lon="4.6944052373741565"><ele>137.0</ele><time>2026-04-08T16:11:10.992Z</time></trkpt><trkpt lat="44.81795060749052" lon="4.694370460418814"><ele>139.2</ele><time>2026-04-08T16:11:12.992Z</time></trkpt><trkpt lat="44.818045398426236" lon="4.694336673683312"><ele>141.39999999999998</ele><time>2026-04-08T16:11:14.991Z</time></trkpt><trkpt lat="44.8181381959028" lon="4.694298880160759"><ele>143.60000000000002</ele><time>2026-04-08T16:11:16.991Z</time></trkpt><trkpt lat="44.81822773731321" lon="4.694281805301147"><ele>145.8</ele><time>2026-04-08T16:11:18.991Z</time></trkpt><trkpt lat="44.81831025271844" lon="4.694244834958718"><ele>148.0</ele><time>2026-04-08T16:11:20.991Z</time></trkpt><trkpt lat="44.81839312089725" lon="4.6942045392063125"><ele>148.0</ele><time>2026-04-08T16:11:22.991Z</time></trkpt><trkpt lat="44.818482899736516" lon="4.694170094158253"><ele>148.0</ele><time>2026-04-08T16:11:24.991Z</time></trkpt><trkpt lat="44.81857001122917" lon="4.694145053140838"><ele>148.0</ele><time>2026-04-08T16:11:26.991Z</time></trkpt><trkpt lat="44.81865509126102" lon="4.694114043827405"><ele>148.0</ele><time>2026-04-08T16:11:28.991Z</time></trkpt><trkpt lat="44.81874073352847" lon="4.6940873886330206"><ele>148.0</ele><time>2026-04-08T16:11:30.991Z</time></trkpt><trkpt lat="44.818825492351486" lon="4.694076503392143"><ele>148.0</ele><time>2026-04-08T16:11:32.991Z</time></trkpt><trkpt lat="44.81891146824871" lon="4.694061256289376"><ele>148.0</ele><time>2026-04-08T16:11:34.991Z</time></trkpt><trkpt lat="44.81899489213652" lon="4.694057539260438"><ele>148.0</ele><time>2026-04-08T16:11:36.991Z</time></trkpt><trkpt lat="44.819076281252265" lon="4.694055863181469"><ele>148.0</ele><time>2026-04-08T16:11:38.991Z</time></trkpt><trkpt lat="44.819158796111054" lon="4.694057410859277"><ele>148.0</ele><time>2026-04-08T16:11:40.991Z</time></trkpt><trkpt lat="44.819239373680915" lon="4.694057016017988"><ele>148.0</ele><time>2026-04-08T16:11:42.991Z</time></trkpt><trkpt lat="44.81931831660022" lon="4.694075565708087"><ele>148.0</ele><time>2026-04-08T16:11:44.991Z</time></trkpt><trkpt lat="44.81940171159292" lon="4.69408674825665"><ele>148.0</ele><time>2026-04-08T16:11:46.991Z</time></trkpt><trkpt lat="44.81948057342564" lon="4.6941149914404425"><ele>148.0</ele><time>2026-04-08T16:11:48.991Z</time></trkpt><trkpt lat="44.81955378566836" lon="4.694144641960889"><ele>148.0</ele><time>2026-04-08T16:11:50.991Z</time></trkpt><trkpt lat="44.81962910449027" lon="4.694178127464865"><ele>148.0</ele><time>2026-04-08T16:11:52.991Z</time></trkpt><trkpt lat="44.81970990530996" lon="4.694224406642701"><ele>148.0</ele><time>2026-04-08T16:11:54.991Z</time></trkpt><trkpt lat="44.81977758403325" lon="4.6942643839067655"><ele>148.0</ele><time>2026-04-08T16:11:56.991Z</time></trkpt><trkpt lat="44.81985059376727" lon="4.694323975997207"><ele>148.0</ele><time>2026-04-08T16:11:58.991Z</time></trkpt><trkpt lat="44.81992710425572" lon="4.694370940920066"><ele>148.0</ele><time>2026-04-08T16:12:00.991Z</time></trkpt><trkpt lat="44.81999904513052" lon="4.69442677782028"><ele>148.0</ele><time>2026-04-08T16:12:02.991Z</time></trkpt><trkpt lat="44.82006572289866" lon="4.694500396296987"><ele>148.0</ele><time>2026-04-08T16:12:04.991Z</time></trkpt><trkpt lat="44.82013871272469" lon="4.694567342478367"><ele>148.0</ele><time>2026-04-08T16:12:06.991Z</time></trkpt><trkpt lat="44.82020546150085" lon="4.694626118811601"><ele>148.0</ele><time>2026-04-08T16:12:08.991Z</time></trkpt><trkpt lat="44.82027177276713" lon="4.69470006775593"><ele>147.5</ele><time>2026-04-08T16:12:10.991Z</time></trkpt><trkpt lat="44.820339697397365" lon="4.694774437279848"><ele>147.0</ele><time>2026-04-08T16:12:12.991Z</time></trkpt><trkpt lat="44.82040952764144" lon="4.694844607541345"><ele>146.5</ele><time>2026-04-08T16:12:14.991Z</time></trkpt><trkpt lat="44.82047495144294" lon="4.694912367975688"><ele>146.0</ele><time>2026-04-08T16:12:16.991Z</time></trkpt><trkpt lat="44.82054469295934" lon="4.694975094048842"><ele>145.5</ele><time>2026-04-08T16:12:18.991Z</time></trkpt><trkpt lat="44.820608312836846" lon="4.695037981384253"><ele>145.0</ele><time>2026-04-08T16:12:20.991Z</time></trkpt><trkpt lat="44.82066906933407" lon="4.695104437097742"><ele>145.0</ele><time>2026-04-08T16:12:22.991Z</time></trkpt><trkpt lat="44.82073713620501" lon="4.695162484572392"><ele>145.0</ele><time>2026-04-08T16:12:24.991Z</time></trkpt><trkpt lat="44.820808408934504" lon="4.695227050511986"><ele>145.0</ele><time>2026-04-08T16:12:26.991Z</time></trkpt><trkpt lat="44.82086598406993" lon="4.69529417991676"><ele>145.0</ele><time>2026-04-08T16:12:28.991Z</time></trkpt><trkpt lat="44.82093517216376" lon="4.69536050866655"><ele>145.0</ele><time>2026-04-08T16:12:30.991Z</time></trkpt><trkpt lat="44.82100167449449" lon="4.6954203464986275"><ele>145.0</ele><time>2026-04-08T16:12:32.991Z</time></trkpt><trkpt lat="44.821067145126236" lon="4.695487652836764"><ele>145.28571428571428</ele><time>2026-04-08T16:12:34.991Z</time></trkpt><trkpt lat="44.821131813160555" lon="4.6955420863679835"><ele>145.57142857142858</ele><time>2026-04-08T16:12:36.991Z</time></trkpt><trkpt lat="44.82119500203445" lon="4.695596465695306"><ele>145.85714285714286</ele><time>2026-04-08T16:12:38.991Z</time></trkpt><trkpt lat="44.82125988694206" lon="4.69564063793993"><ele>146.14285714285714</ele><time>2026-04-08T16:12:40.991Z</time></trkpt><trkpt lat="44.82132915616757" lon="4.695686035935937"><ele>146.42857142857144</ele><time>2026-04-08T16:12:42.991Z</time></trkpt><trkpt lat="44.821395182434834" lon="4.695728243155707"><ele>146.71428571428572</ele><time>2026-04-08T16:12:44.991Z</time></trkpt><trkpt lat="44.821467419603984" lon="4.695743771239315"><ele>147.0</ele><time>2026-04-08T16:12:46.991Z</time></trkpt><trkpt lat="44.821533226426716" lon="4.695752761784098"><ele>147.0</ele><time>2026-04-08T16:12:48.991Z</time></trkpt><trkpt lat="44.82159636626731" lon="4.695763565095392"><ele>147.0</ele><time>2026-04-08T16:12:50.991Z</time></trkpt><trkpt lat="44.821682699246516" lon="4.695758732012033"><ele>147.0</ele><time>2026-04-08T16:12:53.991Z</time></trkpt><trkpt lat="44.821766032107405" lon="4.69575801898266"><ele>147.0</ele><time>2026-04-08T16:12:55.991Z</time></trkpt><trkpt lat="44.821843656911796" lon="4.695736150400741"><ele>147.0</ele><time>2026-04-08T16:12:57.991Z</time></trkpt><trkpt lat="44.82192319039487" lon="4.695722542961941"><ele>147.0</ele><time>2026-04-08T16:12:59.991Z</time></trkpt><trkpt lat="44.82199943758718" lon="4.695705143644644"><ele>146.0</ele><time>2026-04-08T16:13:01.992Z</time></trkpt><trkpt lat="44.822078135889164" lon="4.69568347499147"><ele>145.0</ele><time>2026-04-08T16:13:03.992Z</time></trkpt><trkpt lat="44.82215502794299" lon="4.695636641120258"><ele>144.0</ele><time>2026-04-08T16:13:05.991Z</time></trkpt><trkpt lat="44.822208644658545" lon="4.695569070829174"><ele>143.0</ele><time>2026-04-08T16:13:07.992Z</time></trkpt><trkpt lat="44.82228076292744" lon="4.695513984236382"><ele>142.0</ele><time>2026-04-08T16:13:09.991Z</time></trkpt><trkpt lat="44.822339578224344" lon="4.695458008443008"><ele>141.0</ele><time>2026-04-08T16:13:11.991Z</time></trkpt><trkpt lat="44.822390690984555" lon="4.695397970313069"><ele>141.0</ele><time>2026-04-08T16:13:13.992Z</time></trkpt><trkpt lat="44.82244494631359" lon="4.695340259170407"><ele>141.0</ele><time>2026-04-08T16:13:15.991Z</time></trkpt><trkpt lat="44.82250515480896" lon="4.695287751151766"><ele>141.0</ele><time>2026-04-08T16:13:17.991Z</time></trkpt><trkpt lat="44.822594367861655" lon="4.695212984298061"><ele>141.0</ele><time>2026-04-08T16:13:20.991Z</time></trkpt><trkpt lat="44.82265269588938" lon="4.695165066830002"><ele>141.0</ele><time>2026-04-08T16:13:22.991Z</time></trkpt><trkpt lat="44.822699064873866" lon="4.695104694443085"><ele>141.0</ele><time>2026-04-08T16:13:24.991Z</time></trkpt><trkpt lat="44.82276125106393" lon="4.695053051446453"><ele>141.0</ele><time>2026-04-08T16:13:26.991Z</time></trkpt><trkpt lat="44.822830372790364" lon="4.694999233916155"><ele>141.0</ele><time>2026-04-08T16:13:28.991Z</time></trkpt><trkpt lat="44.82288547571731" lon="4.69494514639746"><ele>141.0</ele><time>2026-04-08T16:13:30.991Z</time></trkpt><trkpt lat="44.822947261843545" lon="4.69488246505324"><ele>141.0</ele><time>2026-04-08T16:13:32.991Z</time></trkpt><trkpt lat="44.823008107636866" lon="4.694810889789211"><ele>141.0</ele><time>2026-04-08T16:13:34.991Z</time></trkpt><trkpt lat="44.82306819813237" lon="4.694737533933983"><ele>141.0</ele><time>2026-04-08T16:13:36.991Z</time></trkpt><trkpt lat="44.823122158769344" lon="4.694658535817639"><ele>141.0</ele><time>2026-04-08T16:13:38.991Z</time></trkpt><trkpt lat="44.82318546872494" lon="4.694583753824347"><ele>141.0</ele><time>2026-04-08T16:13:40.991Z</time></trkpt><trkpt lat="44.823229484270406" lon="4.694500402320225"><ele>141.0</ele><time>2026-04-08T16:13:42.991Z</time></trkpt><trkpt lat="44.823283796297794" lon="4.694423922564635"><ele>141.0</ele><time>2026-04-08T16:13:44.991Z</time></trkpt><trkpt lat="44.8233406325028" lon="4.694346413482556"><ele>141.0</ele><time>2026-04-08T16:13:46.991Z</time></trkpt><trkpt lat="44.823387520951286" lon="4.694273724892343"><ele>141.0</ele><time>2026-04-08T16:13:48.991Z</time></trkpt><trkpt lat="44.82342543927344" lon="4.694191294835429"><ele>141.0</ele><time>2026-04-08T16:13:50.991Z</time></trkpt><trkpt lat="44.823483547497496" lon="4.69410783270645"><ele>140.42857142857144</ele><time>2026-04-08T16:13:52.991Z</time></trkpt><trkpt lat="44.82353325084066" lon="4.694031234075302"><ele>139.85714285714286</ele><time>2026-04-08T16:13:54.991Z</time></trkpt><trkpt lat="44.82358453782496" lon="4.693956221811363"><ele>139.28571428571428</ele><time>2026-04-08T16:13:56.991Z</time></trkpt><trkpt lat="44.82364291097901" lon="4.693876963813076"><ele>138.71428571428572</ele><time>2026-04-08T16:13:58.991Z</time></trkpt><trkpt lat="44.82368888998938" lon="4.693796840393188"><ele>138.14285714285714</ele><time>2026-04-08T16:14:00.991Z</time></trkpt><trkpt lat="44.82371686061755" lon="4.693703924513321"><ele>137.57142857142858</ele><time>2026-04-08T16:14:02.991Z</time></trkpt><trkpt lat="44.82375572275558" lon="4.693620546810651"><ele>137.0</ele><time>2026-04-08T16:14:04.991Z</time></trkpt><trkpt lat="44.82381165813356" lon="4.693506414646334"><ele>138.14285714285717</ele><time>2026-04-08T16:14:07.991Z</time></trkpt><trkpt lat="44.823845627252716" lon="4.69342323448103"><ele>139.28571428571428</ele><time>2026-04-08T16:14:09.991Z</time></trkpt><trkpt lat="44.823878896036604" lon="4.693330650507793"><ele>140.42857142857144</ele><time>2026-04-08T16:14:11.991Z</time></trkpt><trkpt lat="44.823918655503064" lon="4.693235731686806"><ele>141.57142857142858</ele><time>2026-04-08T16:14:13.991Z</time></trkpt><trkpt lat="44.82395702204221" lon="4.693142072440327"><ele>142.71428571428572</ele><time>2026-04-08T16:14:15.991Z</time></trkpt><trkpt lat="44.823991399471744" lon="4.693044544108643"><ele>143.85714285714286</ele><time>2026-04-08T16:14:17.991Z</time></trkpt><trkpt lat="44.824015819989874" lon="4.692948306561547"><ele>145.0</ele><time>2026-04-08T16:14:19.991Z</time></trkpt><trkpt lat="44.82405593509088" lon="4.692852052381021"><ele>145.33333333333334</ele><time>2026-04-08T16:14:21.991Z</time></trkpt><trkpt lat="44.82408582327589" lon="4.692756054819213"><ele>145.66666666666669</ele><time>2026-04-08T16:14:23.991Z</time></trkpt><trkpt lat="44.82411161831174" lon="4.692654773836763"><ele>146.0</ele><time>2026-04-08T16:14:25.991Z</time></trkpt><trkpt lat="44.82413807743867" lon="4.692559340634269"><ele>146.33333333333334</ele><time>2026-04-08T16:14:27.991Z</time></trkpt><trkpt lat="44.8241782772182" lon="4.692466967114209"><ele>146.66666666666666</ele><time>2026-04-08T16:14:29.991Z</time></trkpt><trkpt lat="44.82420866320459" lon="4.692363555946454"><ele>147.0</ele><time>2026-04-08T16:14:31.991Z</time></trkpt><trkpt lat="44.82424642142074" lon="4.6922765845772325"><ele>147.0</ele><time>2026-04-08T16:14:33.991Z</time></trkpt><trkpt lat="44.824275791697296" lon="4.692182582444574"><ele>147.0</ele><time>2026-04-08T16:14:35.991Z</time></trkpt><trkpt lat="44.8243095430754" lon="4.692088815658516"><ele>147.0</ele><time>2026-04-08T16:14:37.991Z</time></trkpt><trkpt lat="44.82433937135514" lon="4.691989625640397"><ele>147.0</ele><time>2026-04-08T16:14:39.991Z</time></trkpt><trkpt lat="44.82437291088399" lon="4.691892242743445"><ele>147.0</ele><time>2026-04-08T16:14:41.991Z</time></trkpt><trkpt lat="44.824399723780274" lon="4.691796098910878"><ele>147.0</ele><time>2026-04-08T16:14:43.991Z</time></trkpt><trkpt lat="44.82442768230695" lon="4.691698108978045"><ele>147.0</ele><time>2026-04-08T16:14:45.991Z</time></trkpt><trkpt lat="44.82445968957148" lon="4.691601434727336"><ele>147.14285714285714</ele><time>2026-04-08T16:14:47.991Z</time></trkpt><trkpt lat="44.82448906881257" lon="4.691508211965116"><ele>147.28571428571428</ele><time>2026-04-08T16:14:49.991Z</time></trkpt><trkpt lat="44.82452130195167" lon="4.69141247316508"><ele>147.42857142857144</ele><time>2026-04-08T16:14:51.991Z</time></trkpt><trkpt lat="44.824545843379326" lon="4.691312406536375"><ele>147.57142857142856</ele><time>2026-04-08T16:14:53.991Z</time></trkpt><trkpt lat="44.82457220900302" lon="4.69121964348526"><ele>147.71428571428572</ele><time>2026-04-08T16:14:55.991Z</time></trkpt><trkpt lat="44.82459747386652" lon="4.691136673272335"><ele>147.85714285714286</ele><time>2026-04-08T16:14:57.991Z</time></trkpt><trkpt lat="44.824629856083405" lon="4.691051308263572"><ele>148.0</ele><time>2026-04-08T16:14:59.991Z</time></trkpt><trkpt lat="44.82466426097152" lon="4.69096703590368"><ele>148.0</ele><time>2026-04-08T16:15:01.991Z</time></trkpt><trkpt lat="44.824699405310966" lon="4.6908745525588555"><ele>148.0</ele><time>2026-04-08T16:15:03.991Z</time></trkpt><trkpt lat="44.82473725101801" lon="4.690795746590886"><ele>148.0</ele><time>2026-04-08T16:15:05.991Z</time></trkpt><trkpt lat="44.82478484951573" lon="4.690715995189463"><ele>148.0</ele><time>2026-04-08T16:15:07.992Z</time></trkpt><trkpt lat="44.82483404554742" lon="4.69063859405127"><ele>148.0</ele><time>2026-04-08T16:15:09.991Z</time></trkpt><trkpt lat="44.82488213631763" lon="4.6905607617568466"><ele>148.0</ele><time>2026-04-08T16:15:11.991Z</time></trkpt><trkpt lat="44.82493056268202" lon="4.690477238263494"><ele>148.0</ele><time>2026-04-08T16:15:13.992Z</time></trkpt><trkpt lat="44.8249814383364" lon="4.690397055569705"><ele>148.0</ele><time>2026-04-08T16:15:15.992Z</time></trkpt><trkpt lat="44.825037589105605" lon="4.690320026826875"><ele>148.0</ele><time>2026-04-08T16:15:17.992Z</time></trkpt><trkpt lat="44.82508913713613" lon="4.690238655868835"><ele>148.0</ele><time>2026-04-08T16:15:19.992Z</time></trkpt><trkpt lat="44.8251429643245" lon="4.690154403439984"><ele>148.0</ele><time>2026-04-08T16:15:21.992Z</time></trkpt><trkpt lat="44.82519312450313" lon="4.690071059690948"><ele>148.0</ele><time>2026-04-08T16:15:23.992Z</time></trkpt><trkpt lat="44.82523389130248" lon="4.689989043192264"><ele>148.0</ele><time>2026-04-08T16:15:25.992Z</time></trkpt><trkpt lat="44.82527825646653" lon="4.689873484702175"><ele>146.42857142857144</ele><time>2026-04-08T16:15:28.992Z</time></trkpt><trkpt lat="44.8253093385976" lon="4.689792487529628"><ele>144.85714285714286</ele><time>2026-04-08T16:15:30.992Z</time></trkpt><trkpt lat="44.825336754272456" lon="4.689701722215645"><ele>143.28571428571428</ele><time>2026-04-08T16:15:32.992Z</time></trkpt><trkpt lat="44.82535037411259" lon="4.6896031781320895"><ele>141.71428571428572</ele><time>2026-04-08T16:15:34.992Z</time></trkpt><trkpt lat="44.82536649616596" lon="4.689506037343759"><ele>140.14285714285714</ele><time>2026-04-08T16:15:36.992Z</time></trkpt><trkpt lat="44.82537270638329" lon="4.689400654147242"><ele>138.57142857142858</ele><time>2026-04-08T16:15:38.992Z</time></trkpt><trkpt lat="44.82537171963694" lon="4.689303860700001"><ele>137.0</ele><time>2026-04-08T16:15:40.992Z</time></trkpt><trkpt lat="44.82536967919465" lon="4.689197139484721"><ele>137.00000000000003</ele><time>2026-04-08T16:15:42.992Z</time></trkpt><trkpt lat="44.82535931705981" lon="4.68909720431978"><ele>137.0</ele><time>2026-04-08T16:15:44.992Z</time></trkpt><trkpt lat="44.825340021174654" lon="4.689005599165142"><ele>137.0</ele><time>2026-04-08T16:15:46.992Z</time></trkpt><trkpt lat="44.82532898763485" lon="4.688902395498767"><ele>137.0</ele><time>2026-04-08T16:15:48.992Z</time></trkpt><trkpt lat="44.82529538652642" lon="4.688811210501776"><ele>137.0</ele><time>2026-04-08T16:15:50.992Z</time></trkpt><trkpt lat="44.82529216422803" lon="4.688706594824354"><ele>137.00000000000003</ele><time>2026-04-08T16:15:52.992Z</time></trkpt><trkpt lat="44.8252661642575" lon="4.688596296617363"><ele>137.0</ele><time>2026-04-08T16:15:54.992Z</time></trkpt><trkpt lat="44.82524499652597" lon="4.688503919812398"><ele>136.83333333333331</ele><time>2026-04-08T16:15:56.992Z</time></trkpt><trkpt lat="44.82521672145427" lon="4.688386288636471"><ele>136.66666666666666</ele><time>2026-04-08T16:15:58.992Z</time></trkpt><trkpt lat="44.82519693735518" lon="4.688266360662276"><ele>136.5</ele><time>2026-04-08T16:16:00.992Z</time></trkpt><trkpt lat="44.82518085495737" lon="4.6881425066032625"><ele>136.33333333333334</ele><time>2026-04-08T16:16:02.992Z</time></trkpt><trkpt lat="44.825163966850326" lon="4.688018966943912"><ele>136.16666666666669</ele><time>2026-04-08T16:16:04.992Z</time></trkpt><trkpt lat="44.82514588839321" lon="4.687910585651921"><ele>136.0</ele><time>2026-04-08T16:16:06.992Z</time></trkpt><trkpt lat="44.82514928835156" lon="4.687811252362249"><ele>135.66666666666669</ele><time>2026-04-08T16:16:09.992Z</time></trkpt><trkpt lat="44.82516346234956" lon="4.687711633966167"><ele>135.33333333333334</ele><time>2026-04-08T16:16:11.992Z</time></trkpt><trkpt lat="44.82516977751853" lon="4.687596845835782"><ele>135.0</ele><time>2026-04-08T16:16:13.992Z</time></trkpt><trkpt lat="44.82518332524475" lon="4.687468838430085"><ele>134.66666666666666</ele><time>2026-04-08T16:16:15.992Z</time></trkpt><trkpt lat="44.82520367614437" lon="4.687347449671979"><ele>134.33333333333331</ele><time>2026-04-08T16:16:17.992Z</time></trkpt><trkpt lat="44.82522131666683" lon="4.687219726181562"><ele>134.0</ele><time>2026-04-08T16:16:19.992Z</time></trkpt><trkpt lat="44.82522490496221" lon="4.687094476004904"><ele>134.0</ele><time>2026-04-08T16:16:21.992Z</time></trkpt><trkpt lat="44.82524570392535" lon="4.686972825815881"><ele>134.0</ele><time>2026-04-08T16:16:23.992Z</time></trkpt><trkpt lat="44.825250480926876" lon="4.686851137340144"><ele>134.0</ele><time>2026-04-08T16:16:25.992Z</time></trkpt><trkpt lat="44.82524966064608" lon="4.686732869093686"><ele>134.0</ele><time>2026-04-08T16:16:27.992Z</time></trkpt><trkpt lat="44.82524546407745" lon="4.686614986325029"><ele>134.0</ele><time>2026-04-08T16:16:29.992Z</time></trkpt><trkpt lat="44.82523386330649" lon="4.6864979847607895"><ele>134.0</ele><time>2026-04-08T16:16:31.992Z</time></trkpt><trkpt lat="44.82520544122756" lon="4.686385168636593"><ele>133.83333333333331</ele><time>2026-04-08T16:16:33.992Z</time></trkpt><trkpt lat="44.8251750658145" lon="4.686281169028762"><ele>133.66666666666666</ele><time>2026-04-08T16:16:35.992Z</time></trkpt><trkpt lat="44.825139751435685" lon="4.686175732996569"><ele>133.5</ele><time>2026-04-08T16:16:37.992Z</time></trkpt><trkpt lat="44.82509880970892" lon="4.686073564513835"><ele>133.33333333333334</ele><time>2026-04-08T16:16:39.992Z</time></trkpt><trkpt lat="44.82505129519653" lon="4.685984849338944"><ele>133.16666666666669</ele><time>2026-04-08T16:16:41.992Z</time></trkpt><trkpt lat="44.82502405002662" lon="4.685868974794995"><ele>133.0</ele><time>2026-04-08T16:16:43.992Z</time></trkpt><trkpt lat="44.82499831252641" lon="4.68576423641494"><ele>137.33333333333334</ele><time>2026-04-08T16:16:45.992Z</time></trkpt><trkpt lat="44.82496532464625" lon="4.6856524610506165"><ele>141.66666666666669</ele><time>2026-04-08T16:16:47.992Z</time></trkpt><trkpt lat="44.82492270117162" lon="4.6855430533591145"><ele>146.0</ele><time>2026-04-08T16:16:49.992Z</time></trkpt><trkpt lat="44.824918165256534" lon="4.685415660692679"><ele>150.33333333333334</ele><time>2026-04-08T16:16:51.992Z</time></trkpt><trkpt lat="44.82491279514633" lon="4.68529388882667"><ele>154.66666666666666</ele><time>2026-04-08T16:16:53.992Z</time></trkpt><trkpt lat="44.82492564281932" lon="4.68516640486043"><ele>159.0</ele><time>2026-04-08T16:16:55.992Z</time></trkpt><trkpt lat="44.824931238293594" lon="4.685051090884997"><ele>159.0</ele><time>2026-04-08T16:16:57.992Z</time></trkpt><trkpt lat="44.82495225465745" lon="4.684924814542354"><ele>159.0</ele><time>2026-04-08T16:16:59.992Z</time></trkpt><trkpt lat="44.824967927390404" lon="4.684816916877659"><ele>159.0</ele><time>2026-04-08T16:17:01.992Z</time></trkpt><trkpt lat="44.82500016887469" lon="4.684713940911615"><ele>159.0</ele><time>2026-04-08T16:17:03.992Z</time></trkpt><trkpt lat="44.825038748926744" lon="4.684598256771324"><ele>159.0</ele><time>2026-04-08T16:17:05.992Z</time></trkpt><trkpt lat="44.8250871925406" lon="4.684488613511686"><ele>159.0</ele><time>2026-04-08T16:17:07.992Z</time></trkpt><trkpt lat="44.82514481188634" lon="4.684383949156505"><ele>154.6</ele><time>2026-04-08T16:17:09.992Z</time></trkpt><trkpt lat="44.825198551147004" lon="4.684269680952188"><ele>150.2</ele><time>2026-04-08T16:17:11.992Z</time></trkpt><trkpt lat="44.825245162878545" lon="4.684161354691572"><ele>145.79999999999998</ele><time>2026-04-08T16:17:13.992Z</time></trkpt><trkpt lat="44.82531142880513" lon="4.684083357788262"><ele>141.4</ele><time>2026-04-08T16:17:15.991Z</time></trkpt><trkpt lat="44.82536602644773" lon="4.683990757786639"><ele>137.0</ele><time>2026-04-08T16:17:17.991Z</time></trkpt><trkpt lat="44.82541555184746" lon="4.68388109012305"><ele>137.0</ele><time>2026-04-08T16:17:19.992Z</time></trkpt><trkpt lat="44.825472230167044" lon="4.683787488128367"><ele>137.0</ele><time>2026-04-08T16:17:21.991Z</time></trkpt><trkpt lat="44.825523598857274" lon="4.683684992877094"><ele>137.0</ele><time>2026-04-08T16:17:23.991Z</time></trkpt><trkpt lat="44.8255795182758" lon="4.683585027815033"><ele>137.0</ele><time>2026-04-08T16:17:25.992Z</time></trkpt><trkpt lat="44.82560598489938" lon="4.683483815019461"><ele>137.0</ele><time>2026-04-08T16:17:27.991Z</time></trkpt><trkpt lat="44.82566884367759" lon="4.683384569638299"><ele>137.0</ele><time>2026-04-08T16:17:29.991Z</time></trkpt><trkpt lat="44.82572844897923" lon="4.683284895779893"><ele>138.79999999999998</ele><time>2026-04-08T16:17:31.991Z</time></trkpt><trkpt lat="44.8257733243554" lon="4.683169572118633"><ele>140.6</ele><time>2026-04-08T16:17:33.991Z</time></trkpt><trkpt lat="44.8258222710187" lon="4.683056360973085"><ele>142.39999999999998</ele><time>2026-04-08T16:17:35.991Z</time></trkpt><trkpt lat="44.82586807337046" lon="4.682942496114648"><ele>144.2</ele><time>2026-04-08T16:17:37.991Z</time></trkpt><trkpt lat="44.82591715034549" lon="4.682830095364605"><ele>146.0</ele><time>2026-04-08T16:17:39.991Z</time></trkpt><trkpt lat="44.82597073401007" lon="4.68272429025665"><ele>145.83333333333331</ele><time>2026-04-08T16:17:41.991Z</time></trkpt><trkpt lat="44.82601949134663" lon="4.682615274852076"><ele>145.66666666666666</ele><time>2026-04-08T16:17:43.991Z</time></trkpt><trkpt lat="44.826060055395786" lon="4.6824966123612"><ele>145.5</ele><time>2026-04-08T16:17:45.991Z</time></trkpt><trkpt lat="44.826107512837886" lon="4.6823867006153375"><ele>145.33333333333334</ele><time>2026-04-08T16:17:47.991Z</time></trkpt><trkpt lat="44.826142860391535" lon="4.682274340674615"><ele>145.16666666666669</ele><time>2026-04-08T16:17:49.991Z</time></trkpt><trkpt lat="44.82617301220641" lon="4.682161849687025"><ele>145.0</ele><time>2026-04-08T16:17:51.991Z</time></trkpt><trkpt lat="44.8262125793383" lon="4.68205702723848"><ele>145.0</ele><time>2026-04-08T16:17:53.991Z</time></trkpt><trkpt lat="44.826244155473944" lon="4.681947096677317"><ele>145.0</ele><time>2026-04-08T16:17:55.991Z</time></trkpt><trkpt lat="44.82627993000516" lon="4.681834293597513"><ele>145.0</ele><time>2026-04-08T16:17:57.991Z</time></trkpt><trkpt lat="44.82630309194852" lon="4.681715771233191"><ele>145.0</ele><time>2026-04-08T16:17:59.991Z</time></trkpt><trkpt lat="44.82632888364812" lon="4.681594231970942"><ele>145.0</ele><time>2026-04-08T16:18:01.991Z</time></trkpt><trkpt lat="44.826356260886115" lon="4.681490368943004"><ele>145.0</ele><time>2026-04-08T16:18:03.991Z</time></trkpt><trkpt lat="44.826372835566495" lon="4.681384161048466"><ele>145.28571428571428</ele><time>2026-04-08T16:18:05.991Z</time></trkpt><trkpt lat="44.82638310886193" lon="4.681290808096766"><ele>145.57142857142858</ele><time>2026-04-08T16:18:07.991Z</time></trkpt><trkpt lat="44.82636868997213" lon="4.681196874847433"><ele>145.85714285714286</ele><time>2026-04-08T16:18:09.991Z</time></trkpt><trkpt lat="44.826344565065355" lon="4.681106359272692"><ele>146.14285714285714</ele><time>2026-04-08T16:18:11.991Z</time></trkpt><trkpt lat="44.82630408372274" lon="4.681023013331812"><ele>146.42857142857144</ele><time>2026-04-08T16:18:13.991Z</time></trkpt><trkpt lat="44.82627510445286" lon="4.68093538323099"><ele>146.71428571428572</ele><time>2026-04-08T16:18:15.991Z</time></trkpt><trkpt lat="44.826236065635825" lon="4.680854282745697"><ele>147.0</ele><time>2026-04-08T16:18:17.991Z</time></trkpt><trkpt lat="44.82620299871922" lon="4.680778248660434"><ele>147.0</ele><time>2026-04-08T16:18:19.991Z</time></trkpt><trkpt lat="44.82615141795466" lon="4.680701952242787"><ele>147.0</ele><time>2026-04-08T16:18:21.991Z</time></trkpt><trkpt lat="44.826102766634314" lon="4.680623737112995"><ele>147.0</ele><time>2026-04-08T16:18:23.991Z</time></trkpt><trkpt lat="44.82605991322273" lon="4.680529943864587"><ele>147.0</ele><time>2026-04-08T16:18:25.991Z</time></trkpt><trkpt lat="44.82602597702416" lon="4.680439495427809"><ele>147.0</ele><time>2026-04-08T16:18:27.991Z</time></trkpt><trkpt lat="44.825979656302174" lon="4.680347007030943"><ele>147.0</ele><time>2026-04-08T16:18:29.991Z</time></trkpt><trkpt lat="44.825953271908844" lon="4.680253501387682"><ele>146.66666666666666</ele><time>2026-04-08T16:18:31.991Z</time></trkpt><trkpt lat="44.82598134790523" lon="4.680155077535467"><ele>146.33333333333334</ele><time>2026-04-08T16:18:33.991Z</time></trkpt><trkpt lat="44.82605243461739" lon="4.6800895474187"><ele>146.0</ele><time>2026-04-08T16:18:35.991Z</time></trkpt><trkpt lat="44.82612665691794" lon="4.68005778334669"><ele>145.66666666666669</ele><time>2026-04-08T16:18:37.991Z</time></trkpt><trkpt lat="44.826190921324915" lon="4.679986862237339"><ele>145.33333333333334</ele><time>2026-04-08T16:18:39.991Z</time></trkpt><trkpt lat="44.826220314020276" lon="4.6798610545565325"><ele>145.0</ele><time>2026-04-08T16:18:41.991Z</time></trkpt><trkpt lat="44.82624875808489" lon="4.679749113859399"><ele>145.0</ele><time>2026-04-08T16:18:43.991Z</time></trkpt><trkpt lat="44.826255108148196" lon="4.679646162512021"><ele>145.0</ele><time>2026-04-08T16:18:45.99Z</time></trkpt><trkpt lat="44.82625841674665" lon="4.679547709295578"><ele>145.0</ele><time>2026-04-08T16:18:47.99Z</time></trkpt><trkpt lat="44.826260712770754" lon="4.679440942265745"><ele>145.0</ele><time>2026-04-08T16:18:49.99Z</time></trkpt><trkpt lat="44.826265174213525" lon="4.679329370296881"><ele>145.0</ele><time>2026-04-08T16:18:51.99Z</time></trkpt><trkpt lat="44.82627307189055" lon="4.679208772925781"><ele>145.0</ele><time>2026-04-08T16:18:53.99Z</time></trkpt><trkpt lat="44.82627817535559" lon="4.679091312812984"><ele>145.16666666666669</ele><time>2026-04-08T16:18:55.99Z</time></trkpt><trkpt lat="44.82626350551798" lon="4.6789725679766585"><ele>145.33333333333334</ele><time>2026-04-08T16:18:57.99Z</time></trkpt><trkpt lat="44.82626829120822" lon="4.67885069688759"><ele>145.5</ele><time>2026-04-08T16:18:59.989Z</time></trkpt><trkpt lat="44.82626394824852" lon="4.678735108071103"><ele>145.66666666666666</ele><time>2026-04-08T16:19:01.989Z</time></trkpt><trkpt lat="44.82626241763027" lon="4.678624584528062"><ele>145.83333333333331</ele><time>2026-04-08T16:19:03.989Z</time></trkpt><trkpt lat="44.82626935813703" lon="4.6785118771840635"><ele>146.0</ele><time>2026-04-08T16:19:05.989Z</time></trkpt><trkpt lat="44.82627333564187" lon="4.678402423312385"><ele>146.0</ele><time>2026-04-08T16:19:07.989Z</time></trkpt><trkpt lat="44.826273358368674" lon="4.678290550105597"><ele>146.0</ele><time>2026-04-08T16:19:09.989Z</time></trkpt><trkpt lat="44.826276310219924" lon="4.678184750996699"><ele>146.0</ele><time>2026-04-08T16:19:11.989Z</time></trkpt><trkpt lat="44.82627332381825" lon="4.678084553092645"><ele>146.0</ele><time>2026-04-08T16:19:13.989Z</time></trkpt><trkpt lat="44.82628803533237" lon="4.677983464525329"><ele>146.0</ele><time>2026-04-08T16:19:15.989Z</time></trkpt><trkpt lat="44.82632237210855" lon="4.677878226013296"><ele>146.0</ele><time>2026-04-08T16:19:18.989Z</time></trkpt><trkpt lat="44.826344240196" lon="4.677770513033154"><ele>146.0</ele><time>2026-04-08T16:19:22.989Z</time></trkpt><trkpt lat="44.82634663851608" lon="4.677667989712425"><ele>146.0</ele><time>2026-04-08T16:19:26.989Z</time></trkpt><trkpt lat="44.82632023172976" lon="4.677585813539895"><ele>146.0</ele><time>2026-04-08T16:19:34.989Z</time></trkpt><trkpt lat="44.82633104647145" lon="4.6776885226764024"><ele>146.0</ele><time>2026-04-08T16:25:36.988Z</time></trkpt><trkpt lat="44.8263117230464" lon="4.677787261508687"><ele>146.0</ele><time>2026-04-08T16:25:39.988Z</time></trkpt><trkpt lat="44.82632262516453" lon="4.677914085412842"><ele>146.0</ele><time>2026-04-08T16:25:42.988Z</time></trkpt><trkpt lat="44.8263122248361" lon="4.67803695468307"><ele>146.0</ele><time>2026-04-08T16:25:45.988Z</time></trkpt><trkpt lat="44.82633422888943" lon="4.678146873037046"><ele>146.0</ele><time>2026-04-08T16:25:48.988Z</time></trkpt><trkpt lat="44.82632033199492" lon="4.678258468670189"><ele>146.0</ele><time>2026-04-08T16:25:51.988Z</time></trkpt><trkpt lat="44.826322536827554" lon="4.67838009929046"><ele>146.0</ele><time>2026-04-08T16:25:54.988Z</time></trkpt><trkpt lat="44.826309873713186" lon="4.678470139521541"><ele>146.0</ele><time>2026-04-08T16:25:56.988Z</time></trkpt><trkpt lat="44.82630440680611" lon="4.678564823951695"><ele>146.0</ele><time>2026-04-08T16:25:58.988Z</time></trkpt><trkpt lat="44.82630033313552" lon="4.678664744770697"><ele>146.0</ele><time>2026-04-08T16:26:00.988Z</time></trkpt><trkpt lat="44.826296892246" lon="4.67876099651285"><ele>146.0</ele><time>2026-04-08T16:26:02.988Z</time></trkpt><trkpt lat="44.82630197747806" lon="4.678868587938633"><ele>146.0</ele><time>2026-04-08T16:26:04.988Z</time></trkpt><trkpt lat="44.826292004886845" lon="4.678972362314713"><ele>146.0</ele><time>2026-04-08T16:26:06.988Z</time></trkpt><trkpt lat="44.82629154580429" lon="4.679072149100818"><ele>146.0</ele><time>2026-04-08T16:26:08.988Z</time></trkpt><trkpt lat="44.8262986658283" lon="4.679165135867035"><ele>146.0</ele><time>2026-04-08T16:26:10.988Z</time></trkpt><trkpt lat="44.82629726275527" lon="4.67925792251993"><ele>146.0</ele><time>2026-04-08T16:26:12.988Z</time></trkpt><trkpt lat="44.82629108529642" lon="4.679396142934835"><ele>145.83333333333331</ele><time>2026-04-08T16:26:15.988Z</time></trkpt><trkpt lat="44.8262812339478" lon="4.679514285924423"><ele>145.66666666666666</ele><time>2026-04-08T16:26:18.988Z</time></trkpt><trkpt lat="44.82627526565288" lon="4.67962287723712"><ele>145.5</ele><time>2026-04-08T16:26:21.988Z</time></trkpt><trkpt lat="44.82625824399714" lon="4.679720635858545"><ele>145.33333333333334</ele><time>2026-04-08T16:26:24.988Z</time></trkpt><trkpt lat="44.82623932961275" lon="4.6798493970025286"><ele>145.16666666666669</ele><time>2026-04-08T16:26:27.988Z</time></trkpt><trkpt lat="44.82620486616937" lon="4.67994013467152"><ele>145.0</ele><time>2026-04-08T16:26:29.988Z</time></trkpt><trkpt lat="44.82616667997548" lon="4.680018085955563"><ele>145.0</ele><time>2026-04-08T16:26:31.988Z</time></trkpt><trkpt lat="44.82608922520327" lon="4.680031155299412"><ele>145.0</ele><time>2026-04-08T16:26:33.988Z</time></trkpt><trkpt lat="44.82602712855043" lon="4.680068578384905"><ele>145.0</ele><time>2026-04-08T16:26:35.988Z</time></trkpt><trkpt lat="44.8259718790934" lon="4.680127889081114"><ele>145.0</ele><time>2026-04-08T16:26:37.988Z</time></trkpt><trkpt lat="44.825967689379475" lon="4.680218987936703"><ele>145.0</ele><time>2026-04-08T16:26:39.988Z</time></trkpt><trkpt lat="44.825993201645375" lon="4.680315452923329"><ele>145.0</ele><time>2026-04-08T16:26:41.988Z</time></trkpt><trkpt lat="44.82602910756971" lon="4.68039318158341"><ele>145.0</ele><time>2026-04-08T16:26:43.988Z</time></trkpt><trkpt lat="44.82606418492593" lon="4.68047550506265"><ele>145.33333333333334</ele><time>2026-04-08T16:26:45.988Z</time></trkpt><trkpt lat="44.8261049320062" lon="4.680562175469044"><ele>145.66666666666669</ele><time>2026-04-08T16:26:47.988Z</time></trkpt><trkpt lat="44.826153069171376" lon="4.680644621939674"><ele>146.0</ele><time>2026-04-08T16:26:49.988Z</time></trkpt><trkpt lat="44.82620129222368" lon="4.680742302859586"><ele>146.33333333333334</ele><time>2026-04-08T16:26:51.988Z</time></trkpt><trkpt lat="44.82625327365791" lon="4.680851155480926"><ele>146.66666666666666</ele><time>2026-04-08T16:26:53.988Z</time></trkpt><trkpt lat="44.826313554382" lon="4.680969622288952"><ele>147.0</ele><time>2026-04-08T16:26:55.988Z</time></trkpt><trkpt lat="44.82635790679769" lon="4.681100416528903"><ele>147.2</ele><time>2026-04-08T16:26:57.988Z</time></trkpt><trkpt lat="44.82638270087499" lon="4.6812529422112865"><ele>147.39999999999998</ele><time>2026-04-08T16:26:59.988Z</time></trkpt><trkpt lat="44.826388331904454" lon="4.681407260509417"><ele>147.60000000000002</ele><time>2026-04-08T16:27:01.988Z</time></trkpt><trkpt lat="44.826355335141976" lon="4.681551069448427"><ele>147.8</ele><time>2026-04-08T16:27:03.988Z</time></trkpt><trkpt lat="44.826322569281146" lon="4.681688968625875"><ele>148.0</ele><time>2026-04-08T16:27:05.988Z</time></trkpt><trkpt lat="44.82629820458839" lon="4.681814617706949"><ele>148.0</ele><time>2026-04-08T16:27:07.988Z</time></trkpt><trkpt lat="44.82626681672626" lon="4.681930534017002"><ele>148.0</ele><time>2026-04-08T16:27:09.988Z</time></trkpt><trkpt lat="44.82623985835937" lon="4.682040885266474"><ele>148.0</ele><time>2026-04-08T16:27:11.988Z</time></trkpt><trkpt lat="44.826204944682694" lon="4.682138755807811"><ele>148.0</ele><time>2026-04-08T16:27:13.988Z</time></trkpt><trkpt lat="44.826173415849155" lon="4.682251411525631"><ele>148.0</ele><time>2026-04-08T16:27:15.987Z</time></trkpt><trkpt lat="44.826135464660275" lon="4.682368822115891"><ele>148.0</ele><time>2026-04-08T16:27:17.987Z</time></trkpt><trkpt lat="44.82609563642026" lon="4.682483372584497"><ele>147.6</ele><time>2026-04-08T16:27:19.987Z</time></trkpt><trkpt lat="44.82605459030882" lon="4.6825984216074295"><ele>147.20000000000002</ele><time>2026-04-08T16:27:21.987Z</time></trkpt><trkpt lat="44.82600816891491" lon="4.682711673495298"><ele>146.8</ele><time>2026-04-08T16:27:23.987Z</time></trkpt><trkpt lat="44.82595855874693" lon="4.6828221935465635"><ele>146.4</ele><time>2026-04-08T16:27:25.987Z</time></trkpt><trkpt lat="44.82590652947512" lon="4.68293095408983"><ele>146.0</ele><time>2026-04-08T16:27:27.987Z</time></trkpt><trkpt lat="44.82585566339273" lon="4.683045076583837"><ele>146.0</ele><time>2026-04-08T16:27:29.987Z</time></trkpt><trkpt lat="44.82579857687834" lon="4.683159764493844"><ele>146.0</ele><time>2026-04-08T16:27:31.987Z</time></trkpt><trkpt lat="44.825743943606426" lon="4.683273245112147"><ele>146.0</ele><time>2026-04-08T16:27:33.987Z</time></trkpt><trkpt lat="44.82568814003898" lon="4.68338756947427"><ele>146.0</ele><time>2026-04-08T16:27:35.987Z</time></trkpt><trkpt lat="44.825631178544626" lon="4.683491387546284"><ele>146.0</ele><time>2026-04-08T16:27:37.987Z</time></trkpt><trkpt lat="44.825571323045594" lon="4.683600225532095"><ele>144.5</ele><time>2026-04-08T16:27:39.987Z</time></trkpt><trkpt lat="44.82551845399162" lon="4.683703180538173"><ele>143.0</ele><time>2026-04-08T16:27:41.987Z</time></trkpt><trkpt lat="44.82546087773361" lon="4.683797030847517"><ele>141.5</ele><time>2026-04-08T16:27:43.988Z</time></trkpt><trkpt lat="44.82541724463598" lon="4.683885301423394"><ele>140.0</ele><time>2026-04-08T16:27:45.987Z</time></trkpt><trkpt lat="44.82537670348706" lon="4.683958777491987"><ele>138.5</ele><time>2026-04-08T16:27:47.988Z</time></trkpt><trkpt lat="44.82533139093335" lon="4.684038259784191"><ele>137.0</ele><time>2026-04-08T16:27:49.988Z</time></trkpt><trkpt lat="44.82527859661858" lon="4.684135892968226"><ele>137.0</ele><time>2026-04-08T16:27:51.987Z</time></trkpt><trkpt lat="44.82522252278384" lon="4.684237563830976"><ele>137.0</ele><time>2026-04-08T16:27:53.987Z</time></trkpt><trkpt lat="44.82517001255686" lon="4.684335587780575"><ele>137.0</ele><time>2026-04-08T16:27:55.988Z</time></trkpt><trkpt lat="44.82512608436554" lon="4.684437972189549"><ele>137.0</ele><time>2026-04-08T16:27:57.987Z</time></trkpt><trkpt lat="44.82508259205877" lon="4.684530585571142"><ele>137.0</ele><time>2026-04-08T16:27:59.987Z</time></trkpt><trkpt lat="44.82503881058247" lon="4.684631812863269"><ele>137.0</ele><time>2026-04-08T16:28:01.987Z</time></trkpt><trkpt lat="44.82499835784097" lon="4.684735846115048"><ele>140.66666666666666</ele><time>2026-04-08T16:28:03.987Z</time></trkpt><trkpt lat="44.82497641332029" lon="4.684847263982043"><ele>144.33333333333331</ele><time>2026-04-08T16:28:05.987Z</time></trkpt><trkpt lat="44.82495384589197" lon="4.68496727550162"><ele>148.0</ele><time>2026-04-08T16:28:07.987Z</time></trkpt><trkpt lat="44.82494922157664" lon="4.685091747063505"><ele>151.66666666666666</ele><time>2026-04-08T16:28:09.987Z</time></trkpt><trkpt lat="44.82495814078478" lon="4.685226915170274"><ele>155.33333333333334</ele><time>2026-04-08T16:28:11.987Z</time></trkpt><trkpt lat="44.82496591201695" lon="4.685359708009451"><ele>159.0</ele><time>2026-04-08T16:28:13.987Z</time></trkpt><trkpt lat="44.82497067500462" lon="4.685475430948287"><ele>160.4</ele><time>2026-04-08T16:28:15.987Z</time></trkpt><trkpt lat="44.82500357884512" lon="4.685603937563723"><ele>161.8</ele><time>2026-04-08T16:28:17.987Z</time></trkpt><trkpt lat="44.82504753635617" lon="4.685720414621343"><ele>163.20000000000002</ele><time>2026-04-08T16:28:19.987Z</time></trkpt><trkpt lat="44.82508688598824" lon="4.6858284581028204"><ele>164.60000000000002</ele><time>2026-04-08T16:28:21.987Z</time></trkpt><trkpt lat="44.82512234708034" lon="4.68594295982915"><ele>166.0</ele><time>2026-04-08T16:28:23.987Z</time></trkpt><trkpt lat="44.825146491717135" lon="4.686058926498459"><ele>160.5</ele><time>2026-04-08T16:28:25.987Z</time></trkpt><trkpt lat="44.82518329515792" lon="4.686153971314128"><ele>155.0</ele><time>2026-04-08T16:28:27.987Z</time></trkpt><trkpt lat="44.82522161463487" lon="4.686268350677455"><ele>149.5</ele><time>2026-04-08T16:28:29.987Z</time></trkpt><trkpt lat="44.82524753347415" lon="4.686377347411441"><ele>144.0</ele><time>2026-04-08T16:28:31.987Z</time></trkpt><trkpt lat="44.82526420534163" lon="4.686497207458594"><ele>138.5</ele><time>2026-04-08T16:28:33.987Z</time></trkpt><trkpt lat="44.82527724814104" lon="4.686615439140822"><ele>133.0</ele><time>2026-04-08T16:28:35.987Z</time></trkpt><trkpt lat="44.825280308944635" lon="4.686730211878118"><ele>133.0</ele><time>2026-04-08T16:28:37.987Z</time></trkpt><trkpt lat="44.825274705736234" lon="4.686844279470089"><ele>133.0</ele><time>2026-04-08T16:28:39.987Z</time></trkpt><trkpt lat="44.82527198669572" lon="4.686961079757858"><ele>133.0</ele><time>2026-04-08T16:28:41.987Z</time></trkpt><trkpt lat="44.82525517958254" lon="4.687077328814597"><ele>133.0</ele><time>2026-04-08T16:28:43.987Z</time></trkpt><trkpt lat="44.82524009274151" lon="4.687191881993284"><ele>133.0</ele><time>2026-04-08T16:28:45.987Z</time></trkpt><trkpt lat="44.82522242341842" lon="4.6873077177966636"><ele>133.0</ele><time>2026-04-08T16:28:47.987Z</time></trkpt><trkpt lat="44.82520969216194" lon="4.687422744099037"><ele>133.16666666666669</ele><time>2026-04-08T16:28:49.987Z</time></trkpt><trkpt lat="44.825197184300855" lon="4.687539036890864"><ele>133.33333333333334</ele><time>2026-04-08T16:28:51.987Z</time></trkpt><trkpt lat="44.825180632864665" lon="4.687656956701982"><ele>133.5</ele><time>2026-04-08T16:28:53.987Z</time></trkpt><trkpt lat="44.825177725723776" lon="4.687776230754898"><ele>133.66666666666666</ele><time>2026-04-08T16:28:55.987Z</time></trkpt><trkpt lat="44.82517231827696" lon="4.6878921131107365"><ele>133.83333333333331</ele><time>2026-04-08T16:28:57.987Z</time></trkpt><trkpt lat="44.82519164080296" lon="4.688015573754897"><ele>134.0</ele><time>2026-04-08T16:28:59.987Z</time></trkpt><trkpt lat="44.825215609868394" lon="4.688130160691979"><ele>134.33333333333331</ele><time>2026-04-08T16:29:01.987Z</time></trkpt><trkpt lat="44.82523682554559" lon="4.688254967495444"><ele>134.66666666666666</ele><time>2026-04-08T16:29:03.987Z</time></trkpt><trkpt lat="44.825260340705206" lon="4.688366958311276"><ele>135.0</ele><time>2026-04-08T16:29:05.987Z</time></trkpt><trkpt lat="44.82528142012678" lon="4.688474219170263"><ele>135.33333333333334</ele><time>2026-04-08T16:29:07.987Z</time></trkpt><trkpt lat="44.82531150050673" lon="4.688582132334508"><ele>135.66666666666669</ele><time>2026-04-08T16:29:09.987Z</time></trkpt><trkpt lat="44.82533537402903" lon="4.688703752460969"><ele>136.0</ele><time>2026-04-08T16:29:11.987Z</time></trkpt><trkpt lat="44.82535161462933" lon="4.688818079707521"><ele>136.16666666666669</ele><time>2026-04-08T16:29:13.987Z</time></trkpt><trkpt lat="44.825372129730816" lon="4.688948299776529"><ele>136.33333333333334</ele><time>2026-04-08T16:29:15.987Z</time></trkpt><trkpt lat="44.82537509948915" lon="4.68907560388426"><ele>136.5</ele><time>2026-04-08T16:29:17.987Z</time></trkpt><trkpt lat="44.82538259094349" lon="4.689198801748491"><ele>136.66666666666666</ele><time>2026-04-08T16:29:19.987Z</time></trkpt><trkpt lat="44.825377418216625" lon="4.689317282223849"><ele>136.83333333333331</ele><time>2026-04-08T16:29:21.987Z</time></trkpt><trkpt lat="44.82536670292823" lon="4.6894420673047925"><ele>137.0</ele><time>2026-04-08T16:29:23.987Z</time></trkpt><trkpt lat="44.82535387524781" lon="4.6895659785661845"><ele>137.0</ele><time>2026-04-08T16:29:25.987Z</time></trkpt><trkpt lat="44.82533118172038" lon="4.6896808850225495"><ele>137.0</ele><time>2026-04-08T16:29:27.987Z</time></trkpt><trkpt lat="44.825301397342486" lon="4.6897946885053186"><ele>137.0</ele><time>2026-04-08T16:29:29.987Z</time></trkpt><trkpt lat="44.82526333488294" lon="4.689895365943771"><ele>137.0</ele><time>2026-04-08T16:29:31.987Z</time></trkpt><trkpt lat="44.82522710456894" lon="4.689999449871969"><ele>137.0</ele><time>2026-04-08T16:29:33.987Z</time></trkpt><trkpt lat="44.825172783398244" lon="4.6901008820274805"><ele>137.0</ele><time>2026-04-08T16:29:35.987Z</time></trkpt><trkpt lat="44.825106188840714" lon="4.690204334116538"><ele>139.2</ele><time>2026-04-08T16:29:37.987Z</time></trkpt><trkpt lat="44.82504713409602" lon="4.690301351512439"><ele>141.39999999999998</ele><time>2026-04-08T16:29:39.987Z</time></trkpt><trkpt lat="44.82498584932488" lon="4.690393633065501"><ele>143.60000000000002</ele><time>2026-04-08T16:29:41.987Z</time></trkpt><trkpt lat="44.82492588964292" lon="4.690486727249878"><ele>145.8</ele><time>2026-04-08T16:29:43.987Z</time></trkpt><trkpt lat="44.82486208200093" lon="4.690581279534508"><ele>148.0</ele><time>2026-04-08T16:29:45.987Z</time></trkpt><trkpt lat="44.82480243033337" lon="4.6906725000106935"><ele>148.0</ele><time>2026-04-08T16:29:47.987Z</time></trkpt><trkpt lat="44.82474331867427" lon="4.690771554245403"><ele>148.0</ele><time>2026-04-08T16:29:49.988Z</time></trkpt><trkpt lat="44.82468698244597" lon="4.690869763079578"><ele>148.0</ele><time>2026-04-08T16:29:51.988Z</time></trkpt><trkpt lat="44.82463425005196" lon="4.690976813198758"><ele>148.0</ele><time>2026-04-08T16:29:53.988Z</time></trkpt><trkpt lat="44.82459002735358" lon="4.691089884134725"><ele>148.0</ele><time>2026-04-08T16:29:55.988Z</time></trkpt><trkpt lat="44.82455627501019" lon="4.69121306025785"><ele>146.6</ele><time>2026-04-08T16:29:57.987Z</time></trkpt><trkpt lat="44.824517471703956" lon="4.691334266793796"><ele>145.20000000000002</ele><time>2026-04-08T16:29:59.987Z</time></trkpt><trkpt lat="44.82447418483732" lon="4.691462148307874"><ele>143.8</ele><time>2026-04-08T16:30:01.988Z</time></trkpt><trkpt lat="44.824432469169054" lon="4.691593570024738"><ele>142.4</ele><time>2026-04-08T16:30:03.988Z</time></trkpt><trkpt lat="44.824394791523616" lon="4.691718553575668"><ele>141.0</ele><time>2026-04-08T16:30:05.988Z</time></trkpt><trkpt lat="44.82435821622439" lon="4.691857259955272"><ele>140.6</ele><time>2026-04-08T16:30:07.988Z</time></trkpt><trkpt lat="44.82431436714075" lon="4.6919742319224715"><ele>140.2</ele><time>2026-04-08T16:30:09.988Z</time></trkpt><trkpt lat="44.824275622776696" lon="4.692108826101163"><ele>139.8</ele><time>2026-04-08T16:30:11.988Z</time></trkpt><trkpt lat="44.82423253426531" lon="4.692230876336314"><ele>139.4</ele><time>2026-04-08T16:30:13.988Z</time></trkpt><trkpt lat="44.8241946483957" lon="4.692364977307001"><ele>139.0</ele><time>2026-04-08T16:30:15.988Z</time></trkpt><trkpt lat="44.82415385343382" lon="4.6924942057877965"><ele>140.2</ele><time>2026-04-08T16:30:17.988Z</time></trkpt><trkpt lat="44.82412206688822" lon="4.692616917971972"><ele>141.4</ele><time>2026-04-08T16:30:19.988Z</time></trkpt><trkpt lat="44.824080361414325" lon="4.692741803105689"><ele>142.6</ele><time>2026-04-08T16:30:21.988Z</time></trkpt><trkpt lat="44.82403676034373" lon="4.692865026383567"><ele>143.8</ele><time>2026-04-08T16:30:23.988Z</time></trkpt><trkpt lat="44.823992260614" lon="4.692997182389628"><ele>145.0</ele><time>2026-04-08T16:30:25.988Z</time></trkpt><trkpt lat="44.823954642624805" lon="4.6931285852498705"><ele>145.0</ele><time>2026-04-08T16:30:27.988Z</time></trkpt><trkpt lat="44.823920366594805" lon="4.6932622051694715"><ele>145.0</ele><time>2026-04-08T16:30:29.988Z</time></trkpt><trkpt lat="44.823873234982486" lon="4.693381036004776"><ele>145.0</ele><time>2026-04-08T16:30:31.988Z</time></trkpt><trkpt lat="44.82382032264502" lon="4.69349948143923"><ele>145.0</ele><time>2026-04-08T16:30:33.988Z</time></trkpt><trkpt lat="44.82378055345545" lon="4.6936187525154125"><ele>145.0</ele><time>2026-04-08T16:30:35.988Z</time></trkpt><trkpt lat="44.82372974149733" lon="4.693733425780924"><ele>143.4</ele><time>2026-04-08T16:30:37.988Z</time></trkpt><trkpt lat="44.823668078877695" lon="4.6938423368406665"><ele>141.8</ele><time>2026-04-08T16:30:39.988Z</time></trkpt><trkpt lat="44.82361420041016" lon="4.69394629929918"><ele>140.2</ele><time>2026-04-08T16:30:41.988Z</time></trkpt><trkpt lat="44.82355258293546" lon="4.6940516610952665"><ele>138.6</ele><time>2026-04-08T16:30:43.988Z</time></trkpt><trkpt lat="44.82349387457897" lon="4.694147206270843"><ele>137.0</ele><time>2026-04-08T16:30:45.988Z</time></trkpt><trkpt lat="44.82343181851936" lon="4.694248583997581"><ele>137.79999999999998</ele><time>2026-04-08T16:30:47.988Z</time></trkpt><trkpt lat="44.823368425703435" lon="4.694337256140897"><ele>138.6</ele><time>2026-04-08T16:30:49.988Z</time></trkpt><trkpt lat="44.823296357345626" lon="4.694443520536441"><ele>139.39999999999998</ele><time>2026-04-08T16:30:51.988Z</time></trkpt><trkpt lat="44.82324159534902" lon="4.69455181441331"><ele>140.2</ele><time>2026-04-08T16:30:53.988Z</time></trkpt><trkpt lat="44.82318666902134" lon="4.694651112881715"><ele>141.0</ele><time>2026-04-08T16:30:55.988Z</time></trkpt><trkpt lat="44.82312294128223" lon="4.694723151981439"><ele>141.0</ele><time>2026-04-08T16:30:57.988Z</time></trkpt><trkpt lat="44.82306015222084" lon="4.69478063070532"><ele>141.0</ele><time>2026-04-08T16:30:59.988Z</time></trkpt><trkpt lat="44.822993570760744" lon="4.694836711881773"><ele>141.0</ele><time>2026-04-08T16:31:01.988Z</time></trkpt><trkpt lat="44.822929589604165" lon="4.69490503522061"><ele>141.0</ele><time>2026-04-08T16:31:03.988Z</time></trkpt><trkpt lat="44.82285172106873" lon="4.694980733982141"><ele>141.0</ele><time>2026-04-08T16:31:05.988Z</time></trkpt><trkpt lat="44.82277345216679" lon="4.69505095247567"><ele>141.0</ele><time>2026-04-08T16:31:07.988Z</time></trkpt><trkpt lat="44.822695630732255" lon="4.695094645541682"><ele>141.0</ele><time>2026-04-08T16:31:09.988Z</time></trkpt><trkpt lat="44.82262404859397" lon="4.695165281091242"><ele>141.0</ele><time>2026-04-08T16:31:11.988Z</time></trkpt><trkpt lat="44.822540515613895" lon="4.695225770669934"><ele>141.0</ele><time>2026-04-08T16:31:13.988Z</time></trkpt><trkpt lat="44.82246126919189" lon="4.695292171998392"><ele>141.0</ele><time>2026-04-08T16:31:15.988Z</time></trkpt><trkpt lat="44.82239590261738" lon="4.695369439586483"><ele>141.0</ele><time>2026-04-08T16:31:17.988Z</time></trkpt><trkpt lat="44.82231809256034" lon="4.695448555760949"><ele>141.0</ele><time>2026-04-08T16:31:19.988Z</time></trkpt><trkpt lat="44.822240843315356" lon="4.695524850416505"><ele>141.0</ele><time>2026-04-08T16:31:21.988Z</time></trkpt><trkpt lat="44.8221525178483" lon="4.695599575013216"><ele>141.0</ele><time>2026-04-08T16:31:23.988Z</time></trkpt><trkpt lat="44.82206165828428" lon="4.695665135878437"><ele>141.0</ele><time>2026-04-08T16:31:25.988Z</time></trkpt><trkpt lat="44.82197028705806" lon="4.695701228608328"><ele>141.0</ele><time>2026-04-08T16:31:27.988Z</time></trkpt><trkpt lat="44.82187693553945" lon="4.695729563711333"><ele>142.2</ele><time>2026-04-08T16:31:29.988Z</time></trkpt><trkpt lat="44.82178444138259" lon="4.695743965221289"><ele>143.39999999999998</ele><time>2026-04-08T16:31:31.988Z</time></trkpt><trkpt lat="44.82169515483215" lon="4.695744326175278"><ele>144.6</ele><time>2026-04-08T16:31:33.988Z</time></trkpt><trkpt lat="44.821603705442385" lon="4.695735122459526"><ele>145.79999999999998</ele><time>2026-04-08T16:31:35.988Z</time></trkpt><trkpt lat="44.821516643230694" lon="4.695699523767863"><ele>147.0</ele><time>2026-04-08T16:31:37.988Z</time></trkpt><trkpt lat="44.82141736831742" lon="4.6956934491581706"><ele>147.0</ele><time>2026-04-08T16:31:39.988Z</time></trkpt><trkpt lat="44.821320920124485" lon="4.695659212348148"><ele>147.0</ele><time>2026-04-08T16:31:41.988Z</time></trkpt><trkpt lat="44.821232125521995" lon="4.695610974823618"><ele>147.0</ele><time>2026-04-08T16:31:43.988Z</time></trkpt><trkpt lat="44.82114756325187" lon="4.6955554142338505"><ele>147.0</ele><time>2026-04-08T16:31:45.988Z</time></trkpt><trkpt lat="44.82106500534569" lon="4.695478739537081"><ele>147.0</ele><time>2026-04-08T16:31:47.988Z</time></trkpt><trkpt lat="44.82098669516199" lon="4.695403183262576"><ele>146.6</ele><time>2026-04-08T16:31:49.988Z</time></trkpt><trkpt lat="44.82090512558328" lon="4.695330970189823"><ele>146.2</ele><time>2026-04-08T16:31:51.988Z</time></trkpt><trkpt lat="44.820825525951236" lon="4.69525931258906"><ele>145.8</ele><time>2026-04-08T16:31:53.988Z</time></trkpt><trkpt lat="44.820747177342014" lon="4.69519434789569"><ele>145.4</ele><time>2026-04-08T16:31:55.988Z</time></trkpt><trkpt lat="44.820667639148326" lon="4.695130171497443"><ele>145.0</ele><time>2026-04-08T16:31:57.987Z</time></trkpt><trkpt lat="44.82059516396623" lon="4.695046358284378"><ele>145.0</ele><time>2026-04-08T16:31:59.987Z</time></trkpt><trkpt lat="44.82051983824455" lon="4.694970077293204"><ele>145.0</ele><time>2026-04-08T16:32:01.987Z</time></trkpt><trkpt lat="44.82043503404122" lon="4.694886046976138"><ele>145.0</ele><time>2026-04-08T16:32:03.987Z</time></trkpt><trkpt lat="44.820356223265094" lon="4.694805051987404"><ele>145.0</ele><time>2026-04-08T16:32:05.987Z</time></trkpt><trkpt lat="44.820272192342784" lon="4.694723566369686"><ele>145.0</ele><time>2026-04-08T16:32:07.987Z</time></trkpt><trkpt lat="44.82019050418467" lon="4.694653777571027"><ele>145.6</ele><time>2026-04-08T16:32:09.987Z</time></trkpt><trkpt lat="44.82011088331216" lon="4.694565181048747"><ele>146.2</ele><time>2026-04-08T16:32:11.987Z</time></trkpt><trkpt lat="44.820026742525954" lon="4.694495531944996"><ele>146.8</ele><time>2026-04-08T16:32:13.987Z</time></trkpt><trkpt lat="44.819948739443035" lon="4.694418411281138"><ele>147.4</ele><time>2026-04-08T16:32:15.987Z</time></trkpt><trkpt lat="44.81986621564763" lon="4.694364531745015"><ele>148.0</ele><time>2026-04-08T16:32:17.987Z</time></trkpt><trkpt lat="44.81978330728131" lon="4.694307675824365"><ele>148.0</ele><time>2026-04-08T16:32:19.987Z</time></trkpt><trkpt lat="44.819703462866435" lon="4.694256962461946"><ele>148.0</ele><time>2026-04-08T16:32:21.987Z</time></trkpt><trkpt lat="44.81962347974614" lon="4.694218561643823"><ele>148.0</ele><time>2026-04-08T16:32:23.987Z</time></trkpt><trkpt lat="44.819540462922376" lon="4.694190895165684"><ele>148.0</ele><time>2026-04-08T16:32:25.987Z</time></trkpt><trkpt lat="44.81945496600542" lon="4.694150866650258"><ele>148.0</ele><time>2026-04-08T16:32:27.987Z</time></trkpt><trkpt lat="44.8193716411549" lon="4.694127492149723"><ele>148.0</ele><time>2026-04-08T16:32:29.987Z</time></trkpt><trkpt lat="44.819287936213236" lon="4.694105645070885"><ele>147.33333333333334</ele><time>2026-04-08T16:32:31.987Z</time></trkpt><trkpt lat="44.81919751910037" lon="4.694093312988166"><ele>146.66666666666669</ele><time>2026-04-08T16:32:33.987Z</time></trkpt><trkpt lat="44.819113614263074" lon="4.694086934508776"><ele>146.0</ele><time>2026-04-08T16:32:35.987Z</time></trkpt><trkpt lat="44.81902462834182" lon="4.694091481386897"><ele>145.33333333333334</ele><time>2026-04-08T16:32:37.987Z</time></trkpt><trkpt lat="44.818937685457534" lon="4.694093063888832"><ele>144.66666666666666</ele><time>2026-04-08T16:32:39.987Z</time></trkpt><trkpt lat="44.81885248645984" lon="4.694104924702192"><ele>144.0</ele><time>2026-04-08T16:32:41.987Z</time></trkpt><trkpt lat="44.81876581150989" lon="4.694128418245948"><ele>144.0</ele><time>2026-04-08T16:32:43.987Z</time></trkpt><trkpt lat="44.81867990762321" lon="4.694142257655199"><ele>144.0</ele><time>2026-04-08T16:32:45.987Z</time></trkpt><trkpt lat="44.81859384360533" lon="4.694173036773722"><ele>144.0</ele><time>2026-04-08T16:32:47.987Z</time></trkpt><trkpt lat="44.81850183240974" lon="4.694197251363301"><ele>144.0</ele><time>2026-04-08T16:32:49.987Z</time></trkpt><trkpt lat="44.818412751520455" lon="4.694227346841641"><ele>144.0</ele><time>2026-04-08T16:32:51.987Z</time></trkpt><trkpt lat="44.818323165744374" lon="4.694257811286771"><ele>144.66666666666666</ele><time>2026-04-08T16:32:53.987Z</time></trkpt><trkpt lat="44.818247974465734" lon="4.69429010716298"><ele>145.33333333333334</ele><time>2026-04-08T16:32:55.987Z</time></trkpt><trkpt lat="44.818162200554305" lon="4.694306342428555"><ele>146.0</ele><time>2026-04-08T16:32:57.987Z</time></trkpt><trkpt lat="44.81807683937203" lon="4.694339510201869"><ele>146.66666666666669</ele><time>2026-04-08T16:32:59.987Z</time></trkpt><trkpt lat="44.81799037518086" lon="4.694360913366286"><ele>147.33333333333334</ele><time>2026-04-08T16:33:01.987Z</time></trkpt><trkpt lat="44.817906195117004" lon="4.694391224162669"><ele>148.0</ele><time>2026-04-08T16:33:03.987Z</time></trkpt><trkpt lat="44.817821620208484" lon="4.694418152175801"><ele>146.16666666666669</ele><time>2026-04-08T16:33:05.987Z</time></trkpt><trkpt lat="44.817740972338804" lon="4.694442618406622"><ele>144.33333333333334</ele><time>2026-04-08T16:33:07.987Z</time></trkpt><trkpt lat="44.81766358147755" lon="4.694470534162643"><ele>142.5</ele><time>2026-04-08T16:33:09.987Z</time></trkpt><trkpt lat="44.81757124117156" lon="4.694493027637852"><ele>140.66666666666666</ele><time>2026-04-08T16:33:11.987Z</time></trkpt><trkpt lat="44.81749300353231" lon="4.694518736553276"><ele>138.83333333333331</ele><time>2026-04-08T16:33:13.987Z</time></trkpt><trkpt lat="44.8174214693838" lon="4.694553796939471"><ele>137.0</ele><time>2026-04-08T16:33:15.987Z</time></trkpt><trkpt lat="44.817340195181224" lon="4.694601217227359"><ele>137.0</ele><time>2026-04-08T16:33:17.987Z</time></trkpt><trkpt lat="44.81726206128352" lon="4.69466339442687"><ele>137.0</ele><time>2026-04-08T16:33:19.987Z</time></trkpt><trkpt lat="44.81718674876469" lon="4.694725130516024"><ele>137.0</ele><time>2026-04-08T16:33:21.987Z</time></trkpt><trkpt lat="44.81712061112365" lon="4.694801265443493"><ele>137.0</ele><time>2026-04-08T16:33:23.987Z</time></trkpt><trkpt lat="44.81705957578062" lon="4.694890654937611"><ele>137.0</ele><time>2026-04-08T16:33:25.987Z</time></trkpt><trkpt lat="44.817004775119" lon="4.694983694685521"><ele>137.0</ele><time>2026-04-08T16:33:27.987Z</time></trkpt><trkpt lat="44.81695007602366" lon="4.695065628884866"><ele>137.0</ele><time>2026-04-08T16:33:29.987Z</time></trkpt><trkpt lat="44.81691544069995" lon="4.695163760044045"><ele>137.0</ele><time>2026-04-08T16:33:31.987Z</time></trkpt><trkpt lat="44.81687562965915" lon="4.695259723191769"><ele>137.0</ele><time>2026-04-08T16:33:33.987Z</time></trkpt><trkpt lat="44.81685202219405" lon="4.695362688284937"><ele>137.0</ele><time>2026-04-08T16:33:35.987Z</time></trkpt><trkpt lat="44.81681960207712" lon="4.695467661565372"><ele>137.0</ele><time>2026-04-08T16:33:37.987Z</time></trkpt><trkpt lat="44.81680547415926" lon="4.6955878872213415"><ele>137.0</ele><time>2026-04-08T16:33:39.987Z</time></trkpt><trkpt lat="44.81680013146006" lon="4.6957168509865905"><ele>136.83333333333331</ele><time>2026-04-08T16:33:41.987Z</time></trkpt><trkpt lat="44.81678989221076" lon="4.695846781033696"><ele>136.66666666666666</ele><time>2026-04-08T16:33:43.987Z</time></trkpt><trkpt lat="44.81677003117793" lon="4.695959241980224"><ele>136.5</ele><time>2026-04-08T16:33:45.986Z</time></trkpt><trkpt lat="44.81676285865193" lon="4.696067049967583"><ele>136.33333333333334</ele><time>2026-04-08T16:33:47.986Z</time></trkpt><trkpt lat="44.81674479228703" lon="4.696168961223674"><ele>136.16666666666669</ele><time>2026-04-08T16:33:49.986Z</time></trkpt><trkpt lat="44.81670959145713" lon="4.696269596839306"><ele>136.0</ele><time>2026-04-08T16:33:51.986Z</time></trkpt><trkpt lat="44.816687780971904" lon="4.696379233129323"><ele>136.0</ele><time>2026-04-08T16:33:53.986Z</time></trkpt><trkpt lat="44.81666360263589" lon="4.696484232758386"><ele>136.0</ele><time>2026-04-08T16:33:55.986Z</time></trkpt><trkpt lat="44.81662291994222" lon="4.696577639477846"><ele>136.0</ele><time>2026-04-08T16:33:57.986Z</time></trkpt><trkpt lat="44.81657900182642" lon="4.6966678449841845"><ele>136.0</ele><time>2026-04-08T16:33:59.986Z</time></trkpt><trkpt lat="44.81654547179729" lon="4.696763372937141"><ele>136.0</ele><time>2026-04-08T16:34:01.987Z</time></trkpt><trkpt lat="44.81650822861712" lon="4.696862587646536"><ele>136.0</ele><time>2026-04-08T16:34:03.986Z</time></trkpt><trkpt lat="44.81646197172663" lon="4.696954722890437"><ele>135.66666666666669</ele><time>2026-04-08T16:34:05.987Z</time></trkpt><trkpt lat="44.81642913332145" lon="4.697063664571682"><ele>135.33333333333334</ele><time>2026-04-08T16:34:07.987Z</time></trkpt><trkpt lat="44.81639593348602" lon="4.697157719363193"><ele>135.0</ele><time>2026-04-08T16:34:09.987Z</time></trkpt><trkpt lat="44.81637801147163" lon="4.697267633648509"><ele>134.66666666666666</ele><time>2026-04-08T16:34:11.987Z</time></trkpt><trkpt lat="44.81636387374085" lon="4.69738502540309"><ele>134.33333333333331</ele><time>2026-04-08T16:34:13.987Z</time></trkpt><trkpt lat="44.8163538029491" lon="4.697499534943529"><ele>134.0</ele><time>2026-04-08T16:34:15.986Z</time></trkpt><trkpt lat="44.816353190721195" lon="4.697617069827008"><ele>134.0</ele><time>2026-04-08T16:34:17.986Z</time></trkpt><trkpt lat="44.81635336182128" lon="4.697734304684445"><ele>134.0</ele><time>2026-04-08T16:34:19.986Z</time></trkpt><trkpt lat="44.81636603540944" lon="4.697856792989494"><ele>134.0</ele><time>2026-04-08T16:34:21.986Z</time></trkpt><trkpt lat="44.816390081391155" lon="4.697972666207299"><ele>134.0</ele><time>2026-04-08T16:34:23.986Z</time></trkpt><trkpt lat="44.81642222837103" lon="4.698091376876445"><ele>134.0</ele><time>2026-04-08T16:34:25.986Z</time></trkpt><trkpt lat="44.816447785204446" lon="4.69820640375576"><ele>134.0</ele><time>2026-04-08T16:34:27.986Z</time></trkpt><trkpt lat="44.81647724335517" lon="4.6983241126750706"><ele>136.5</ele><time>2026-04-08T16:34:29.986Z</time></trkpt><trkpt lat="44.81651303539763" lon="4.69844496200342"><ele>139.0</ele><time>2026-04-08T16:34:31.986Z</time></trkpt><trkpt lat="44.8165481679096" lon="4.698549529443077"><ele>141.5</ele><time>2026-04-08T16:34:33.986Z</time></trkpt><trkpt lat="44.81658283106406" lon="4.698658238051082"><ele>144.0</ele><time>2026-04-08T16:34:35.986Z</time></trkpt><trkpt lat="44.816605082395455" lon="4.698767264854858"><ele>146.5</ele><time>2026-04-08T16:34:37.986Z</time></trkpt><trkpt lat="44.81663084338004" lon="4.6988765415771745"><ele>149.0</ele><time>2026-04-08T16:34:39.986Z</time></trkpt><trkpt lat="44.81665648989391" lon="4.6989900313985"><ele>148.83333333333331</ele><time>2026-04-08T16:34:41.986Z</time></trkpt><trkpt lat="44.81666404426331" lon="4.699108272508888"><ele>148.66666666666666</ele><time>2026-04-08T16:34:43.986Z</time></trkpt><trkpt lat="44.81668095637558" lon="4.699223217902664"><ele>148.5</ele><time>2026-04-08T16:34:45.986Z</time></trkpt><trkpt lat="44.81668559531881" lon="4.69934388012326"><ele>148.33333333333334</ele><time>2026-04-08T16:34:47.986Z</time></trkpt><trkpt lat="44.81668181797127" lon="4.69946333296658"><ele>148.16666666666669</ele><time>2026-04-08T16:34:49.986Z</time></trkpt><trkpt lat="44.816691440018154" lon="4.699576590705792"><ele>148.0</ele><time>2026-04-08T16:34:51.986Z</time></trkpt><trkpt lat="44.816684421781325" lon="4.699697881805609"><ele>148.0</ele><time>2026-04-08T16:34:53.986Z</time></trkpt><trkpt lat="44.81667984510137" lon="4.699809389178903"><ele>148.0</ele><time>2026-04-08T16:34:55.986Z</time></trkpt><trkpt lat="44.81666330216546" lon="4.699929874874316"><ele>148.0</ele><time>2026-04-08T16:34:57.986Z</time></trkpt><trkpt lat="44.81663629972333" lon="4.700036110427556"><ele>148.0</ele><time>2026-04-08T16:34:59.986Z</time></trkpt><trkpt lat="44.816615143473015" lon="4.700156097252913"><ele>148.0</ele><time>2026-04-08T16:35:01.986Z</time></trkpt><trkpt lat="44.81659780669954" lon="4.7002702595604875"><ele>148.0</ele><time>2026-04-08T16:35:03.986Z</time></trkpt><trkpt lat="44.81658629880437" lon="4.7003876060580225"><ele>147.83333333333334</ele><time>2026-04-08T16:35:05.986Z</time></trkpt><trkpt lat="44.816566494811774" lon="4.700500675549406"><ele>147.66666666666669</ele><time>2026-04-08T16:35:07.986Z</time></trkpt><trkpt lat="44.81654569477203" lon="4.700622957534316"><ele>147.5</ele><time>2026-04-08T16:35:09.986Z</time></trkpt><trkpt lat="44.81652639287094" lon="4.7007421719138796"><ele>147.33333333333334</ele><time>2026-04-08T16:35:11.986Z</time></trkpt><trkpt lat="44.81651614987195" lon="4.700857404113222"><ele>147.16666666666666</ele><time>2026-04-08T16:35:13.986Z</time></trkpt><trkpt lat="44.81651420866932" lon="4.70097409476632"><ele>147.0</ele><time>2026-04-08T16:35:15.986Z</time></trkpt><trkpt lat="44.81651468142123" lon="4.701098214084076"><ele>147.0</ele><time>2026-04-08T16:35:17.986Z</time></trkpt><trkpt lat="44.81652186136232" lon="4.701222501482118"><ele>147.0</ele><time>2026-04-08T16:35:19.986Z</time></trkpt><trkpt lat="44.81652995136087" lon="4.7013461612083765"><ele>147.0</ele><time>2026-04-08T16:35:21.986Z</time></trkpt><trkpt lat="44.81654881300546" lon="4.701454451172045"><ele>147.0</ele><time>2026-04-08T16:35:23.986Z</time></trkpt><trkpt lat="44.81657119023206" lon="4.701571928714657"><ele>147.0</ele><time>2026-04-08T16:35:25.986Z</time></trkpt><trkpt lat="44.81658947062913" lon="4.70169131011083"><ele>147.0</ele><time>2026-04-08T16:35:27.986Z</time></trkpt><trkpt lat="44.81661585169966" lon="4.7018195304921075"><ele>148.0</ele><time>2026-04-08T16:35:29.986Z</time></trkpt><trkpt lat="44.8166325792962" lon="4.701955651415811"><ele>149.0</ele><time>2026-04-08T16:35:31.986Z</time></trkpt><trkpt lat="44.816651482116484" lon="4.702082910156506"><ele>150.0</ele><time>2026-04-08T16:35:33.986Z</time></trkpt><trkpt lat="44.816666851757844" lon="4.702213447456666"><ele>151.0</ele><time>2026-04-08T16:35:35.986Z</time></trkpt><trkpt lat="44.81668626724229" lon="4.702341475978059"><ele>152.0</ele><time>2026-04-08T16:35:37.986Z</time></trkpt><trkpt lat="44.81670058669697" lon="4.702464187962273"><ele>152.0</ele><time>2026-04-08T16:35:39.986Z</time></trkpt><trkpt lat="44.81670301067711" lon="4.7025853943017815"><ele>152.0</ele><time>2026-04-08T16:35:41.986Z</time></trkpt><trkpt lat="44.81671177017517" lon="4.702712721615797"><ele>152.0</ele><time>2026-04-08T16:35:43.986Z</time></trkpt><trkpt lat="44.81670115165572" lon="4.702846693091529"><ele>152.0</ele><time>2026-04-08T16:35:45.986Z</time></trkpt><trkpt lat="44.81669145179547" lon="4.702975001645821"><ele>152.0</ele><time>2026-04-08T16:35:47.986Z</time></trkpt><trkpt lat="44.816684865934384" lon="4.703108743816836"><ele>151.16666666666666</ele><time>2026-04-08T16:35:49.986Z</time></trkpt><trkpt lat="44.81666954944762" lon="4.703237541864753"><ele>150.33333333333331</ele><time>2026-04-08T16:35:51.986Z</time></trkpt><trkpt lat="44.81663605337927" lon="4.703360745463112"><ele>149.5</ele><time>2026-04-08T16:35:53.986Z</time></trkpt><trkpt lat="44.81661851017834" lon="4.7034828186915245"><ele>148.66666666666666</ele><time>2026-04-08T16:35:55.986Z</time></trkpt><trkpt lat="44.81659251897806" lon="4.703589757840775"><ele>147.83333333333334</ele><time>2026-04-08T16:35:57.986Z</time></trkpt><trkpt lat="44.81656134619922" lon="4.703673649813656"><ele>147.0</ele><time>2026-04-08T16:35:59.986Z</time></trkpt><trkpt lat="44.81654225682729" lon="4.703766407345916"><ele>146.0</ele><time>2026-04-08T16:36:01.986Z</time></trkpt><trkpt lat="44.81651200628724" lon="4.703906745897772"><ele>145.0</ele><time>2026-04-08T16:36:04.986Z</time></trkpt><trkpt lat="44.81649404032175" lon="4.704027206672807"><ele>144.0</ele><time>2026-04-08T16:36:06.986Z</time></trkpt><trkpt lat="44.81648909777236" lon="4.70413765589345"><ele>143.0</ele><time>2026-04-08T16:36:08.987Z</time></trkpt><trkpt lat="44.81647679216315" lon="4.70426072963561"><ele>142.0</ele><time>2026-04-08T16:36:10.987Z</time></trkpt><trkpt lat="44.816465633818325" lon="4.704375843800846"><ele>141.0</ele><time>2026-04-08T16:36:12.987Z</time></trkpt><trkpt lat="44.816440283001434" lon="4.7044942028728585"><ele>140.0</ele><time>2026-04-08T16:36:14.987Z</time></trkpt><trkpt lat="44.81642437082563" lon="4.7046152434074955"><ele>139.0</ele><time>2026-04-08T16:36:16.987Z</time></trkpt><trkpt lat="44.81640841965303" lon="4.704734965552927"><ele>138.0</ele><time>2026-04-08T16:36:18.987Z</time></trkpt><trkpt lat="44.81639145737942" lon="4.7048548983880325"><ele>137.0</ele><time>2026-04-08T16:36:20.987Z</time></trkpt><trkpt lat="44.81637732373913" lon="4.704976988927064"><ele>136.0</ele><time>2026-04-08T16:36:22.987Z</time></trkpt><trkpt lat="44.81635720582785" lon="4.705097346556112"><ele>135.0</ele><time>2026-04-08T16:36:24.987Z</time></trkpt><trkpt lat="44.81633647867306" lon="4.705206933459777"><ele>134.57142857142856</ele><time>2026-04-08T16:36:26.987Z</time></trkpt><trkpt lat="44.81632514400972" lon="4.705325427762752"><ele>134.14285714285714</ele><time>2026-04-08T16:36:28.987Z</time></trkpt><trkpt lat="44.816301475280035" lon="4.705419613680677"><ele>133.71428571428572</ele><time>2026-04-08T16:36:30.987Z</time></trkpt><trkpt lat="44.81628501971861" lon="4.705517498106844"><ele>133.28571428571428</ele><time>2026-04-08T16:36:32.987Z</time></trkpt><trkpt lat="44.816260292718475" lon="4.705604853849421"><ele>132.85714285714286</ele><time>2026-04-08T16:36:34.987Z</time></trkpt><trkpt lat="44.81621885166152" lon="4.705690316832954"><ele>132.42857142857142</ele><time>2026-04-08T16:36:36.987Z</time></trkpt><trkpt lat="44.81617936050526" lon="4.705790494130935"><ele>132.0</ele><time>2026-04-08T16:36:38.987Z</time></trkpt><trkpt lat="44.81613232561918" lon="4.705884246033023"><ele>132.0</ele><time>2026-04-08T16:36:40.987Z</time></trkpt><trkpt lat="44.81607836676361" lon="4.70596699129538"><ele>132.0</ele><time>2026-04-08T16:36:42.987Z</time></trkpt><trkpt lat="44.81602143340289" lon="4.7060521537430535"><ele>132.0</ele><time>2026-04-08T16:36:44.987Z</time></trkpt><trkpt lat="44.815960181766314" lon="4.706127104812489"><ele>132.0</ele><time>2026-04-08T16:36:46.987Z</time></trkpt><trkpt lat="44.81589251418877" lon="4.706196737307056"><ele>132.0</ele><time>2026-04-08T16:36:48.987Z</time></trkpt><trkpt lat="44.815816882444985" lon="4.706259610984485"><ele>132.0</ele><time>2026-04-08T16:36:50.987Z</time></trkpt><trkpt lat="44.81573633916045" lon="4.706298487927456"><ele>132.0</ele><time>2026-04-08T16:36:52.987Z</time></trkpt><trkpt lat="44.81565368835486" lon="4.706327430191303"><ele>132.0</ele><time>2026-04-08T16:36:54.987Z</time></trkpt><trkpt lat="44.81557311877968" lon="4.706350523790351"><ele>132.0</ele><time>2026-04-08T16:36:56.987Z</time></trkpt><trkpt lat="44.81548364801438" lon="4.706365936347604"><ele>132.0</ele><time>2026-04-08T16:36:58.987Z</time></trkpt><trkpt lat="44.815389721789714" lon="4.7063641444129205"><ele>132.0</ele><time>2026-04-08T16:37:00.987Z</time></trkpt><trkpt lat="44.81530295941875" lon="4.706350625097798"><ele>132.0</ele><time>2026-04-08T16:37:02.986Z</time></trkpt><trkpt lat="44.81521584901088" lon="4.7063278782238696"><ele>132.0</ele><time>2026-04-08T16:37:04.986Z</time></trkpt><trkpt lat="44.81512744711154" lon="4.70628632907483"><ele>132.0</ele><time>2026-04-08T16:37:06.986Z</time></trkpt><trkpt lat="44.81504487481946" lon="4.706243527584065"><ele>132.0</ele><time>2026-04-08T16:37:08.986Z</time></trkpt><trkpt lat="44.814961380952305" lon="4.706203876113016"><ele>132.0</ele><time>2026-04-08T16:37:10.986Z</time></trkpt><trkpt lat="44.814885956953404" lon="4.706171402829373"><ele>132.0</ele><time>2026-04-08T16:37:12.986Z</time></trkpt><trkpt lat="44.814810099449204" lon="4.706131722564442"><ele>132.0</ele><time>2026-04-08T16:37:14.986Z</time></trkpt><trkpt lat="44.814732004909835" lon="4.70609786162749"><ele>134.0</ele><time>2026-04-08T16:37:16.986Z</time></trkpt><trkpt lat="44.814649522885524" lon="4.706064591498499"><ele>136.0</ele><time>2026-04-08T16:37:18.986Z</time></trkpt><trkpt lat="44.81457374527548" lon="4.7060380412281155"><ele>138.0</ele><time>2026-04-08T16:37:20.986Z</time></trkpt><trkpt lat="44.814485900431805" lon="4.7060185026466534"><ele>140.0</ele><time>2026-04-08T16:37:22.986Z</time></trkpt><trkpt lat="44.81440223034728" lon="4.705999639203628"><ele>142.0</ele><time>2026-04-08T16:37:24.986Z</time></trkpt><trkpt lat="44.81432475100985" lon="4.706005824173695"><ele>144.0</ele><time>2026-04-08T16:37:26.986Z</time></trkpt><trkpt lat="44.814258650845" lon="4.706026602837567"><ele>144.57142857142858</ele><time>2026-04-08T16:37:28.986Z</time></trkpt><trkpt lat="44.81418516862186" lon="4.706037629343519"><ele>145.14285714285714</ele><time>2026-04-08T16:37:30.986Z</time></trkpt><trkpt lat="44.814116499021864" lon="4.706060377501301"><ele>145.71428571428572</ele><time>2026-04-08T16:37:32.986Z</time></trkpt><trkpt lat="44.81405208660279" lon="4.706090451005463"><ele>146.28571428571428</ele><time>2026-04-08T16:37:34.986Z</time></trkpt><trkpt lat="44.81398694122699" lon="4.706133703380846"><ele>146.85714285714286</ele><time>2026-04-08T16:37:36.986Z</time></trkpt><trkpt lat="44.81391727738137" lon="4.7061779878146535"><ele>147.42857142857144</ele><time>2026-04-08T16:37:38.986Z</time></trkpt><trkpt lat="44.8138510209458" lon="4.706230923654989"><ele>148.0</ele><time>2026-04-08T16:37:40.986Z</time></trkpt><trkpt lat="44.813794498235346" lon="4.706307081339926"><ele>147.66666666666669</ele><time>2026-04-08T16:37:42.986Z</time></trkpt><trkpt lat="44.813740275985865" lon="4.70637768911548"><ele>147.33333333333334</ele><time>2026-04-08T16:37:44.986Z</time></trkpt><trkpt lat="44.81369353064267" lon="4.706449124724367"><ele>147.0</ele><time>2026-04-08T16:37:46.986Z</time></trkpt><trkpt lat="44.81362738883285" lon="4.706543309840284"><ele>146.66666666666666</ele><time>2026-04-08T16:37:48.986Z</time></trkpt><trkpt lat="44.8135839060527" lon="4.706636292294459"><ele>146.33333333333331</ele><time>2026-04-08T16:37:50.986Z</time></trkpt><trkpt lat="44.8135298087801" lon="4.706716608458388"><ele>146.0</ele><time>2026-04-08T16:37:52.986Z</time></trkpt><trkpt lat="44.81347798016586" lon="4.706801507041357"><ele>146.0</ele><time>2026-04-08T16:37:54.986Z</time></trkpt><trkpt lat="44.81342868976256" lon="4.706895413137379"><ele>146.0</ele><time>2026-04-08T16:37:56.986Z</time></trkpt><trkpt lat="44.81337392973569" lon="4.70698514868026"><ele>146.0</ele><time>2026-04-08T16:37:58.986Z</time></trkpt><trkpt lat="44.81333563280795" lon="4.707087976548404"><ele>146.0</ele><time>2026-04-08T16:38:00.986Z</time></trkpt><trkpt lat="44.813302163517235" lon="4.707189082868183"><ele>146.0</ele><time>2026-04-08T16:38:02.986Z</time></trkpt><trkpt lat="44.8132726732535" lon="4.70729674059143"><ele>146.0</ele><time>2026-04-08T16:38:04.986Z</time></trkpt><trkpt lat="44.81324415752381" lon="4.707420582117429"><ele>146.0</ele><time>2026-04-08T16:38:06.986Z</time></trkpt><trkpt lat="44.81323864250525" lon="4.707545949462519"><ele>146.0</ele><time>2026-04-08T16:38:08.986Z</time></trkpt><trkpt lat="44.813229561106695" lon="4.707671933206621"><ele>146.0</ele><time>2026-04-08T16:38:10.986Z</time></trkpt><trkpt lat="44.81322561174229" lon="4.707794747362492"><ele>146.0</ele><time>2026-04-08T16:38:12.986Z</time></trkpt><trkpt lat="44.81321949800418" lon="4.707902829051542"><ele>146.0</ele><time>2026-04-08T16:38:14.986Z</time></trkpt><trkpt lat="44.81322199501335" lon="4.708024836517853"><ele>146.0</ele><time>2026-04-08T16:38:16.986Z</time></trkpt><trkpt lat="44.81324515150416" lon="4.708135029389279"><ele>146.0</ele><time>2026-04-08T16:38:18.986Z</time></trkpt><trkpt lat="44.81326469097805" lon="4.708250171256946"><ele>146.0</ele><time>2026-04-08T16:38:20.986Z</time></trkpt><trkpt lat="44.8132737450387" lon="4.7083612611521986"><ele>146.0</ele><time>2026-04-08T16:38:22.986Z</time></trkpt><trkpt lat="44.813295873445554" lon="4.7084628443716845"><ele>146.0</ele><time>2026-04-08T16:38:24.986Z</time></trkpt><trkpt lat="44.81333227210867" lon="4.708559245731241"><ele>146.0</ele><time>2026-04-08T16:38:26.986Z</time></trkpt><trkpt lat="44.81337883691091" lon="4.708670907259855"><ele>146.0</ele><time>2026-04-08T16:38:28.986Z</time></trkpt><trkpt lat="44.81340716025347" lon="4.708781586905075"><ele>148.66666666666666</ele><time>2026-04-08T16:38:30.986Z</time></trkpt><trkpt lat="44.81345223775743" lon="4.70888752744468"><ele>151.33333333333331</ele><time>2026-04-08T16:38:32.986Z</time></trkpt><trkpt lat="44.81348846031849" lon="4.708994219445951"><ele>154.0</ele><time>2026-04-08T16:38:34.986Z</time></trkpt><trkpt lat="44.81352569123147" lon="4.709097627705427"><ele>156.66666666666666</ele><time>2026-04-08T16:38:36.986Z</time></trkpt><trkpt lat="44.81356546384366" lon="4.709200374375764"><ele>159.33333333333334</ele><time>2026-04-08T16:38:38.986Z</time></trkpt><trkpt lat="44.813608971701996" lon="4.709299311615366"><ele>162.0</ele><time>2026-04-08T16:38:40.986Z</time></trkpt><trkpt lat="44.81364099134844" lon="4.7094064064433425"><ele>156.33333333333334</ele><time>2026-04-08T16:38:42.986Z</time></trkpt><trkpt lat="44.81367469114777" lon="4.709506546264369"><ele>150.66666666666666</ele><time>2026-04-08T16:38:44.986Z</time></trkpt><trkpt lat="44.813716490160694" lon="4.709615779172187"><ele>145.0</ele><time>2026-04-08T16:38:46.986Z</time></trkpt><trkpt lat="44.81375414497986" lon="4.709712952854192"><ele>139.33333333333331</ele><time>2026-04-08T16:38:48.986Z</time></trkpt><trkpt lat="44.813783920253826" lon="4.709816217053484"><ele>133.66666666666666</ele><time>2026-04-08T16:38:50.986Z</time></trkpt><trkpt lat="44.813820371267106" lon="4.7099208233183045"><ele>128.0</ele><time>2026-04-08T16:38:52.986Z</time></trkpt><trkpt lat="44.81384103047077" lon="4.710029922650878"><ele>127.99999999999999</ele><time>2026-04-08T16:38:54.986Z</time></trkpt><trkpt lat="44.813863668263025" lon="4.710135384926582"><ele>128.0</ele><time>2026-04-08T16:38:56.986Z</time></trkpt><trkpt lat="44.813891453237204" lon="4.710239007145451"><ele>128.0</ele><time>2026-04-08T16:38:58.986Z</time></trkpt><trkpt lat="44.81389324706073" lon="4.7103427992987585"><ele>128.0</ele><time>2026-04-08T16:39:00.986Z</time></trkpt><trkpt lat="44.81388932926207" lon="4.710467351586064"><ele>127.99999999999999</ele><time>2026-04-08T16:39:02.986Z</time></trkpt><trkpt lat="44.81389293516914" lon="4.710577886342023"><ele>128.0</ele><time>2026-04-08T16:39:04.986Z</time></trkpt><trkpt lat="44.813881481197676" lon="4.710687683978184"><ele>128.66666666666666</ele><time>2026-04-08T16:39:06.986Z</time></trkpt><trkpt lat="44.81385824622958" lon="4.710794942530051"><ele>129.33333333333331</ele><time>2026-04-08T16:39:08.986Z</time></trkpt><trkpt lat="44.81383911138185" lon="4.710906319777685"><ele>130.0</ele><time>2026-04-08T16:39:10.986Z</time></trkpt><trkpt lat="44.81382349993806" lon="4.711020931935231"><ele>130.66666666666666</ele><time>2026-04-08T16:39:12.986Z</time></trkpt><trkpt lat="44.81379171343578" lon="4.711124965012107"><ele>131.33333333333334</ele><time>2026-04-08T16:39:14.986Z</time></trkpt><trkpt lat="44.81376708797986" lon="4.71123648081596"><ele>132.0</ele><time>2026-04-08T16:39:16.986Z</time></trkpt><trkpt lat="44.81375297112599" lon="4.7113385984030325"><ele>132.0</ele><time>2026-04-08T16:39:18.986Z</time></trkpt><trkpt lat="44.813720577875166" lon="4.711435574499527"><ele>132.0</ele><time>2026-04-08T16:39:20.986Z</time></trkpt><trkpt lat="44.81371599386159" lon="4.711551428362744"><ele>132.0</ele><time>2026-04-08T16:39:22.986Z</time></trkpt><trkpt lat="44.81371237384114" lon="4.711658090171648"><ele>132.0</ele><time>2026-04-08T16:39:24.986Z</time></trkpt><trkpt lat="44.81371914779042" lon="4.711766274260759"><ele>132.0</ele><time>2026-04-08T16:39:26.986Z</time></trkpt><trkpt lat="44.813727208122046" lon="4.7118829201671275"><ele>132.0</ele><time>2026-04-08T16:39:28.986Z</time></trkpt><trkpt lat="44.81373775812387" lon="4.711992816339712"><ele>132.0</ele><time>2026-04-08T16:39:30.986Z</time></trkpt><trkpt lat="44.81375765742391" lon="4.712102497331005"><ele>132.0</ele><time>2026-04-08T16:39:32.986Z</time></trkpt><trkpt lat="44.81377325137928" lon="4.712219957632607"><ele>132.0</ele><time>2026-04-08T16:39:34.986Z</time></trkpt><trkpt lat="44.81378319054407" lon="4.712327262419584"><ele>132.0</ele><time>2026-04-08T16:39:36.986Z</time></trkpt><trkpt lat="44.81379915087618" lon="4.712445787070729"><ele>132.0</ele><time>2026-04-08T16:39:38.986Z</time></trkpt><trkpt lat="44.81381901327365" lon="4.712554745521537"><ele>132.0</ele><time>2026-04-08T16:39:40.986Z</time></trkpt><trkpt lat="44.81383109589174" lon="4.7126612866488"><ele>134.28571428571428</ele><time>2026-04-08T16:39:42.986Z</time></trkpt><trkpt lat="44.81385320606186" lon="4.712770681423168"><ele>136.57142857142858</ele><time>2026-04-08T16:39:44.986Z</time></trkpt><trkpt lat="44.81387739952774" lon="4.712866167122562"><ele>138.85714285714286</ele><time>2026-04-08T16:39:46.986Z</time></trkpt><trkpt lat="44.81391565826456" lon="4.71295375445344"><ele>141.14285714285714</ele><time>2026-04-08T16:39:48.986Z</time></trkpt><trkpt lat="44.81394246547382" lon="4.71304045663402"><ele>143.42857142857142</ele><time>2026-04-08T16:39:50.986Z</time></trkpt><trkpt lat="44.813977027917986" lon="4.713122601450969"><ele>145.71428571428572</ele><time>2026-04-08T16:39:52.986Z</time></trkpt><trkpt lat="44.814022827142715" lon="4.713219556445233"><ele>148.0</ele><time>2026-04-08T16:39:54.986Z</time></trkpt><trkpt lat="44.814081355415624" lon="4.7133069072328375"><ele>148.0</ele><time>2026-04-08T16:39:56.986Z</time></trkpt><trkpt lat="44.8141434909853" lon="4.713384318917027"><ele>148.0</ele><time>2026-04-08T16:39:58.986Z</time></trkpt><trkpt lat="44.81420438484284" lon="4.713465601870067"><ele>148.0</ele><time>2026-04-08T16:40:00.986Z</time></trkpt><trkpt lat="44.814263196102495" lon="4.713534160031602"><ele>148.0</ele><time>2026-04-08T16:40:02.986Z</time></trkpt><trkpt lat="44.814327465711436" lon="4.713601503095428"><ele>148.0</ele><time>2026-04-08T16:40:04.986Z</time></trkpt><trkpt lat="44.81438200276558" lon="4.713674535930328"><ele>148.0</ele><time>2026-04-08T16:40:06.986Z</time></trkpt><trkpt lat="44.814450029905984" lon="4.7137266736578205"><ele>145.83333333333334</ele><time>2026-04-08T16:40:08.986Z</time></trkpt><trkpt lat="44.81451537561394" lon="4.713792368408933"><ele>143.66666666666669</ele><time>2026-04-08T16:40:10.986Z</time></trkpt><trkpt lat="44.814578017800585" lon="4.713870769794738"><ele>141.5</ele><time>2026-04-08T16:40:12.986Z</time></trkpt><trkpt lat="44.81463285951924" lon="4.713965304548894"><ele>139.33333333333334</ele><time>2026-04-08T16:40:14.986Z</time></trkpt><trkpt lat="44.814696730936085" lon="4.7140589735161385"><ele>137.16666666666666</ele><time>2026-04-08T16:40:16.986Z</time></trkpt><trkpt lat="44.814757447136905" lon="4.714138733947013"><ele>135.0</ele><time>2026-04-08T16:40:18.986Z</time></trkpt><trkpt lat="44.814803149370256" lon="4.714231779448481"><ele>135.0</ele><time>2026-04-08T16:40:20.986Z</time></trkpt><trkpt lat="44.81486393239567" lon="4.7143159400228045"><ele>135.0</ele><time>2026-04-08T16:40:22.987Z</time></trkpt><trkpt lat="44.8149049870199" lon="4.714404589245172"><ele>135.0</ele><time>2026-04-08T16:40:24.986Z</time></trkpt><trkpt lat="44.81496375856839" lon="4.7144927210139995"><ele>135.0</ele><time>2026-04-08T16:40:26.986Z</time></trkpt><trkpt lat="44.815013481625805" lon="4.714587240987503"><ele>135.0</ele><time>2026-04-08T16:40:28.986Z</time></trkpt><trkpt lat="44.81504752121434" lon="4.714686068267833"><ele>135.0</ele><time>2026-04-08T16:40:30.987Z</time></trkpt><trkpt lat="44.81508327318461" lon="4.714789115552842"><ele>133.66666666666666</ele><time>2026-04-08T16:40:32.986Z</time></trkpt><trkpt lat="44.81511617983309" lon="4.714887065796873"><ele>132.33333333333334</ele><time>2026-04-08T16:40:34.986Z</time></trkpt><trkpt lat="44.815130710927846" lon="4.714992167421556"><ele>131.0</ele><time>2026-04-08T16:40:36.986Z</time></trkpt><trkpt lat="44.81514630198718" lon="4.7151030981517374"><ele>129.66666666666669</ele><time>2026-04-08T16:40:38.986Z</time></trkpt><trkpt lat="44.815157634409964" lon="4.715212856393165"><ele>128.33333333333334</ele><time>2026-04-08T16:40:40.986Z</time></trkpt><trkpt lat="44.815167308038674" lon="4.715328254259269"><ele>127.0</ele><time>2026-04-08T16:40:42.986Z</time></trkpt><trkpt lat="44.815161754629855" lon="4.715436121167616"><ele>127.00000000000001</ele><time>2026-04-08T16:40:44.986Z</time></trkpt><trkpt lat="44.81517596552274" lon="4.715540309636367"><ele>127.0</ele><time>2026-04-08T16:40:46.986Z</time></trkpt><trkpt lat="44.81518629477972" lon="4.715646587367688"><ele>127.0</ele><time>2026-04-08T16:40:48.986Z</time></trkpt><trkpt lat="44.81519095004852" lon="4.7157448787742196"><ele>127.0</ele><time>2026-04-08T16:40:50.986Z</time></trkpt><trkpt lat="44.81520927139726" lon="4.715849406322396"><ele>127.00000000000001</ele><time>2026-04-08T16:40:52.986Z</time></trkpt><trkpt lat="44.81522682383229" lon="4.715952659343962"><ele>127.0</ele><time>2026-04-08T16:40:54.986Z</time></trkpt><trkpt lat="44.81524719835775" lon="4.71606353675003"><ele>128.5</ele><time>2026-04-08T16:40:56.986Z</time></trkpt><trkpt lat="44.81527996613095" lon="4.7161617094951"><ele>130.0</ele><time>2026-04-08T16:40:58.986Z</time></trkpt><trkpt lat="44.815305294408994" lon="4.716248317509103"><ele>131.5</ele><time>2026-04-08T16:41:00.986Z</time></trkpt><trkpt lat="44.815353293626465" lon="4.7163384241714015"><ele>133.0</ele><time>2026-04-08T16:41:02.986Z</time></trkpt><trkpt lat="44.81540886433975" lon="4.716426063811342"><ele>134.5</ele><time>2026-04-08T16:41:04.986Z</time></trkpt><trkpt lat="44.815466464418144" lon="4.7164983286638895"><ele>136.0</ele><time>2026-04-08T16:41:06.986Z</time></trkpt><trkpt lat="44.81552961391995" lon="4.716577675884822"><ele>136.0</ele><time>2026-04-08T16:41:08.986Z</time></trkpt><trkpt lat="44.81558824355374" lon="4.716651657668385"><ele>136.0</ele><time>2026-04-08T16:41:10.986Z</time></trkpt><trkpt lat="44.815659226487114" lon="4.716716290196397"><ele>136.0</ele><time>2026-04-08T16:41:12.986Z</time></trkpt><trkpt lat="44.815730961080526" lon="4.7167942536271745"><ele>136.0</ele><time>2026-04-08T16:41:14.986Z</time></trkpt><trkpt lat="44.81579082045875" lon="4.716867784264738"><ele>136.0</ele><time>2026-04-08T16:41:16.986Z</time></trkpt><trkpt lat="44.81585617137196" lon="4.716931490283387"><ele>136.0</ele><time>2026-04-08T16:41:18.986Z</time></trkpt><trkpt lat="44.81590801207482" lon="4.716995788390469"><ele>136.5</ele><time>2026-04-08T16:41:20.986Z</time></trkpt><trkpt lat="44.815965668387115" lon="4.717072532274092"><ele>137.0</ele><time>2026-04-08T16:41:22.986Z</time></trkpt><trkpt lat="44.81602898566106" lon="4.717164883120091"><ele>137.5</ele><time>2026-04-08T16:41:24.986Z</time></trkpt><trkpt lat="44.816071294249895" lon="4.717249853886275"><ele>138.0</ele><time>2026-04-08T16:41:26.986Z</time></trkpt><trkpt lat="44.816115023016124" lon="4.71734887624216"><ele>138.5</ele><time>2026-04-08T16:41:28.986Z</time></trkpt><trkpt lat="44.81615156568668" lon="4.7174417065737115"><ele>139.0</ele><time>2026-04-08T16:41:30.986Z</time></trkpt><trkpt lat="44.81618581875085" lon="4.717541399878216"><ele>139.0</ele><time>2026-04-08T16:41:32.986Z</time></trkpt><trkpt lat="44.81621312730181" lon="4.717639828552028"><ele>139.0</ele><time>2026-04-08T16:41:34.986Z</time></trkpt><trkpt lat="44.81623012424188" lon="4.717758404181385"><ele>139.0</ele><time>2026-04-08T16:41:36.986Z</time></trkpt><trkpt lat="44.81624451309699" lon="4.717867388530837"><ele>139.0</ele><time>2026-04-08T16:41:38.986Z</time></trkpt><trkpt lat="44.81623793662504" lon="4.71797401704722"><ele>139.0</ele><time>2026-04-08T16:41:40.986Z</time></trkpt><trkpt lat="44.816237466738976" lon="4.718077825769793"><ele>139.0</ele><time>2026-04-08T16:41:42.986Z</time></trkpt><trkpt lat="44.816235311253294" lon="4.718168248864236"><ele>139.16666666666669</ele><time>2026-04-08T16:41:44.986Z</time></trkpt><trkpt lat="44.816225505277274" lon="4.718269368614022"><ele>139.33333333333334</ele><time>2026-04-08T16:41:46.986Z</time></trkpt><trkpt lat="44.81621458154019" lon="4.718391330295293"><ele>139.5</ele><time>2026-04-08T16:41:48.986Z</time></trkpt><trkpt lat="44.81618827966356" lon="4.718521578563753"><ele>139.66666666666666</ele><time>2026-04-08T16:41:50.986Z</time></trkpt><trkpt lat="44.81617065553271" lon="4.718644444752606"><ele>139.83333333333331</ele><time>2026-04-08T16:41:52.986Z</time></trkpt><trkpt lat="44.81616379619194" lon="4.7187625500476535"><ele>140.0</ele><time>2026-04-08T16:41:54.986Z</time></trkpt><trkpt lat="44.81614521497522" lon="4.718862353487972"><ele>138.0</ele><time>2026-04-08T16:41:56.986Z</time></trkpt><trkpt lat="44.81612285165242" lon="4.719000717719578"><ele>136.0</ele><time>2026-04-08T16:41:58.986Z</time></trkpt><trkpt lat="44.81609901424075" lon="4.719124404692871"><ele>134.0</ele><time>2026-04-08T16:42:00.986Z</time></trkpt><trkpt lat="44.816078956817314" lon="4.719232706929004"><ele>132.0</ele><time>2026-04-08T16:42:02.986Z</time></trkpt><trkpt lat="44.81605837794168" lon="4.71933195943351"><ele>130.0</ele><time>2026-04-08T16:42:04.986Z</time></trkpt><trkpt lat="44.816049998449095" lon="4.719435050764844"><ele>128.0</ele><time>2026-04-08T16:42:06.986Z</time></trkpt><trkpt lat="44.81602756001944" lon="4.719553218209944"><ele>126.4</ele><time>2026-04-08T16:42:08.986Z</time></trkpt><trkpt lat="44.81600598349474" lon="4.719679179050008"><ele>124.80000000000001</ele><time>2026-04-08T16:42:10.986Z</time></trkpt><trkpt lat="44.815982028498446" lon="4.7198060244482125"><ele>123.2</ele><time>2026-04-08T16:42:12.986Z</time></trkpt><trkpt lat="44.81595636032104" lon="4.719932029944454"><ele>121.6</ele><time>2026-04-08T16:42:14.986Z</time></trkpt><trkpt lat="44.815943689383005" lon="4.720051922904875"><ele>120.0</ele><time>2026-04-08T16:42:16.986Z</time></trkpt><trkpt lat="44.815915889915466" lon="4.720172560129099"><ele>123.66666666666667</ele><time>2026-04-08T16:42:18.986Z</time></trkpt><trkpt lat="44.81589278733631" lon="4.720301463838409"><ele>127.33333333333334</ele><time>2026-04-08T16:42:20.986Z</time></trkpt><trkpt lat="44.81587375295065" lon="4.720427883614933"><ele>131.0</ele><time>2026-04-08T16:42:22.986Z</time></trkpt><trkpt lat="44.815852361069496" lon="4.720548876358255"><ele>134.66666666666669</ele><time>2026-04-08T16:42:24.986Z</time></trkpt><trkpt lat="44.8158258543348" lon="4.720663038282687"><ele>138.33333333333334</ele><time>2026-04-08T16:42:26.986Z</time></trkpt><trkpt lat="44.81581403769325" lon="4.720779412894726"><ele>142.0</ele><time>2026-04-08T16:42:28.986Z</time></trkpt><trkpt lat="44.81579050716829" lon="4.7209082696032425"><ele>142.0</ele><time>2026-04-08T16:42:30.986Z</time></trkpt><trkpt lat="44.81577796006883" lon="4.721032065414962"><ele>142.0</ele><time>2026-04-08T16:42:32.986Z</time></trkpt><trkpt lat="44.815752837019105" lon="4.721153712151132"><ele>142.0</ele><time>2026-04-08T16:42:34.986Z</time></trkpt><trkpt lat="44.815723321119215" lon="4.721276400893901"><ele>142.0</ele><time>2026-04-08T16:42:36.986Z</time></trkpt><trkpt lat="44.81570416652985" lon="4.721408997080998"><ele>142.0</ele><time>2026-04-08T16:42:38.986Z</time></trkpt><trkpt lat="44.815684504655" lon="4.721548002399339"><ele>141.6</ele><time>2026-04-08T16:42:40.986Z</time></trkpt><trkpt lat="44.81567256601279" lon="4.721682556575873"><ele>141.2</ele><time>2026-04-08T16:42:42.986Z</time></trkpt><trkpt lat="44.815655718251456" lon="4.721796909448683"><ele>140.8</ele><time>2026-04-08T16:42:44.986Z</time></trkpt><trkpt lat="44.81564824458057" lon="4.721943527741385"><ele>140.4</ele><time>2026-04-08T16:42:46.986Z</time></trkpt><trkpt lat="44.815670692386306" lon="4.722071856887352"><ele>140.0</ele><time>2026-04-08T16:42:48.986Z</time></trkpt><trkpt lat="44.8156716246468" lon="4.722209190392384"><ele>140.0</ele><time>2026-04-08T16:42:50.986Z</time></trkpt><trkpt lat="44.81567453840049" lon="4.722327472544986"><ele>140.0</ele><time>2026-04-08T16:42:52.986Z</time></trkpt><trkpt lat="44.81570414496301" lon="4.72244763961505"><ele>140.0</ele><time>2026-04-08T16:42:54.986Z</time></trkpt><trkpt lat="44.81571409443094" lon="4.722579950029027"><ele>140.0</ele><time>2026-04-08T16:42:56.986Z</time></trkpt><trkpt lat="44.81573858436743" lon="4.722707004574221"><ele>140.0</ele><time>2026-04-08T16:42:58.986Z</time></trkpt><trkpt lat="44.81574969166973" lon="4.722843341778424"><ele>139.0</ele><time>2026-04-08T16:43:00.986Z</time></trkpt><trkpt lat="44.81576566171535" lon="4.722976138786497"><ele>138.0</ele><time>2026-04-08T16:43:02.986Z</time></trkpt><trkpt lat="44.81579112009629" lon="4.723108520666838"><ele>137.0</ele><time>2026-04-08T16:43:04.986Z</time></trkpt><trkpt lat="44.81580506578672" lon="4.7232306960114405"><ele>136.0</ele><time>2026-04-08T16:43:06.986Z</time></trkpt><trkpt lat="44.8158094930447" lon="4.7233627419637045"><ele>135.0</ele><time>2026-04-08T16:43:08.986Z</time></trkpt><trkpt lat="44.81582437670929" lon="4.723506352031093"><ele>136.4</ele><time>2026-04-08T16:43:10.986Z</time></trkpt><trkpt lat="44.81585144346795" lon="4.723642305549284"><ele>137.8</ele><time>2026-04-08T16:43:12.986Z</time></trkpt><trkpt lat="44.81586030705748" lon="4.7237792552863835"><ele>139.2</ele><time>2026-04-08T16:43:14.986Z</time></trkpt><trkpt lat="44.81588524116508" lon="4.723912654764714"><ele>140.6</ele><time>2026-04-08T16:43:16.986Z</time></trkpt><trkpt lat="44.815902469569316" lon="4.72404625052729"><ele>142.0</ele><time>2026-04-08T16:43:18.986Z</time></trkpt><trkpt lat="44.81592000914552" lon="4.724168549426808"><ele>142.0</ele><time>2026-04-08T16:43:20.986Z</time></trkpt><trkpt lat="44.81593972817103" lon="4.724302670173718"><ele>142.0</ele><time>2026-04-08T16:43:22.986Z</time></trkpt><trkpt lat="44.815957111703995" lon="4.724437573042081"><ele>142.0</ele><time>2026-04-08T16:43:24.986Z</time></trkpt><trkpt lat="44.81596928137296" lon="4.724577593438324"><ele>142.0</ele><time>2026-04-08T16:43:26.986Z</time></trkpt><trkpt lat="44.815983626830295" lon="4.724706264938631"><ele>142.0</ele><time>2026-04-08T16:43:28.986Z</time></trkpt><trkpt lat="44.816001438041845" lon="4.72483925017051"><ele>136.79999999999998</ele><time>2026-04-08T16:43:30.986Z</time></trkpt><trkpt lat="44.816006611981095" lon="4.724972676221252"><ele>131.6</ele><time>2026-04-08T16:43:32.986Z</time></trkpt><trkpt lat="44.81601736399072" lon="4.725107661046824"><ele>126.39999999999999</ele><time>2026-04-08T16:43:34.986Z</time></trkpt><trkpt lat="44.81602471368416" lon="4.725239442953338"><ele>121.19999999999999</ele><time>2026-04-08T16:43:36.986Z</time></trkpt><trkpt lat="44.816041597925484" lon="4.7253722724799045"><ele>116.0</ele><time>2026-04-08T16:43:38.986Z</time></trkpt><trkpt lat="44.816048996714464" lon="4.725506761454788"><ele>116.0</ele><time>2026-04-08T16:43:40.986Z</time></trkpt><trkpt lat="44.81604669246981" lon="4.72563163227723"><ele>116.0</ele><time>2026-04-08T16:43:42.986Z</time></trkpt><trkpt lat="44.81606145505493" lon="4.725764060464305"><ele>116.0</ele><time>2026-04-08T16:43:44.986Z</time></trkpt><trkpt lat="44.81608270673489" lon="4.725893267534533"><ele>116.0</ele><time>2026-04-08T16:43:46.986Z</time></trkpt><trkpt lat="44.8160986057436" lon="4.7260269134279485"><ele>116.0</ele><time>2026-04-08T16:43:48.986Z</time></trkpt><trkpt lat="44.816135654227914" lon="4.726137750454887"><ele>118.4</ele><time>2026-04-08T16:43:50.986Z</time></trkpt><trkpt lat="44.81616676752239" lon="4.726264694318701"><ele>120.8</ele><time>2026-04-08T16:43:52.986Z</time></trkpt><trkpt lat="44.81621023660075" lon="4.726393891719321"><ele>123.20000000000002</ele><time>2026-04-08T16:43:54.986Z</time></trkpt><trkpt lat="44.81626322650007" lon="4.726503868890471"><ele>125.60000000000001</ele><time>2026-04-08T16:43:56.986Z</time></trkpt><trkpt lat="44.81632120439185" lon="4.726611220918508"><ele>128.0</ele><time>2026-04-08T16:43:58.986Z</time></trkpt><trkpt lat="44.816386577498704" lon="4.726709031164545"><ele>128.0</ele><time>2026-04-08T16:44:00.986Z</time></trkpt><trkpt lat="44.81645656274844" lon="4.726791094295311"><ele>128.0</ele><time>2026-04-08T16:44:02.986Z</time></trkpt><trkpt lat="44.81652288909372" lon="4.726876978049641"><ele>128.0</ele><time>2026-04-08T16:44:04.986Z</time></trkpt><trkpt lat="44.816600724419686" lon="4.726950158702077"><ele>128.0</ele><time>2026-04-08T16:44:06.986Z</time></trkpt><trkpt lat="44.81668106779675" lon="4.7270127996247755"><ele>128.0</ele><time>2026-04-08T16:44:08.986Z</time></trkpt><trkpt lat="44.816759371425675" lon="4.727086824163025"><ele>127.2</ele><time>2026-04-08T16:44:10.986Z</time></trkpt><trkpt lat="44.81684289600722" lon="4.727150956018582"><ele>126.4</ele><time>2026-04-08T16:44:12.986Z</time></trkpt><trkpt lat="44.816919484445286" lon="4.727226837195306"><ele>125.60000000000001</ele><time>2026-04-08T16:44:14.986Z</time></trkpt><trkpt lat="44.81700578061422" lon="4.727302598202641"><ele>124.80000000000001</ele><time>2026-04-08T16:44:16.986Z</time></trkpt><trkpt lat="44.817075369783694" lon="4.727379181462575"><ele>124.0</ele><time>2026-04-08T16:44:18.986Z</time></trkpt><trkpt lat="44.81715257595423" lon="4.727462850682139"><ele>124.0</ele><time>2026-04-08T16:44:20.986Z</time></trkpt><trkpt lat="44.817214077931304" lon="4.727558339335501"><ele>124.0</ele><time>2026-04-08T16:44:22.986Z</time></trkpt><trkpt lat="44.81726603261698" lon="4.727658561511777"><ele>124.0</ele><time>2026-04-08T16:44:24.986Z</time></trkpt><trkpt lat="44.817313388177006" lon="4.727780022709217"><ele>124.0</ele><time>2026-04-08T16:44:26.986Z</time></trkpt><trkpt lat="44.81735680056893" lon="4.7278956629513"><ele>124.0</ele><time>2026-04-08T16:44:28.986Z</time></trkpt><trkpt lat="44.817408209215" lon="4.727999833566996"><ele>127.0</ele><time>2026-04-08T16:44:30.986Z</time></trkpt><trkpt lat="44.81744698679733" lon="4.728122006220688"><ele>130.0</ele><time>2026-04-08T16:44:32.985Z</time></trkpt><trkpt lat="44.81748548423047" lon="4.728244183580185"><ele>133.0</ele><time>2026-04-08T16:44:34.986Z</time></trkpt><trkpt lat="44.817516655871096" lon="4.728366354687715"><ele>136.0</ele><time>2026-04-08T16:44:36.986Z</time></trkpt><trkpt lat="44.81755956678143" lon="4.728497699138747"><ele>139.0</ele><time>2026-04-08T16:44:38.986Z</time></trkpt><trkpt lat="44.817589813990494" lon="4.728621898623476"><ele>141.0</ele><time>2026-04-08T16:44:40.985Z</time></trkpt><trkpt lat="44.81760996923766" lon="4.728752828380964"><ele>143.0</ele><time>2026-04-08T16:44:42.986Z</time></trkpt><trkpt lat="44.81763766635928" lon="4.728886686758331"><ele>145.0</ele><time>2026-04-08T16:44:44.986Z</time></trkpt><trkpt lat="44.81765406660145" lon="4.7290141427176415"><ele>147.0</ele><time>2026-04-08T16:44:46.986Z</time></trkpt><trkpt lat="44.81766039635315" lon="4.729152598134713"><ele>149.0</ele><time>2026-04-08T16:44:48.986Z</time></trkpt><trkpt lat="44.81767592610299" lon="4.729283560215814"><ele>143.0</ele><time>2026-04-08T16:44:50.986Z</time></trkpt><trkpt lat="44.81769082679418" lon="4.729424137436057"><ele>137.0</ele><time>2026-04-08T16:44:52.986Z</time></trkpt><trkpt lat="44.81770836364912" lon="4.729564812577366"><ele>131.0</ele><time>2026-04-08T16:44:54.986Z</time></trkpt><trkpt lat="44.81771347646994" lon="4.72971230531749"><ele>125.0</ele><time>2026-04-08T16:44:56.986Z</time></trkpt><trkpt lat="44.81772520738227" lon="4.729849595062598"><ele>119.0</ele><time>2026-04-08T16:44:58.986Z</time></trkpt><trkpt lat="44.817733759415724" lon="4.7299883681501695"><ele>119.0</ele><time>2026-04-08T16:45:00.986Z</time></trkpt><trkpt lat="44.817740361418174" lon="4.730122634069195"><ele>119.0</ele><time>2026-04-08T16:45:02.986Z</time></trkpt><trkpt lat="44.817744106592535" lon="4.730254806962342"><ele>119.0</ele><time>2026-04-08T16:45:04.986Z</time></trkpt><trkpt lat="44.81776654219552" lon="4.730395057382313"><ele>119.0</ele><time>2026-04-08T16:45:06.986Z</time></trkpt><trkpt lat="44.81776924299833" lon="4.73053953231661"><ele>119.0</ele><time>2026-04-08T16:45:08.986Z</time></trkpt><trkpt lat="44.81778252859493" lon="4.730664331253519"><ele>120.0</ele><time>2026-04-08T16:45:10.986Z</time></trkpt><trkpt lat="44.81777932704501" lon="4.730806641179384"><ele>121.0</ele><time>2026-04-08T16:45:12.986Z</time></trkpt><trkpt lat="44.817787390047464" lon="4.730935930203062"><ele>122.0</ele><time>2026-04-08T16:45:14.986Z</time></trkpt><trkpt lat="44.8178008300759" lon="4.731066210793788"><ele>123.0</ele><time>2026-04-08T16:45:16.986Z</time></trkpt><trkpt lat="44.817814002447705" lon="4.7312039891440625"><ele>124.0</ele><time>2026-04-08T16:45:18.986Z</time></trkpt><trkpt lat="44.81781502748574" lon="4.731344240125474"><ele>124.2</ele><time>2026-04-08T16:45:20.985Z</time></trkpt><trkpt lat="44.81782237033449" lon="4.731482328420144"><ele>124.4</ele><time>2026-04-08T16:45:22.985Z</time></trkpt><trkpt lat="44.817848121999205" lon="4.7316298170084155"><ele>124.6</ele><time>2026-04-08T16:45:24.985Z</time></trkpt><trkpt lat="44.817850042843794" lon="4.73177363111491"><ele>124.8</ele><time>2026-04-08T16:45:26.984Z</time></trkpt><trkpt lat="44.81785696980435" lon="4.731910810659287"><ele>125.0</ele><time>2026-04-08T16:45:28.984Z</time></trkpt><trkpt lat="44.81786629481497" lon="4.7320468009004815"><ele>125.0</ele><time>2026-04-08T16:45:30.984Z</time></trkpt><trkpt lat="44.81787820040037" lon="4.732190390439928"><ele>125.0</ele><time>2026-04-08T16:45:32.984Z</time></trkpt><trkpt lat="44.81788671582449" lon="4.732334369241006"><ele>125.0</ele><time>2026-04-08T16:45:34.983Z</time></trkpt><trkpt lat="44.81789106677341" lon="4.73247883642357"><ele>125.0</ele><time>2026-04-08T16:45:36.983Z</time></trkpt><trkpt lat="44.81790378254686" lon="4.732622073819796"><ele>125.0</ele><time>2026-04-08T16:45:38.983Z</time></trkpt><trkpt lat="44.81790592167419" lon="4.73276403689668"><ele>125.2</ele><time>2026-04-08T16:45:40.983Z</time></trkpt><trkpt lat="44.81791599129333" lon="4.73290178112458"><ele>125.4</ele><time>2026-04-08T16:45:42.983Z</time></trkpt><trkpt lat="44.81793115953667" lon="4.733026240416402"><ele>125.6</ele><time>2026-04-08T16:45:44.983Z</time></trkpt><trkpt lat="44.817933936831636" lon="4.733138474894397"><ele>125.8</ele><time>2026-04-08T16:45:46.983Z</time></trkpt><trkpt lat="44.81793787890047" lon="4.73326278863949"><ele>126.0</ele><time>2026-04-08T16:45:48.983Z</time></trkpt><trkpt lat="44.81794832262162" lon="4.733397389813836"><ele>126.0</ele><time>2026-04-08T16:45:50.983Z</time></trkpt><trkpt lat="44.81796069626185" lon="4.73354242883152"><ele>126.0</ele><time>2026-04-08T16:45:52.982Z</time></trkpt><trkpt lat="44.81796522034481" lon="4.733671641179883"><ele>126.0</ele><time>2026-04-08T16:45:54.982Z</time></trkpt><trkpt lat="44.81797293165474" lon="4.73380244444238"><ele>126.0</ele><time>2026-04-08T16:45:56.982Z</time></trkpt><trkpt lat="44.817983752721446" lon="4.73392539204594"><ele>126.0</ele><time>2026-04-08T16:45:58.982Z</time></trkpt><trkpt lat="44.81799192378566" lon="4.7340509616852415"><ele>125.19999999999999</ele><time>2026-04-08T16:46:00.982Z</time></trkpt><trkpt lat="44.8179983607011" lon="4.7341831833638315"><ele>124.39999999999999</ele><time>2026-04-08T16:46:02.982Z</time></trkpt><trkpt lat="44.818000391218526" lon="4.734315438092087"><ele>123.6</ele><time>2026-04-08T16:46:04.982Z</time></trkpt><trkpt lat="44.81800724733037" lon="4.734444345150985"><ele>122.8</ele><time>2026-04-08T16:46:06.982Z</time></trkpt><trkpt lat="44.818002701441664" lon="4.73456581530012"><ele>122.0</ele><time>2026-04-08T16:46:08.982Z</time></trkpt><trkpt lat="44.81801122365041" lon="4.734686238028827"><ele>121.99999999999999</ele><time>2026-04-08T16:46:10.982Z</time></trkpt><trkpt lat="44.817999921236336" lon="4.734810339600759"><ele>122.0</ele><time>2026-04-08T16:46:12.982Z</time></trkpt><trkpt lat="44.81799163168767" lon="4.734942379802048"><ele>122.0</ele><time>2026-04-08T16:46:14.982Z</time></trkpt><trkpt lat="44.81796640313694" lon="4.7350645375260685"><ele>122.0</ele><time>2026-04-08T16:46:16.982Z</time></trkpt><trkpt lat="44.81794565389076" lon="4.735176203860129"><ele>121.99999999999999</ele><time>2026-04-08T16:46:18.982Z</time></trkpt><trkpt lat="44.81791596219846" lon="4.735283662913482"><ele>122.0</ele><time>2026-04-08T16:46:20.982Z</time></trkpt><trkpt lat="44.817889102717146" lon="4.7353783444956825"><ele>121.66666666666666</ele><time>2026-04-08T16:46:22.982Z</time></trkpt><trkpt lat="44.81785626211685" lon="4.735465093534462"><ele>121.33333333333333</ele><time>2026-04-08T16:46:24.982Z</time></trkpt><trkpt lat="44.81785152737816" lon="4.73558821101521"><ele>121.0</ele><time>2026-04-08T16:46:27.982Z</time></trkpt><trkpt lat="44.8178165196857" lon="4.735680817716719"><ele>120.66666666666666</ele><time>2026-04-08T16:46:29.982Z</time></trkpt><trkpt lat="44.81777496680666" lon="4.7358026474361345"><ele>120.33333333333333</ele><time>2026-04-08T16:46:31.982Z</time></trkpt><trkpt lat="44.81774578506478" lon="4.735921966448453"><ele>120.0</ele><time>2026-04-08T16:46:33.982Z</time></trkpt><trkpt lat="44.81771032095601" lon="4.736043934809812"><ele>120.0</ele><time>2026-04-08T16:46:35.982Z</time></trkpt><trkpt lat="44.81768520527888" lon="4.736144776226956"><ele>120.0</ele><time>2026-04-08T16:46:37.981Z</time></trkpt><trkpt lat="44.81765516983459" lon="4.73626338610004"><ele>120.0</ele><time>2026-04-08T16:46:39.982Z</time></trkpt><trkpt lat="44.81762653522809" lon="4.7363680451528465"><ele>120.0</ele><time>2026-04-08T16:46:41.982Z</time></trkpt><trkpt lat="44.817604639361704" lon="4.736494524959653"><ele>120.0</ele><time>2026-04-08T16:46:43.981Z</time></trkpt><trkpt lat="44.81758949242385" lon="4.736606869617851"><ele>120.0</ele><time>2026-04-08T16:46:45.982Z</time></trkpt><trkpt lat="44.81758868733511" lon="4.736736566949042"><ele>122.0</ele><time>2026-04-08T16:46:47.982Z</time></trkpt><trkpt lat="44.8175693432897" lon="4.736856372485884"><ele>124.0</ele><time>2026-04-08T16:46:49.982Z</time></trkpt><trkpt lat="44.8175684511097" lon="4.736982722474585"><ele>126.0</ele><time>2026-04-08T16:46:51.982Z</time></trkpt><trkpt lat="44.817572158682715" lon="4.737106489991418"><ele>128.0</ele><time>2026-04-08T16:46:53.982Z</time></trkpt><trkpt lat="44.81757912177295" lon="4.7372331421935145"><ele>130.0</ele><time>2026-04-08T16:46:55.982Z</time></trkpt><trkpt lat="44.81759410006329" lon="4.737361964544479"><ele>132.0</ele><time>2026-04-08T16:46:57.982Z</time></trkpt><trkpt lat="44.81760585760373" lon="4.737493846493859"><ele>132.0</ele><time>2026-04-08T16:46:59.982Z</time></trkpt><trkpt lat="44.817625679751686" lon="4.7376236412096935"><ele>132.0</ele><time>2026-04-08T16:47:01.982Z</time></trkpt><trkpt lat="44.817656654556174" lon="4.737737784909197"><ele>132.0</ele><time>2026-04-08T16:47:03.982Z</time></trkpt><trkpt lat="44.81768265406174" lon="4.737876764590007"><ele>132.0</ele><time>2026-04-08T16:47:05.982Z</time></trkpt><trkpt lat="44.81770897603595" lon="4.737992410882081"><ele>132.0</ele><time>2026-04-08T16:47:07.982Z</time></trkpt><trkpt lat="44.81773336738886" lon="4.738116812743236"><ele>129.83333333333334</ele><time>2026-04-08T16:47:09.982Z</time></trkpt><trkpt lat="44.81775860159235" lon="4.738234618335366"><ele>127.66666666666666</ele><time>2026-04-08T16:47:11.982Z</time></trkpt><trkpt lat="44.81777457856365" lon="4.738372767736246"><ele>125.5</ele><time>2026-04-08T16:47:13.982Z</time></trkpt><trkpt lat="44.81777757498301" lon="4.738488900806696"><ele>123.33333333333333</ele><time>2026-04-08T16:47:15.982Z</time></trkpt><trkpt lat="44.81777150873433" lon="4.738605885868399"><ele>121.16666666666666</ele><time>2026-04-08T16:47:17.982Z</time></trkpt><trkpt lat="44.8177725062043" lon="4.738710763889654"><ele>119.0</ele><time>2026-04-08T16:47:19.982Z</time></trkpt><trkpt lat="44.81776490176632" lon="4.738806577231349"><ele>118.99999999999999</ele><time>2026-04-08T16:47:21.982Z</time></trkpt><trkpt lat="44.81773699202279" lon="4.73889389050955"><ele>119.0</ele><time>2026-04-08T16:47:23.982Z</time></trkpt><trkpt lat="44.81770947518395" lon="4.738995321287101"><ele>119.0</ele><time>2026-04-08T16:47:25.982Z</time></trkpt><trkpt lat="44.81766521147489" lon="4.73908492915739"><ele>119.0</ele><time>2026-04-08T16:47:27.982Z</time></trkpt><trkpt lat="44.81761757590339" lon="4.7391616852576846"><ele>118.99999999999999</ele><time>2026-04-08T16:47:29.982Z</time></trkpt><trkpt lat="44.817562705180855" lon="4.739254007223489"><ele>119.0</ele><time>2026-04-08T16:47:31.982Z</time></trkpt><trkpt lat="44.817504082485556" lon="4.739337200610893"><ele>119.42857142857143</ele><time>2026-04-08T16:47:33.982Z</time></trkpt><trkpt lat="44.81744875005829" lon="4.739407672777641"><ele>119.85714285714286</ele><time>2026-04-08T16:47:35.982Z</time></trkpt><trkpt lat="44.81738689171443" lon="4.739503713715752"><ele>120.28571428571428</ele><time>2026-04-08T16:47:38.982Z</time></trkpt><trkpt lat="44.81733654568402" lon="4.739569082210724"><ele>120.71428571428571</ele><time>2026-04-08T16:47:40.982Z</time></trkpt><trkpt lat="44.817282069362605" lon="4.739626540789283"><ele>121.14285714285714</ele><time>2026-04-08T16:47:42.982Z</time></trkpt><trkpt lat="44.8172323399873" lon="4.739692073881992"><ele>121.57142857142856</ele><time>2026-04-08T16:47:44.982Z</time></trkpt><trkpt lat="44.81718042391004" lon="4.7397661041150085"><ele>121.99999999999999</ele><time>2026-04-08T16:47:46.982Z</time></trkpt><trkpt lat="44.81711070066735" lon="4.739843991388264"><ele>121.99999999999999</ele><time>2026-04-08T16:47:48.982Z</time></trkpt><trkpt lat="44.8170493731144" lon="4.739915725476141"><ele>122.0</ele><time>2026-04-08T16:47:50.982Z</time></trkpt><trkpt lat="44.81698303121648" lon="4.739991603086635"><ele>121.99999999999999</ele><time>2026-04-08T16:47:52.982Z</time></trkpt><trkpt lat="44.81694479294975" lon="4.740081011053936"><ele>121.99999999999999</ele><time>2026-04-08T16:47:54.982Z</time></trkpt><trkpt lat="44.816906597534505" lon="4.7401680615548445"><ele>122.0</ele><time>2026-04-08T16:47:56.982Z</time></trkpt><trkpt lat="44.81686797833196" lon="4.740251860214314"><ele>121.99999999999999</ele><time>2026-04-08T16:47:58.982Z</time></trkpt><trkpt lat="44.816837737797776" lon="4.740332388450828"><ele>121.99999999999999</ele><time>2026-04-08T16:48:00.982Z</time></trkpt><trkpt lat="44.816795604862335" lon="4.74043679511111"><ele>122.99999999999999</ele><time>2026-04-08T16:48:03.982Z</time></trkpt><trkpt lat="44.816763803699445" lon="4.7405638070762075"><ele>124.0</ele><time>2026-04-08T16:48:06.982Z</time></trkpt><trkpt lat="44.81672977548984" lon="4.740661079905247"><ele>125.0</ele><time>2026-04-08T16:48:08.982Z</time></trkpt><trkpt lat="44.816693878102335" lon="4.740754225839294"><ele>126.0</ele><time>2026-04-08T16:48:10.982Z</time></trkpt><trkpt lat="44.81666316800787" lon="4.740852801770756"><ele>126.99999999999999</ele><time>2026-04-08T16:48:12.982Z</time></trkpt><trkpt lat="44.81663466952952" lon="4.740952073476528"><ele>128.0</ele><time>2026-04-08T16:48:14.982Z</time></trkpt><trkpt lat="44.81661007572268" lon="4.741051843337038"><ele>128.0</ele><time>2026-04-08T16:48:16.982Z</time></trkpt><trkpt lat="44.81657443461318" lon="4.741147820806364"><ele>127.99999999999999</ele><time>2026-04-08T16:48:18.982Z</time></trkpt><trkpt lat="44.81653683938055" lon="4.741245729112829"><ele>128.0</ele><time>2026-04-08T16:48:20.982Z</time></trkpt><trkpt lat="44.81651391407892" lon="4.741340136770908"><ele>128.0</ele><time>2026-04-08T16:48:22.982Z</time></trkpt><trkpt lat="44.81649319929378" lon="4.741435343247812"><ele>127.99999999999999</ele><time>2026-04-08T16:48:24.982Z</time></trkpt><trkpt lat="44.81647371408406" lon="4.741521968898464"><ele>128.0</ele><time>2026-04-08T16:48:26.981Z</time></trkpt><trkpt lat="44.81645772170156" lon="4.741628364886325"><ele>128.0</ele><time>2026-04-08T16:48:28.981Z</time></trkpt><trkpt lat="44.8164311539241" lon="4.74176878622359"><ele>128.16666666666666</ele><time>2026-04-08T16:48:31.981Z</time></trkpt><trkpt lat="44.81641810362696" lon="4.741883240134653"><ele>128.33333333333331</ele><time>2026-04-08T16:48:33.981Z</time></trkpt><trkpt lat="44.816410450689965" lon="4.741993489097382"><ele>128.5</ele><time>2026-04-08T16:48:35.981Z</time></trkpt><trkpt lat="44.816409255937124" lon="4.742101325362366"><ele>128.66666666666666</ele><time>2026-04-08T16:48:37.981Z</time></trkpt><trkpt lat="44.816410550492016" lon="4.742213126830154"><ele>128.83333333333334</ele><time>2026-04-08T16:48:39.981Z</time></trkpt><trkpt lat="44.816405789379985" lon="4.742307643028342"><ele>129.0</ele><time>2026-04-08T16:48:41.981Z</time></trkpt><trkpt lat="44.816412972409545" lon="4.742406788326384"><ele>128.99999999999997</ele><time>2026-04-08T16:48:43.981Z</time></trkpt><trkpt lat="44.81641095687054" lon="4.742499186594262"><ele>129.0</ele><time>2026-04-08T16:48:45.981Z</time></trkpt><trkpt lat="44.81641648225725" lon="4.742611329544072"><ele>129.0</ele><time>2026-04-08T16:48:47.981Z</time></trkpt><trkpt lat="44.81641387501775" lon="4.74271952263845"><ele>129.0</ele><time>2026-04-08T16:48:49.981Z</time></trkpt><trkpt lat="44.81642116497645" lon="4.742828453735619"><ele>129.0</ele><time>2026-04-08T16:48:51.981Z</time></trkpt><trkpt lat="44.81641850201602" lon="4.742930563537578"><ele>128.99999999999997</ele><time>2026-04-08T16:48:53.981Z</time></trkpt><trkpt lat="44.816412302148876" lon="4.7430308565494155"><ele>129.0</ele><time>2026-04-08T16:48:55.981Z</time></trkpt><trkpt lat="44.81642260014556" lon="4.743131102524816"><ele>128.83333333333334</ele><time>2026-04-08T16:48:57.981Z</time></trkpt><trkpt lat="44.81642067685957" lon="4.743235226321847"><ele>128.66666666666666</ele><time>2026-04-08T16:48:59.981Z</time></trkpt><trkpt lat="44.81642117519949" lon="4.7433400783758355"><ele>128.5</ele><time>2026-04-08T16:49:01.981Z</time></trkpt><trkpt lat="44.81642750014325" lon="4.743448327709012"><ele>128.33333333333331</ele><time>2026-04-08T16:49:03.981Z</time></trkpt><trkpt lat="44.81642539695326" lon="4.743572153063253"><ele>128.16666666666666</ele><time>2026-04-08T16:49:05.981Z</time></trkpt><trkpt lat="44.81642040130544" lon="4.743681522167732"><ele>128.0</ele><time>2026-04-08T16:49:07.981Z</time></trkpt><trkpt lat="44.81641850075159" lon="4.7437938422899135"><ele>127.66666666666666</ele><time>2026-04-08T16:49:09.981Z</time></trkpt><trkpt lat="44.816413456320255" lon="4.743916067296563"><ele>127.33333333333333</ele><time>2026-04-08T16:49:11.981Z</time></trkpt><trkpt lat="44.816401373947286" lon="4.744038163215201"><ele>127.0</ele><time>2026-04-08T16:49:13.981Z</time></trkpt><trkpt lat="44.816379025859185" lon="4.744137703990021"><ele>126.66666666666666</ele><time>2026-04-08T16:49:15.981Z</time></trkpt><trkpt lat="44.81636234345306" lon="4.744257296213461"><ele>126.33333333333333</ele><time>2026-04-08T16:49:17.981Z</time></trkpt><trkpt lat="44.81633972033469" lon="4.744370043109968"><ele>126.0</ele><time>2026-04-08T16:49:19.981Z</time></trkpt><trkpt lat="44.81631728422169" lon="4.744476071734227"><ele>125.0</ele><time>2026-04-08T16:49:21.981Z</time></trkpt><trkpt lat="44.816298565029115" lon="4.744590861393307"><ele>124.0</ele><time>2026-04-08T16:49:23.981Z</time></trkpt><trkpt lat="44.81628473267518" lon="4.74470285753271"><ele>123.0</ele><time>2026-04-08T16:49:25.981Z</time></trkpt><trkpt lat="44.8162662856916" lon="4.744818557468483"><ele>122.0</ele><time>2026-04-08T16:49:27.981Z</time></trkpt><trkpt lat="44.81624191016652" lon="4.744929863432332"><ele>121.0</ele><time>2026-04-08T16:49:29.981Z</time></trkpt><trkpt lat="44.81622727399165" lon="4.745043996364384"><ele>120.0</ele><time>2026-04-08T16:49:31.981Z</time></trkpt><trkpt lat="44.816206036026664" lon="4.745160013563505"><ele>119.16666666666667</ele><time>2026-04-08T16:49:33.981Z</time></trkpt><trkpt lat="44.81619488005707" lon="4.745268090791978"><ele>118.33333333333334</ele><time>2026-04-08T16:49:35.981Z</time></trkpt><trkpt lat="44.81617546599493" lon="4.7453804282365954"><ele>117.5</ele><time>2026-04-08T16:49:37.981Z</time></trkpt><trkpt lat="44.816145964664976" lon="4.745487531896313"><ele>116.66666666666667</ele><time>2026-04-08T16:49:39.981Z</time></trkpt><trkpt lat="44.816130156608985" lon="4.7456010968963565"><ele>115.83333333333334</ele><time>2026-04-08T16:49:41.981Z</time></trkpt><trkpt lat="44.81611188546675" lon="4.74571963143169"><ele>115.0</ele><time>2026-04-08T16:49:43.981Z</time></trkpt><trkpt lat="44.81608486102087" lon="4.745838498674415"><ele>115.00000000000001</ele><time>2026-04-08T16:49:45.981Z</time></trkpt><trkpt lat="44.81607521897045" lon="4.745944807798361"><ele>115.0</ele><time>2026-04-08T16:49:47.981Z</time></trkpt><trkpt lat="44.8160585079866" lon="4.7460634497228975"><ele>115.0</ele><time>2026-04-08T16:49:49.981Z</time></trkpt><trkpt lat="44.81604466412243" lon="4.74618603547813"><ele>115.0</ele><time>2026-04-08T16:49:51.981Z</time></trkpt><trkpt lat="44.81604367771668" lon="4.746302842314246"><ele>115.00000000000001</ele><time>2026-04-08T16:49:53.981Z</time></trkpt><trkpt lat="44.816052678579815" lon="4.7464132069318525"><ele>115.0</ele><time>2026-04-08T16:49:55.981Z</time></trkpt><trkpt lat="44.81606808224029" lon="4.746533862781332"><ele>115.16666666666667</ele><time>2026-04-08T16:49:57.981Z</time></trkpt><trkpt lat="44.81608195279447" lon="4.746647644870911"><ele>115.33333333333334</ele><time>2026-04-08T16:49:59.981Z</time></trkpt><trkpt lat="44.81609155493255" lon="4.746755376513213"><ele>115.5</ele><time>2026-04-08T16:50:01.981Z</time></trkpt><trkpt lat="44.816107827976936" lon="4.7468754525714845"><ele>115.66666666666666</ele><time>2026-04-08T16:50:03.981Z</time></trkpt><trkpt lat="44.81614704505643" lon="4.746996197354052"><ele>115.83333333333333</ele><time>2026-04-08T16:50:05.981Z</time></trkpt><trkpt lat="44.816170032986534" lon="4.7471153787468685"><ele>116.0</ele><time>2026-04-08T16:50:07.981Z</time></trkpt><trkpt lat="44.81619837849524" lon="4.747242432408473"><ele>116.0</ele><time>2026-04-08T16:50:09.981Z</time></trkpt><trkpt lat="44.816234094230516" lon="4.747369491184745"><ele>116.0</ele><time>2026-04-08T16:50:11.981Z</time></trkpt><trkpt lat="44.816270240804656" lon="4.747498396193477"><ele>116.0</ele><time>2026-04-08T16:50:13.981Z</time></trkpt><trkpt lat="44.816304999783505" lon="4.747623067650887"><ele>116.0</ele><time>2026-04-08T16:50:15.981Z</time></trkpt><trkpt lat="44.816340154758" lon="4.74774948877534"><ele>116.0</ele><time>2026-04-08T16:50:17.981Z</time></trkpt><trkpt lat="44.816373623755304" lon="4.747870869486709"><ele>117.49999999999999</ele><time>2026-04-08T16:50:19.981Z</time></trkpt><trkpt lat="44.81640625317495" lon="4.747985968419844"><ele>119.0</ele><time>2026-04-08T16:50:21.981Z</time></trkpt><trkpt lat="44.8164370478933" lon="4.748102203335049"><ele>120.5</ele><time>2026-04-08T16:50:23.981Z</time></trkpt><trkpt lat="44.816456855068104" lon="4.7482309980716755"><ele>122.0</ele><time>2026-04-08T16:50:25.981Z</time></trkpt><trkpt lat="44.816470335337165" lon="4.748343985324665"><ele>123.49999999999999</ele><time>2026-04-08T16:50:27.981Z</time></trkpt><trkpt lat="44.81648359453774" lon="4.748472969454883"><ele>125.0</ele><time>2026-04-08T16:50:29.981Z</time></trkpt><trkpt lat="44.81649885262491" lon="4.748612522872429"><ele>125.83333333333333</ele><time>2026-04-08T16:50:31.981Z</time></trkpt><trkpt lat="44.81650870244971" lon="4.748736706505814"><ele>126.66666666666666</ele><time>2026-04-08T16:50:33.981Z</time></trkpt><trkpt lat="44.81651572793377" lon="4.748848682233598"><ele>127.5</ele><time>2026-04-08T16:50:35.981Z</time></trkpt><trkpt lat="44.816527252205454" lon="4.74898053686966"><ele>128.33333333333334</ele><time>2026-04-08T16:50:37.981Z</time></trkpt><trkpt lat="44.81654099729986" lon="4.749108508475304"><ele>129.16666666666669</ele><time>2026-04-08T16:50:39.981Z</time></trkpt><trkpt lat="44.81655390755261" lon="4.749222935891725"><ele>130.0</ele><time>2026-04-08T16:50:41.981Z</time></trkpt><trkpt lat="44.81656359535323" lon="4.749348446227745"><ele>130.8</ele><time>2026-04-08T16:50:43.981Z</time></trkpt><trkpt lat="44.816571806680784" lon="4.749487689594361"><ele>131.6</ele><time>2026-04-08T16:50:45.981Z</time></trkpt><trkpt lat="44.81658279308354" lon="4.749626256316591"><ele>132.4</ele><time>2026-04-08T16:50:47.981Z</time></trkpt><trkpt lat="44.81660291914329" lon="4.749757217237619"><ele>133.2</ele><time>2026-04-08T16:50:49.981Z</time></trkpt><trkpt lat="44.81662527277087" lon="4.749878193556004"><ele>134.0</ele><time>2026-04-08T16:50:51.981Z</time></trkpt><trkpt lat="44.81665620402316" lon="4.750003007145161"><ele>134.0</ele><time>2026-04-08T16:50:53.981Z</time></trkpt><trkpt lat="44.81669454543138" lon="4.750133048249292"><ele>134.0</ele><time>2026-04-08T16:50:55.981Z</time></trkpt><trkpt lat="44.81672467026333" lon="4.750242946792937"><ele>134.0</ele><time>2026-04-08T16:50:57.982Z</time></trkpt><trkpt lat="44.81676366989958" lon="4.750346459184718"><ele>134.0</ele><time>2026-04-08T16:50:59.981Z</time></trkpt><trkpt lat="44.81680325438063" lon="4.750447379152085"><ele>134.0</ele><time>2026-04-08T16:51:01.981Z</time></trkpt><trkpt lat="44.81684997189007" lon="4.7505563276424"><ele>134.0</ele><time>2026-04-08T16:51:03.981Z</time></trkpt><trkpt lat="44.81690403086361" lon="4.750674902672552"><ele>133.4</ele><time>2026-04-08T16:51:05.981Z</time></trkpt><trkpt lat="44.816949754398365" lon="4.750767535246257"><ele>132.8</ele><time>2026-04-08T16:51:07.981Z</time></trkpt><trkpt lat="44.81703076914734" lon="4.750862658976395"><ele>132.2</ele><time>2026-04-08T16:51:09.981Z</time></trkpt><trkpt lat="44.81709191190466" lon="4.750958508420713"><ele>131.6</ele><time>2026-04-08T16:51:11.981Z</time></trkpt><trkpt lat="44.81716353880484" lon="4.751065977306435"><ele>131.0</ele><time>2026-04-08T16:51:13.981Z</time></trkpt><trkpt lat="44.81721654717558" lon="4.75115872438386"><ele>131.0</ele><time>2026-04-08T16:51:15.981Z</time></trkpt><trkpt lat="44.8172728912342" lon="4.751250747249076"><ele>131.0</ele><time>2026-04-08T16:51:17.981Z</time></trkpt><trkpt lat="44.81732593774697" lon="4.751356053392587"><ele>131.0</ele><time>2026-04-08T16:51:19.981Z</time></trkpt><trkpt lat="44.81738761029598" lon="4.751463997343964"><ele>131.0</ele><time>2026-04-08T16:51:21.981Z</time></trkpt><trkpt lat="44.817443054957096" lon="4.751573475155331"><ele>131.0</ele><time>2026-04-08T16:51:23.981Z</time></trkpt><trkpt lat="44.81749221448439" lon="4.751688346879728"><ele>131.0</ele><time>2026-04-08T16:51:25.981Z</time></trkpt><trkpt lat="44.817533065626435" lon="4.751804886913085"><ele>131.0</ele><time>2026-04-08T16:51:27.981Z</time></trkpt><trkpt lat="44.81759658796005" lon="4.751913291343221"><ele>131.0</ele><time>2026-04-08T16:51:29.981Z</time></trkpt><trkpt lat="44.817645886503215" lon="4.752021065650346"><ele>131.0</ele><time>2026-04-08T16:51:31.981Z</time></trkpt><trkpt lat="44.81769588092888" lon="4.75213577166701"><ele>131.0</ele><time>2026-04-08T16:51:33.981Z</time></trkpt><trkpt lat="44.817742383236066" lon="4.752247237437697"><ele>129.8</ele><time>2026-04-08T16:51:35.981Z</time></trkpt><trkpt lat="44.81779578389105" lon="4.752352063723937"><ele>128.6</ele><time>2026-04-08T16:51:37.981Z</time></trkpt><trkpt lat="44.81784817580621" lon="4.752466077480072"><ele>127.4</ele><time>2026-04-08T16:51:39.981Z</time></trkpt><trkpt lat="44.817901040367545" lon="4.752564412332875"><ele>126.2</ele><time>2026-04-08T16:51:41.981Z</time></trkpt><trkpt lat="44.817952145532246" lon="4.752673942167282"><ele>125.0</ele><time>2026-04-08T16:51:43.981Z</time></trkpt><trkpt lat="44.818008038593014" lon="4.752796498081074"><ele>125.0</ele><time>2026-04-08T16:51:45.981Z</time></trkpt><trkpt lat="44.81806036329759" lon="4.752917479270315"><ele>125.0</ele><time>2026-04-08T16:51:47.981Z</time></trkpt><trkpt lat="44.8181184011961" lon="4.753046481690945"><ele>125.0</ele><time>2026-04-08T16:51:49.981Z</time></trkpt><trkpt lat="44.81817574345927" lon="4.753182674465428"><ele>125.0</ele><time>2026-04-08T16:51:51.98Z</time></trkpt><trkpt lat="44.818230737972286" lon="4.75330770158483"><ele>125.0</ele><time>2026-04-08T16:51:53.98Z</time></trkpt><trkpt lat="44.818283131709606" lon="4.75344018012315"><ele>128.0</ele><time>2026-04-08T16:51:55.98Z</time></trkpt><trkpt lat="44.81833365442886" lon="4.753571804889466"><ele>131.0</ele><time>2026-04-08T16:51:57.98Z</time></trkpt><trkpt lat="44.818394472936966" lon="4.753685388890967"><ele>134.0</ele><time>2026-04-08T16:51:59.98Z</time></trkpt><trkpt lat="44.818455376494796" lon="4.753804225470938"><ele>137.0</ele><time>2026-04-08T16:52:01.98Z</time></trkpt><trkpt lat="44.81850833379176" lon="4.753920256418279"><ele>140.0</ele><time>2026-04-08T16:52:03.98Z</time></trkpt><trkpt lat="44.81856142702048" lon="4.7540317415183075"><ele>135.4</ele><time>2026-04-08T16:52:05.98Z</time></trkpt><trkpt lat="44.81861381755112" lon="4.754141714048384"><ele>130.8</ele><time>2026-04-08T16:52:07.98Z</time></trkpt><trkpt lat="44.81865172103476" lon="4.754254050898184"><ele>126.19999999999999</ele><time>2026-04-08T16:52:09.98Z</time></trkpt><trkpt lat="44.81870582431348" lon="4.754360296543667"><ele>121.6</ele><time>2026-04-08T16:52:11.98Z</time></trkpt><trkpt lat="44.81874995239812" lon="4.754474903650486"><ele>117.0</ele><time>2026-04-08T16:52:13.98Z</time></trkpt><trkpt lat="44.818782099196596" lon="4.754594216148393"><ele>117.0</ele><time>2026-04-08T16:52:15.98Z</time></trkpt><trkpt lat="44.81881192587433" lon="4.7547080765650165"><ele>116.99999999999999</ele><time>2026-04-08T16:52:17.98Z</time></trkpt><trkpt lat="44.818841624490744" lon="4.754836907518111"><ele>116.99999999999999</ele><time>2026-04-08T16:52:19.98Z</time></trkpt><trkpt lat="44.81887248192506" lon="4.754973649575438"><ele>117.0</ele><time>2026-04-08T16:52:21.98Z</time></trkpt><trkpt lat="44.81889789992112" lon="4.755101316159464"><ele>117.0</ele><time>2026-04-08T16:52:23.98Z</time></trkpt><trkpt lat="44.8189341850658" lon="4.755224302948317"><ele>119.0</ele><time>2026-04-08T16:52:25.98Z</time></trkpt><trkpt lat="44.818949708801775" lon="4.75535011589346"><ele>120.99999999999999</ele><time>2026-04-08T16:52:27.98Z</time></trkpt><trkpt lat="44.81898662859597" lon="4.755477220711136"><ele>122.99999999999999</ele><time>2026-04-08T16:52:29.98Z</time></trkpt><trkpt lat="44.81900651868347" lon="4.755606674499938"><ele>125.0</ele><time>2026-04-08T16:52:31.98Z</time></trkpt><trkpt lat="44.81903491222417" lon="4.755725582708944"><ele>127.0</ele><time>2026-04-08T16:52:33.98Z</time></trkpt><trkpt lat="44.81906783667237" lon="4.755847081519088"><ele>127.00000000000001</ele><time>2026-04-08T16:52:35.98Z</time></trkpt><trkpt lat="44.819091290464286" lon="4.755962894105076"><ele>127.0</ele><time>2026-04-08T16:52:37.98Z</time></trkpt><trkpt lat="44.819114489480874" lon="4.756081158233031"><ele>127.0</ele><time>2026-04-08T16:52:39.98Z</time></trkpt><trkpt lat="44.81912890017102" lon="4.756191906096018"><ele>127.0</ele><time>2026-04-08T16:52:41.98Z</time></trkpt><trkpt lat="44.81916350569583" lon="4.75631154923996"><ele>127.00000000000001</ele><time>2026-04-08T16:52:43.98Z</time></trkpt><trkpt lat="44.81918091428924" lon="4.756439753620518"><ele>127.0</ele><time>2026-04-08T16:52:45.98Z</time></trkpt><trkpt lat="44.81919914936398" lon="4.7565654550959815"><ele>128.4</ele><time>2026-04-08T16:52:47.98Z</time></trkpt><trkpt lat="44.819215589392556" lon="4.756691965814334"><ele>129.79999999999998</ele><time>2026-04-08T16:52:49.98Z</time></trkpt><trkpt lat="44.81922845852272" lon="4.756817905439601"><ele>131.2</ele><time>2026-04-08T16:52:51.98Z</time></trkpt><trkpt lat="44.81923398324433" lon="4.756942886278611"><ele>132.6</ele><time>2026-04-08T16:52:53.98Z</time></trkpt><trkpt lat="44.81922680815262" lon="4.757075698572902"><ele>134.0</ele><time>2026-04-08T16:52:55.98Z</time></trkpt><trkpt lat="44.81922126506705" lon="4.757210104221969"><ele>134.33333333333331</ele><time>2026-04-08T16:52:57.981Z</time></trkpt><trkpt lat="44.81921655947225" lon="4.75734336192679"><ele>134.66666666666666</ele><time>2026-04-08T16:52:59.981Z</time></trkpt><trkpt lat="44.81921857420202" lon="4.757474175060491"><ele>135.0</ele><time>2026-04-08T16:53:01.981Z</time></trkpt><trkpt lat="44.81920814156279" lon="4.757583744909153"><ele>135.33333333333334</ele><time>2026-04-08T16:53:03.98Z</time></trkpt><trkpt lat="44.81920032816063" lon="4.757699160497202"><ele>135.66666666666669</ele><time>2026-04-08T16:53:05.981Z</time></trkpt><trkpt lat="44.819200686587074" lon="4.75780367601001"><ele>136.0</ele><time>2026-04-08T16:53:07.98Z</time></trkpt><trkpt lat="44.81919470348075" lon="4.757921180478633"><ele>136.33333333333334</ele><time>2026-04-08T16:53:09.98Z</time></trkpt><trkpt lat="44.81920947164633" lon="4.758040798888047"><ele>136.66666666666669</ele><time>2026-04-08T16:53:11.98Z</time></trkpt><trkpt lat="44.819218720102945" lon="4.758154010419523"><ele>137.0</ele><time>2026-04-08T16:53:13.98Z</time></trkpt><trkpt lat="44.819246998916086" lon="4.7582747112023345"><ele>137.33333333333334</ele><time>2026-04-08T16:53:15.98Z</time></trkpt><trkpt lat="44.81927399589593" lon="4.758394641765295"><ele>137.66666666666666</ele><time>2026-04-08T16:53:17.98Z</time></trkpt><trkpt lat="44.81930326057642" lon="4.75851072873053"><ele>138.0</ele><time>2026-04-08T16:53:19.98Z</time></trkpt><trkpt lat="44.819335005414715" lon="4.758623155539922"><ele>132.83333333333334</ele><time>2026-04-08T16:53:21.98Z</time></trkpt><trkpt lat="44.81937958706803" lon="4.758734688706723"><ele>127.66666666666666</ele><time>2026-04-08T16:53:23.98Z</time></trkpt><trkpt lat="44.819412752920705" lon="4.758849628553377"><ele>122.5</ele><time>2026-04-08T16:53:25.98Z</time></trkpt><trkpt lat="44.81944589663098" lon="4.758959379695491"><ele>117.33333333333333</ele><time>2026-04-08T16:53:27.98Z</time></trkpt><trkpt lat="44.81947633605893" lon="4.759075707043877"><ele>112.16666666666666</ele><time>2026-04-08T16:53:29.98Z</time></trkpt><trkpt lat="44.81950806048955" lon="4.759195487928996"><ele>107.0</ele><time>2026-04-08T16:53:31.98Z</time></trkpt><trkpt lat="44.81953628339523" lon="4.759311070700613"><ele>107.49999999999999</ele><time>2026-04-08T16:53:33.98Z</time></trkpt><trkpt lat="44.81955381308252" lon="4.759436079102083"><ele>108.0</ele><time>2026-04-08T16:53:35.98Z</time></trkpt><trkpt lat="44.81954994275" lon="4.759551795590382"><ele>108.5</ele><time>2026-04-08T16:53:37.98Z</time></trkpt><trkpt lat="44.81956303779786" lon="4.759679582910761"><ele>109.0</ele><time>2026-04-08T16:53:39.98Z</time></trkpt><trkpt lat="44.81956669997267" lon="4.759805213307366"><ele>109.49999999999999</ele><time>2026-04-08T16:53:41.98Z</time></trkpt><trkpt lat="44.8195614237817" lon="4.759932561327076"><ele>110.0</ele><time>2026-04-08T16:53:43.98Z</time></trkpt><trkpt lat="44.81956115619531" lon="4.760056343411256"><ele>109.99999999999999</ele><time>2026-04-08T16:53:45.98Z</time></trkpt><trkpt lat="44.81956805764453" lon="4.760173463297288"><ele>110.0</ele><time>2026-04-08T16:53:47.98Z</time></trkpt><trkpt lat="44.81956956186174" lon="4.760302586813672"><ele>110.0</ele><time>2026-04-08T16:53:49.98Z</time></trkpt><trkpt lat="44.81956947920823" lon="4.760421030840723"><ele>110.0</ele><time>2026-04-08T16:53:51.98Z</time></trkpt><trkpt lat="44.81956788719963" lon="4.760531088783133"><ele>109.99999999999999</ele><time>2026-04-08T16:53:53.98Z</time></trkpt><trkpt lat="44.81957884687727" lon="4.76064675700729"><ele>110.0</ele><time>2026-04-08T16:53:55.98Z</time></trkpt><trkpt lat="44.81957185975773" lon="4.760752380431685"><ele>109.99999999999999</ele><time>2026-04-08T16:53:57.98Z</time></trkpt><trkpt lat="44.81956360392613" lon="4.760852914955317"><ele>110.0</ele><time>2026-04-08T16:53:59.98Z</time></trkpt><trkpt lat="44.81957869117867" lon="4.760954260069056"><ele>110.0</ele><time>2026-04-08T16:54:01.98Z</time></trkpt><trkpt lat="44.81958717008227" lon="4.761061752814155"><ele>110.0</ele><time>2026-04-08T16:54:03.98Z</time></trkpt><trkpt lat="44.81960646067411" lon="4.761164206375123"><ele>109.99999999999999</ele><time>2026-04-08T16:54:05.98Z</time></trkpt><trkpt lat="44.819618720079276" lon="4.76125289540138"><ele>110.0</ele><time>2026-04-08T16:54:07.98Z</time></trkpt><trkpt lat="44.819645890057906" lon="4.761382143417065"><ele>110.99999999999999</ele><time>2026-04-08T16:54:10.98Z</time></trkpt><trkpt lat="44.81967446637007" lon="4.761517498333147"><ele>112.0</ele><time>2026-04-08T16:54:13.98Z</time></trkpt><trkpt lat="44.81969416745264" lon="4.761628275202334"><ele>113.0</ele><time>2026-04-08T16:54:15.98Z</time></trkpt><trkpt lat="44.81970816587957" lon="4.761744463917684"><ele>114.0</ele><time>2026-04-08T16:54:17.98Z</time></trkpt><trkpt lat="44.81972757130829" lon="4.761847642005533"><ele>114.99999999999999</ele><time>2026-04-08T16:54:19.98Z</time></trkpt><trkpt lat="44.819762862222966" lon="4.761954963648412"><ele>116.0</ele><time>2026-04-08T16:54:21.98Z</time></trkpt><trkpt lat="44.819787327945356" lon="4.762068268564953"><ele>117.33333333333333</ele><time>2026-04-08T16:54:23.98Z</time></trkpt><trkpt lat="44.81981331230665" lon="4.762182013570867"><ele>118.66666666666666</ele><time>2026-04-08T16:54:25.98Z</time></trkpt><trkpt lat="44.8198414789244" lon="4.762290886510618"><ele>120.0</ele><time>2026-04-08T16:54:27.98Z</time></trkpt><trkpt lat="44.81986743568172" lon="4.762413835611573"><ele>121.33333333333334</ele><time>2026-04-08T16:54:29.98Z</time></trkpt><trkpt lat="44.81989409644823" lon="4.762529744680718"><ele>122.66666666666667</ele><time>2026-04-08T16:54:31.98Z</time></trkpt><trkpt lat="44.8199202275058" lon="4.762642031277272"><ele>124.0</ele><time>2026-04-08T16:54:33.98Z</time></trkpt><trkpt lat="44.81994993145573" lon="4.762757652340399"><ele>125.16666666666667</ele><time>2026-04-08T16:54:35.98Z</time></trkpt><trkpt lat="44.81996470499786" lon="4.762870434710506"><ele>126.33333333333334</ele><time>2026-04-08T16:54:37.98Z</time></trkpt><trkpt lat="44.81998849895733" lon="4.76299088210432"><ele>127.5</ele><time>2026-04-08T16:54:39.98Z</time></trkpt><trkpt lat="44.82001401781466" lon="4.763111618046073"><ele>128.66666666666666</ele><time>2026-04-08T16:54:41.98Z</time></trkpt><trkpt lat="44.82003578269497" lon="4.763225352480094"><ele>129.83333333333331</ele><time>2026-04-08T16:54:43.98Z</time></trkpt><trkpt lat="44.82005094508815" lon="4.763344547093696"><ele>131.0</ele><time>2026-04-08T16:54:45.98Z</time></trkpt><trkpt lat="44.82006413563136" lon="4.763465685350001"><ele>131.83333333333331</ele><time>2026-04-08T16:54:47.98Z</time></trkpt><trkpt lat="44.820079906557034" lon="4.763584087721097"><ele>132.66666666666666</ele><time>2026-04-08T16:54:49.98Z</time></trkpt><trkpt lat="44.820094270024114" lon="4.763701025030354"><ele>133.5</ele><time>2026-04-08T16:54:51.98Z</time></trkpt><trkpt lat="44.820097988171405" lon="4.763824552143496"><ele>134.33333333333334</ele><time>2026-04-08T16:54:53.98Z</time></trkpt><trkpt lat="44.82011170695084" lon="4.763935963898592"><ele>135.16666666666669</ele><time>2026-04-08T16:54:55.98Z</time></trkpt><trkpt lat="44.82011810051263" lon="4.764059747752154"><ele>136.0</ele><time>2026-04-08T16:54:57.98Z</time></trkpt><trkpt lat="44.82011355054065" lon="4.76417368240576"><ele>136.0</ele><time>2026-04-08T16:54:59.98Z</time></trkpt><trkpt lat="44.82011769503125" lon="4.764290424959338"><ele>136.0</ele><time>2026-04-08T16:55:01.981Z</time></trkpt><trkpt lat="44.820115294143626" lon="4.764404631118052"><ele>136.0</ele><time>2026-04-08T16:55:03.981Z</time></trkpt><trkpt lat="44.820110073096444" lon="4.764514868471913"><ele>136.0</ele><time>2026-04-08T16:55:05.981Z</time></trkpt><trkpt lat="44.82010696047993" lon="4.764634666351721"><ele>136.0</ele><time>2026-04-08T16:55:07.98Z</time></trkpt><trkpt lat="44.82011028418882" lon="4.7647516330035"><ele>136.0</ele><time>2026-04-08T16:55:09.98Z</time></trkpt><trkpt lat="44.820098321310674" lon="4.764874159366505"><ele>136.0</ele><time>2026-04-08T16:55:11.98Z</time></trkpt><trkpt lat="44.82009621448553" lon="4.76499028335833"><ele>136.0</ele><time>2026-04-08T16:55:13.98Z</time></trkpt><trkpt lat="44.82010206206029" lon="4.765108694018873"><ele>136.0</ele><time>2026-04-08T16:55:15.98Z</time></trkpt><trkpt lat="44.82011158020201" lon="4.765223196890292"><ele>136.0</ele><time>2026-04-08T16:55:17.98Z</time></trkpt><trkpt lat="44.82013254193022" lon="4.765351987387118"><ele>136.0</ele><time>2026-04-08T16:55:19.98Z</time></trkpt><trkpt lat="44.820154723581496" lon="4.765480785331497"><ele>136.0</ele><time>2026-04-08T16:55:21.98Z</time></trkpt><trkpt lat="44.82017259120058" lon="4.7655928085179875"><ele>131.0</ele><time>2026-04-08T16:55:23.98Z</time></trkpt><trkpt lat="44.82019385919453" lon="4.765720290775084"><ele>126.0</ele><time>2026-04-08T16:55:25.98Z</time></trkpt><trkpt lat="44.820208807949705" lon="4.765846866873925"><ele>121.0</ele><time>2026-04-08T16:55:27.98Z</time></trkpt><trkpt lat="44.820229994409885" lon="4.765968240280285"><ele>116.0</ele><time>2026-04-08T16:55:29.98Z</time></trkpt><trkpt lat="44.82025287065596" lon="4.766090488441217"><ele>111.0</ele><time>2026-04-08T16:55:31.98Z</time></trkpt><trkpt lat="44.820277377717765" lon="4.7662133549953"><ele>111.0</ele><time>2026-04-08T16:55:33.98Z</time></trkpt><trkpt lat="44.82032346147852" lon="4.766321665779176"><ele>111.0</ele><time>2026-04-08T16:55:35.98Z</time></trkpt><trkpt lat="44.820355094379956" lon="4.766433734083871"><ele>111.0</ele><time>2026-04-08T16:55:37.98Z</time></trkpt><trkpt lat="44.820388609944054" lon="4.7665471609649055"><ele>111.0</ele><time>2026-04-08T16:55:39.98Z</time></trkpt><trkpt lat="44.82042520500901" lon="4.766657494447512"><ele>111.0</ele><time>2026-04-08T16:55:41.98Z</time></trkpt><trkpt lat="44.8204571985144" lon="4.76676738356712"><ele>111.0</ele><time>2026-04-08T16:55:43.98Z</time></trkpt><trkpt lat="44.820480835251296" lon="4.766870194623818"><ele>111.83333333333333</ele><time>2026-04-08T16:55:45.98Z</time></trkpt><trkpt lat="44.82051412272968" lon="4.766993670687502"><ele>112.66666666666666</ele><time>2026-04-08T16:55:47.98Z</time></trkpt><trkpt lat="44.82052505728816" lon="4.767107944109667"><ele>113.5</ele><time>2026-04-08T16:55:49.98Z</time></trkpt><trkpt lat="44.82054236578378" lon="4.767231213802317"><ele>114.33333333333333</ele><time>2026-04-08T16:55:51.98Z</time></trkpt><trkpt lat="44.82055309359895" lon="4.767354115928296"><ele>115.16666666666666</ele><time>2026-04-08T16:55:53.98Z</time></trkpt><trkpt lat="44.82056150702201" lon="4.76748108546195"><ele>116.0</ele><time>2026-04-08T16:55:55.98Z</time></trkpt><trkpt lat="44.82056721921794" lon="4.767591062304502"><ele>117.19999999999999</ele><time>2026-04-08T16:55:57.98Z</time></trkpt><trkpt lat="44.82057368634371" lon="4.767725426165782"><ele>118.39999999999999</ele><time>2026-04-08T16:55:59.98Z</time></trkpt><trkpt lat="44.82058009747078" lon="4.767860773266825"><ele>119.6</ele><time>2026-04-08T16:56:01.98Z</time></trkpt><trkpt lat="44.82057156827319" lon="4.767991766314878"><ele>120.8</ele><time>2026-04-08T16:56:03.98Z</time></trkpt><trkpt lat="44.8205792182173" lon="4.768124818588866"><ele>122.0</ele><time>2026-04-08T16:56:05.98Z</time></trkpt><trkpt lat="44.820597066589336" lon="4.768254237408523"><ele>122.0</ele><time>2026-04-08T16:56:07.98Z</time></trkpt><trkpt lat="44.820635944575834" lon="4.7683907876624"><ele>121.99999999999999</ele><time>2026-04-08T16:56:09.98Z</time></trkpt><trkpt lat="44.820673889527384" lon="4.768530796546037"><ele>121.99999999999999</ele><time>2026-04-08T16:56:11.98Z</time></trkpt><trkpt lat="44.82072818173452" lon="4.768659700738167"><ele>122.0</ele><time>2026-04-08T16:56:13.98Z</time></trkpt><trkpt lat="44.82075190895246" lon="4.768804058887155"><ele>122.0</ele><time>2026-04-08T16:56:15.98Z</time></trkpt><trkpt lat="44.820784344501334" lon="4.768934614988143"><ele>123.6</ele><time>2026-04-08T16:56:17.98Z</time></trkpt><trkpt lat="44.82081953346883" lon="4.769071376342855"><ele>125.19999999999999</ele><time>2026-04-08T16:56:19.98Z</time></trkpt><trkpt lat="44.820862475582764" lon="4.769187422677512"><ele>126.8</ele><time>2026-04-08T16:56:21.98Z</time></trkpt><trkpt lat="44.82087770851094" lon="4.769329624386651"><ele>128.4</ele><time>2026-04-08T16:56:23.98Z</time></trkpt><trkpt lat="44.82091166690405" lon="4.769454005122843"><ele>130.0</ele><time>2026-04-08T16:56:25.98Z</time></trkpt><trkpt lat="44.82095068652622" lon="4.769551459903826"><ele>130.4</ele><time>2026-04-08T16:56:27.98Z</time></trkpt><trkpt lat="44.82097383301476" lon="4.769677274746719"><ele>130.8</ele><time>2026-04-08T16:56:29.98Z</time></trkpt><trkpt lat="44.820997527598756" lon="4.769796963791162"><ele>131.2</ele><time>2026-04-08T16:56:31.98Z</time></trkpt><trkpt lat="44.82102953085379" lon="4.769917529015228"><ele>131.6</ele><time>2026-04-08T16:56:33.98Z</time></trkpt><trkpt lat="44.82106702438417" lon="4.770046641713917"><ele>132.0</ele><time>2026-04-08T16:56:35.98Z</time></trkpt><trkpt lat="44.82109841092939" lon="4.7701960693922585"><ele>128.2</ele><time>2026-04-08T16:56:37.98Z</time></trkpt><trkpt lat="44.821138155314834" lon="4.770340934340288"><ele>124.39999999999999</ele><time>2026-04-08T16:56:39.98Z</time></trkpt><trkpt lat="44.821188408049295" lon="4.770498530709433"><ele>120.60000000000001</ele><time>2026-04-08T16:56:41.98Z</time></trkpt><trkpt lat="44.82122320589034" lon="4.770647130749736"><ele>116.80000000000001</ele><time>2026-04-08T16:56:43.98Z</time></trkpt><trkpt lat="44.82125476869928" lon="4.770783540615694"><ele>113.0</ele><time>2026-04-08T16:56:45.98Z</time></trkpt><trkpt lat="44.82129110990367" lon="4.770910021264176"><ele>114.0</ele><time>2026-04-08T16:56:47.98Z</time></trkpt><trkpt lat="44.82132080064175" lon="4.771032374465882"><ele>115.00000000000001</ele><time>2026-04-08T16:56:49.98Z</time></trkpt><trkpt lat="44.821350209899116" lon="4.771162200944372"><ele>116.00000000000001</ele><time>2026-04-08T16:56:51.98Z</time></trkpt><trkpt lat="44.82138179331605" lon="4.771294046161059"><ele>117.0</ele><time>2026-04-08T16:56:53.98Z</time></trkpt><trkpt lat="44.82140249226753" lon="4.771401756811739"><ele>118.0</ele><time>2026-04-08T16:56:55.98Z</time></trkpt><trkpt lat="44.82142739606086" lon="4.7715195490374835"><ele>118.0</ele><time>2026-04-08T16:56:57.98Z</time></trkpt><trkpt lat="44.82144039277038" lon="4.771650159736836"><ele>118.00000000000001</ele><time>2026-04-08T16:56:59.98Z</time></trkpt><trkpt lat="44.82147058051617" lon="4.771768530720358"><ele>118.00000000000001</ele><time>2026-04-08T16:57:01.98Z</time></trkpt><trkpt lat="44.821484416853146" lon="4.771911806590408"><ele>118.0</ele><time>2026-04-08T16:57:03.98Z</time></trkpt><trkpt lat="44.82149545413402" lon="4.772044784937914"><ele>118.0</ele><time>2026-04-08T16:57:05.98Z</time></trkpt><trkpt lat="44.821502283605035" lon="4.772178858100997"><ele>119.0</ele><time>2026-04-08T16:57:07.98Z</time></trkpt><trkpt lat="44.82150163346616" lon="4.772307076441232"><ele>120.00000000000001</ele><time>2026-04-08T16:57:09.98Z</time></trkpt><trkpt lat="44.82150815375562" lon="4.772444193158205"><ele>121.00000000000001</ele><time>2026-04-08T16:57:11.98Z</time></trkpt><trkpt lat="44.82152263104883" lon="4.77257060192023"><ele>122.0</ele><time>2026-04-08T16:57:13.98Z</time></trkpt><trkpt lat="44.82151883994568" lon="4.772708790874283"><ele>123.0</ele><time>2026-04-08T16:57:15.98Z</time></trkpt><trkpt lat="44.8215155248601" lon="4.77284153362527"><ele>123.4</ele><time>2026-04-08T16:57:17.98Z</time></trkpt><trkpt lat="44.82152147030981" lon="4.7729763254471465"><ele>123.80000000000001</ele><time>2026-04-08T16:57:19.98Z</time></trkpt><trkpt lat="44.82153152691389" lon="4.773105008392944"><ele>124.2</ele><time>2026-04-08T16:57:21.98Z</time></trkpt><trkpt lat="44.82154607588317" lon="4.77323532674615"><ele>124.6</ele><time>2026-04-08T16:57:23.98Z</time></trkpt><trkpt lat="44.82154746714366" lon="4.773361639063331"><ele>125.0</ele><time>2026-04-08T16:57:25.98Z</time></trkpt><trkpt lat="44.82153810952487" lon="4.773495641927769"><ele>124.99999999999999</ele><time>2026-04-08T16:57:27.98Z</time></trkpt><trkpt lat="44.821540625484054" lon="4.773625591660453"><ele>125.0</ele><time>2026-04-08T16:57:29.98Z</time></trkpt><trkpt lat="44.821545644035496" lon="4.773744649872116"><ele>125.0</ele><time>2026-04-08T16:57:31.98Z</time></trkpt><trkpt lat="44.82153679552625" lon="4.7738726312409145"><ele>125.0</ele><time>2026-04-08T16:57:33.98Z</time></trkpt><trkpt lat="44.82153498010301" lon="4.7739986301048445"><ele>124.99999999999999</ele><time>2026-04-08T16:57:35.98Z</time></trkpt><trkpt lat="44.82153883987891" lon="4.7741209909197115"><ele>125.0</ele><time>2026-04-08T16:57:37.98Z</time></trkpt><trkpt lat="44.821541769943735" lon="4.774246673433976"><ele>125.8</ele><time>2026-04-08T16:57:39.98Z</time></trkpt><trkpt lat="44.82155869449252" lon="4.774379882059442"><ele>126.6</ele><time>2026-04-08T16:57:41.98Z</time></trkpt><trkpt lat="44.82157251204952" lon="4.774514321347214"><ele>127.4</ele><time>2026-04-08T16:57:43.98Z</time></trkpt><trkpt lat="44.82158002305535" lon="4.774637762302736"><ele>128.2</ele><time>2026-04-08T16:57:45.98Z</time></trkpt><trkpt lat="44.82158847597464" lon="4.774773512052747"><ele>129.0</ele><time>2026-04-08T16:57:47.98Z</time></trkpt><trkpt lat="44.821598871795004" lon="4.774883307770766"><ele>129.0</ele><time>2026-04-08T16:57:49.98Z</time></trkpt><trkpt lat="44.821609382965065" lon="4.774986606712889"><ele>129.0</ele><time>2026-04-08T16:57:51.98Z</time></trkpt><trkpt lat="44.821621069281505" lon="4.775088681724688"><ele>129.0</ele><time>2026-04-08T16:57:53.98Z</time></trkpt><trkpt lat="44.82163930865556" lon="4.77519756179827"><ele>129.0</ele><time>2026-04-08T16:57:55.98Z</time></trkpt><trkpt lat="44.8216609536914" lon="4.775297483256334"><ele>129.0</ele><time>2026-04-08T16:57:57.98Z</time></trkpt><trkpt lat="44.82167159153733" lon="4.77541578745226"><ele>129.0</ele><time>2026-04-08T16:57:59.98Z</time></trkpt><trkpt lat="44.82168586484579" lon="4.7755336815206375"><ele>129.66666666666666</ele><time>2026-04-08T16:58:01.98Z</time></trkpt><trkpt lat="44.82170420940283" lon="4.775636063703039"><ele>130.33333333333334</ele><time>2026-04-08T16:58:03.98Z</time></trkpt><trkpt lat="44.82171578542116" lon="4.775750335269263"><ele>131.0</ele><time>2026-04-08T16:58:05.98Z</time></trkpt><trkpt lat="44.82172845921104" lon="4.775867078658976"><ele>131.66666666666669</ele><time>2026-04-08T16:58:07.98Z</time></trkpt><trkpt lat="44.82174090769778" lon="4.775985544582356"><ele>132.33333333333334</ele><time>2026-04-08T16:58:09.98Z</time></trkpt><trkpt lat="44.82175752289288" lon="4.7760943643764495"><ele>133.0</ele><time>2026-04-08T16:58:11.98Z</time></trkpt><trkpt lat="44.82176915686654" lon="4.776211077081419"><ele>133.0</ele><time>2026-04-08T16:58:13.98Z</time></trkpt><trkpt lat="44.821769568247916" lon="4.776330579499229"><ele>133.0</ele><time>2026-04-08T16:58:15.98Z</time></trkpt><trkpt lat="44.82178596859434" lon="4.776442251480532"><ele>133.0</ele><time>2026-04-08T16:58:17.98Z</time></trkpt><trkpt lat="44.821790366796755" lon="4.776563009398193"><ele>133.0</ele><time>2026-04-08T16:58:19.979Z</time></trkpt><trkpt lat="44.82180917572723" lon="4.776678966923064"><ele>133.0</ele><time>2026-04-08T16:58:21.979Z</time></trkpt><trkpt lat="44.82183552602132" lon="4.776792396568862"><ele>133.0</ele><time>2026-04-08T16:58:23.979Z</time></trkpt><trkpt lat="44.82186227450677" lon="4.776915983480906"><ele>129.0</ele><time>2026-04-08T16:58:25.979Z</time></trkpt><trkpt lat="44.82189570749469" lon="4.77702270054823"><ele>125.0</ele><time>2026-04-08T16:58:27.979Z</time></trkpt><trkpt lat="44.82192343318779" lon="4.777141038297516"><ele>121.0</ele><time>2026-04-08T16:58:29.979Z</time></trkpt><trkpt lat="44.82196159454225" lon="4.77725633182291"><ele>117.0</ele><time>2026-04-08T16:58:31.979Z</time></trkpt><trkpt lat="44.821993841184934" lon="4.777362225025734"><ele>113.00000000000001</ele><time>2026-04-08T16:58:33.979Z</time></trkpt><trkpt lat="44.822021792299246" lon="4.777482513632425"><ele>109.0</ele><time>2026-04-08T16:58:35.979Z</time></trkpt><trkpt lat="44.822045925311464" lon="4.777602552403897"><ele>109.16666666666667</ele><time>2026-04-08T16:58:37.979Z</time></trkpt><trkpt lat="44.82207372054272" lon="4.777717791262398"><ele>109.33333333333334</ele><time>2026-04-08T16:58:39.979Z</time></trkpt><trkpt lat="44.82209517139526" lon="4.777830039923287"><ele>109.5</ele><time>2026-04-08T16:58:41.979Z</time></trkpt><trkpt lat="44.822111826272504" lon="4.777948304330355"><ele>109.66666666666666</ele><time>2026-04-08T16:58:43.979Z</time></trkpt><trkpt lat="44.82211583494504" lon="4.778074050186039"><ele>109.83333333333333</ele><time>2026-04-08T16:58:45.979Z</time></trkpt><trkpt lat="44.822115383610516" lon="4.778206101942654"><ele>110.0</ele><time>2026-04-08T16:58:47.979Z</time></trkpt><trkpt lat="44.82212503381684" lon="4.778337082788287"><ele>110.0</ele><time>2026-04-08T16:58:49.979Z</time></trkpt><trkpt lat="44.8221325218906" lon="4.778464899188884"><ele>110.0</ele><time>2026-04-08T16:58:51.979Z</time></trkpt><trkpt lat="44.82213062911586" lon="4.778589873181311"><ele>110.0</ele><time>2026-04-08T16:58:53.979Z</time></trkpt><trkpt lat="44.82213844493952" lon="4.778725094735342"><ele>110.0</ele><time>2026-04-08T16:58:55.979Z</time></trkpt><trkpt lat="44.822150677418335" lon="4.77885411596318"><ele>110.0</ele><time>2026-04-08T16:58:57.979Z</time></trkpt><trkpt lat="44.82215889573592" lon="4.778973342219001"><ele>110.0</ele><time>2026-04-08T16:58:59.979Z</time></trkpt><trkpt lat="44.822168716069925" lon="4.779103681614497"><ele>110.0</ele><time>2026-04-08T16:59:01.979Z</time></trkpt><trkpt lat="44.82217824566046" lon="4.7792387838939145"><ele>110.0</ele><time>2026-04-08T16:59:03.979Z</time></trkpt><trkpt lat="44.822192913621244" lon="4.779363057149211"><ele>110.0</ele><time>2026-04-08T16:59:05.979Z</time></trkpt><trkpt lat="44.82219562297774" lon="4.77950359806911"><ele>110.0</ele><time>2026-04-08T16:59:07.979Z</time></trkpt><trkpt lat="44.82220829365637" lon="4.77964347145314"><ele>110.0</ele><time>2026-04-08T16:59:09.979Z</time></trkpt><trkpt lat="44.82220862747954" lon="4.779781715173339"><ele>110.0</ele><time>2026-04-08T16:59:11.979Z</time></trkpt><trkpt lat="44.82220781906151" lon="4.779924571853288"><ele>110.0</ele><time>2026-04-08T16:59:13.98Z</time></trkpt><trkpt lat="44.822197353342325" lon="4.7800466279425"><ele>110.0</ele><time>2026-04-08T16:59:15.979Z</time></trkpt><trkpt lat="44.82218035359739" lon="4.780183038940267"><ele>110.0</ele><time>2026-04-08T16:59:17.98Z</time></trkpt><trkpt lat="44.82215303447751" lon="4.780316722931881"><ele>109.4</ele><time>2026-04-08T16:59:19.98Z</time></trkpt><trkpt lat="44.82211843872364" lon="4.7804407581815935"><ele>108.8</ele><time>2026-04-08T16:59:21.98Z</time></trkpt><trkpt lat="44.82209073685827" lon="4.78057078328226"><ele>108.19999999999999</ele><time>2026-04-08T16:59:23.98Z</time></trkpt><trkpt lat="44.82205776603126" lon="4.780701772036803"><ele>107.6</ele><time>2026-04-08T16:59:25.98Z</time></trkpt><trkpt lat="44.82204068859702" lon="4.780826387816085"><ele>107.0</ele><time>2026-04-08T16:59:27.98Z</time></trkpt><trkpt lat="44.82201164925676" lon="4.78095480196352"><ele>106.0</ele><time>2026-04-08T16:59:29.98Z</time></trkpt><trkpt lat="44.82199132324641" lon="4.781094356750797"><ele>104.99999999999999</ele><time>2026-04-08T16:59:31.98Z</time></trkpt><trkpt lat="44.82194963981671" lon="4.781218007257719"><ele>104.0</ele><time>2026-04-08T16:59:33.98Z</time></trkpt><trkpt lat="44.821930387114314" lon="4.7813563650445134"><ele>103.0</ele><time>2026-04-08T16:59:35.98Z</time></trkpt><trkpt lat="44.82189770978973" lon="4.781486271015187"><ele>102.0</ele><time>2026-04-08T16:59:37.98Z</time></trkpt><trkpt lat="44.821868284065296" lon="4.781614015524856"><ele>102.0</ele><time>2026-04-08T16:59:39.98Z</time></trkpt><trkpt lat="44.82183306083653" lon="4.781736347896593"><ele>102.0</ele><time>2026-04-08T16:59:41.98Z</time></trkpt><trkpt lat="44.821785897025904" lon="4.78186241271725"><ele>102.0</ele><time>2026-04-08T16:59:43.98Z</time></trkpt><trkpt lat="44.82173830824061" lon="4.781979755847569"><ele>102.0</ele><time>2026-04-08T16:59:45.98Z</time></trkpt><trkpt lat="44.82167583809007" lon="4.782091974470878"><ele>102.0</ele><time>2026-04-08T16:59:47.98Z</time></trkpt><trkpt lat="44.82162147552161" lon="4.782208725149702"><ele>102.8</ele><time>2026-04-08T16:59:49.98Z</time></trkpt><trkpt lat="44.821559973242515" lon="4.782317413047158"><ele>103.6</ele><time>2026-04-08T16:59:51.98Z</time></trkpt><trkpt lat="44.821489887032314" lon="4.7824192246159445"><ele>104.39999999999999</ele><time>2026-04-08T16:59:53.98Z</time></trkpt><trkpt lat="44.82141724984986" lon="4.782508197627825"><ele>105.19999999999999</ele><time>2026-04-08T16:59:55.98Z</time></trkpt><trkpt lat="44.82134224632887" lon="4.782597272661858"><ele>106.0</ele><time>2026-04-08T16:59:57.98Z</time></trkpt><trkpt lat="44.82126696015779" lon="4.782682854323309"><ele>106.0</ele><time>2026-04-08T16:59:59.98Z</time></trkpt><trkpt lat="44.821187747897696" lon="4.782763524561667"><ele>106.0</ele><time>2026-04-08T17:00:01.98Z</time></trkpt><trkpt lat="44.82110296661237" lon="4.78284528553286"><ele>106.0</ele><time>2026-04-08T17:00:03.98Z</time></trkpt><trkpt lat="44.821022190572116" lon="4.78292159929727"><ele>106.0</ele><time>2026-04-08T17:00:05.98Z</time></trkpt><trkpt lat="44.82093054369118" lon="4.782972468414825"><ele>106.0</ele><time>2026-04-08T17:00:07.98Z</time></trkpt><trkpt lat="44.82083340148951" lon="4.783044377592003"><ele>107.8</ele><time>2026-04-08T17:00:09.979Z</time></trkpt><trkpt lat="44.820742385559576" lon="4.783080686215677"><ele>109.6</ele><time>2026-04-08T17:00:11.979Z</time></trkpt><trkpt lat="44.8206550868222" lon="4.783129155565211"><ele>111.4</ele><time>2026-04-08T17:00:13.979Z</time></trkpt><trkpt lat="44.820580428167325" lon="4.7831870521621775"><ele>113.2</ele><time>2026-04-08T17:00:15.979Z</time></trkpt><trkpt lat="44.820506503703115" lon="4.783242301891133"><ele>115.0</ele><time>2026-04-08T17:00:17.979Z</time></trkpt><trkpt lat="44.82042994821588" lon="4.783344241873634"><ele>115.0</ele><time>2026-04-08T17:00:19.979Z</time></trkpt><trkpt lat="44.82035465249451" lon="4.783423044819737"><ele>115.0</ele><time>2026-04-08T17:00:21.979Z</time></trkpt><trkpt lat="44.820266631259564" lon="4.7835216496165325"><ele>115.0</ele><time>2026-04-08T17:00:23.979Z</time></trkpt><trkpt lat="44.82017948157901" lon="4.783611724314533"><ele>115.0</ele><time>2026-04-08T17:00:25.979Z</time></trkpt><trkpt lat="44.82011773023471" lon="4.783710981221351"><ele>115.0</ele><time>2026-04-08T17:00:27.979Z</time></trkpt><trkpt lat="44.82004475794275" lon="4.783813827260174"><ele>114.8</ele><time>2026-04-08T17:00:29.979Z</time></trkpt><trkpt lat="44.819967687918634" lon="4.78390167624272"><ele>114.6</ele><time>2026-04-08T17:00:31.979Z</time></trkpt><trkpt lat="44.8198891882999" lon="4.783990207065307"><ele>114.4</ele><time>2026-04-08T17:00:33.979Z</time></trkpt><trkpt lat="44.8198128376528" lon="4.7840819091440165"><ele>114.2</ele><time>2026-04-08T17:00:35.979Z</time></trkpt><trkpt lat="44.81974412122326" lon="4.784183356482635"><ele>114.0</ele><time>2026-04-08T17:00:37.979Z</time></trkpt><trkpt lat="44.81966677099626" lon="4.784271842185393"><ele>112.6</ele><time>2026-04-08T17:00:39.979Z</time></trkpt><trkpt lat="44.81960757942404" lon="4.784355735828941"><ele>111.2</ele><time>2026-04-08T17:00:41.979Z</time></trkpt><trkpt lat="44.81953256848549" lon="4.784445852697499"><ele>109.79999999999998</ele><time>2026-04-08T17:00:43.979Z</time></trkpt><trkpt lat="44.819472035241205" lon="4.784535719202732"><ele>108.39999999999999</ele><time>2026-04-08T17:00:45.979Z</time></trkpt><trkpt lat="44.8193942083326" lon="4.784630524293335"><ele>107.0</ele><time>2026-04-08T17:00:47.979Z</time></trkpt><trkpt lat="44.81931993816334" lon="4.784713440794885"><ele>108.19999999999999</ele><time>2026-04-08T17:00:49.979Z</time></trkpt><trkpt lat="44.819252046422356" lon="4.784809469514025"><ele>109.39999999999999</ele><time>2026-04-08T17:00:51.979Z</time></trkpt><trkpt lat="44.819169637398446" lon="4.784903130015708"><ele>110.60000000000001</ele><time>2026-04-08T17:00:53.979Z</time></trkpt><trkpt lat="44.81909948578707" lon="4.784991365373677"><ele>111.80000000000001</ele><time>2026-04-08T17:00:55.979Z</time></trkpt><trkpt lat="44.81902132287493" lon="4.78507073306405"><ele>113.0</ele><time>2026-04-08T17:00:57.979Z</time></trkpt><trkpt lat="44.81893638198227" lon="4.785156244946641"><ele>111.80000000000001</ele><time>2026-04-08T17:00:59.979Z</time></trkpt><trkpt lat="44.8188530879401" lon="4.785239015086595"><ele>110.60000000000001</ele><time>2026-04-08T17:01:01.979Z</time></trkpt><trkpt lat="44.8187770194241" lon="4.785340656760271"><ele>109.39999999999999</ele><time>2026-04-08T17:01:03.979Z</time></trkpt><trkpt lat="44.81870132531823" lon="4.785432140963211"><ele>108.19999999999999</ele><time>2026-04-08T17:01:05.979Z</time></trkpt><trkpt lat="44.81862651302752" lon="4.785523340421169"><ele>107.0</ele><time>2026-04-08T17:01:07.979Z</time></trkpt><trkpt lat="44.81855634239034" lon="4.7856118424590415"><ele>107.0</ele><time>2026-04-08T17:01:09.979Z</time></trkpt><trkpt lat="44.81848605159205" lon="4.78569097037446"><ele>106.99999999999999</ele><time>2026-04-08T17:01:11.979Z</time></trkpt><trkpt lat="44.818423358303875" lon="4.785786003977676"><ele>106.99999999999999</ele><time>2026-04-08T17:01:13.979Z</time></trkpt><trkpt lat="44.81835641802572" lon="4.785861828320731"><ele>107.0</ele><time>2026-04-08T17:01:15.979Z</time></trkpt><trkpt lat="44.818298538290925" lon="4.785956287335635"><ele>107.0</ele><time>2026-04-08T17:01:17.979Z</time></trkpt><trkpt lat="44.81822071683599" lon="4.7860448291720745"><ele>107.0</ele><time>2026-04-08T17:01:19.98Z</time></trkpt><trkpt lat="44.818142552827254" lon="4.78612777965418"><ele>106.99999999999999</ele><time>2026-04-08T17:01:21.98Z</time></trkpt><trkpt lat="44.818060621507726" lon="4.786216456184581"><ele>106.99999999999999</ele><time>2026-04-08T17:01:23.979Z</time></trkpt><trkpt lat="44.817976650206475" lon="4.786310796039643"><ele>107.0</ele><time>2026-04-08T17:01:25.98Z</time></trkpt><trkpt lat="44.81790689746888" lon="4.786391937529247"><ele>107.0</ele><time>2026-04-08T17:01:27.98Z</time></trkpt><trkpt lat="44.81782480315514" lon="4.786480248523641"><ele>107.0</ele><time>2026-04-08T17:01:29.98Z</time></trkpt><trkpt lat="44.81774899465422" lon="4.78653896498408"><ele>106.99999999999999</ele><time>2026-04-08T17:01:31.98Z</time></trkpt><trkpt lat="44.81766608686345" lon="4.786613842714438"><ele>106.99999999999999</ele><time>2026-04-08T17:01:33.98Z</time></trkpt><trkpt lat="44.81759434250931" lon="4.786678739793539"><ele>107.0</ele><time>2026-04-08T17:01:35.98Z</time></trkpt><trkpt lat="44.817505764779675" lon="4.786727694256566"><ele>107.0</ele><time>2026-04-08T17:01:37.98Z</time></trkpt><trkpt lat="44.81743278782268" lon="4.786787491451106"><ele>107.33333333333333</ele><time>2026-04-08T17:01:39.98Z</time></trkpt><trkpt lat="44.817347770705844" lon="4.786855509256167"><ele>107.66666666666666</ele><time>2026-04-08T17:01:41.98Z</time></trkpt><trkpt lat="44.81726736013552" lon="4.7869064636773"><ele>108.0</ele><time>2026-04-08T17:01:43.98Z</time></trkpt><trkpt lat="44.817218697456276" lon="4.7869702349702346"><ele>108.33333333333334</ele><time>2026-04-08T17:01:45.98Z</time></trkpt><trkpt lat="44.817147438255354" lon="4.787009806473342"><ele>108.66666666666667</ele><time>2026-04-08T17:01:48.98Z</time></trkpt><trkpt lat="44.817076260618784" lon="4.787066019871274"><ele>109.0</ele><time>2026-04-08T17:01:51.98Z</time></trkpt><trkpt lat="44.81700621469142" lon="4.787133577912305"><ele>109.00000000000001</ele><time>2026-04-08T17:01:54.98Z</time></trkpt><trkpt lat="44.81694862588276" lon="4.787198840547042"><ele>109.0</ele><time>2026-04-08T17:01:56.98Z</time></trkpt><trkpt lat="44.81688298180385" lon="4.787266936393651"><ele>109.0</ele><time>2026-04-08T17:01:58.98Z</time></trkpt><trkpt lat="44.81681080695442" lon="4.787324117393429"><ele>109.0</ele><time>2026-04-08T17:02:00.979Z</time></trkpt><trkpt lat="44.81675512862611" lon="4.787416517643552"><ele>109.00000000000001</ele><time>2026-04-08T17:02:02.979Z</time></trkpt><trkpt lat="44.81670492271969" lon="4.787518279487768"><ele>109.0</ele><time>2026-04-08T17:02:04.979Z</time></trkpt><trkpt lat="44.81663795140098" lon="4.787602845690129"><ele>109.00000000000001</ele><time>2026-04-08T17:02:06.979Z</time></trkpt><trkpt lat="44.816592770778215" lon="4.78771014988481"><ele>109.0</ele><time>2026-04-08T17:02:08.979Z</time></trkpt><trkpt lat="44.81654488313698" lon="4.78782393472956"><ele>109.0</ele><time>2026-04-08T17:02:10.979Z</time></trkpt><trkpt lat="44.81649299478268" lon="4.787926615875611"><ele>109.0</ele><time>2026-04-08T17:02:12.979Z</time></trkpt><trkpt lat="44.81645164681601" lon="4.788034773168267"><ele>109.00000000000001</ele><time>2026-04-08T17:02:14.979Z</time></trkpt><trkpt lat="44.816411499801035" lon="4.788138204079006"><ele>109.0</ele><time>2026-04-08T17:02:16.979Z</time></trkpt><trkpt lat="44.81636864335165" lon="4.788238730042715"><ele>109.00000000000001</ele><time>2026-04-08T17:02:18.979Z</time></trkpt><trkpt lat="44.81632821894918" lon="4.788343277076126"><ele>109.0</ele><time>2026-04-08T17:02:20.979Z</time></trkpt><trkpt lat="44.8162823236667" lon="4.788455479648666"><ele>109.0</ele><time>2026-04-08T17:02:22.979Z</time></trkpt><trkpt lat="44.816235446694094" lon="4.788568475870063"><ele>109.0</ele><time>2026-04-08T17:02:24.979Z</time></trkpt><trkpt lat="44.81619519046391" lon="4.788667074866465"><ele>109.00000000000001</ele><time>2026-04-08T17:02:26.979Z</time></trkpt><trkpt lat="44.816161319547064" lon="4.788763596003184"><ele>109.0</ele><time>2026-04-08T17:02:28.979Z</time></trkpt><trkpt lat="44.816121892801455" lon="4.788862738877419"><ele>108.57142857142857</ele><time>2026-04-08T17:02:30.979Z</time></trkpt><trkpt lat="44.81607930051367" lon="4.788939957731263"><ele>108.14285714285714</ele><time>2026-04-08T17:02:32.979Z</time></trkpt><trkpt lat="44.81602507962531" lon="4.789032137013763"><ele>107.71428571428572</ele><time>2026-04-08T17:02:34.979Z</time></trkpt><trkpt lat="44.8159948934862" lon="4.78912591241323"><ele>107.28571428571428</ele><time>2026-04-08T17:02:36.979Z</time></trkpt><trkpt lat="44.81595867380275" lon="4.789216295144281"><ele>106.85714285714285</ele><time>2026-04-08T17:02:38.979Z</time></trkpt><trkpt lat="44.81592705525329" lon="4.789309196822716"><ele>106.42857142857143</ele><time>2026-04-08T17:02:40.979Z</time></trkpt><trkpt lat="44.81589054773444" lon="4.78938432856351"><ele>106.0</ele><time>2026-04-08T17:02:42.979Z</time></trkpt><trkpt lat="44.8158508999552" lon="4.789463709857633"><ele>107.00000000000001</ele><time>2026-04-08T17:02:44.979Z</time></trkpt><trkpt lat="44.81579718981446" lon="4.789575143533661"><ele>108.0</ele><time>2026-04-08T17:02:47.979Z</time></trkpt><trkpt lat="44.81574500379317" lon="4.7896757694228524"><ele>109.0</ele><time>2026-04-08T17:02:50.979Z</time></trkpt><trkpt lat="44.815731622245906" lon="4.789769060576574"><ele>110.0</ele><time>2026-04-08T17:02:52.979Z</time></trkpt><trkpt lat="44.815707107810596" lon="4.789855678776752"><ele>111.00000000000001</ele><time>2026-04-08T17:02:54.979Z</time></trkpt><trkpt lat="44.815658981351824" lon="4.789953712927079"><ele>112.0</ele><time>2026-04-08T17:02:56.979Z</time></trkpt><trkpt lat="44.815614651946326" lon="4.790079564613007"><ele>111.57142857142857</ele><time>2026-04-08T17:02:58.979Z</time></trkpt><trkpt lat="44.81557679568525" lon="4.790182895752498"><ele>111.14285714285714</ele><time>2026-04-08T17:03:00.979Z</time></trkpt><trkpt lat="44.81553871986702" lon="4.790275773885014"><ele>110.71428571428572</ele><time>2026-04-08T17:03:02.979Z</time></trkpt><trkpt lat="44.815502720018266" lon="4.790351530636178"><ele>110.28571428571428</ele><time>2026-04-08T17:03:04.979Z</time></trkpt><trkpt lat="44.81546431518451" lon="4.790422485884204"><ele>109.85714285714286</ele><time>2026-04-08T17:03:06.979Z</time></trkpt><trkpt lat="44.81542770139956" lon="4.790512375679592"><ele>109.42857142857143</ele><time>2026-04-08T17:03:09.979Z</time></trkpt><trkpt lat="44.8153695390694" lon="4.790593463865369"><ele>109.0</ele><time>2026-04-08T17:03:12.979Z</time></trkpt><trkpt lat="44.815321845988414" lon="4.790694704689169"><ele>109.00000000000001</ele><time>2026-04-08T17:03:15.979Z</time></trkpt><trkpt lat="44.81527440848601" lon="4.790782423776766"><ele>109.0</ele><time>2026-04-08T17:03:18.979Z</time></trkpt><trkpt lat="44.815233898326326" lon="4.790852309335771"><ele>109.0</ele><time>2026-04-08T17:03:20.979Z</time></trkpt><trkpt lat="44.81518465109696" lon="4.790954235390131"><ele>109.0</ele><time>2026-04-08T17:03:23.98Z</time></trkpt><trkpt lat="44.81514215517853" lon="4.79104035145749"><ele>109.00000000000001</ele><time>2026-04-08T17:03:25.979Z</time></trkpt><trkpt lat="44.81509096240588" lon="4.791125991843215"><ele>109.0</ele><time>2026-04-08T17:03:27.979Z</time></trkpt><trkpt lat="44.81504201565611" lon="4.791220488721068"><ele>109.71428571428572</ele><time>2026-04-08T17:03:29.979Z</time></trkpt><trkpt lat="44.815000082111496" lon="4.791313647906799"><ele>110.42857142857143</ele><time>2026-04-08T17:03:31.979Z</time></trkpt><trkpt lat="44.81496507405687" lon="4.791416823142496"><ele>111.14285714285714</ele><time>2026-04-08T17:03:33.979Z</time></trkpt><trkpt lat="44.814934154900534" lon="4.791509325595162"><ele>111.85714285714286</ele><time>2026-04-08T17:03:35.979Z</time></trkpt><trkpt lat="44.814911710387435" lon="4.79160055710187"><ele>112.57142857142856</ele><time>2026-04-08T17:03:37.979Z</time></trkpt><trkpt lat="44.81488667827812" lon="4.791683060745267"><ele>113.28571428571428</ele><time>2026-04-08T17:03:39.979Z</time></trkpt><trkpt lat="44.81485785016939" lon="4.791764399593765"><ele>114.0</ele><time>2026-04-08T17:03:41.979Z</time></trkpt><trkpt lat="44.81484468920944" lon="4.791894939639438"><ele>114.0</ele><time>2026-04-08T17:03:44.979Z</time></trkpt><trkpt lat="44.81484776138379" lon="4.7920087249502314"><ele>114.0</ele><time>2026-04-08T17:03:47.979Z</time></trkpt><trkpt lat="44.81483830233503" lon="4.79210571890314"><ele>114.0</ele><time>2026-04-08T17:03:50.979Z</time></trkpt><trkpt lat="44.8148395237194" lon="4.792226259641376"><ele>114.0</ele><time>2026-04-08T17:03:53.979Z</time></trkpt><trkpt lat="44.814831493048146" lon="4.792321892226919"><ele>114.0</ele><time>2026-04-08T17:03:55.979Z</time></trkpt><trkpt lat="44.81482735132702" lon="4.7924305217676215"><ele>114.0</ele><time>2026-04-08T17:03:57.979Z</time></trkpt><trkpt lat="44.81483676458727" lon="4.792556261695892"><ele>114.4</ele><time>2026-04-08T17:03:59.979Z</time></trkpt><trkpt lat="44.814842933476136" lon="4.792688506691352"><ele>114.80000000000001</ele><time>2026-04-08T17:04:01.979Z</time></trkpt><trkpt lat="44.8148589750426" lon="4.792816422696311"><ele>115.19999999999999</ele><time>2026-04-08T17:04:03.979Z</time></trkpt><trkpt lat="44.814871698793525" lon="4.792955732151829"><ele>115.6</ele><time>2026-04-08T17:04:05.979Z</time></trkpt><trkpt lat="44.81488295824997" lon="4.793088891143944"><ele>116.0</ele><time>2026-04-08T17:04:07.979Z</time></trkpt><trkpt lat="44.81488862545568" lon="4.793220533742067"><ele>115.99999999999999</ele><time>2026-04-08T17:04:09.979Z</time></trkpt><trkpt lat="44.814894625514654" lon="4.793356417511492"><ele>116.0</ele><time>2026-04-08T17:04:11.979Z</time></trkpt><trkpt lat="44.81487611204503" lon="4.793486011296498"><ele>116.0</ele><time>2026-04-08T17:04:13.979Z</time></trkpt><trkpt lat="44.81484772645832" lon="4.793601517808547"><ele>116.0</ele><time>2026-04-08T17:04:15.979Z</time></trkpt><trkpt lat="44.814821506495434" lon="4.79371955931136"><ele>115.99999999999999</ele><time>2026-04-08T17:04:17.979Z</time></trkpt><trkpt lat="44.814778351021644" lon="4.7938176432227095"><ele>116.0</ele><time>2026-04-08T17:04:19.979Z</time></trkpt><trkpt lat="44.814727427965664" lon="4.793914807855481"><ele>116.83333333333333</ele><time>2026-04-08T17:04:21.979Z</time></trkpt><trkpt lat="44.814681959482414" lon="4.794007235735112"><ele>117.66666666666666</ele><time>2026-04-08T17:04:23.979Z</time></trkpt><trkpt lat="44.81462219466002" lon="4.794088550446149"><ele>118.5</ele><time>2026-04-08T17:04:25.979Z</time></trkpt><trkpt lat="44.81456775964112" lon="4.794164863276537"><ele>119.33333333333334</ele><time>2026-04-08T17:04:27.979Z</time></trkpt><trkpt lat="44.814498339614815" lon="4.794241243268975"><ele>120.16666666666667</ele><time>2026-04-08T17:04:29.979Z</time></trkpt><trkpt lat="44.81442502943654" lon="4.794311947627166"><ele>121.0</ele><time>2026-04-08T17:04:31.979Z</time></trkpt><trkpt lat="44.814339372661706" lon="4.794359109421446"><ele>121.19999999999999</ele><time>2026-04-08T17:04:33.979Z</time></trkpt><trkpt lat="44.814260580342186" lon="4.794395598482163"><ele>121.39999999999999</ele><time>2026-04-08T17:04:35.979Z</time></trkpt><trkpt lat="44.81416053671841" lon="4.794428474146384"><ele>121.6</ele><time>2026-04-08T17:04:37.979Z</time></trkpt><trkpt lat="44.81406968070483" lon="4.7944306264297"><ele>121.8</ele><time>2026-04-08T17:04:39.979Z</time></trkpt><trkpt lat="44.81397254142082" lon="4.794425854208996"><ele>122.0</ele><time>2026-04-08T17:04:41.979Z</time></trkpt><trkpt lat="44.81388198363244" lon="4.794417172147597"><ele>122.0</ele><time>2026-04-08T17:04:43.979Z</time></trkpt><trkpt lat="44.81379312656544" lon="4.794402033074674"><ele>121.99999999999999</ele><time>2026-04-08T17:04:45.979Z</time></trkpt><trkpt lat="44.813696347425925" lon="4.794396619759042"><ele>121.99999999999999</ele><time>2026-04-08T17:04:47.979Z</time></trkpt><trkpt lat="44.813599242230545" lon="4.794386303274192"><ele>122.0</ele><time>2026-04-08T17:04:49.978Z</time></trkpt><trkpt lat="44.81351940616116" lon="4.794411497050053"><ele>122.0</ele><time>2026-04-08T17:04:51.978Z</time></trkpt><trkpt lat="44.81343437167735" lon="4.794416651369603"><ele>121.19999999999999</ele><time>2026-04-08T17:04:53.978Z</time></trkpt><trkpt lat="44.81333876109454" lon="4.794433019029305"><ele>120.39999999999999</ele><time>2026-04-08T17:04:55.978Z</time></trkpt><trkpt lat="44.8132468118059" lon="4.794454042196422"><ele>119.60000000000001</ele><time>2026-04-08T17:04:57.978Z</time></trkpt><trkpt lat="44.813149851074094" lon="4.794478205334501"><ele>118.80000000000001</ele><time>2026-04-08T17:04:59.978Z</time></trkpt><trkpt lat="44.81306972893112" lon="4.794518572919491"><ele>118.0</ele><time>2026-04-08T17:05:01.978Z</time></trkpt><trkpt lat="44.812986533224155" lon="4.794535582025808"><ele>118.00000000000001</ele><time>2026-04-08T17:05:03.978Z</time></trkpt><trkpt lat="44.81291073608771" lon="4.794570955042506"><ele>118.0</ele><time>2026-04-08T17:05:05.978Z</time></trkpt><trkpt lat="44.81281871340111" lon="4.7946296328719695"><ele>118.0</ele><time>2026-04-08T17:05:07.978Z</time></trkpt><trkpt lat="44.812738861225846" lon="4.794681075717728"><ele>118.0</ele><time>2026-04-08T17:05:09.978Z</time></trkpt><trkpt lat="44.81266616801475" lon="4.794733772660976"><ele>118.00000000000001</ele><time>2026-04-08T17:05:11.978Z</time></trkpt><trkpt lat="44.8125970196818" lon="4.794791360295024"><ele>118.0</ele><time>2026-04-08T17:05:14.978Z</time></trkpt><trkpt lat="44.81256996545057" lon="4.7948757198654945"><ele>116.60000000000001</ele><time>2026-04-08T17:05:16.978Z</time></trkpt><trkpt lat="44.81255088728522" lon="4.795013013402736"><ele>115.20000000000002</ele><time>2026-04-08T17:05:19.978Z</time></trkpt><trkpt lat="44.81251515709134" lon="4.795111451795808"><ele>113.8</ele><time>2026-04-08T17:05:21.978Z</time></trkpt><trkpt lat="44.81248659425757" lon="4.795232101246106"><ele>112.4</ele><time>2026-04-08T17:05:23.978Z</time></trkpt><trkpt lat="44.812439401798805" lon="4.795354372184043"><ele>111.0</ele><time>2026-04-08T17:05:25.978Z</time></trkpt><trkpt lat="44.81239586598094" lon="4.795479306228286"><ele>110.6</ele><time>2026-04-08T17:05:27.978Z</time></trkpt><trkpt lat="44.81234882655442" lon="4.795610712235679"><ele>110.19999999999999</ele><time>2026-04-08T17:05:29.978Z</time></trkpt><trkpt lat="44.81231306738968" lon="4.795748712955545"><ele>109.80000000000001</ele><time>2026-04-08T17:05:31.981Z</time></trkpt><trkpt lat="44.812334132452534" lon="4.795897554322967"><ele>109.4</ele><time>2026-04-08T17:05:33.983Z</time></trkpt><trkpt lat="44.81242270163031" lon="4.795985874810039"><ele>109.0</ele><time>2026-04-08T17:05:35.986Z</time></trkpt><trkpt lat="44.81250114107311" lon="4.796053628507366"><ele>109.66666666666667</ele><time>2026-04-08T17:05:37.987Z</time></trkpt><trkpt lat="44.81256746929935" lon="4.796131243398961"><ele>110.33333333333334</ele><time>2026-04-08T17:05:39.989Z</time></trkpt><trkpt lat="44.812628793085544" lon="4.796203683751198"><ele>111.0</ele><time>2026-04-08T17:05:41.991Z</time></trkpt><trkpt lat="44.81268767750926" lon="4.796266837893219"><ele>111.66666666666666</ele><time>2026-04-08T17:05:43.991Z</time></trkpt><trkpt lat="44.81273780799964" lon="4.796340617711357"><ele>112.33333333333333</ele><time>2026-04-08T17:05:45.993Z</time></trkpt><trkpt lat="44.812793713411395" lon="4.7964136900667"><ele>113.0</ele><time>2026-04-08T17:05:47.993Z</time></trkpt><trkpt lat="44.81285024919193" lon="4.796481584465511"><ele>113.0</ele><time>2026-04-08T17:05:49.994Z</time></trkpt><trkpt lat="44.81290743369555" lon="4.796543018950137"><ele>113.0</ele><time>2026-04-08T17:05:51.995Z</time></trkpt><trkpt lat="44.81296496899239" lon="4.796607548009663"><ele>113.0</ele><time>2026-04-08T17:05:53.996Z</time></trkpt><trkpt lat="44.81302562583697" lon="4.796668865201261"><ele>113.0</ele><time>2026-04-08T17:05:55.996Z</time></trkpt><trkpt lat="44.81308008588217" lon="4.7967348425935805"><ele>113.0</ele><time>2026-04-08T17:05:57.997Z</time></trkpt><trkpt lat="44.81313630270088" lon="4.796786105973262"><ele>113.0</ele><time>2026-04-08T17:05:59.997Z</time></trkpt><trkpt lat="44.813194956079975" lon="4.796842733347051"><ele>113.0</ele><time>2026-04-08T17:06:01.997Z</time></trkpt><trkpt lat="44.81325283769212" lon="4.796887688035844"><ele>112.16666666666666</ele><time>2026-04-08T17:06:03.998Z</time></trkpt><trkpt lat="44.813314033830174" lon="4.7969269965143235"><ele>111.33333333333333</ele><time>2026-04-08T17:06:05.998Z</time></trkpt><trkpt lat="44.81337090040093" lon="4.796974449688819"><ele>110.5</ele><time>2026-04-08T17:06:07.998Z</time></trkpt><trkpt lat="44.813460805744796" lon="4.797028779836044"><ele>109.66666666666666</ele><time>2026-04-08T17:06:10.999Z</time></trkpt><trkpt lat="44.81352279394056" lon="4.797094604636684"><ele>108.83333333333333</ele><time>2026-04-08T17:06:12.999Z</time></trkpt><trkpt lat="44.813594227551356" lon="4.797181523680979"><ele>108.0</ele><time>2026-04-08T17:06:14.999Z</time></trkpt><trkpt lat="44.81367109603463" lon="4.797261742941745"><ele>108.0</ele><time>2026-04-08T17:06:16.999Z</time></trkpt><trkpt lat="44.81373205423532" lon="4.7973433363220925"><ele>108.0</ele><time>2026-04-08T17:06:18.999Z</time></trkpt><trkpt lat="44.81380280794147" lon="4.797447046089925"><ele>108.0</ele><time>2026-04-08T17:06:20.999Z</time></trkpt><trkpt lat="44.81384553568355" lon="4.797598009468897"><ele>108.0</ele><time>2026-04-08T17:06:22.999Z</time></trkpt><trkpt lat="44.81382428287055" lon="4.797693637194507"><ele>108.0</ele><time>2026-04-08T17:06:24Z</time></trkpt><trkpt lat="44.8137953453258" lon="4.797782171610629"><ele>108.0</ele><time>2026-04-08T17:06:25Z</time></trkpt><trkpt lat="44.81377914987251" lon="4.797868631051588"><ele>106.2</ele><time>2026-04-08T17:06:26Z</time></trkpt><trkpt lat="44.81370145837588" lon="4.7979942268516025"><ele>104.4</ele><time>2026-04-08T17:06:28Z</time></trkpt><trkpt lat="44.81359796096864" lon="4.798041865144726"><ele>102.60000000000001</ele><time>2026-04-08T17:06:30Z</time></trkpt><trkpt lat="44.81351951115036" lon="4.7981357243150855"><ele>100.80000000000001</ele><time>2026-04-08T17:06:32Z</time></trkpt><trkpt lat="44.81348441508824" lon="4.798259504099589"><ele>99.0</ele><time>2026-04-08T17:06:34Z</time></trkpt><trkpt lat="44.813435834874994" lon="4.798345030116026"><ele>98.66666666666667</ele><time>2026-04-08T17:06:36Z</time></trkpt><trkpt lat="44.81340457476138" lon="4.798429913451921"><ele>98.33333333333334</ele><time>2026-04-08T17:06:39Z</time></trkpt><trkpt lat="44.81345315355719" lon="4.798490746479801"><ele>98.0</ele><time>2026-04-08T17:06:41Z</time></trkpt><trkpt lat="44.813535947322336" lon="4.798521146900656"><ele>97.66666666666667</ele><time>2026-04-08T17:06:43Z</time></trkpt><trkpt lat="44.813609275774674" lon="4.798558600850032"><ele>97.33333333333334</ele><time>2026-04-08T17:06:45Z</time></trkpt><trkpt lat="44.81368663913889" lon="4.798585721381448"><ele>97.0</ele><time>2026-04-08T17:06:47Z</time></trkpt><trkpt lat="44.81375052399405" lon="4.798638016323085"><ele>97.0</ele><time>2026-04-08T17:06:49Z</time></trkpt><trkpt lat="44.813822728622654" lon="4.798663975574036"><ele>97.0</ele><time>2026-04-08T17:06:51Z</time></trkpt><trkpt lat="44.813888092623024" lon="4.798667224866447"><ele>97.0</ele><time>2026-04-08T17:06:53Z</time></trkpt><trkpt lat="44.81395812641735" lon="4.798683560506878"><ele>97.0</ele><time>2026-04-08T17:06:55Z</time></trkpt><trkpt lat="44.814028477613334" lon="4.798705451738535"><ele>97.0</ele><time>2026-04-08T17:06:57Z</time></trkpt><trkpt lat="44.81409961089429" lon="4.798707166240273"><ele>97.0</ele><time>2026-04-08T17:06:59Z</time></trkpt><trkpt lat="44.81417181652576" lon="4.798739567747412"><ele>97.0</ele><time>2026-04-08T17:07:01Z</time></trkpt><trkpt lat="44.81424952904863" lon="4.798765095776222"><ele>97.00000000000001</ele><time>2026-04-08T17:07:03Z</time></trkpt><trkpt lat="44.81431595768962" lon="4.798781438967821"><ele>97.0</ele><time>2026-04-08T17:07:05Z</time></trkpt><trkpt lat="44.814385624987125" lon="4.798789630364323"><ele>97.0</ele><time>2026-04-08T17:07:07Z</time></trkpt><trkpt lat="44.814458503132094" lon="4.798805961069938"><ele>97.0</ele><time>2026-04-08T17:07:09Z</time></trkpt><trkpt lat="44.814537029571134" lon="4.79884435227956"><ele>97.00000000000001</ele><time>2026-04-08T17:07:11Z</time></trkpt><trkpt lat="44.81462612879194" lon="4.7988558613276515"><ele>97.0</ele><time>2026-04-08T17:07:13Z</time></trkpt><trkpt lat="44.814717311886994" lon="4.798880281719448"><ele>97.33333333333334</ele><time>2026-04-08T17:07:15Z</time></trkpt><trkpt lat="44.81479491807365" lon="4.798899800305858"><ele>97.66666666666667</ele><time>2026-04-08T17:07:17Z</time></trkpt><trkpt lat="44.814870204342874" lon="4.798916468798559"><ele>98.0</ele><time>2026-04-08T17:07:19Z</time></trkpt><trkpt lat="44.81493318377582" lon="4.798940287351392"><ele>98.33333333333334</ele><time>2026-04-08T17:07:21Z</time></trkpt><trkpt lat="44.815007553735605" lon="4.798959348268879"><ele>98.66666666666667</ele><time>2026-04-08T17:07:23Z</time></trkpt><trkpt lat="44.81509182722103" lon="4.798963035454288"><ele>99.0</ele><time>2026-04-08T17:07:25Z</time></trkpt><trkpt lat="44.815166655562635" lon="4.798954342632446"><ele>98.16666666666667</ele><time>2026-04-08T17:07:27Z</time></trkpt><trkpt lat="44.8152305995526" lon="4.798959432916386"><ele>97.33333333333333</ele><time>2026-04-08T17:07:29Z</time></trkpt><trkpt lat="44.81530908169977" lon="4.798945087116287"><ele>96.5</ele><time>2026-04-08T17:07:31Z</time></trkpt><trkpt lat="44.815393027160965" lon="4.798936013421732"><ele>95.66666666666666</ele><time>2026-04-08T17:07:33Z</time></trkpt><trkpt lat="44.815462941703416" lon="4.798925026663677"><ele>94.83333333333333</ele><time>2026-04-08T17:07:35Z</time></trkpt><trkpt lat="44.81548131660656" lon="4.799048776787474"><ele>94.0</ele><time>2026-04-08T17:07:38Z</time></trkpt><trkpt lat="44.815413896534494" lon="4.799131982750899"><ele>94.0</ele><time>2026-04-08T17:07:41Z</time></trkpt><trkpt lat="44.815421906696514" lon="4.799258233380269"><ele>94.0</ele><time>2026-04-08T17:07:44Z</time></trkpt><trkpt lat="44.81545882724558" lon="4.799356494548192"><ele>94.0</ele><time>2026-04-08T17:07:47Z</time></trkpt><trkpt lat="44.815504557237055" lon="4.799431048333052"><ele>94.0</ele><time>2026-04-08T17:07:51Z</time></trkpt><trkpt lat="44.81554821249105" lon="4.799503599503594"><ele>94.0</ele><time>2026-04-08T17:07:55Z</time></trkpt><trkpt lat="44.81558979104608" lon="4.799584169184448"><ele>94.0</ele><time>2026-04-08T17:07:59Z</time></trkpt><trkpt lat="44.81563347088734" lon="4.799667883735636"><ele>94.0</ele><time>2026-04-08T17:08:03Z</time></trkpt><trkpt lat="44.815683967629234" lon="4.799753133935202"><ele>94.0</ele><time>2026-04-08T17:08:06Z</time></trkpt><trkpt lat="44.8157486066238" lon="4.799848931161135"><ele>94.0</ele><time>2026-04-08T17:08:09Z</time></trkpt><trkpt lat="44.81580524265825" lon="4.799924037768386"><ele>94.0</ele><time>2026-04-08T17:08:11Z</time></trkpt><trkpt lat="44.81585574925381" lon="4.7999860510040016"><ele>94.0</ele><time>2026-04-08T17:08:13Z</time></trkpt><trkpt lat="44.815903349897674" lon="4.800049918717635"><ele>94.0</ele><time>2026-04-08T17:08:15Z</time></trkpt><trkpt lat="44.8159468677987" lon="4.800121152129576"><ele>94.0</ele><time>2026-04-08T17:08:17Z</time></trkpt><trkpt lat="44.81599757391112" lon="4.800223372370965"><ele>94.0</ele><time>2026-04-08T17:08:20Z</time></trkpt><trkpt lat="44.81604497289354" lon="4.800300856419281"><ele>94.0</ele><time>2026-04-08T17:08:22Z</time></trkpt><trkpt lat="44.81609535906074" lon="4.800377449135414"><ele>94.0</ele><time>2026-04-08T17:08:24Z</time></trkpt><trkpt lat="44.81614773056913" lon="4.800461959823389"><ele>94.0</ele><time>2026-04-08T17:08:26Z</time></trkpt><trkpt lat="44.816193745647915" lon="4.800544967871565"><ele>94.0</ele><time>2026-04-08T17:08:28Z</time></trkpt><trkpt lat="44.816242368099935" lon="4.800627231980227"><ele>94.0</ele><time>2026-04-08T17:08:30Z</time></trkpt><trkpt lat="44.81628250227238" lon="4.800702453189772"><ele>94.0</ele><time>2026-04-08T17:08:32Z</time></trkpt><trkpt lat="44.81632627905764" lon="4.800790505413782"><ele>94.0</ele><time>2026-04-08T17:08:34Z</time></trkpt><trkpt lat="44.816387588755425" lon="4.800903911376175"><ele>94.0</ele><time>2026-04-08T17:08:37Z</time></trkpt><trkpt lat="44.816434609768" lon="4.800988833515382"><ele>94.0</ele><time>2026-04-08T17:08:39Z</time></trkpt><trkpt lat="44.81648732784774" lon="4.8010669325896735"><ele>94.0</ele><time>2026-04-08T17:08:41Z</time></trkpt><trkpt lat="44.81653586017958" lon="4.8011279690478315"><ele>94.0</ele><time>2026-04-08T17:08:43Z</time></trkpt><trkpt lat="44.816579932537024" lon="4.801199992383506"><ele>94.0</ele><time>2026-04-08T17:08:45Z</time></trkpt><trkpt lat="44.81663196955139" lon="4.8012664418683615"><ele>94.0</ele><time>2026-04-08T17:08:47Z</time></trkpt><trkpt lat="44.81668060247655" lon="4.801323277280544"><ele>94.0</ele><time>2026-04-08T17:08:49Z</time></trkpt><trkpt lat="44.81671859767221" lon="4.801397363978493"><ele>94.0</ele><time>2026-04-08T17:08:51Z</time></trkpt><trkpt lat="44.81679911385927" lon="4.801437348101293"><ele>94.0</ele><time>2026-04-08T17:08:54Z</time></trkpt><trkpt lat="44.81686401462021" lon="4.801434399945723"><ele>94.0</ele><time>2026-04-08T17:08:56Z</time></trkpt><trkpt lat="44.817039511725255" lon="4.801437700169342"><ele>94.2</ele><time>2026-04-08T17:09:01Z</time></trkpt><trkpt lat="44.81711072330703" lon="4.8014357896786635"><ele>94.4</ele><time>2026-04-08T17:09:03Z</time></trkpt><trkpt lat="44.81726371028375" lon="4.801435637500182"><ele>94.6</ele><time>2026-04-08T17:09:07Z</time></trkpt><trkpt lat="44.81734476763823" lon="4.801420818222717"><ele>94.8</ele><time>2026-04-08T17:09:09Z</time></trkpt><trkpt lat="44.81741120013093" lon="4.801409773446247"><ele>95.0</ele><time>2026-04-08T17:09:11Z</time></trkpt><trkpt lat="44.81757264946181" lon="4.801403058567443"><ele>95.0</ele><time>2026-04-08T17:09:15Z</time></trkpt><trkpt lat="44.81764852506972" lon="4.80139067455934"><ele>95.0</ele><time>2026-04-08T17:09:17Z</time></trkpt><trkpt lat="44.81788941360741" lon="4.801378341980274"><ele>95.0</ele><time>2026-04-08T17:09:23Z</time></trkpt><trkpt lat="44.817973422225826" lon="4.801374782365249"><ele>95.0</ele><time>2026-04-08T17:09:25Z</time></trkpt><trkpt lat="44.81806443176912" lon="4.801361954769719"><ele>94.8</ele><time>2026-04-08T17:09:27Z</time></trkpt><trkpt lat="44.81815936925971" lon="4.801347399099792"><ele>94.6</ele><time>2026-04-08T17:09:29Z</time></trkpt><trkpt lat="44.818249282121045" lon="4.801333773966361"><ele>94.4</ele><time>2026-04-08T17:09:31Z</time></trkpt><trkpt lat="44.81834386347741" lon="4.801327900321056"><ele>94.2</ele><time>2026-04-08T17:09:33Z</time></trkpt><trkpt lat="44.81843801049839" lon="4.801315563319112"><ele>94.0</ele><time>2026-04-08T17:09:35Z</time></trkpt><trkpt lat="44.81852552241753" lon="4.801298092359206"><ele>94.33333333333333</ele><time>2026-04-08T17:09:37Z</time></trkpt><trkpt lat="44.81860938874945" lon="4.801286955499512"><ele>94.66666666666666</ele><time>2026-04-08T17:09:39Z</time></trkpt><trkpt lat="44.81869874633033" lon="4.801271217109541"><ele>95.0</ele><time>2026-04-08T17:09:41Z</time></trkpt><trkpt lat="44.81878692000367" lon="4.801256474922546"><ele>95.33333333333333</ele><time>2026-04-08T17:09:43Z</time></trkpt><trkpt lat="44.81886860228212" lon="4.8012461503770325"><ele>95.66666666666667</ele><time>2026-04-08T17:09:45Z</time></trkpt><trkpt lat="44.81895876616458" lon="4.801241936855032"><ele>96.0</ele><time>2026-04-08T17:09:47Z</time></trkpt><trkpt lat="44.81904197084054" lon="4.801219876046096"><ele>96.0</ele><time>2026-04-08T17:09:49Z</time></trkpt><trkpt lat="44.8191292438227" lon="4.801202745151751"><ele>96.0</ele><time>2026-04-08T17:09:51Z</time></trkpt><trkpt lat="44.81921946850032" lon="4.8011898365197405"><ele>96.0</ele><time>2026-04-08T17:09:53Z</time></trkpt><trkpt lat="44.819302875524336" lon="4.801179056639945"><ele>96.0</ele><time>2026-04-08T17:09:55Z</time></trkpt><trkpt lat="44.819387668517756" lon="4.801162648635967"><ele>96.0</ele><time>2026-04-08T17:09:57Z</time></trkpt><trkpt lat="44.81947263197838" lon="4.801147315260197"><ele>96.0</ele><time>2026-04-08T17:09:59Z</time></trkpt><trkpt lat="44.819556772457176" lon="4.801138722190288"><ele>95.83333333333333</ele><time>2026-04-08T17:10:01Z</time></trkpt><trkpt lat="44.819642389435074" lon="4.801127726789489"><ele>95.66666666666667</ele><time>2026-04-08T17:10:03Z</time></trkpt><trkpt lat="44.81973123198942" lon="4.801126040528321"><ele>95.5</ele><time>2026-04-08T17:10:05Z</time></trkpt><trkpt lat="44.81981267407248" lon="4.80113074397665"><ele>95.33333333333334</ele><time>2026-04-08T17:10:07Z</time></trkpt><trkpt lat="44.81990077282352" lon="4.801117794808111"><ele>95.16666666666667</ele><time>2026-04-08T17:10:09Z</time></trkpt><trkpt lat="44.819979883717664" lon="4.80111008547491"><ele>95.0</ele><time>2026-04-08T17:10:11Z</time></trkpt><trkpt lat="44.82006194061981" lon="4.801098384126301"><ele>95.0</ele><time>2026-04-08T17:10:13Z</time></trkpt><trkpt lat="44.82014454663802" lon="4.801089706072532"><ele>95.0</ele><time>2026-04-08T17:10:15Z</time></trkpt><trkpt lat="44.820222603200214" lon="4.801082569843081"><ele>95.0</ele><time>2026-04-08T17:10:17Z</time></trkpt><trkpt lat="44.82029574474415" lon="4.801058614771211"><ele>95.0</ele><time>2026-04-08T17:10:19Z</time></trkpt><trkpt lat="44.820377294921826" lon="4.8010464794594006"><ele>95.0</ele><time>2026-04-08T17:10:21Z</time></trkpt><trkpt lat="44.82046383994818" lon="4.801036804936358"><ele>95.0</ele><time>2026-04-08T17:10:23Z</time></trkpt><trkpt lat="44.82054051710676" lon="4.801019233799972"><ele>94.83333333333334</ele><time>2026-04-08T17:10:25Z</time></trkpt><trkpt lat="44.820625719147934" lon="4.8009964338778754"><ele>94.66666666666667</ele><time>2026-04-08T17:10:27Z</time></trkpt><trkpt lat="44.82069693684287" lon="4.800985516574908"><ele>94.5</ele><time>2026-04-08T17:10:29Z</time></trkpt><trkpt lat="44.82077866611813" lon="4.800963133925041"><ele>94.33333333333333</ele><time>2026-04-08T17:10:31Z</time></trkpt><trkpt lat="44.82085863066618" lon="4.800944689708897"><ele>94.16666666666666</ele><time>2026-04-08T17:10:33Z</time></trkpt><trkpt lat="44.82095555041963" lon="4.800934041122929"><ele>94.0</ele><time>2026-04-08T17:10:35Z</time></trkpt><trkpt lat="44.82104459357195" lon="4.80093787734823"><ele>94.0</ele><time>2026-04-08T17:10:37Z</time></trkpt><trkpt lat="44.821123960685135" lon="4.800910903595836"><ele>94.0</ele><time>2026-04-08T17:10:39Z</time></trkpt><trkpt lat="44.8211979974001" lon="4.800884239810528"><ele>94.0</ele><time>2026-04-08T17:10:41Z</time></trkpt><trkpt lat="44.82126296233014" lon="4.8008492665169245"><ele>94.0</ele><time>2026-04-08T17:10:43Z</time></trkpt><trkpt lat="44.821326994058786" lon="4.800811705680561"><ele>94.0</ele><time>2026-04-08T17:10:45Z</time></trkpt><trkpt lat="44.821395892070065" lon="4.80076828808092"><ele>94.0</ele><time>2026-04-08T17:10:47Z</time></trkpt><trkpt lat="44.8214657451045" lon="4.800733651707732"><ele>94.0</ele><time>2026-04-08T17:10:49Z</time></trkpt><trkpt lat="44.82154251556438" lon="4.800694706132308"><ele>94.0</ele><time>2026-04-08T17:10:51Z</time></trkpt><trkpt lat="44.82161273757212" lon="4.800649959315818"><ele>94.0</ele><time>2026-04-08T17:10:53Z</time></trkpt><trkpt lat="44.821678822277306" lon="4.800609754756057"><ele>94.0</ele><time>2026-04-08T17:10:55Z</time></trkpt><trkpt lat="44.82174270859458" lon="4.800566528113396"><ele>94.0</ele><time>2026-04-08T17:10:57Z</time></trkpt><trkpt lat="44.821807709345" lon="4.800516491339121"><ele>94.0</ele><time>2026-04-08T17:10:59Z</time></trkpt><trkpt lat="44.82186324725242" lon="4.800457331738657"><ele>94.0</ele><time>2026-04-08T17:11:01Z</time></trkpt><trkpt lat="44.8219186172131" lon="4.8003698227545195"><ele>94.0</ele><time>2026-04-08T17:11:03Z</time></trkpt><trkpt lat="44.82196327316285" lon="4.800281847964058"><ele>94.42857142857143</ele><time>2026-04-08T17:11:05Z</time></trkpt><trkpt lat="44.82200344122951" lon="4.800189136229024"><ele>94.85714285714286</ele><time>2026-04-08T17:11:07Z</time></trkpt><trkpt lat="44.82204233029214" lon="4.800102368988738"><ele>95.28571428571428</ele><time>2026-04-08T17:11:09Z</time></trkpt><trkpt lat="44.82208861384525" lon="4.800021905653482"><ele>95.71428571428572</ele><time>2026-04-08T17:11:11Z</time></trkpt><trkpt lat="44.82214831864387" lon="4.799955455922041"><ele>96.14285714285715</ele><time>2026-04-08T17:11:13Z</time></trkpt><trkpt lat="44.82220918691082" lon="4.799909009266172"><ele>96.57142857142857</ele><time>2026-04-08T17:11:15Z</time></trkpt><trkpt lat="44.82227875017983" lon="4.799862339508549"><ele>97.0</ele><time>2026-04-08T17:11:17Z</time></trkpt><trkpt lat="44.82235102957063" lon="4.799815071156933"><ele>97.16666666666667</ele><time>2026-04-08T17:11:19Z</time></trkpt><trkpt lat="44.82242324654488" lon="4.799766040472308"><ele>97.33333333333334</ele><time>2026-04-08T17:11:21Z</time></trkpt><trkpt lat="44.822494219324405" lon="4.799726247610022"><ele>97.5</ele><time>2026-04-08T17:11:23Z</time></trkpt><trkpt lat="44.82257246828773" lon="4.799682443258938"><ele>97.66666666666666</ele><time>2026-04-08T17:11:25Z</time></trkpt><trkpt lat="44.82264486658485" lon="4.7996472933690235"><ele>97.83333333333333</ele><time>2026-04-08T17:11:27Z</time></trkpt><trkpt lat="44.822726826621455" lon="4.79961246761465"><ele>98.0</ele><time>2026-04-08T17:11:29Z</time></trkpt><trkpt lat="44.822813622505656" lon="4.7995906508645"><ele>97.99999999999999</ele><time>2026-04-08T17:11:31Z</time></trkpt><trkpt lat="44.82288877936738" lon="4.799536746698602"><ele>98.0</ele><time>2026-04-08T17:11:33Z</time></trkpt><trkpt lat="44.82295869880922" lon="4.7994757296825314"><ele>98.0</ele><time>2026-04-08T17:11:35Z</time></trkpt><trkpt lat="44.82302233525058" lon="4.7994073463538465"><ele>98.0</ele><time>2026-04-08T17:11:37Z</time></trkpt><trkpt lat="44.823077483040535" lon="4.799350579170332"><ele>97.99999999999999</ele><time>2026-04-08T17:11:39Z</time></trkpt><trkpt lat="44.82313887795888" lon="4.799302147152745"><ele>98.0</ele><time>2026-04-08T17:11:41Z</time></trkpt><trkpt lat="44.82321543622231" lon="4.799240951681459"><ele>97.83333333333333</ele><time>2026-04-08T17:11:43Z</time></trkpt><trkpt lat="44.82326556863325" lon="4.799163953530665"><ele>97.66666666666666</ele><time>2026-04-08T17:11:45Z</time></trkpt><trkpt lat="44.82332314083512" lon="4.7990849421558694"><ele>97.5</ele><time>2026-04-08T17:11:47Z</time></trkpt><trkpt lat="44.823374505638235" lon="4.798998044847088"><ele>97.33333333333334</ele><time>2026-04-08T17:11:49Z</time></trkpt><trkpt lat="44.823418675390606" lon="4.798920598036741"><ele>97.16666666666667</ele><time>2026-04-08T17:11:51Z</time></trkpt><trkpt lat="44.82346893650185" lon="4.798815647819182"><ele>97.0</ele><time>2026-04-08T17:11:54Z</time></trkpt><trkpt lat="44.82351396073869" lon="4.798730819721426"><ele>97.16666666666667</ele><time>2026-04-08T17:11:57Z</time></trkpt><trkpt lat="44.82355605638156" lon="4.798637679234173"><ele>97.33333333333334</ele><time>2026-04-08T17:12:00Z</time></trkpt><trkpt lat="44.82360156293416" lon="4.798546640584673"><ele>97.5</ele><time>2026-04-08T17:12:03Z</time></trkpt><trkpt lat="44.823656267191915" lon="4.798445294740024"><ele>97.66666666666666</ele><time>2026-04-08T17:12:06Z</time></trkpt><trkpt lat="44.82369573057072" lon="4.798346908283303"><ele>97.83333333333333</ele><time>2026-04-08T17:12:09Z</time></trkpt><trkpt lat="44.82372071134038" lon="4.798248999939084"><ele>98.0</ele><time>2026-04-08T17:12:12Z</time></trkpt><trkpt lat="44.82375718849196" lon="4.798174771139562"><ele>97.99999999999999</ele><time>2026-04-08T17:12:15Z</time></trkpt><trkpt lat="44.8237762682309" lon="4.798074850416966"><ele>98.0</ele><time>2026-04-08T17:12:19Z</time></trkpt><trkpt lat="44.82384580109994" lon="4.798091394871025"><ele>98.0</ele><time>2026-04-08T17:12:23Z</time></trkpt><trkpt lat="44.82389518419143" lon="4.79819951899923"><ele>98.0</ele><time>2026-04-08T17:12:26Z</time></trkpt><trkpt lat="44.823959915457195" lon="4.79830220079238"><ele>97.99999999999999</ele><time>2026-04-08T17:12:29Z</time></trkpt><trkpt lat="44.8239991424359" lon="4.798379688981782"><ele>98.0</ele><time>2026-04-08T17:12:31Z</time></trkpt><trkpt lat="44.82404365432985" lon="4.798446950750848"><ele>97.57142857142857</ele><time>2026-04-08T17:12:33Z</time></trkpt><trkpt lat="44.82408495940663" lon="4.798517942106515"><ele>97.14285714285714</ele><time>2026-04-08T17:12:35Z</time></trkpt><trkpt lat="44.824123123580684" lon="4.7985934588127535"><ele>96.71428571428572</ele><time>2026-04-08T17:12:37Z</time></trkpt><trkpt lat="44.82416066304574" lon="4.798668657491668"><ele>96.28571428571428</ele><time>2026-04-08T17:12:39Z</time></trkpt><trkpt lat="44.82420064740932" lon="4.798742770226956"><ele>95.85714285714286</ele><time>2026-04-08T17:12:41Z</time></trkpt><trkpt lat="44.82424113606655" lon="4.798820829108559"><ele>95.42857142857143</ele><time>2026-04-08T17:12:43Z</time></trkpt><trkpt lat="44.824280707089436" lon="4.798890504650241"><ele>95.0</ele><time>2026-04-08T17:12:45Z</time></trkpt><trkpt lat="44.824314249929614" lon="4.798972204449786"><ele>95.0</ele><time>2026-04-08T17:12:47Z</time></trkpt><trkpt lat="44.82435410897451" lon="4.799052437590243"><ele>95.0</ele><time>2026-04-08T17:12:49Z</time></trkpt><trkpt lat="44.82439555138815" lon="4.7991263526955"><ele>95.0</ele><time>2026-04-08T17:12:51Z</time></trkpt><trkpt lat="44.8244351345894" lon="4.799213735515694"><ele>95.0</ele><time>2026-04-08T17:12:53Z</time></trkpt><trkpt lat="44.82447620775199" lon="4.799295010901417"><ele>95.0</ele><time>2026-04-08T17:12:55Z</time></trkpt><trkpt lat="44.82451612253579" lon="4.799377185395736"><ele>95.0</ele><time>2026-04-08T17:12:57Z</time></trkpt><trkpt lat="44.82456041395391" lon="4.799466120216127"><ele>95.0</ele><time>2026-04-08T17:12:59Z</time></trkpt><trkpt lat="44.82460058818197" lon="4.7995420884410995"><ele>95.14285714285714</ele><time>2026-04-08T17:13:01Z</time></trkpt><trkpt lat="44.82463992668857" lon="4.7996197511000585"><ele>95.28571428571429</ele><time>2026-04-08T17:13:03Z</time></trkpt><trkpt lat="44.82468325869159" lon="4.7996965048066835"><ele>95.42857142857142</ele><time>2026-04-08T17:13:05Z</time></trkpt><trkpt lat="44.824729028602675" lon="4.799763344959381"><ele>95.57142857142857</ele><time>2026-04-08T17:13:07Z</time></trkpt><trkpt lat="44.82477075884275" lon="4.799838947148599"><ele>95.71428571428571</ele><time>2026-04-08T17:13:09Z</time></trkpt><trkpt lat="44.82478996106435" lon="4.79992955539879"><ele>95.85714285714285</ele><time>2026-04-08T17:13:12Z</time></trkpt><trkpt lat="44.82470857563485" lon="4.799978397418835"><ele>96.0</ele><time>2026-04-08T17:13:14Z</time></trkpt><trkpt lat="44.82460588386505" lon="4.800038159754148"><ele>96.0</ele><time>2026-04-08T17:13:16Z</time></trkpt><trkpt lat="44.82451334082675" lon="4.800125559119929"><ele>96.0</ele><time>2026-04-08T17:13:18Z</time></trkpt><trkpt lat="44.824431003598065" lon="4.800191526936286"><ele>96.0</ele><time>2026-04-08T17:13:20Z</time></trkpt><trkpt lat="44.82435155917055" lon="4.80026512080627"><ele>96.0</ele><time>2026-04-08T17:13:22Z</time></trkpt><trkpt lat="44.82426001658512" lon="4.800327976657884"><ele>96.0</ele><time>2026-04-08T17:13:24Z</time></trkpt><trkpt lat="44.82416011728037" lon="4.80039857478365"><ele>96.33333333333333</ele><time>2026-04-08T17:13:26Z</time></trkpt><trkpt lat="44.82407667898317" lon="4.80045816405128"><ele>96.66666666666666</ele><time>2026-04-08T17:13:28Z</time></trkpt><trkpt lat="44.823983044180125" lon="4.80053327480067"><ele>97.0</ele><time>2026-04-08T17:13:30Z</time></trkpt><trkpt lat="44.82392321293772" lon="4.800563463838746"><ele>97.33333333333333</ele><time>2026-04-08T17:13:31Z</time></trkpt><trkpt lat="44.823861887606306" lon="4.800615459495231"><ele>97.66666666666666</ele><time>2026-04-08T17:13:33Z</time></trkpt><trkpt lat="44.823796100627355" lon="4.800662366784118"><ele>98.0</ele><time>2026-04-08T17:13:35Z</time></trkpt><trkpt lat="44.82373083649379" lon="4.8007047264096805"><ele>97.99999999999999</ele><time>2026-04-08T17:13:37Z</time></trkpt><trkpt lat="44.82366829833232" lon="4.800740949111564"><ele>98.0</ele><time>2026-04-08T17:13:39Z</time></trkpt><trkpt lat="44.823594956116935" lon="4.800781955054287"><ele>98.0</ele><time>2026-04-08T17:13:41Z</time></trkpt><trkpt lat="44.823502903592384" lon="4.8008089619741625"><ele>98.0</ele><time>2026-04-08T17:13:43Z</time></trkpt><trkpt lat="44.823427589373416" lon="4.80082502312154"><ele>97.99999999999999</ele><time>2026-04-08T17:13:45Z</time></trkpt><trkpt lat="44.823385944315255" lon="4.800903173793077"><ele>98.0</ele><time>2026-04-08T17:13:49Z</time></trkpt><trkpt lat="44.823459368368596" lon="4.800913516040411"><ele>98.0</ele><time>2026-04-08T17:13:53Z</time></trkpt><trkpt lat="44.823539019233756" lon="4.800895005837951"><ele>98.0</ele><time>2026-04-08T17:13:55.999Z</time></trkpt><trkpt lat="44.82360054299066" lon="4.80086985751324"><ele>98.0</ele><time>2026-04-08T17:13:57.999Z</time></trkpt><trkpt lat="44.82369387115257" lon="4.800844353334419"><ele>98.0</ele><time>2026-04-08T17:14:00.999Z</time></trkpt><trkpt lat="44.82375619393838" lon="4.8008280060909545"><ele>98.0</ele><time>2026-04-08T17:14:03Z</time></trkpt><trkpt lat="44.82382164621108" lon="4.800816143425997"><ele>98.0</ele><time>2026-04-08T17:14:04.999Z</time></trkpt><trkpt lat="44.82389737615421" lon="4.800822684980568"><ele>98.0</ele><time>2026-04-08T17:14:06.999Z</time></trkpt><trkpt lat="44.8239804166951" lon="4.800830731172398"><ele>97.99999999999999</ele><time>2026-04-08T17:14:08.999Z</time></trkpt><trkpt lat="44.82406607209554" lon="4.8008709397678455"><ele>98.0</ele><time>2026-04-08T17:14:10.999Z</time></trkpt><trkpt lat="44.82414147375559" lon="4.80092688964913"><ele>98.0</ele><time>2026-04-08T17:14:12.999Z</time></trkpt><trkpt lat="44.82422107107439" lon="4.80100947439614"><ele>98.0</ele><time>2026-04-08T17:14:14.999Z</time></trkpt><trkpt lat="44.82429118355585" lon="4.801080033451277"><ele>97.99999999999999</ele><time>2026-04-08T17:14:16.999Z</time></trkpt><trkpt lat="44.824356316268364" lon="4.801160900215368"><ele>98.0</ele><time>2026-04-08T17:14:18.999Z</time></trkpt><trkpt lat="44.82442125687991" lon="4.801238998720206"><ele>97.83333333333333</ele><time>2026-04-08T17:14:20.999Z</time></trkpt><trkpt lat="44.82450191100416" lon="4.801317149615337"><ele>97.66666666666666</ele><time>2026-04-08T17:14:22.999Z</time></trkpt><trkpt lat="44.82456464234995" lon="4.801382527356607"><ele>97.5</ele><time>2026-04-08T17:14:24.999Z</time></trkpt><trkpt lat="44.824624714279096" lon="4.801447537428872"><ele>97.33333333333334</ele><time>2026-04-08T17:14:26.999Z</time></trkpt><trkpt lat="44.8246930769111" lon="4.8015270337226985"><ele>97.16666666666667</ele><time>2026-04-08T17:14:28.999Z</time></trkpt><trkpt lat="44.824752902403446" lon="4.801601428562339"><ele>97.0</ele><time>2026-04-08T17:14:30.999Z</time></trkpt><trkpt lat="44.82482305771988" lon="4.801665780319084"><ele>97.00000000000001</ele><time>2026-04-08T17:14:32.999Z</time></trkpt><trkpt lat="44.824891418504194" lon="4.801725972735048"><ele>97.0</ele><time>2026-04-08T17:14:34.999Z</time></trkpt><trkpt lat="44.82495446926204" lon="4.801799551004993"><ele>97.0</ele><time>2026-04-08T17:14:36.999Z</time></trkpt><trkpt lat="44.82500507386665" lon="4.801875036713922"><ele>97.0</ele><time>2026-04-08T17:14:38.999Z</time></trkpt><trkpt lat="44.825061025513904" lon="4.80194980040531"><ele>97.00000000000001</ele><time>2026-04-08T17:14:40.999Z</time></trkpt><trkpt lat="44.82512347487879" lon="4.802003516862093"><ele>97.0</ele><time>2026-04-08T17:14:42.999Z</time></trkpt><trkpt lat="44.825178804194415" lon="4.802085676819311"><ele>97.16666666666667</ele><time>2026-04-08T17:14:44.999Z</time></trkpt><trkpt lat="44.82523280785071" lon="4.8021632181118"><ele>97.33333333333334</ele><time>2026-04-08T17:14:46.999Z</time></trkpt><trkpt lat="44.8252898096983" lon="4.802233271170445"><ele>97.5</ele><time>2026-04-08T17:14:48.999Z</time></trkpt><trkpt lat="44.82533677658902" lon="4.8023298674208155"><ele>97.66666666666666</ele><time>2026-04-08T17:14:50.999Z</time></trkpt><trkpt lat="44.82537991430698" lon="4.802429707039351"><ele>97.83333333333333</ele><time>2026-04-08T17:14:52.999Z</time></trkpt><trkpt lat="44.82540584603761" lon="4.802523549349591"><ele>98.0</ele><time>2026-04-08T17:14:54.999Z</time></trkpt><trkpt lat="44.82545188580087" lon="4.802607172513141"><ele>98.16666666666666</ele><time>2026-04-08T17:14:56.999Z</time></trkpt><trkpt lat="44.825485144380465" lon="4.8026955569188825"><ele>98.33333333333333</ele><time>2026-04-08T17:14:58.999Z</time></trkpt><trkpt lat="44.82552161352035" lon="4.80278485052161"><ele>98.5</ele><time>2026-04-08T17:15:00.999Z</time></trkpt><trkpt lat="44.82556762973676" lon="4.802870668850974"><ele>98.66666666666666</ele><time>2026-04-08T17:15:02.999Z</time></trkpt><trkpt lat="44.82560495784595" lon="4.802976594073616"><ele>98.83333333333333</ele><time>2026-04-08T17:15:04.999Z</time></trkpt><trkpt lat="44.825628838513985" lon="4.803066730004768"><ele>99.0</ele><time>2026-04-08T17:15:06.999Z</time></trkpt><trkpt lat="44.82570377350592" lon="4.803092993170848"><ele>99.0</ele><time>2026-04-08T17:15:09.999Z</time></trkpt><trkpt lat="44.82577099541523" lon="4.803039359346192"><ele>99.0</ele><time>2026-04-08T17:15:11.999Z</time></trkpt><trkpt lat="44.82583194698823" lon="4.8029827124037645"><ele>99.0</ele><time>2026-04-08T17:15:13.999Z</time></trkpt><trkpt lat="44.825876227593206" lon="4.802907057951964"><ele>99.0</ele><time>2026-04-08T17:15:15.999Z</time></trkpt><trkpt lat="44.82592619938199" lon="4.802835555002273"><ele>99.0</ele><time>2026-04-08T17:15:17.999Z</time></trkpt><trkpt lat="44.82599774567589" lon="4.802792643471987"><ele>99.0</ele><time>2026-04-08T17:15:19.999Z</time></trkpt><trkpt lat="44.8260835928176" lon="4.802831468756214"><ele>99.83333333333333</ele><time>2026-04-08T17:15:22.999Z</time></trkpt><trkpt lat="44.826160869790044" lon="4.802828152900237"><ele>100.66666666666666</ele><time>2026-04-08T17:15:24.999Z</time></trkpt><trkpt lat="44.82623370225303" lon="4.802847464848082"><ele>101.5</ele><time>2026-04-08T17:15:27.999Z</time></trkpt><trkpt lat="44.826308136156264" lon="4.802933868072233"><ele>102.33333333333333</ele><time>2026-04-08T17:15:30.999Z</time></trkpt><trkpt lat="44.82636555710416" lon="4.8030149415737755"><ele>103.16666666666666</ele><time>2026-04-08T17:15:32.999Z</time></trkpt><trkpt lat="44.82641449371898" lon="4.80309647134439"><ele>104.0</ele><time>2026-04-08T17:15:34.999Z</time></trkpt><trkpt lat="44.826474595603266" lon="4.80318659225503"><ele>103.99999999999999</ele><time>2026-04-08T17:15:36.999Z</time></trkpt><trkpt lat="44.82652574584247" lon="4.803283286558856"><ele>104.0</ele><time>2026-04-08T17:15:38.999Z</time></trkpt><trkpt lat="44.826584554424464" lon="4.803376641477784"><ele>104.0</ele><time>2026-04-08T17:15:40.999Z</time></trkpt><trkpt lat="44.826653294558184" lon="4.8034651697998365"><ele>104.0</ele><time>2026-04-08T17:15:42.999Z</time></trkpt><trkpt lat="44.82672513868512" lon="4.803541853497575"><ele>103.99999999999999</ele><time>2026-04-08T17:15:44.999Z</time></trkpt><trkpt lat="44.82678823153281" lon="4.803629308892682"><ele>104.0</ele><time>2026-04-08T17:15:46.999Z</time></trkpt><trkpt lat="44.82686100469668" lon="4.8037127536452635"><ele>105.2</ele><time>2026-04-08T17:15:48.999Z</time></trkpt><trkpt lat="44.82692737522484" lon="4.803785027116184"><ele>106.4</ele><time>2026-04-08T17:15:50.999Z</time></trkpt><trkpt lat="44.8270091282339" lon="4.8038539841883745"><ele>107.6</ele><time>2026-04-08T17:15:52.999Z</time></trkpt><trkpt lat="44.82708748039277" lon="4.803927784454918"><ele>108.8</ele><time>2026-04-08T17:15:54.999Z</time></trkpt><trkpt lat="44.827162791820925" lon="4.804014567392355"><ele>110.0</ele><time>2026-04-08T17:15:56.999Z</time></trkpt><trkpt lat="44.82722520145022" lon="4.8041000768433415"><ele>109.99999999999999</ele><time>2026-04-08T17:15:58.999Z</time></trkpt><trkpt lat="44.827287700259234" lon="4.804191991648617"><ele>110.0</ele><time>2026-04-08T17:16:01Z</time></trkpt><trkpt lat="44.82736269017504" lon="4.804281328212143"><ele>110.0</ele><time>2026-04-08T17:16:03Z</time></trkpt><trkpt lat="44.8274416466973" lon="4.8043608446246555"><ele>110.0</ele><time>2026-04-08T17:16:04.999Z</time></trkpt><trkpt lat="44.82751149210629" lon="4.804429736142333"><ele>109.99999999999999</ele><time>2026-04-08T17:16:07Z</time></trkpt><trkpt lat="44.82756773607722" lon="4.804500135464614"><ele>110.0</ele><time>2026-04-08T17:16:09Z</time></trkpt><trkpt lat="44.827630062690794" lon="4.804576322780937"><ele>110.16666666666666</ele><time>2026-04-08T17:16:10.999Z</time></trkpt><trkpt lat="44.827698005951916" lon="4.80463481670723"><ele>110.33333333333333</ele><time>2026-04-08T17:16:12.999Z</time></trkpt><trkpt lat="44.82776520895922" lon="4.80470378988864"><ele>110.5</ele><time>2026-04-08T17:16:14.999Z</time></trkpt><trkpt lat="44.82784169449752" lon="4.804756985563854"><ele>110.66666666666666</ele><time>2026-04-08T17:16:16.999Z</time></trkpt><trkpt lat="44.827921643578236" lon="4.804820703569701"><ele>110.83333333333333</ele><time>2026-04-08T17:16:18.999Z</time></trkpt><trkpt lat="44.827996523789636" lon="4.8048827375826075"><ele>111.0</ele><time>2026-04-08T17:16:20.999Z</time></trkpt><trkpt lat="44.828067104704346" lon="4.804942502204402"><ele>111.0</ele><time>2026-04-08T17:16:22.999Z</time></trkpt><trkpt lat="44.828131173821575" lon="4.805013289928334"><ele>111.0</ele><time>2026-04-08T17:16:24.999Z</time></trkpt><trkpt lat="44.82820031429681" lon="4.805068861392361"><ele>111.0</ele><time>2026-04-08T17:16:26.999Z</time></trkpt><trkpt lat="44.82827647021071" lon="4.805148924714278"><ele>111.0</ele><time>2026-04-08T17:16:28.999Z</time></trkpt><trkpt lat="44.82834923675881" lon="4.805228866538307"><ele>111.0</ele><time>2026-04-08T17:16:30.999Z</time></trkpt><trkpt lat="44.828415643139536" lon="4.805291825827944"><ele>111.0</ele><time>2026-04-08T17:16:32.999Z</time></trkpt><trkpt lat="44.82848809929524" lon="4.805353897613612"><ele>110.19999999999999</ele><time>2026-04-08T17:16:34.999Z</time></trkpt><trkpt lat="44.828557194530404" lon="4.805413395508293"><ele>109.39999999999999</ele><time>2026-04-08T17:16:36.999Z</time></trkpt><trkpt lat="44.82862785800173" lon="4.805479781963523"><ele>108.6</ele><time>2026-04-08T17:16:38.999Z</time></trkpt><trkpt lat="44.828711429303915" lon="4.80555070614217"><ele>107.8</ele><time>2026-04-08T17:16:40.999Z</time></trkpt><trkpt lat="44.828804132014575" lon="4.805599656545816"><ele>107.0</ele><time>2026-04-08T17:16:42.999Z</time></trkpt><trkpt lat="44.82888366741211" lon="4.805659537137379"><ele>106.99999999999999</ele><time>2026-04-08T17:16:44.999Z</time></trkpt><trkpt lat="44.828950954799886" lon="4.805699004608421"><ele>107.0</ele><time>2026-04-08T17:16:46.999Z</time></trkpt><trkpt lat="44.829030229170094" lon="4.805746160168638"><ele>107.0</ele><time>2026-04-08T17:16:48.999Z</time></trkpt><trkpt lat="44.82910688252537" lon="4.805797790664135"><ele>107.0</ele><time>2026-04-08T17:16:50.999Z</time></trkpt><trkpt lat="44.829186403686904" lon="4.805854523635809"><ele>106.99999999999999</ele><time>2026-04-08T17:16:52.999Z</time></trkpt><trkpt lat="44.82927019729829" lon="4.805907684051642"><ele>107.0</ele><time>2026-04-08T17:16:54.999Z</time></trkpt><trkpt lat="44.82934881425319" lon="4.80596486225019"><ele>105.8</ele><time>2026-04-08T17:16:56.999Z</time></trkpt><trkpt lat="44.82942680392423" lon="4.8060276144781575"><ele>104.6</ele><time>2026-04-08T17:16:58.999Z</time></trkpt><trkpt lat="44.82950218372099" lon="4.8060982090379545"><ele>103.39999999999999</ele><time>2026-04-08T17:17:00.999Z</time></trkpt><trkpt lat="44.82958465809198" lon="4.806153257147056"><ele>102.19999999999999</ele><time>2026-04-08T17:17:02.999Z</time></trkpt><trkpt lat="44.8296631487982" lon="4.806227124684276"><ele>101.0</ele><time>2026-04-08T17:17:04.999Z</time></trkpt><trkpt lat="44.82974102910495" lon="4.806292178230811"><ele>101.0</ele><time>2026-04-08T17:17:06.999Z</time></trkpt><trkpt lat="44.829828067027734" lon="4.806362016674116"><ele>101.0</ele><time>2026-04-08T17:17:08.999Z</time></trkpt><trkpt lat="44.829909240266865" lon="4.806423012141551"><ele>101.0</ele><time>2026-04-08T17:17:10.999Z</time></trkpt><trkpt lat="44.82998938723677" lon="4.806489007034886"><ele>101.0</ele><time>2026-04-08T17:17:12.999Z</time></trkpt><trkpt lat="44.830054810736385" lon="4.806557515967327"><ele>101.0</ele><time>2026-04-08T17:17:14.999Z</time></trkpt><trkpt lat="44.830129276797" lon="4.806620868984487"><ele>100.49999999999999</ele><time>2026-04-08T17:17:16.999Z</time></trkpt><trkpt lat="44.83019953049735" lon="4.806691671262717"><ele>100.0</ele><time>2026-04-08T17:17:18.999Z</time></trkpt><trkpt lat="44.83027516185367" lon="4.80674485017637"><ele>99.5</ele><time>2026-04-08T17:17:20.999Z</time></trkpt><trkpt lat="44.83034873769339" lon="4.806810553344535"><ele>99.0</ele><time>2026-04-08T17:17:22.999Z</time></trkpt><trkpt lat="44.83042533799481" lon="4.806870387437733"><ele>98.49999999999999</ele><time>2026-04-08T17:17:24.999Z</time></trkpt><trkpt lat="44.83051230775797" lon="4.806939352519857"><ele>98.0</ele><time>2026-04-08T17:17:26.999Z</time></trkpt><trkpt lat="44.83059190207039" lon="4.806992968806662"><ele>97.99999999999999</ele><time>2026-04-08T17:17:28.999Z</time></trkpt><trkpt lat="44.83067068139604" lon="4.8070578046120165"><ele>98.0</ele><time>2026-04-08T17:17:30.999Z</time></trkpt><trkpt lat="44.83074348661277" lon="4.8071406818428"><ele>98.0</ele><time>2026-04-08T17:17:32.999Z</time></trkpt><trkpt lat="44.8308107423957" lon="4.807192237447592"><ele>98.0</ele><time>2026-04-08T17:17:34.999Z</time></trkpt><trkpt lat="44.83089056935579" lon="4.807260190825011"><ele>97.99999999999999</ele><time>2026-04-08T17:17:36.999Z</time></trkpt><trkpt lat="44.830959412892476" lon="4.807328261594748"><ele>98.0</ele><time>2026-04-08T17:17:38.999Z</time></trkpt><trkpt lat="44.831039302950664" lon="4.807403941702617"><ele>98.2</ele><time>2026-04-08T17:17:40.999Z</time></trkpt><trkpt lat="44.83111971642296" lon="4.8074756659037705"><ele>98.4</ele><time>2026-04-08T17:17:42.999Z</time></trkpt><trkpt lat="44.83120873593172" lon="4.80754827053184"><ele>98.60000000000001</ele><time>2026-04-08T17:17:44.999Z</time></trkpt><trkpt lat="44.83129133872627" lon="4.807623744777385"><ele>98.80000000000001</ele><time>2026-04-08T17:17:46.999Z</time></trkpt><trkpt lat="44.83136433909395" lon="4.807703193891929"><ele>99.0</ele><time>2026-04-08T17:17:48.999Z</time></trkpt><trkpt lat="44.831432513353334" lon="4.807782350075032"><ele>99.0</ele><time>2026-04-08T17:17:50.999Z</time></trkpt><trkpt lat="44.831494627076175" lon="4.807877136047773"><ele>99.0</ele><time>2026-04-08T17:17:52.999Z</time></trkpt><trkpt lat="44.8315673426932" lon="4.807964191228442"><ele>99.0</ele><time>2026-04-08T17:17:54.999Z</time></trkpt><trkpt lat="44.83162340594527" lon="4.808057695124951"><ele>99.0</ele><time>2026-04-08T17:17:56.999Z</time></trkpt><trkpt lat="44.8316800351517" lon="4.808153287160598"><ele>99.0</ele><time>2026-04-08T17:17:58.999Z</time></trkpt><trkpt lat="44.83172576409976" lon="4.80825055246337"><ele>99.0</ele><time>2026-04-08T17:18:00.999Z</time></trkpt><trkpt lat="44.83172233136031" lon="4.808355393642374"><ele>99.0</ele><time>2026-04-08T17:18:02.999Z</time></trkpt><trkpt lat="44.83163334305708" lon="4.808443053523642"><ele>99.0</ele><time>2026-04-08T17:18:04.999Z</time></trkpt><trkpt lat="44.831576581114746" lon="4.808496878843376"><ele>99.0</ele><time>2026-04-08T17:18:06Z</time></trkpt><trkpt lat="44.83151788857879" lon="4.808553179393952"><ele>99.0</ele><time>2026-04-08T17:18:07Z</time></trkpt><trkpt lat="44.83145965770525" lon="4.808610222420635"><ele>99.0</ele><time>2026-04-08T17:18:08Z</time></trkpt><trkpt lat="44.831404384140846" lon="4.808663518276479"><ele>99.0</ele><time>2026-04-08T17:18:09Z</time></trkpt><trkpt lat="44.83135060797268" lon="4.808717927867592"><ele>98.6</ele><time>2026-04-08T17:18:09.999Z</time></trkpt><trkpt lat="44.831296445453034" lon="4.808766819777524"><ele>98.2</ele><time>2026-04-08T17:18:10.999Z</time></trkpt><trkpt lat="44.83118514889974" lon="4.808856988328145"><ele>97.8</ele><time>2026-04-08T17:18:12.999Z</time></trkpt><trkpt lat="44.83109998532668" lon="4.808956799627245"><ele>97.39999999999999</ele><time>2026-04-08T17:18:15Z</time></trkpt><trkpt lat="44.83100259778268" lon="4.809020430369697"><ele>97.0</ele><time>2026-04-08T17:18:16.999Z</time></trkpt><trkpt lat="44.83090108523449" lon="4.8090412476890405"><ele>97.00000000000001</ele><time>2026-04-08T17:18:19Z</time></trkpt><trkpt lat="44.83081616318208" lon="4.809113884147404"><ele>97.0</ele><time>2026-04-08T17:18:21Z</time></trkpt><trkpt lat="44.83073461581516" lon="4.809198220837056"><ele>97.0</ele><time>2026-04-08T17:18:23Z</time></trkpt><trkpt lat="44.83065298589048" lon="4.80926018601158"><ele>97.0</ele><time>2026-04-08T17:18:25Z</time></trkpt><trkpt lat="44.830585307846405" lon="4.809324486669146"><ele>97.00000000000001</ele><time>2026-04-08T17:18:27Z</time></trkpt><trkpt lat="44.83052652540551" lon="4.809368992757243"><ele>97.0</ele><time>2026-04-08T17:18:29Z</time></trkpt><trkpt lat="44.8304624583226" lon="4.809358623167841"><ele>97.0</ele><time>2026-04-08T17:21:07.999Z</time></trkpt></trkseg></trk></gpx>